<?xml version="1.0" encoding="UTF-8" standalone="no" ?>
<gpx xmlns="http://www.topografix.com/GPX/1/1" xmlns:xsi="http://www.w3.org/2001/XMLSchema-instance" xsi:schemaLocation="http://www.topografix.com/GPX/1/1 http://www.topografix.com/GPX/1/1/gpx.xsd" version="1.1" creator="VisuGPX - https://www.visugpx.com">
  <metadata>
    <name>Planfoy - La République - Le Treyve</name>
    <desc><![CDATA[Petite sortie de remise en jambes avec peu de dénivelé et une alternance de bois et prés.]]></desc>
  </metadata>
  <trk>
    <name><![CDATA[Sortie à vélo matinale]]></name>
    <trkseg>
      <trkpt lat="45.38256" lon="4.44073">
        <ele>952.1</ele>
        <time>2015-12-20T09:11:30Z</time>
      </trkpt>
      <trkpt lat="45.38259" lon="4.44069">
        <ele>951.3</ele>
        <time>2015-12-20T09:11:53Z</time>
      </trkpt>
      <trkpt lat="45.38258" lon="4.44073">
        <ele>951.7</ele>
        <time>2015-12-20T09:13:15Z</time>
      </trkpt>
      <trkpt lat="45.38258" lon="4.44078">
        <ele>952.1</ele>
        <time>2015-12-20T09:13:18Z</time>
      </trkpt>
      <trkpt lat="45.38256" lon="4.44082">
        <ele>952.8</ele>
        <time>2015-12-20T09:13:20Z</time>
      </trkpt>
      <trkpt lat="45.38254" lon="4.44086">
        <ele>953.4</ele>
        <time>2015-12-20T09:13:22Z</time>
      </trkpt>
      <trkpt lat="45.38252" lon="4.44089">
        <ele>954.1</ele>
        <time>2015-12-20T09:13:24Z</time>
      </trkpt>
      <trkpt lat="45.38248" lon="4.44094">
        <ele>955</ele>
        <time>2015-12-20T09:13:26Z</time>
      </trkpt>
      <trkpt lat="45.38246" lon="4.44098">
        <ele>955.7</ele>
        <time>2015-12-20T09:13:28Z</time>
      </trkpt>
      <trkpt lat="45.38243" lon="4.44103">
        <ele>956.6</ele>
        <time>2015-12-20T09:13:30Z</time>
      </trkpt>
      <trkpt lat="45.3824" lon="4.44107">
        <ele>957.3</ele>
        <time>2015-12-20T09:13:32Z</time>
      </trkpt>
      <trkpt lat="45.38239" lon="4.44111">
        <ele>957.9</ele>
        <time>2015-12-20T09:13:34Z</time>
      </trkpt>
      <trkpt lat="45.38236" lon="4.44115">
        <ele>958.6</ele>
        <time>2015-12-20T09:13:37Z</time>
      </trkpt>
      <trkpt lat="45.38234" lon="4.44118">
        <ele>959.4</ele>
        <time>2015-12-20T09:13:40Z</time>
      </trkpt>
      <trkpt lat="45.38232" lon="4.44123">
        <ele>960.1</ele>
        <time>2015-12-20T09:13:42Z</time>
      </trkpt>
      <trkpt lat="45.38231" lon="4.44128">
        <ele>960.7</ele>
        <time>2015-12-20T09:13:44Z</time>
      </trkpt>
      <trkpt lat="45.3823" lon="4.44132">
        <ele>961</ele>
        <time>2015-12-20T09:13:46Z</time>
      </trkpt>
      <trkpt lat="45.38229" lon="4.44137">
        <ele>961.4</ele>
        <time>2015-12-20T09:13:49Z</time>
      </trkpt>
      <trkpt lat="45.38227" lon="4.44141">
        <ele>961.9</ele>
        <time>2015-12-20T09:13:52Z</time>
      </trkpt>
      <trkpt lat="45.38227" lon="4.44145">
        <ele>962.1</ele>
        <time>2015-12-20T09:14:01Z</time>
      </trkpt>
      <trkpt lat="45.38228" lon="4.44149">
        <ele>962.1</ele>
        <time>2015-12-20T09:14:36Z</time>
      </trkpt>
      <trkpt lat="45.38228" lon="4.44153">
        <ele>962.3</ele>
        <time>2015-12-20T09:14:39Z</time>
      </trkpt>
      <trkpt lat="45.38226" lon="4.44155">
        <ele>962.8</ele>
        <time>2015-12-20T09:14:48Z</time>
      </trkpt>
      <trkpt lat="45.38225" lon="4.4416">
        <ele>963.2</ele>
        <time>2015-12-20T09:14:51Z</time>
      </trkpt>
      <trkpt lat="45.38226" lon="4.44166">
        <ele>963.3</ele>
        <time>2015-12-20T09:15:11Z</time>
      </trkpt>
      <trkpt lat="45.38228" lon="4.44171">
        <ele>963.3</ele>
        <time>2015-12-20T09:15:13Z</time>
      </trkpt>
      <trkpt lat="45.38229" lon="4.44178">
        <ele>963.3</ele>
        <time>2015-12-20T09:15:15Z</time>
      </trkpt>
      <trkpt lat="45.3823" lon="4.44181">
        <ele>963.3</ele>
        <time>2015-12-20T09:15:16Z</time>
      </trkpt>
      <trkpt lat="45.38231" lon="4.44186">
        <ele>963.3</ele>
        <time>2015-12-20T09:15:17Z</time>
      </trkpt>
      <trkpt lat="45.38233" lon="4.4419">
        <ele>963.2</ele>
        <time>2015-12-20T09:15:18Z</time>
      </trkpt>
      <trkpt lat="45.38234" lon="4.44194">
        <ele>963.2</ele>
        <time>2015-12-20T09:15:19Z</time>
      </trkpt>
      <trkpt lat="45.38235" lon="4.44199">
        <ele>963.2</ele>
        <time>2015-12-20T09:15:20Z</time>
      </trkpt>
      <trkpt lat="45.38236" lon="4.44204">
        <ele>963.2</ele>
        <time>2015-12-20T09:15:21Z</time>
      </trkpt>
      <trkpt lat="45.38237" lon="4.44209">
        <ele>963.2</ele>
        <time>2015-12-20T09:15:22Z</time>
      </trkpt>
      <trkpt lat="45.38238" lon="4.44214">
        <ele>963.1</ele>
        <time>2015-12-20T09:15:23Z</time>
      </trkpt>
      <trkpt lat="45.38239" lon="4.44219">
        <ele>963</ele>
        <time>2015-12-20T09:15:24Z</time>
      </trkpt>
      <trkpt lat="45.3824" lon="4.44224">
        <ele>963</ele>
        <time>2015-12-20T09:15:25Z</time>
      </trkpt>
      <trkpt lat="45.3824" lon="4.44228">
        <ele>963</ele>
        <time>2015-12-20T09:15:26Z</time>
      </trkpt>
      <trkpt lat="45.3824" lon="4.44233">
        <ele>963.1</ele>
        <time>2015-12-20T09:15:27Z</time>
      </trkpt>
      <trkpt lat="45.38241" lon="4.44237">
        <ele>963.1</ele>
        <time>2015-12-20T09:15:28Z</time>
      </trkpt>
      <trkpt lat="45.38241" lon="4.44241">
        <ele>963.2</ele>
        <time>2015-12-20T09:15:29Z</time>
      </trkpt>
      <trkpt lat="45.38241" lon="4.44246">
        <ele>963.3</ele>
        <time>2015-12-20T09:15:30Z</time>
      </trkpt>
      <trkpt lat="45.38241" lon="4.4425">
        <ele>963.3</ele>
        <time>2015-12-20T09:15:31Z</time>
      </trkpt>
      <trkpt lat="45.38241" lon="4.44258">
        <ele>963.6</ele>
        <time>2015-12-20T09:15:33Z</time>
      </trkpt>
      <trkpt lat="45.3824" lon="4.44263">
        <ele>964</ele>
        <time>2015-12-20T09:15:34Z</time>
      </trkpt>
      <trkpt lat="45.38238" lon="4.44267">
        <ele>964.5</ele>
        <time>2015-12-20T09:15:35Z</time>
      </trkpt>
      <trkpt lat="45.38237" lon="4.44272">
        <ele>964.9</ele>
        <time>2015-12-20T09:15:36Z</time>
      </trkpt>
      <trkpt lat="45.38236" lon="4.44277">
        <ele>965.3</ele>
        <time>2015-12-20T09:15:37Z</time>
      </trkpt>
      <trkpt lat="45.38235" lon="4.44281">
        <ele>965.6</ele>
        <time>2015-12-20T09:15:38Z</time>
      </trkpt>
      <trkpt lat="45.38235" lon="4.44286">
        <ele>965.9</ele>
        <time>2015-12-20T09:15:39Z</time>
      </trkpt>
      <trkpt lat="45.38234" lon="4.44292">
        <ele>966.2</ele>
        <time>2015-12-20T09:15:40Z</time>
      </trkpt>
      <trkpt lat="45.38234" lon="4.44298">
        <ele>965.9</ele>
        <time>2015-12-20T09:15:41Z</time>
      </trkpt>
      <trkpt lat="45.38233" lon="4.44303">
        <ele>965.7</ele>
        <time>2015-12-20T09:15:42Z</time>
      </trkpt>
      <trkpt lat="45.38232" lon="4.44308">
        <ele>965.5</ele>
        <time>2015-12-20T09:15:43Z</time>
      </trkpt>
      <trkpt lat="45.38231" lon="4.44314">
        <ele>965.4</ele>
        <time>2015-12-20T09:15:44Z</time>
      </trkpt>
      <trkpt lat="45.38229" lon="4.44321">
        <ele>965.3</ele>
        <time>2015-12-20T09:15:45Z</time>
      </trkpt>
      <trkpt lat="45.38229" lon="4.44328">
        <ele>964.8</ele>
        <time>2015-12-20T09:15:46Z</time>
      </trkpt>
      <trkpt lat="45.38227" lon="4.44335">
        <ele>964.6</ele>
        <time>2015-12-20T09:15:47Z</time>
      </trkpt>
      <trkpt lat="45.38225" lon="4.44341">
        <ele>964.7</ele>
        <time>2015-12-20T09:15:48Z</time>
      </trkpt>
      <trkpt lat="45.38222" lon="4.44348">
        <ele>964.8</ele>
        <time>2015-12-20T09:15:49Z</time>
      </trkpt>
      <trkpt lat="45.3822" lon="4.44356">
        <ele>964.7</ele>
        <time>2015-12-20T09:15:50Z</time>
      </trkpt>
      <trkpt lat="45.38218" lon="4.44365">
        <ele>964.5</ele>
        <time>2015-12-20T09:15:51Z</time>
      </trkpt>
      <trkpt lat="45.38214" lon="4.44373">
        <ele>964.8</ele>
        <time>2015-12-20T09:15:52Z</time>
      </trkpt>
      <trkpt lat="45.38211" lon="4.44381">
        <ele>964.7</ele>
        <time>2015-12-20T09:15:53Z</time>
      </trkpt>
      <trkpt lat="45.38207" lon="4.44389">
        <ele>964.6</ele>
        <time>2015-12-20T09:15:54Z</time>
      </trkpt>
      <trkpt lat="45.38204" lon="4.44396">
        <ele>964.2</ele>
        <time>2015-12-20T09:15:55Z</time>
      </trkpt>
      <trkpt lat="45.382" lon="4.44403">
        <ele>964.1</ele>
        <time>2015-12-20T09:15:56Z</time>
      </trkpt>
      <trkpt lat="45.38196" lon="4.4441">
        <ele>964.1</ele>
        <time>2015-12-20T09:15:57Z</time>
      </trkpt>
      <trkpt lat="45.3819" lon="4.44417">
        <ele>964.5</ele>
        <time>2015-12-20T09:15:58Z</time>
      </trkpt>
      <trkpt lat="45.38187" lon="4.44425">
        <ele>964.3</ele>
        <time>2015-12-20T09:15:59Z</time>
      </trkpt>
      <trkpt lat="45.38184" lon="4.44431">
        <ele>964</ele>
        <time>2015-12-20T09:16:00Z</time>
      </trkpt>
      <trkpt lat="45.38177" lon="4.44439">
        <ele>964.4</ele>
        <time>2015-12-20T09:16:01Z</time>
      </trkpt>
      <trkpt lat="45.38172" lon="4.44445">
        <ele>964.7</ele>
        <time>2015-12-20T09:16:02Z</time>
      </trkpt>
      <trkpt lat="45.38166" lon="4.44451">
        <ele>965.1</ele>
        <time>2015-12-20T09:16:03Z</time>
      </trkpt>
      <trkpt lat="45.38161" lon="4.44457">
        <ele>965.5</ele>
        <time>2015-12-20T09:16:04Z</time>
      </trkpt>
      <trkpt lat="45.38155" lon="4.44465">
        <ele>965.4</ele>
        <time>2015-12-20T09:16:05Z</time>
      </trkpt>
      <trkpt lat="45.38149" lon="4.44471">
        <ele>965.6</ele>
        <time>2015-12-20T09:16:06Z</time>
      </trkpt>
      <trkpt lat="45.38142" lon="4.44476">
        <ele>966.2</ele>
        <time>2015-12-20T09:16:07Z</time>
      </trkpt>
      <trkpt lat="45.38137" lon="4.44483">
        <ele>966</ele>
        <time>2015-12-20T09:16:08Z</time>
      </trkpt>
      <trkpt lat="45.38133" lon="4.44489">
        <ele>965.9</ele>
        <time>2015-12-20T09:16:09Z</time>
      </trkpt>
      <trkpt lat="45.38128" lon="4.44497">
        <ele>965.8</ele>
        <time>2015-12-20T09:16:10Z</time>
      </trkpt>
      <trkpt lat="45.38123" lon="4.44505">
        <ele>965.8</ele>
        <time>2015-12-20T09:16:11Z</time>
      </trkpt>
      <trkpt lat="45.3812" lon="4.44512">
        <ele>965.9</ele>
        <time>2015-12-20T09:16:12Z</time>
      </trkpt>
      <trkpt lat="45.38117" lon="4.44519">
        <ele>965.6</ele>
        <time>2015-12-20T09:16:13Z</time>
      </trkpt>
      <trkpt lat="45.38118" lon="4.44527">
        <ele>964</ele>
        <time>2015-12-20T09:16:14Z</time>
      </trkpt>
      <trkpt lat="45.38116" lon="4.44535">
        <ele>963.3</ele>
        <time>2015-12-20T09:16:15Z</time>
      </trkpt>
      <trkpt lat="45.38114" lon="4.44544">
        <ele>962.6</ele>
        <time>2015-12-20T09:16:16Z</time>
      </trkpt>
      <trkpt lat="45.38113" lon="4.44551">
        <ele>962</ele>
        <time>2015-12-20T09:16:17Z</time>
      </trkpt>
      <trkpt lat="45.3811" lon="4.4456">
        <ele>961.5</ele>
        <time>2015-12-20T09:16:18Z</time>
      </trkpt>
      <trkpt lat="45.38108" lon="4.44569">
        <ele>960.8</ele>
        <time>2015-12-20T09:16:19Z</time>
      </trkpt>
      <trkpt lat="45.38105" lon="4.44576">
        <ele>960.8</ele>
        <time>2015-12-20T09:16:20Z</time>
      </trkpt>
      <trkpt lat="45.38103" lon="4.44582">
        <ele>960.3</ele>
        <time>2015-12-20T09:16:21Z</time>
      </trkpt>
      <trkpt lat="45.38101" lon="4.4459">
        <ele>960.1</ele>
        <time>2015-12-20T09:16:22Z</time>
      </trkpt>
      <trkpt lat="45.38097" lon="4.44598">
        <ele>960.1</ele>
        <time>2015-12-20T09:16:23Z</time>
      </trkpt>
      <trkpt lat="45.38094" lon="4.44606">
        <ele>960</ele>
        <time>2015-12-20T09:16:24Z</time>
      </trkpt>
      <trkpt lat="45.3809" lon="4.44613">
        <ele>960.1</ele>
        <time>2015-12-20T09:16:25Z</time>
      </trkpt>
      <trkpt lat="45.38087" lon="4.4462">
        <ele>960</ele>
        <time>2015-12-20T09:16:26Z</time>
      </trkpt>
      <trkpt lat="45.38085" lon="4.44629">
        <ele>959.1</ele>
        <time>2015-12-20T09:16:27Z</time>
      </trkpt>
      <trkpt lat="45.38083" lon="4.44638">
        <ele>958.2</ele>
        <time>2015-12-20T09:16:28Z</time>
      </trkpt>
      <trkpt lat="45.38079" lon="4.44643">
        <ele>958.4</ele>
        <time>2015-12-20T09:16:29Z</time>
      </trkpt>
      <trkpt lat="45.38074" lon="4.44649">
        <ele>959</ele>
        <time>2015-12-20T09:16:30Z</time>
      </trkpt>
      <trkpt lat="45.38069" lon="4.44656">
        <ele>959.1</ele>
        <time>2015-12-20T09:16:31Z</time>
      </trkpt>
      <trkpt lat="45.38061" lon="4.4467">
        <ele>959</ele>
        <time>2015-12-20T09:16:33Z</time>
      </trkpt>
      <trkpt lat="45.38056" lon="4.44679">
        <ele>958.7</ele>
        <time>2015-12-20T09:16:34Z</time>
      </trkpt>
      <trkpt lat="45.38051" lon="4.44689">
        <ele>958.3</ele>
        <time>2015-12-20T09:16:35Z</time>
      </trkpt>
      <trkpt lat="45.38045" lon="4.44697">
        <ele>958.6</ele>
        <time>2015-12-20T09:16:36Z</time>
      </trkpt>
      <trkpt lat="45.38041" lon="4.44704">
        <ele>958.2</ele>
        <time>2015-12-20T09:16:37Z</time>
      </trkpt>
      <trkpt lat="45.38036" lon="4.44712">
        <ele>958.3</ele>
        <time>2015-12-20T09:16:38Z</time>
      </trkpt>
      <trkpt lat="45.38036" lon="4.44724">
        <ele>955.6</ele>
        <time>2015-12-20T09:16:39Z</time>
      </trkpt>
      <trkpt lat="45.38031" lon="4.44732">
        <ele>955.7</ele>
        <time>2015-12-20T09:16:40Z</time>
      </trkpt>
      <trkpt lat="45.38024" lon="4.44739">
        <ele>956.7</ele>
        <time>2015-12-20T09:16:41Z</time>
      </trkpt>
      <trkpt lat="45.38018" lon="4.44746">
        <ele>957.1</ele>
        <time>2015-12-20T09:16:42Z</time>
      </trkpt>
      <trkpt lat="45.38015" lon="4.4475">
        <ele>957.5</ele>
        <time>2015-12-20T09:16:43Z</time>
      </trkpt>
      <trkpt lat="45.38009" lon="4.44753">
        <ele>958.9</ele>
        <time>2015-12-20T09:16:44Z</time>
      </trkpt>
      <trkpt lat="45.38005" lon="4.44757">
        <ele>959.5</ele>
        <time>2015-12-20T09:16:45Z</time>
      </trkpt>
      <trkpt lat="45.38" lon="4.4476">
        <ele>960.7</ele>
        <time>2015-12-20T09:16:46Z</time>
      </trkpt>
      <trkpt lat="45.37995" lon="4.44763">
        <ele>961.6</ele>
        <time>2015-12-20T09:16:47Z</time>
      </trkpt>
      <trkpt lat="45.37992" lon="4.44766">
        <ele>962.1</ele>
        <time>2015-12-20T09:16:48Z</time>
      </trkpt>
      <trkpt lat="45.37989" lon="4.44768">
        <ele>962.9</ele>
        <time>2015-12-20T09:16:49Z</time>
      </trkpt>
      <trkpt lat="45.37983" lon="4.44771">
        <ele>964.2</ele>
        <time>2015-12-20T09:16:51Z</time>
      </trkpt>
      <trkpt lat="45.3798" lon="4.44773">
        <ele>964.8</ele>
        <time>2015-12-20T09:16:52Z</time>
      </trkpt>
      <trkpt lat="45.37977" lon="4.44778">
        <ele>964.8</ele>
        <time>2015-12-20T09:16:54Z</time>
      </trkpt>
      <trkpt lat="45.37972" lon="4.44783">
        <ele>965.2</ele>
        <time>2015-12-20T09:16:55Z</time>
      </trkpt>
      <trkpt lat="45.37969" lon="4.44786">
        <ele>965.4</ele>
        <time>2015-12-20T09:16:56Z</time>
      </trkpt>
      <trkpt lat="45.37967" lon="4.4479">
        <ele>965.5</ele>
        <time>2015-12-20T09:16:57Z</time>
      </trkpt>
      <trkpt lat="45.37964" lon="4.44793">
        <ele>965.6</ele>
        <time>2015-12-20T09:16:58Z</time>
      </trkpt>
      <trkpt lat="45.37962" lon="4.44795">
        <ele>966</ele>
        <time>2015-12-20T09:16:59Z</time>
      </trkpt>
      <trkpt lat="45.37958" lon="4.44799">
        <ele>966.6</ele>
        <time>2015-12-20T09:17:01Z</time>
      </trkpt>
      <trkpt lat="45.37955" lon="4.44803">
        <ele>967</ele>
        <time>2015-12-20T09:17:03Z</time>
      </trkpt>
      <trkpt lat="45.37953" lon="4.44807">
        <ele>966.9</ele>
        <time>2015-12-20T09:17:05Z</time>
      </trkpt>
      <trkpt lat="45.37949" lon="4.44811">
        <ele>967.7</ele>
        <time>2015-12-20T09:17:07Z</time>
      </trkpt>
      <trkpt lat="45.37944" lon="4.44815">
        <ele>968.7</ele>
        <time>2015-12-20T09:17:09Z</time>
      </trkpt>
      <trkpt lat="45.37941" lon="4.44818">
        <ele>969.3</ele>
        <time>2015-12-20T09:17:11Z</time>
      </trkpt>
      <trkpt lat="45.37938" lon="4.44822">
        <ele>969.6</ele>
        <time>2015-12-20T09:17:13Z</time>
      </trkpt>
      <trkpt lat="45.37935" lon="4.44826">
        <ele>969.8</ele>
        <time>2015-12-20T09:17:15Z</time>
      </trkpt>
      <trkpt lat="45.37932" lon="4.44831">
        <ele>970.2</ele>
        <time>2015-12-20T09:17:17Z</time>
      </trkpt>
      <trkpt lat="45.37928" lon="4.44835">
        <ele>970.9</ele>
        <time>2015-12-20T09:17:19Z</time>
      </trkpt>
      <trkpt lat="45.37924" lon="4.44837">
        <ele>971.9</ele>
        <time>2015-12-20T09:17:21Z</time>
      </trkpt>
      <trkpt lat="45.37921" lon="4.4484">
        <ele>972.7</ele>
        <time>2015-12-20T09:17:23Z</time>
      </trkpt>
      <trkpt lat="45.37918" lon="4.44844">
        <ele>972.9</ele>
        <time>2015-12-20T09:17:25Z</time>
      </trkpt>
      <trkpt lat="45.37916" lon="4.44848">
        <ele>972.9</ele>
        <time>2015-12-20T09:17:27Z</time>
      </trkpt>
      <trkpt lat="45.37914" lon="4.44851">
        <ele>973</ele>
        <time>2015-12-20T09:17:29Z</time>
      </trkpt>
      <trkpt lat="45.37912" lon="4.44854">
        <ele>973.2</ele>
        <time>2015-12-20T09:17:31Z</time>
      </trkpt>
      <trkpt lat="45.37911" lon="4.44857">
        <ele>973.3</ele>
        <time>2015-12-20T09:17:33Z</time>
      </trkpt>
      <trkpt lat="45.37908" lon="4.44861">
        <ele>973.5</ele>
        <time>2015-12-20T09:17:36Z</time>
      </trkpt>
      <trkpt lat="45.37906" lon="4.44864">
        <ele>973.8</ele>
        <time>2015-12-20T09:17:38Z</time>
      </trkpt>
      <trkpt lat="45.37904" lon="4.44866">
        <ele>974.2</ele>
        <time>2015-12-20T09:17:40Z</time>
      </trkpt>
      <trkpt lat="45.37902" lon="4.4487">
        <ele>974.4</ele>
        <time>2015-12-20T09:17:43Z</time>
      </trkpt>
      <trkpt lat="45.37901" lon="4.44874">
        <ele>974</ele>
        <time>2015-12-20T09:17:46Z</time>
      </trkpt>
      <trkpt lat="45.37899" lon="4.4488">
        <ele>973.9</ele>
        <time>2015-12-20T09:17:49Z</time>
      </trkpt>
      <trkpt lat="45.37897" lon="4.44884">
        <ele>974.1</ele>
        <time>2015-12-20T09:17:51Z</time>
      </trkpt>
      <trkpt lat="45.37896" lon="4.44887">
        <ele>974.4</ele>
        <time>2015-12-20T09:17:53Z</time>
      </trkpt>
      <trkpt lat="45.37894" lon="4.4489">
        <ele>974.7</ele>
        <time>2015-12-20T09:17:55Z</time>
      </trkpt>
      <trkpt lat="45.37892" lon="4.44893">
        <ele>975</ele>
        <time>2015-12-20T09:17:57Z</time>
      </trkpt>
      <trkpt lat="45.3789" lon="4.44896">
        <ele>975.4</ele>
        <time>2015-12-20T09:17:59Z</time>
      </trkpt>
      <trkpt lat="45.37888" lon="4.44899">
        <ele>975.7</ele>
        <time>2015-12-20T09:18:01Z</time>
      </trkpt>
      <trkpt lat="45.37885" lon="4.44903">
        <ele>976</ele>
        <time>2015-12-20T09:18:04Z</time>
      </trkpt>
      <trkpt lat="45.37883" lon="4.44906">
        <ele>976.4</ele>
        <time>2015-12-20T09:18:06Z</time>
      </trkpt>
      <trkpt lat="45.37881" lon="4.4491">
        <ele>976.7</ele>
        <time>2015-12-20T09:18:08Z</time>
      </trkpt>
      <trkpt lat="45.37879" lon="4.44914">
        <ele>976.9</ele>
        <time>2015-12-20T09:18:11Z</time>
      </trkpt>
      <trkpt lat="45.37878" lon="4.44919">
        <ele>976.6</ele>
        <time>2015-12-20T09:18:14Z</time>
      </trkpt>
      <trkpt lat="45.37877" lon="4.44924">
        <ele>976.2</ele>
        <time>2015-12-20T09:18:17Z</time>
      </trkpt>
      <trkpt lat="45.37876" lon="4.44929">
        <ele>975.9</ele>
        <time>2015-12-20T09:18:20Z</time>
      </trkpt>
      <trkpt lat="45.37875" lon="4.44934">
        <ele>975.6</ele>
        <time>2015-12-20T09:18:23Z</time>
      </trkpt>
      <trkpt lat="45.37873" lon="4.44938">
        <ele>975.6</ele>
        <time>2015-12-20T09:18:25Z</time>
      </trkpt>
      <trkpt lat="45.37872" lon="4.44942">
        <ele>975.5</ele>
        <time>2015-12-20T09:18:28Z</time>
      </trkpt>
      <trkpt lat="45.3787" lon="4.44947">
        <ele>975.7</ele>
        <time>2015-12-20T09:18:31Z</time>
      </trkpt>
      <trkpt lat="45.37867" lon="4.44952">
        <ele>975.8</ele>
        <time>2015-12-20T09:18:34Z</time>
      </trkpt>
      <trkpt lat="45.37865" lon="4.44956">
        <ele>976.1</ele>
        <time>2015-12-20T09:18:37Z</time>
      </trkpt>
      <trkpt lat="45.37863" lon="4.4496">
        <ele>976.4</ele>
        <time>2015-12-20T09:18:40Z</time>
      </trkpt>
      <trkpt lat="45.37861" lon="4.44964">
        <ele>976.8</ele>
        <time>2015-12-20T09:18:43Z</time>
      </trkpt>
      <trkpt lat="45.37858" lon="4.44968">
        <ele>977.5</ele>
        <time>2015-12-20T09:18:46Z</time>
      </trkpt>
      <trkpt lat="45.37856" lon="4.44972">
        <ele>977.9</ele>
        <time>2015-12-20T09:18:49Z</time>
      </trkpt>
      <trkpt lat="45.37854" lon="4.44976">
        <ele>978.5</ele>
        <time>2015-12-20T09:18:52Z</time>
      </trkpt>
      <trkpt lat="45.37852" lon="4.44981">
        <ele>978.9</ele>
        <time>2015-12-20T09:18:55Z</time>
      </trkpt>
      <trkpt lat="45.37849" lon="4.44986">
        <ele>979.3</ele>
        <time>2015-12-20T09:18:58Z</time>
      </trkpt>
      <trkpt lat="45.37847" lon="4.4499">
        <ele>979.8</ele>
        <time>2015-12-20T09:19:01Z</time>
      </trkpt>
      <trkpt lat="45.37845" lon="4.44994">
        <ele>980.4</ele>
        <time>2015-12-20T09:19:04Z</time>
      </trkpt>
      <trkpt lat="45.37842" lon="4.44998">
        <ele>981.1</ele>
        <time>2015-12-20T09:19:07Z</time>
      </trkpt>
      <trkpt lat="45.37839" lon="4.45002">
        <ele>981.8</ele>
        <time>2015-12-20T09:19:10Z</time>
      </trkpt>
      <trkpt lat="45.37836" lon="4.45006">
        <ele>982.6</ele>
        <time>2015-12-20T09:19:13Z</time>
      </trkpt>
      <trkpt lat="45.37834" lon="4.4501">
        <ele>983.4</ele>
        <time>2015-12-20T09:19:16Z</time>
      </trkpt>
      <trkpt lat="45.37832" lon="4.45012">
        <ele>984</ele>
        <time>2015-12-20T09:19:18Z</time>
      </trkpt>
      <trkpt lat="45.37829" lon="4.45015">
        <ele>984.6</ele>
        <time>2015-12-20T09:19:20Z</time>
      </trkpt>
      <trkpt lat="45.37827" lon="4.45018">
        <ele>985.3</ele>
        <time>2015-12-20T09:19:23Z</time>
      </trkpt>
      <trkpt lat="45.37824" lon="4.45022">
        <ele>986.1</ele>
        <time>2015-12-20T09:19:26Z</time>
      </trkpt>
      <trkpt lat="45.37822" lon="4.45025">
        <ele>986.7</ele>
        <time>2015-12-20T09:19:28Z</time>
      </trkpt>
      <trkpt lat="45.37819" lon="4.45028">
        <ele>987.5</ele>
        <time>2015-12-20T09:19:31Z</time>
      </trkpt>
      <trkpt lat="45.37816" lon="4.45032">
        <ele>988.3</ele>
        <time>2015-12-20T09:19:34Z</time>
      </trkpt>
      <trkpt lat="45.37814" lon="4.45035">
        <ele>989.1</ele>
        <time>2015-12-20T09:19:37Z</time>
      </trkpt>
      <trkpt lat="45.37811" lon="4.45039">
        <ele>989.7</ele>
        <time>2015-12-20T09:19:40Z</time>
      </trkpt>
      <trkpt lat="45.37808" lon="4.45043">
        <ele>990.5</ele>
        <time>2015-12-20T09:19:43Z</time>
      </trkpt>
      <trkpt lat="45.37806" lon="4.45046">
        <ele>991.1</ele>
        <time>2015-12-20T09:19:45Z</time>
      </trkpt>
      <trkpt lat="45.37804" lon="4.45049">
        <ele>991.8</ele>
        <time>2015-12-20T09:19:48Z</time>
      </trkpt>
      <trkpt lat="45.37802" lon="4.45053">
        <ele>992.2</ele>
        <time>2015-12-20T09:19:51Z</time>
      </trkpt>
      <trkpt lat="45.37801" lon="4.45058">
        <ele>992.3</ele>
        <time>2015-12-20T09:19:54Z</time>
      </trkpt>
      <trkpt lat="45.37799" lon="4.45062">
        <ele>992.7</ele>
        <time>2015-12-20T09:19:57Z</time>
      </trkpt>
      <trkpt lat="45.37795" lon="4.45066">
        <ele>993.8</ele>
        <time>2015-12-20T09:20:36Z</time>
      </trkpt>
      <trkpt lat="45.37794" lon="4.45067">
        <ele>994.2</ele>
        <time>2015-12-20T09:20:37Z</time>
      </trkpt>
      <trkpt lat="45.37791" lon="4.45071">
        <ele>994.7</ele>
        <time>2015-12-20T09:20:39Z</time>
      </trkpt>
      <trkpt lat="45.37789" lon="4.45077">
        <ele>994.7</ele>
        <time>2015-12-20T09:20:41Z</time>
      </trkpt>
      <trkpt lat="45.37786" lon="4.4508">
        <ele>995.2</ele>
        <time>2015-12-20T09:20:43Z</time>
      </trkpt>
      <trkpt lat="45.37782" lon="4.45085">
        <ele>995.6</ele>
        <time>2015-12-20T09:20:45Z</time>
      </trkpt>
      <trkpt lat="45.3778" lon="4.45091">
        <ele>995.5</ele>
        <time>2015-12-20T09:20:47Z</time>
      </trkpt>
      <trkpt lat="45.37777" lon="4.45096">
        <ele>995.8</ele>
        <time>2015-12-20T09:20:49Z</time>
      </trkpt>
      <trkpt lat="45.37775" lon="4.45098">
        <ele>996.1</ele>
        <time>2015-12-20T09:20:50Z</time>
      </trkpt>
      <trkpt lat="45.37771" lon="4.45102">
        <ele>996.4</ele>
        <time>2015-12-20T09:20:52Z</time>
      </trkpt>
      <trkpt lat="45.37769" lon="4.45106">
        <ele>996.5</ele>
        <time>2015-12-20T09:20:54Z</time>
      </trkpt>
      <trkpt lat="45.37768" lon="4.45109">
        <ele>996.6</ele>
        <time>2015-12-20T09:20:56Z</time>
      </trkpt>
      <trkpt lat="45.37765" lon="4.45114">
        <ele>996.7</ele>
        <time>2015-12-20T09:20:58Z</time>
      </trkpt>
      <trkpt lat="45.37761" lon="4.45119">
        <ele>996.9</ele>
        <time>2015-12-20T09:21:00Z</time>
      </trkpt>
      <trkpt lat="45.37757" lon="4.45123">
        <ele>997.4</ele>
        <time>2015-12-20T09:21:02Z</time>
      </trkpt>
      <trkpt lat="45.37753" lon="4.45125">
        <ele>997.9</ele>
        <time>2015-12-20T09:21:03Z</time>
      </trkpt>
      <trkpt lat="45.37749" lon="4.45127">
        <ele>998.2</ele>
        <time>2015-12-20T09:21:04Z</time>
      </trkpt>
      <trkpt lat="45.37745" lon="4.45129">
        <ele>998.6</ele>
        <time>2015-12-20T09:21:05Z</time>
      </trkpt>
      <trkpt lat="45.37741" lon="4.45131">
        <ele>999</ele>
        <time>2015-12-20T09:21:06Z</time>
      </trkpt>
      <trkpt lat="45.37737" lon="4.45133">
        <ele>999.3</ele>
        <time>2015-12-20T09:21:07Z</time>
      </trkpt>
      <trkpt lat="45.37733" lon="4.45134">
        <ele>999.6</ele>
        <time>2015-12-20T09:21:08Z</time>
      </trkpt>
      <trkpt lat="45.3773" lon="4.45137">
        <ele>999.9</ele>
        <time>2015-12-20T09:21:09Z</time>
      </trkpt>
      <trkpt lat="45.37726" lon="4.45138">
        <ele>1000.1</ele>
        <time>2015-12-20T09:21:10Z</time>
      </trkpt>
      <trkpt lat="45.37722" lon="4.45141">
        <ele>1000.3</ele>
        <time>2015-12-20T09:21:11Z</time>
      </trkpt>
      <trkpt lat="45.37719" lon="4.45143">
        <ele>1000.4</ele>
        <time>2015-12-20T09:21:12Z</time>
      </trkpt>
      <trkpt lat="45.37714" lon="4.45146">
        <ele>1000.7</ele>
        <time>2015-12-20T09:21:13Z</time>
      </trkpt>
      <trkpt lat="45.3771" lon="4.45149">
        <ele>1000.9</ele>
        <time>2015-12-20T09:21:14Z</time>
      </trkpt>
      <trkpt lat="45.37703" lon="4.45154">
        <ele>1000.6</ele>
        <time>2015-12-20T09:21:15Z</time>
      </trkpt>
      <trkpt lat="45.37699" lon="4.45159">
        <ele>1000.5</ele>
        <time>2015-12-20T09:21:16Z</time>
      </trkpt>
      <trkpt lat="45.37693" lon="4.45163">
        <ele>1000.6</ele>
        <time>2015-12-20T09:21:17Z</time>
      </trkpt>
      <trkpt lat="45.37689" lon="4.45165">
        <ele>1001</ele>
        <time>2015-12-20T09:21:18Z</time>
      </trkpt>
      <trkpt lat="45.37686" lon="4.45166">
        <ele>1001.4</ele>
        <time>2015-12-20T09:21:19Z</time>
      </trkpt>
      <trkpt lat="45.37684" lon="4.45168">
        <ele>1001.5</ele>
        <time>2015-12-20T09:21:20Z</time>
      </trkpt>
      <trkpt lat="45.37679" lon="4.4517">
        <ele>1002.2</ele>
        <time>2015-12-20T09:21:21Z</time>
      </trkpt>
      <trkpt lat="45.37677" lon="4.45172">
        <ele>1002.3</ele>
        <time>2015-12-20T09:21:22Z</time>
      </trkpt>
      <trkpt lat="45.37672" lon="4.45174">
        <ele>1003</ele>
        <time>2015-12-20T09:21:25Z</time>
      </trkpt>
      <trkpt lat="45.3767" lon="4.45177">
        <ele>1003</ele>
        <time>2015-12-20T09:21:26Z</time>
      </trkpt>
      <trkpt lat="45.37666" lon="4.45181">
        <ele>1003.4</ele>
        <time>2015-12-20T09:21:28Z</time>
      </trkpt>
      <trkpt lat="45.37663" lon="4.45183">
        <ele>1003.7</ele>
        <time>2015-12-20T09:21:30Z</time>
      </trkpt>
      <trkpt lat="45.3766" lon="4.45185">
        <ele>1004.2</ele>
        <time>2015-12-20T09:21:32Z</time>
      </trkpt>
      <trkpt lat="45.37657" lon="4.45188">
        <ele>1004.6</ele>
        <time>2015-12-20T09:21:34Z</time>
      </trkpt>
      <trkpt lat="45.37654" lon="4.4519">
        <ele>1005.1</ele>
        <time>2015-12-20T09:21:37Z</time>
      </trkpt>
      <trkpt lat="45.37652" lon="4.45194">
        <ele>1004.7</ele>
        <time>2015-12-20T09:21:40Z</time>
      </trkpt>
      <trkpt lat="45.37651" lon="4.45199">
        <ele>1004.5</ele>
        <time>2015-12-20T09:21:43Z</time>
      </trkpt>
      <trkpt lat="45.37649" lon="4.45203">
        <ele>1004.7</ele>
        <time>2015-12-20T09:21:46Z</time>
      </trkpt>
      <trkpt lat="45.37646" lon="4.45205">
        <ele>1005.3</ele>
        <time>2015-12-20T09:21:48Z</time>
      </trkpt>
      <trkpt lat="45.37642" lon="4.45208">
        <ele>1006.1</ele>
        <time>2015-12-20T09:21:50Z</time>
      </trkpt>
      <trkpt lat="45.37638" lon="4.45211">
        <ele>1006.8</ele>
        <time>2015-12-20T09:21:52Z</time>
      </trkpt>
      <trkpt lat="45.37634" lon="4.45213">
        <ele>1007.5</ele>
        <time>2015-12-20T09:21:54Z</time>
      </trkpt>
      <trkpt lat="45.37631" lon="4.45215">
        <ele>1008.3</ele>
        <time>2015-12-20T09:21:57Z</time>
      </trkpt>
      <trkpt lat="45.37628" lon="4.45217">
        <ele>1008.8</ele>
        <time>2015-12-20T09:21:59Z</time>
      </trkpt>
      <trkpt lat="45.37625" lon="4.45219">
        <ele>1009.3</ele>
        <time>2015-12-20T09:22:02Z</time>
      </trkpt>
      <trkpt lat="45.37622" lon="4.45222">
        <ele>1009.5</ele>
        <time>2015-12-20T09:22:04Z</time>
      </trkpt>
      <trkpt lat="45.37619" lon="4.45225">
        <ele>1009.7</ele>
        <time>2015-12-20T09:22:07Z</time>
      </trkpt>
      <trkpt lat="45.37617" lon="4.45228">
        <ele>1009.8</ele>
        <time>2015-12-20T09:22:10Z</time>
      </trkpt>
      <trkpt lat="45.37615" lon="4.45231">
        <ele>1009.8</ele>
        <time>2015-12-20T09:22:13Z</time>
      </trkpt>
      <trkpt lat="45.37613" lon="4.45234">
        <ele>1009.9</ele>
        <time>2015-12-20T09:22:30Z</time>
      </trkpt>
      <trkpt lat="45.37609" lon="4.45237">
        <ele>1010.3</ele>
        <time>2015-12-20T09:22:33Z</time>
      </trkpt>
      <trkpt lat="45.37607" lon="4.45239">
        <ele>1010.7</ele>
        <time>2015-12-20T09:22:35Z</time>
      </trkpt>
      <trkpt lat="45.37604" lon="4.45242">
        <ele>1011.2</ele>
        <time>2015-12-20T09:22:39Z</time>
      </trkpt>
      <trkpt lat="45.37601" lon="4.45244">
        <ele>1011.8</ele>
        <time>2015-12-20T09:22:42Z</time>
      </trkpt>
      <trkpt lat="45.37597" lon="4.45244">
        <ele>1012.7</ele>
        <time>2015-12-20T09:22:45Z</time>
      </trkpt>
      <trkpt lat="45.37594" lon="4.45246">
        <ele>1013.4</ele>
        <time>2015-12-20T09:22:48Z</time>
      </trkpt>
      <trkpt lat="45.37592" lon="4.45248">
        <ele>1013.9</ele>
        <time>2015-12-20T09:22:51Z</time>
      </trkpt>
      <trkpt lat="45.37589" lon="4.4525">
        <ele>1014.5</ele>
        <time>2015-12-20T09:22:56Z</time>
      </trkpt>
      <trkpt lat="45.37585" lon="4.45251">
        <ele>1015.4</ele>
        <time>2015-12-20T09:22:59Z</time>
      </trkpt>
      <trkpt lat="45.37583" lon="4.45253">
        <ele>1015.9</ele>
        <time>2015-12-20T09:23:01Z</time>
      </trkpt>
      <trkpt lat="45.3758" lon="4.45255">
        <ele>1016.5</ele>
        <time>2015-12-20T09:23:05Z</time>
      </trkpt>
      <trkpt lat="45.37577" lon="4.45256">
        <ele>1017.3</ele>
        <time>2015-12-20T09:23:09Z</time>
      </trkpt>
      <trkpt lat="45.37575" lon="4.45262">
        <ele>1017.5</ele>
        <time>2015-12-20T09:24:25Z</time>
      </trkpt>
      <trkpt lat="45.37573" lon="4.45265">
        <ele>1017.7</ele>
        <time>2015-12-20T09:24:27Z</time>
      </trkpt>
      <trkpt lat="45.37573" lon="4.4527">
        <ele>1017.5</ele>
        <time>2015-12-20T09:24:30Z</time>
      </trkpt>
      <trkpt lat="45.37572" lon="4.45274">
        <ele>1017.6</ele>
        <time>2015-12-20T09:24:33Z</time>
      </trkpt>
      <trkpt lat="45.37571" lon="4.45277">
        <ele>1017.7</ele>
        <time>2015-12-20T09:24:36Z</time>
      </trkpt>
      <trkpt lat="45.37573" lon="4.45282">
        <ele>1016.7</ele>
        <time>2015-12-20T09:24:40Z</time>
      </trkpt>
      <trkpt lat="45.37574" lon="4.45286">
        <ele>1015.8</ele>
        <time>2015-12-20T09:24:42Z</time>
      </trkpt>
      <trkpt lat="45.37575" lon="4.45291">
        <ele>1015.2</ele>
        <time>2015-12-20T09:24:44Z</time>
      </trkpt>
      <trkpt lat="45.37575" lon="4.45296">
        <ele>1014.9</ele>
        <time>2015-12-20T09:24:46Z</time>
      </trkpt>
      <trkpt lat="45.37574" lon="4.45302">
        <ele>1015.1</ele>
        <time>2015-12-20T09:24:49Z</time>
      </trkpt>
      <trkpt lat="45.37573" lon="4.45307">
        <ele>1015.5</ele>
        <time>2015-12-20T09:24:51Z</time>
      </trkpt>
      <trkpt lat="45.37571" lon="4.45311">
        <ele>1016.1</ele>
        <time>2015-12-20T09:24:54Z</time>
      </trkpt>
      <trkpt lat="45.37569" lon="4.45316">
        <ele>1016.8</ele>
        <time>2015-12-20T09:24:57Z</time>
      </trkpt>
      <trkpt lat="45.37566" lon="4.45318">
        <ele>1017.6</ele>
        <time>2015-12-20T09:25:00Z</time>
      </trkpt>
      <trkpt lat="45.37565" lon="4.45322">
        <ele>1018.1</ele>
        <time>2015-12-20T09:25:04Z</time>
      </trkpt>
      <trkpt lat="45.37564" lon="4.45326">
        <ele>1018.4</ele>
        <time>2015-12-20T09:25:07Z</time>
      </trkpt>
      <trkpt lat="45.37562" lon="4.45331">
        <ele>1019</ele>
        <time>2015-12-20T09:25:10Z</time>
      </trkpt>
      <trkpt lat="45.3756" lon="4.45335">
        <ele>1019.6</ele>
        <time>2015-12-20T09:25:13Z</time>
      </trkpt>
      <trkpt lat="45.37558" lon="4.45338">
        <ele>1020.3</ele>
        <time>2015-12-20T09:25:15Z</time>
      </trkpt>
      <trkpt lat="45.37557" lon="4.45342">
        <ele>1020.5</ele>
        <time>2015-12-20T09:25:18Z</time>
      </trkpt>
      <trkpt lat="45.37556" lon="4.45348">
        <ele>1020.5</ele>
        <time>2015-12-20T09:25:21Z</time>
      </trkpt>
      <trkpt lat="45.37555" lon="4.45351">
        <ele>1020.8</ele>
        <time>2015-12-20T09:25:23Z</time>
      </trkpt>
      <trkpt lat="45.37555" lon="4.45356">
        <ele>1021</ele>
        <time>2015-12-20T09:25:25Z</time>
      </trkpt>
      <trkpt lat="45.37555" lon="4.4536">
        <ele>1020.7</ele>
        <time>2015-12-20T09:25:27Z</time>
      </trkpt>
      <trkpt lat="45.37555" lon="4.45366">
        <ele>1020.7</ele>
        <time>2015-12-20T09:25:30Z</time>
      </trkpt>
      <trkpt lat="45.37554" lon="4.4537">
        <ele>1020.8</ele>
        <time>2015-12-20T09:25:32Z</time>
      </trkpt>
      <trkpt lat="45.37554" lon="4.45374">
        <ele>1020.9</ele>
        <time>2015-12-20T09:25:34Z</time>
      </trkpt>
      <trkpt lat="45.37553" lon="4.45379">
        <ele>1021.2</ele>
        <time>2015-12-20T09:25:36Z</time>
      </trkpt>
      <trkpt lat="45.37551" lon="4.45383">
        <ele>1021.7</ele>
        <time>2015-12-20T09:25:38Z</time>
      </trkpt>
      <trkpt lat="45.37551" lon="4.45389">
        <ele>1021.7</ele>
        <time>2015-12-20T09:25:41Z</time>
      </trkpt>
      <trkpt lat="45.37551" lon="4.45393">
        <ele>1021.7</ele>
        <time>2015-12-20T09:25:43Z</time>
      </trkpt>
      <trkpt lat="45.3755" lon="4.45396">
        <ele>1022.3</ele>
        <time>2015-12-20T09:25:45Z</time>
      </trkpt>
      <trkpt lat="45.37548" lon="4.45401">
        <ele>1022.9</ele>
        <time>2015-12-20T09:25:48Z</time>
      </trkpt>
      <trkpt lat="45.37547" lon="4.45405">
        <ele>1023.2</ele>
        <time>2015-12-20T09:25:50Z</time>
      </trkpt>
      <trkpt lat="45.37547" lon="4.4541">
        <ele>1023.4</ele>
        <time>2015-12-20T09:25:52Z</time>
      </trkpt>
      <trkpt lat="45.37545" lon="4.45415">
        <ele>1023.9</ele>
        <time>2015-12-20T09:25:54Z</time>
      </trkpt>
      <trkpt lat="45.37544" lon="4.45421">
        <ele>1024.4</ele>
        <time>2015-12-20T09:25:56Z</time>
      </trkpt>
      <trkpt lat="45.37541" lon="4.45426">
        <ele>1025.1</ele>
        <time>2015-12-20T09:25:58Z</time>
      </trkpt>
      <trkpt lat="45.3754" lon="4.4543">
        <ele>1025.5</ele>
        <time>2015-12-20T09:26:00Z</time>
      </trkpt>
      <trkpt lat="45.37537" lon="4.45434">
        <ele>1026.1</ele>
        <time>2015-12-20T09:26:02Z</time>
      </trkpt>
      <trkpt lat="45.37533" lon="4.45437">
        <ele>1027</ele>
        <time>2015-12-20T09:26:04Z</time>
      </trkpt>
      <trkpt lat="45.3753" lon="4.45441">
        <ele>1027.8</ele>
        <time>2015-12-20T09:26:06Z</time>
      </trkpt>
      <trkpt lat="45.37528" lon="4.45445">
        <ele>1028.3</ele>
        <time>2015-12-20T09:26:08Z</time>
      </trkpt>
      <trkpt lat="45.37526" lon="4.45448">
        <ele>1028.7</ele>
        <time>2015-12-20T09:26:10Z</time>
      </trkpt>
      <trkpt lat="45.37524" lon="4.45452">
        <ele>1029.2</ele>
        <time>2015-12-20T09:26:12Z</time>
      </trkpt>
      <trkpt lat="45.37522" lon="4.45456">
        <ele>1029.5</ele>
        <time>2015-12-20T09:26:14Z</time>
      </trkpt>
      <trkpt lat="45.3752" lon="4.45459">
        <ele>1029.7</ele>
        <time>2015-12-20T09:26:16Z</time>
      </trkpt>
      <trkpt lat="45.37518" lon="4.45463">
        <ele>1029.8</ele>
        <time>2015-12-20T09:26:19Z</time>
      </trkpt>
      <trkpt lat="45.37515" lon="4.45468">
        <ele>1029.9</ele>
        <time>2015-12-20T09:26:22Z</time>
      </trkpt>
      <trkpt lat="45.37513" lon="4.45472">
        <ele>1030</ele>
        <time>2015-12-20T09:26:24Z</time>
      </trkpt>
      <trkpt lat="45.37511" lon="4.45475">
        <ele>1030.2</ele>
        <time>2015-12-20T09:26:26Z</time>
      </trkpt>
      <trkpt lat="45.37508" lon="4.45477">
        <ele>1030.6</ele>
        <time>2015-12-20T09:26:28Z</time>
      </trkpt>
      <trkpt lat="45.37506" lon="4.45481">
        <ele>1030.7</ele>
        <time>2015-12-20T09:26:31Z</time>
      </trkpt>
      <trkpt lat="45.37503" lon="4.45482">
        <ele>1031.3</ele>
        <time>2015-12-20T09:27:06Z</time>
      </trkpt>
      <trkpt lat="45.37504" lon="4.45478">
        <ele>1031.5</ele>
        <time>2015-12-20T09:27:12Z</time>
      </trkpt>
      <trkpt lat="45.37502" lon="4.45475">
        <ele>1032.2</ele>
        <time>2015-12-20T09:27:14Z</time>
      </trkpt>
      <trkpt lat="45.37502" lon="4.4547">
        <ele>1032.9</ele>
        <time>2015-12-20T09:27:16Z</time>
      </trkpt>
      <trkpt lat="45.37501" lon="4.45466">
        <ele>1033.5</ele>
        <time>2015-12-20T09:27:18Z</time>
      </trkpt>
      <trkpt lat="45.375" lon="4.4546">
        <ele>1034.4</ele>
        <time>2015-12-20T09:27:20Z</time>
      </trkpt>
      <trkpt lat="45.37499" lon="4.45455">
        <ele>1034.8</ele>
        <time>2015-12-20T09:27:22Z</time>
      </trkpt>
      <trkpt lat="45.37498" lon="4.45452">
        <ele>1035.2</ele>
        <time>2015-12-20T09:27:24Z</time>
      </trkpt>
      <trkpt lat="45.37496" lon="4.45448">
        <ele>1035.6</ele>
        <time>2015-12-20T09:27:26Z</time>
      </trkpt>
      <trkpt lat="45.37495" lon="4.45442">
        <ele>1035.8</ele>
        <time>2015-12-20T09:27:28Z</time>
      </trkpt>
      <trkpt lat="45.37494" lon="4.45437">
        <ele>1036.1</ele>
        <time>2015-12-20T09:27:30Z</time>
      </trkpt>
      <trkpt lat="45.37494" lon="4.45432">
        <ele>1036.2</ele>
        <time>2015-12-20T09:27:32Z</time>
      </trkpt>
      <trkpt lat="45.37494" lon="4.45428">
        <ele>1036.3</ele>
        <time>2015-12-20T09:27:34Z</time>
      </trkpt>
      <trkpt lat="45.37494" lon="4.45424">
        <ele>1036.2</ele>
        <time>2015-12-20T09:27:36Z</time>
      </trkpt>
      <trkpt lat="45.37495" lon="4.45418">
        <ele>1036.3</ele>
        <time>2015-12-20T09:27:38Z</time>
      </trkpt>
      <trkpt lat="45.37494" lon="4.45411">
        <ele>1036.4</ele>
        <time>2015-12-20T09:27:40Z</time>
      </trkpt>
      <trkpt lat="45.37494" lon="4.45406">
        <ele>1036.6</ele>
        <time>2015-12-20T09:27:42Z</time>
      </trkpt>
      <trkpt lat="45.37493" lon="4.45402">
        <ele>1036.9</ele>
        <time>2015-12-20T09:27:44Z</time>
      </trkpt>
      <trkpt lat="45.37492" lon="4.45397">
        <ele>1037.3</ele>
        <time>2015-12-20T09:27:46Z</time>
      </trkpt>
      <trkpt lat="45.3749" lon="4.45392">
        <ele>1037.8</ele>
        <time>2015-12-20T09:27:48Z</time>
      </trkpt>
      <trkpt lat="45.37489" lon="4.45388">
        <ele>1038.1</ele>
        <time>2015-12-20T09:27:50Z</time>
      </trkpt>
      <trkpt lat="45.37488" lon="4.45382">
        <ele>1038.3</ele>
        <time>2015-12-20T09:27:52Z</time>
      </trkpt>
      <trkpt lat="45.37487" lon="4.45378">
        <ele>1038.7</ele>
        <time>2015-12-20T09:27:54Z</time>
      </trkpt>
      <trkpt lat="45.37485" lon="4.45376">
        <ele>1039.3</ele>
        <time>2015-12-20T09:27:56Z</time>
      </trkpt>
      <trkpt lat="45.37483" lon="4.45371">
        <ele>1039.9</ele>
        <time>2015-12-20T09:27:58Z</time>
      </trkpt>
      <trkpt lat="45.37481" lon="4.45368">
        <ele>1040.4</ele>
        <time>2015-12-20T09:28:00Z</time>
      </trkpt>
      <trkpt lat="45.37478" lon="4.45364">
        <ele>1041</ele>
        <time>2015-12-20T09:28:02Z</time>
      </trkpt>
      <trkpt lat="45.37477" lon="4.4536">
        <ele>1041.5</ele>
        <time>2015-12-20T09:28:04Z</time>
      </trkpt>
      <trkpt lat="45.37476" lon="4.45356">
        <ele>1041.6</ele>
        <time>2015-12-20T09:28:06Z</time>
      </trkpt>
      <trkpt lat="45.37475" lon="4.45351">
        <ele>1041.9</ele>
        <time>2015-12-20T09:28:08Z</time>
      </trkpt>
      <trkpt lat="45.37474" lon="4.45346">
        <ele>1042.3</ele>
        <time>2015-12-20T09:28:10Z</time>
      </trkpt>
      <trkpt lat="45.37472" lon="4.45341">
        <ele>1042.8</ele>
        <time>2015-12-20T09:28:12Z</time>
      </trkpt>
      <trkpt lat="45.37469" lon="4.45337">
        <ele>1043.4</ele>
        <time>2015-12-20T09:28:14Z</time>
      </trkpt>
      <trkpt lat="45.37467" lon="4.45334">
        <ele>1043.9</ele>
        <time>2015-12-20T09:28:16Z</time>
      </trkpt>
      <trkpt lat="45.37466" lon="4.4533">
        <ele>1044.2</ele>
        <time>2015-12-20T09:28:18Z</time>
      </trkpt>
      <trkpt lat="45.37466" lon="4.45324">
        <ele>1044.2</ele>
        <time>2015-12-20T09:28:20Z</time>
      </trkpt>
      <trkpt lat="45.37466" lon="4.4532">
        <ele>1044.1</ele>
        <time>2015-12-20T09:28:21Z</time>
      </trkpt>
      <trkpt lat="45.37467" lon="4.45313">
        <ele>1043.9</ele>
        <time>2015-12-20T09:28:23Z</time>
      </trkpt>
      <trkpt lat="45.37467" lon="4.45306">
        <ele>1043.9</ele>
        <time>2015-12-20T09:28:25Z</time>
      </trkpt>
      <trkpt lat="45.37467" lon="4.453">
        <ele>1044</ele>
        <time>2015-12-20T09:28:27Z</time>
      </trkpt>
      <trkpt lat="45.37467" lon="4.45294">
        <ele>1044</ele>
        <time>2015-12-20T09:28:29Z</time>
      </trkpt>
      <trkpt lat="45.37467" lon="4.45288">
        <ele>1043.7</ele>
        <time>2015-12-20T09:28:31Z</time>
      </trkpt>
      <trkpt lat="45.37467" lon="4.45282">
        <ele>1043.1</ele>
        <time>2015-12-20T09:28:33Z</time>
      </trkpt>
      <trkpt lat="45.37467" lon="4.45277">
        <ele>1042.8</ele>
        <time>2015-12-20T09:28:35Z</time>
      </trkpt>
      <trkpt lat="45.37466" lon="4.45272">
        <ele>1042.7</ele>
        <time>2015-12-20T09:28:37Z</time>
      </trkpt>
      <trkpt lat="45.37464" lon="4.45266">
        <ele>1042.5</ele>
        <time>2015-12-20T09:28:39Z</time>
      </trkpt>
      <trkpt lat="45.37461" lon="4.45262">
        <ele>1042.5</ele>
        <time>2015-12-20T09:28:41Z</time>
      </trkpt>
      <trkpt lat="45.37458" lon="4.45259">
        <ele>1042.9</ele>
        <time>2015-12-20T09:28:43Z</time>
      </trkpt>
      <trkpt lat="45.37456" lon="4.45255">
        <ele>1042.7</ele>
        <time>2015-12-20T09:28:45Z</time>
      </trkpt>
      <trkpt lat="45.37455" lon="4.45251">
        <ele>1042.5</ele>
        <time>2015-12-20T09:28:47Z</time>
      </trkpt>
      <trkpt lat="45.37453" lon="4.45246">
        <ele>1042.2</ele>
        <time>2015-12-20T09:28:49Z</time>
      </trkpt>
      <trkpt lat="45.37451" lon="4.45242">
        <ele>1042.1</ele>
        <time>2015-12-20T09:28:51Z</time>
      </trkpt>
      <trkpt lat="45.37449" lon="4.4524">
        <ele>1042.1</ele>
        <time>2015-12-20T09:28:52Z</time>
      </trkpt>
      <trkpt lat="45.37446" lon="4.45234">
        <ele>1041.9</ele>
        <time>2015-12-20T09:28:54Z</time>
      </trkpt>
      <trkpt lat="45.37444" lon="4.45229">
        <ele>1041.6</ele>
        <time>2015-12-20T09:28:56Z</time>
      </trkpt>
      <trkpt lat="45.37442" lon="4.45224">
        <ele>1041.4</ele>
        <time>2015-12-20T09:28:58Z</time>
      </trkpt>
      <trkpt lat="45.3744" lon="4.45219">
        <ele>1041.2</ele>
        <time>2015-12-20T09:29:00Z</time>
      </trkpt>
      <trkpt lat="45.37439" lon="4.45215">
        <ele>1041</ele>
        <time>2015-12-20T09:29:02Z</time>
      </trkpt>
      <trkpt lat="45.37437" lon="4.4521">
        <ele>1040.7</ele>
        <time>2015-12-20T09:29:04Z</time>
      </trkpt>
      <trkpt lat="45.37435" lon="4.45204">
        <ele>1040.6</ele>
        <time>2015-12-20T09:29:06Z</time>
      </trkpt>
      <trkpt lat="45.37434" lon="4.452">
        <ele>1040.6</ele>
        <time>2015-12-20T09:29:08Z</time>
      </trkpt>
      <trkpt lat="45.37432" lon="4.45196">
        <ele>1040.6</ele>
        <time>2015-12-20T09:29:10Z</time>
      </trkpt>
      <trkpt lat="45.3743" lon="4.45192">
        <ele>1040.6</ele>
        <time>2015-12-20T09:29:12Z</time>
      </trkpt>
      <trkpt lat="45.37429" lon="4.45187">
        <ele>1040.5</ele>
        <time>2015-12-20T09:29:15Z</time>
      </trkpt>
      <trkpt lat="45.37429" lon="4.45183">
        <ele>1040.2</ele>
        <time>2015-12-20T09:29:17Z</time>
      </trkpt>
      <trkpt lat="45.37429" lon="4.45177">
        <ele>1040</ele>
        <time>2015-12-20T09:29:19Z</time>
      </trkpt>
      <trkpt lat="45.37427" lon="4.45171">
        <ele>1039.8</ele>
        <time>2015-12-20T09:29:21Z</time>
      </trkpt>
      <trkpt lat="45.37426" lon="4.45167">
        <ele>1039.7</ele>
        <time>2015-12-20T09:29:23Z</time>
      </trkpt>
      <trkpt lat="45.37425" lon="4.45161">
        <ele>1039.5</ele>
        <time>2015-12-20T09:29:25Z</time>
      </trkpt>
      <trkpt lat="45.37425" lon="4.45155">
        <ele>1039.2</ele>
        <time>2015-12-20T09:29:27Z</time>
      </trkpt>
      <trkpt lat="45.37426" lon="4.4515">
        <ele>1038.8</ele>
        <time>2015-12-20T09:29:29Z</time>
      </trkpt>
      <trkpt lat="45.37427" lon="4.45145">
        <ele>1038.5</ele>
        <time>2015-12-20T09:29:31Z</time>
      </trkpt>
      <trkpt lat="45.37428" lon="4.45149">
        <ele>1038.7</ele>
        <time>2015-12-20T09:29:37Z</time>
      </trkpt>
      <trkpt lat="45.37427" lon="4.45153">
        <ele>1038.9</ele>
        <time>2015-12-20T09:29:39Z</time>
      </trkpt>
      <trkpt lat="45.37427" lon="4.45157">
        <ele>1039.1</ele>
        <time>2015-12-20T09:29:41Z</time>
      </trkpt>
      <trkpt lat="45.37427" lon="4.45162">
        <ele>1039.4</ele>
        <time>2015-12-20T09:29:43Z</time>
      </trkpt>
      <trkpt lat="45.37426" lon="4.45167">
        <ele>1039.7</ele>
        <time>2015-12-20T09:29:45Z</time>
      </trkpt>
      <trkpt lat="45.37425" lon="4.45171">
        <ele>1040</ele>
        <time>2015-12-20T09:29:47Z</time>
      </trkpt>
      <trkpt lat="45.37423" lon="4.45175">
        <ele>1040.4</ele>
        <time>2015-12-20T09:29:49Z</time>
      </trkpt>
      <trkpt lat="45.37421" lon="4.45179">
        <ele>1040.8</ele>
        <time>2015-12-20T09:29:51Z</time>
      </trkpt>
      <trkpt lat="45.37419" lon="4.45182">
        <ele>1041.2</ele>
        <time>2015-12-20T09:29:54Z</time>
      </trkpt>
      <trkpt lat="45.37416" lon="4.45183">
        <ele>1041.6</ele>
        <time>2015-12-20T09:29:56Z</time>
      </trkpt>
      <trkpt lat="45.37413" lon="4.45185">
        <ele>1042</ele>
        <time>2015-12-20T09:29:58Z</time>
      </trkpt>
      <trkpt lat="45.3741" lon="4.45187">
        <ele>1042.4</ele>
        <time>2015-12-20T09:30:00Z</time>
      </trkpt>
      <trkpt lat="45.37406" lon="4.45187">
        <ele>1042.8</ele>
        <time>2015-12-20T09:30:02Z</time>
      </trkpt>
      <trkpt lat="45.37402" lon="4.45187">
        <ele>1043.3</ele>
        <time>2015-12-20T09:30:05Z</time>
      </trkpt>
      <trkpt lat="45.37399" lon="4.45189">
        <ele>1043.7</ele>
        <time>2015-12-20T09:30:07Z</time>
      </trkpt>
      <trkpt lat="45.37396" lon="4.45189">
        <ele>1044</ele>
        <time>2015-12-20T09:30:09Z</time>
      </trkpt>
      <trkpt lat="45.37391" lon="4.4519">
        <ele>1044.5</ele>
        <time>2015-12-20T09:30:11Z</time>
      </trkpt>
      <trkpt lat="45.37387" lon="4.45191">
        <ele>1045.1</ele>
        <time>2015-12-20T09:30:13Z</time>
      </trkpt>
      <trkpt lat="45.37384" lon="4.45193">
        <ele>1045.6</ele>
        <time>2015-12-20T09:30:16Z</time>
      </trkpt>
      <trkpt lat="45.3738" lon="4.45192">
        <ele>1045.9</ele>
        <time>2015-12-20T09:30:19Z</time>
      </trkpt>
      <trkpt lat="45.37376" lon="4.45191">
        <ele>1046.2</ele>
        <time>2015-12-20T09:30:21Z</time>
      </trkpt>
      <trkpt lat="45.37373" lon="4.45189">
        <ele>1046.2</ele>
        <time>2015-12-20T09:30:23Z</time>
      </trkpt>
      <trkpt lat="45.37369" lon="4.45188">
        <ele>1046.2</ele>
        <time>2015-12-20T09:30:25Z</time>
      </trkpt>
      <trkpt lat="45.37365" lon="4.45188">
        <ele>1046.4</ele>
        <time>2015-12-20T09:30:28Z</time>
      </trkpt>
      <trkpt lat="45.37361" lon="4.45189">
        <ele>1046.6</ele>
        <time>2015-12-20T09:30:30Z</time>
      </trkpt>
      <trkpt lat="45.37358" lon="4.45191">
        <ele>1046.8</ele>
        <time>2015-12-20T09:30:32Z</time>
      </trkpt>
      <trkpt lat="45.37354" lon="4.45193">
        <ele>1047.1</ele>
        <time>2015-12-20T09:30:34Z</time>
      </trkpt>
      <trkpt lat="45.37351" lon="4.45193">
        <ele>1047.3</ele>
        <time>2015-12-20T09:30:36Z</time>
      </trkpt>
      <trkpt lat="45.37348" lon="4.45192">
        <ele>1047.2</ele>
        <time>2015-12-20T09:30:38Z</time>
      </trkpt>
      <trkpt lat="45.37344" lon="4.45191">
        <ele>1047.3</ele>
        <time>2015-12-20T09:30:40Z</time>
      </trkpt>
      <trkpt lat="45.3734" lon="4.4519">
        <ele>1047.3</ele>
        <time>2015-12-20T09:30:43Z</time>
      </trkpt>
      <trkpt lat="45.37335" lon="4.4519">
        <ele>1047.4</ele>
        <time>2015-12-20T09:30:45Z</time>
      </trkpt>
      <trkpt lat="45.37331" lon="4.45191">
        <ele>1047.6</ele>
        <time>2015-12-20T09:30:47Z</time>
      </trkpt>
      <trkpt lat="45.37327" lon="4.45193">
        <ele>1047.9</ele>
        <time>2015-12-20T09:30:49Z</time>
      </trkpt>
      <trkpt lat="45.37322" lon="4.45193">
        <ele>1048</ele>
        <time>2015-12-20T09:30:51Z</time>
      </trkpt>
      <trkpt lat="45.37317" lon="4.45192">
        <ele>1048.1</ele>
        <time>2015-12-20T09:30:53Z</time>
      </trkpt>
      <trkpt lat="45.37312" lon="4.45189">
        <ele>1048</ele>
        <time>2015-12-20T09:30:55Z</time>
      </trkpt>
      <trkpt lat="45.37307" lon="4.45186">
        <ele>1047.9</ele>
        <time>2015-12-20T09:30:57Z</time>
      </trkpt>
      <trkpt lat="45.37305" lon="4.45185">
        <ele>1047.9</ele>
        <time>2015-12-20T09:30:58Z</time>
      </trkpt>
      <trkpt lat="45.37302" lon="4.45183">
        <ele>1047.8</ele>
        <time>2015-12-20T09:30:59Z</time>
      </trkpt>
      <trkpt lat="45.373" lon="4.45181">
        <ele>1047.8</ele>
        <time>2015-12-20T09:31:00Z</time>
      </trkpt>
      <trkpt lat="45.37296" lon="4.45179">
        <ele>1047.8</ele>
        <time>2015-12-20T09:31:02Z</time>
      </trkpt>
      <trkpt lat="45.37292" lon="4.45178">
        <ele>1047.8</ele>
        <time>2015-12-20T09:31:04Z</time>
      </trkpt>
      <trkpt lat="45.37289" lon="4.45175">
        <ele>1047.6</ele>
        <time>2015-12-20T09:31:07Z</time>
      </trkpt>
      <trkpt lat="45.37284" lon="4.45172">
        <ele>1047.4</ele>
        <time>2015-12-20T09:31:09Z</time>
      </trkpt>
      <trkpt lat="45.37282" lon="4.45172">
        <ele>1047.4</ele>
        <time>2015-12-20T09:31:10Z</time>
      </trkpt>
      <trkpt lat="45.37279" lon="4.45171">
        <ele>1047.3</ele>
        <time>2015-12-20T09:31:11Z</time>
      </trkpt>
      <trkpt lat="45.37276" lon="4.45171">
        <ele>1047.3</ele>
        <time>2015-12-20T09:31:12Z</time>
      </trkpt>
      <trkpt lat="45.37273" lon="4.45171">
        <ele>1047.3</ele>
        <time>2015-12-20T09:31:13Z</time>
      </trkpt>
      <trkpt lat="45.37269" lon="4.4517">
        <ele>1047.2</ele>
        <time>2015-12-20T09:31:15Z</time>
      </trkpt>
      <trkpt lat="45.37265" lon="4.4517">
        <ele>1047.2</ele>
        <time>2015-12-20T09:31:17Z</time>
      </trkpt>
      <trkpt lat="45.37261" lon="4.45168">
        <ele>1047.1</ele>
        <time>2015-12-20T09:31:19Z</time>
      </trkpt>
      <trkpt lat="45.37257" lon="4.45167">
        <ele>1047</ele>
        <time>2015-12-20T09:31:21Z</time>
      </trkpt>
      <trkpt lat="45.37253" lon="4.45166">
        <ele>1047</ele>
        <time>2015-12-20T09:31:23Z</time>
      </trkpt>
      <trkpt lat="45.3725" lon="4.45165">
        <ele>1046.9</ele>
        <time>2015-12-20T09:31:25Z</time>
      </trkpt>
      <trkpt lat="45.37245" lon="4.45165">
        <ele>1046.9</ele>
        <time>2015-12-20T09:31:27Z</time>
      </trkpt>
      <trkpt lat="45.37241" lon="4.45166">
        <ele>1047</ele>
        <time>2015-12-20T09:31:29Z</time>
      </trkpt>
      <trkpt lat="45.37236" lon="4.45168">
        <ele>1047.1</ele>
        <time>2015-12-20T09:31:31Z</time>
      </trkpt>
      <trkpt lat="45.37232" lon="4.4517">
        <ele>1047.2</ele>
        <time>2015-12-20T09:31:33Z</time>
      </trkpt>
      <trkpt lat="45.37228" lon="4.45171">
        <ele>1047.3</ele>
        <time>2015-12-20T09:31:35Z</time>
      </trkpt>
      <trkpt lat="45.37224" lon="4.45172">
        <ele>1047.3</ele>
        <time>2015-12-20T09:31:37Z</time>
      </trkpt>
      <trkpt lat="45.3722" lon="4.45173">
        <ele>1047.4</ele>
        <time>2015-12-20T09:31:39Z</time>
      </trkpt>
      <trkpt lat="45.37215" lon="4.45177">
        <ele>1047.7</ele>
        <time>2015-12-20T09:31:41Z</time>
      </trkpt>
      <trkpt lat="45.37211" lon="4.45179">
        <ele>1047.9</ele>
        <time>2015-12-20T09:31:43Z</time>
      </trkpt>
      <trkpt lat="45.37207" lon="4.45181">
        <ele>1048</ele>
        <time>2015-12-20T09:31:45Z</time>
      </trkpt>
      <trkpt lat="45.37204" lon="4.45182">
        <ele>1047.9</ele>
        <time>2015-12-20T09:31:46Z</time>
      </trkpt>
      <trkpt lat="45.37201" lon="4.45183">
        <ele>1047.9</ele>
        <time>2015-12-20T09:31:47Z</time>
      </trkpt>
      <trkpt lat="45.37198" lon="4.45183">
        <ele>1047.8</ele>
        <time>2015-12-20T09:31:48Z</time>
      </trkpt>
      <trkpt lat="45.37193" lon="4.45184">
        <ele>1047.7</ele>
        <time>2015-12-20T09:31:50Z</time>
      </trkpt>
      <trkpt lat="45.37189" lon="4.45186">
        <ele>1047.6</ele>
        <time>2015-12-20T09:31:52Z</time>
      </trkpt>
      <trkpt lat="45.37184" lon="4.45188">
        <ele>1047.7</ele>
        <time>2015-12-20T09:31:54Z</time>
      </trkpt>
      <trkpt lat="45.3718" lon="4.45192">
        <ele>1047.8</ele>
        <time>2015-12-20T09:31:56Z</time>
      </trkpt>
      <trkpt lat="45.37177" lon="4.45193">
        <ele>1047.8</ele>
        <time>2015-12-20T09:31:57Z</time>
      </trkpt>
      <trkpt lat="45.37174" lon="4.45195">
        <ele>1047.8</ele>
        <time>2015-12-20T09:31:58Z</time>
      </trkpt>
      <trkpt lat="45.37171" lon="4.45196">
        <ele>1047.8</ele>
        <time>2015-12-20T09:31:59Z</time>
      </trkpt>
      <trkpt lat="45.37166" lon="4.45197">
        <ele>1047.7</ele>
        <time>2015-12-20T09:32:01Z</time>
      </trkpt>
      <trkpt lat="45.37163" lon="4.45197">
        <ele>1047.6</ele>
        <time>2015-12-20T09:32:02Z</time>
      </trkpt>
      <trkpt lat="45.3716" lon="4.45197">
        <ele>1047.5</ele>
        <time>2015-12-20T09:32:03Z</time>
      </trkpt>
      <trkpt lat="45.37156" lon="4.45197">
        <ele>1047.3</ele>
        <time>2015-12-20T09:32:04Z</time>
      </trkpt>
      <trkpt lat="45.37152" lon="4.45197">
        <ele>1047.2</ele>
        <time>2015-12-20T09:32:05Z</time>
      </trkpt>
      <trkpt lat="45.37147" lon="4.45198">
        <ele>1047</ele>
        <time>2015-12-20T09:32:06Z</time>
      </trkpt>
      <trkpt lat="45.37144" lon="4.45198">
        <ele>1046.9</ele>
        <time>2015-12-20T09:32:07Z</time>
      </trkpt>
      <trkpt lat="45.3714" lon="4.45198">
        <ele>1046.8</ele>
        <time>2015-12-20T09:32:08Z</time>
      </trkpt>
      <trkpt lat="45.37137" lon="4.45199">
        <ele>1046.7</ele>
        <time>2015-12-20T09:32:09Z</time>
      </trkpt>
      <trkpt lat="45.37132" lon="4.45197">
        <ele>1046.5</ele>
        <time>2015-12-20T09:32:11Z</time>
      </trkpt>
      <trkpt lat="45.37127" lon="4.45196">
        <ele>1046.2</ele>
        <time>2015-12-20T09:32:13Z</time>
      </trkpt>
      <trkpt lat="45.37124" lon="4.45196">
        <ele>1046.1</ele>
        <time>2015-12-20T09:32:14Z</time>
      </trkpt>
      <trkpt lat="45.37121" lon="4.45196">
        <ele>1045.9</ele>
        <time>2015-12-20T09:32:15Z</time>
      </trkpt>
      <trkpt lat="45.37115" lon="4.45196">
        <ele>1045.5</ele>
        <time>2015-12-20T09:32:17Z</time>
      </trkpt>
      <trkpt lat="45.37113" lon="4.45195">
        <ele>1045.3</ele>
        <time>2015-12-20T09:32:18Z</time>
      </trkpt>
      <trkpt lat="45.3711" lon="4.45193">
        <ele>1045</ele>
        <time>2015-12-20T09:32:19Z</time>
      </trkpt>
      <trkpt lat="45.37107" lon="4.45191">
        <ele>1044.7</ele>
        <time>2015-12-20T09:32:20Z</time>
      </trkpt>
      <trkpt lat="45.37104" lon="4.45189">
        <ele>1044.4</ele>
        <time>2015-12-20T09:32:21Z</time>
      </trkpt>
      <trkpt lat="45.37101" lon="4.45189">
        <ele>1044.2</ele>
        <time>2015-12-20T09:32:22Z</time>
      </trkpt>
      <trkpt lat="45.37097" lon="4.45188">
        <ele>1043.9</ele>
        <time>2015-12-20T09:32:23Z</time>
      </trkpt>
      <trkpt lat="45.37093" lon="4.45188">
        <ele>1043.7</ele>
        <time>2015-12-20T09:32:24Z</time>
      </trkpt>
      <trkpt lat="45.37089" lon="4.45187">
        <ele>1043.4</ele>
        <time>2015-12-20T09:32:25Z</time>
      </trkpt>
      <trkpt lat="45.37086" lon="4.45187">
        <ele>1043.3</ele>
        <time>2015-12-20T09:32:26Z</time>
      </trkpt>
      <trkpt lat="45.37083" lon="4.45187">
        <ele>1043.1</ele>
        <time>2015-12-20T09:32:27Z</time>
      </trkpt>
      <trkpt lat="45.3708" lon="4.45187">
        <ele>1042.9</ele>
        <time>2015-12-20T09:32:28Z</time>
      </trkpt>
      <trkpt lat="45.37074" lon="4.45188">
        <ele>1042.6</ele>
        <time>2015-12-20T09:32:30Z</time>
      </trkpt>
      <trkpt lat="45.3707" lon="4.45188">
        <ele>1042.3</ele>
        <time>2015-12-20T09:32:31Z</time>
      </trkpt>
      <trkpt lat="45.37065" lon="4.45188">
        <ele>1042.1</ele>
        <time>2015-12-20T09:32:32Z</time>
      </trkpt>
      <trkpt lat="45.37061" lon="4.45187">
        <ele>1041.9</ele>
        <time>2015-12-20T09:32:33Z</time>
      </trkpt>
      <trkpt lat="45.37057" lon="4.45188">
        <ele>1041.7</ele>
        <time>2015-12-20T09:32:34Z</time>
      </trkpt>
      <trkpt lat="45.37054" lon="4.45188">
        <ele>1041.5</ele>
        <time>2015-12-20T09:32:35Z</time>
      </trkpt>
      <trkpt lat="45.37051" lon="4.45188">
        <ele>1041.3</ele>
        <time>2015-12-20T09:32:36Z</time>
      </trkpt>
      <trkpt lat="45.37047" lon="4.45187">
        <ele>1041</ele>
        <time>2015-12-20T09:32:37Z</time>
      </trkpt>
      <trkpt lat="45.37044" lon="4.45186">
        <ele>1040.8</ele>
        <time>2015-12-20T09:32:38Z</time>
      </trkpt>
      <trkpt lat="45.37041" lon="4.45184">
        <ele>1040.5</ele>
        <time>2015-12-20T09:32:39Z</time>
      </trkpt>
      <trkpt lat="45.37037" lon="4.45179">
        <ele>1039.8</ele>
        <time>2015-12-20T09:32:41Z</time>
      </trkpt>
      <trkpt lat="45.37034" lon="4.45177">
        <ele>1039.5</ele>
        <time>2015-12-20T09:32:42Z</time>
      </trkpt>
      <trkpt lat="45.37032" lon="4.45174">
        <ele>1039.1</ele>
        <time>2015-12-20T09:32:43Z</time>
      </trkpt>
      <trkpt lat="45.37027" lon="4.45174">
        <ele>1038.7</ele>
        <time>2015-12-20T09:32:45Z</time>
      </trkpt>
      <trkpt lat="45.37023" lon="4.45178">
        <ele>1038.6</ele>
        <time>2015-12-20T09:32:47Z</time>
      </trkpt>
      <trkpt lat="45.3702" lon="4.45181">
        <ele>1038.5</ele>
        <time>2015-12-20T09:32:48Z</time>
      </trkpt>
      <trkpt lat="45.37017" lon="4.45183">
        <ele>1038.4</ele>
        <time>2015-12-20T09:32:49Z</time>
      </trkpt>
      <trkpt lat="45.37014" lon="4.45185">
        <ele>1038.3</ele>
        <time>2015-12-20T09:32:50Z</time>
      </trkpt>
      <trkpt lat="45.37011" lon="4.45187">
        <ele>1038.1</ele>
        <time>2015-12-20T09:32:51Z</time>
      </trkpt>
      <trkpt lat="45.37008" lon="4.45188">
        <ele>1038</ele>
        <time>2015-12-20T09:32:52Z</time>
      </trkpt>
      <trkpt lat="45.37005" lon="4.45189">
        <ele>1037.7</ele>
        <time>2015-12-20T09:32:53Z</time>
      </trkpt>
      <trkpt lat="45.37001" lon="4.4519">
        <ele>1037.5</ele>
        <time>2015-12-20T09:32:54Z</time>
      </trkpt>
      <trkpt lat="45.36998" lon="4.45191">
        <ele>1037.3</ele>
        <time>2015-12-20T09:32:55Z</time>
      </trkpt>
      <trkpt lat="45.36994" lon="4.45194">
        <ele>1037.1</ele>
        <time>2015-12-20T09:32:56Z</time>
      </trkpt>
      <trkpt lat="45.36991" lon="4.45197">
        <ele>1037</ele>
        <time>2015-12-20T09:32:57Z</time>
      </trkpt>
      <trkpt lat="45.36988" lon="4.45199">
        <ele>1036.9</ele>
        <time>2015-12-20T09:32:58Z</time>
      </trkpt>
      <trkpt lat="45.36985" lon="4.45202">
        <ele>1036.9</ele>
        <time>2015-12-20T09:32:59Z</time>
      </trkpt>
      <trkpt lat="45.36982" lon="4.45204">
        <ele>1036.7</ele>
        <time>2015-12-20T09:33:00Z</time>
      </trkpt>
      <trkpt lat="45.36979" lon="4.45205">
        <ele>1036.5</ele>
        <time>2015-12-20T09:33:01Z</time>
      </trkpt>
      <trkpt lat="45.36975" lon="4.45206">
        <ele>1036.3</ele>
        <time>2015-12-20T09:33:02Z</time>
      </trkpt>
      <trkpt lat="45.36972" lon="4.45207">
        <ele>1036.1</ele>
        <time>2015-12-20T09:33:03Z</time>
      </trkpt>
      <trkpt lat="45.36967" lon="4.4521">
        <ele>1035.8</ele>
        <time>2015-12-20T09:33:05Z</time>
      </trkpt>
      <trkpt lat="45.36964" lon="4.45211">
        <ele>1035.7</ele>
        <time>2015-12-20T09:33:06Z</time>
      </trkpt>
      <trkpt lat="45.36961" lon="4.45213">
        <ele>1035.6</ele>
        <time>2015-12-20T09:33:07Z</time>
      </trkpt>
      <trkpt lat="45.36957" lon="4.45214">
        <ele>1035.4</ele>
        <time>2015-12-20T09:33:08Z</time>
      </trkpt>
      <trkpt lat="45.36954" lon="4.45216">
        <ele>1035</ele>
        <time>2015-12-20T09:33:09Z</time>
      </trkpt>
      <trkpt lat="45.36951" lon="4.45219">
        <ele>1034.8</ele>
        <time>2015-12-20T09:33:10Z</time>
      </trkpt>
      <trkpt lat="45.36948" lon="4.45221">
        <ele>1034.5</ele>
        <time>2015-12-20T09:33:11Z</time>
      </trkpt>
      <trkpt lat="45.36944" lon="4.45224">
        <ele>1034.2</ele>
        <time>2015-12-20T09:33:12Z</time>
      </trkpt>
      <trkpt lat="45.36941" lon="4.45227">
        <ele>1033.9</ele>
        <time>2015-12-20T09:33:13Z</time>
      </trkpt>
      <trkpt lat="45.36936" lon="4.45229">
        <ele>1033.4</ele>
        <time>2015-12-20T09:33:14Z</time>
      </trkpt>
      <trkpt lat="45.36933" lon="4.45231">
        <ele>1033.1</ele>
        <time>2015-12-20T09:33:15Z</time>
      </trkpt>
      <trkpt lat="45.36931" lon="4.45234">
        <ele>1032.9</ele>
        <time>2015-12-20T09:33:16Z</time>
      </trkpt>
      <trkpt lat="45.36928" lon="4.45237">
        <ele>1032.8</ele>
        <time>2015-12-20T09:33:17Z</time>
      </trkpt>
      <trkpt lat="45.36926" lon="4.4524">
        <ele>1032.7</ele>
        <time>2015-12-20T09:33:18Z</time>
      </trkpt>
      <trkpt lat="45.36924" lon="4.45244">
        <ele>1032.6</ele>
        <time>2015-12-20T09:33:19Z</time>
      </trkpt>
      <trkpt lat="45.36921" lon="4.45247">
        <ele>1032.5</ele>
        <time>2015-12-20T09:33:20Z</time>
      </trkpt>
      <trkpt lat="45.36919" lon="4.45249">
        <ele>1032.4</ele>
        <time>2015-12-20T09:33:21Z</time>
      </trkpt>
      <trkpt lat="45.36915" lon="4.45254">
        <ele>1032</ele>
        <time>2015-12-20T09:33:23Z</time>
      </trkpt>
      <trkpt lat="45.36912" lon="4.45257">
        <ele>1031.7</ele>
        <time>2015-12-20T09:33:25Z</time>
      </trkpt>
      <trkpt lat="45.36908" lon="4.45262">
        <ele>1031.5</ele>
        <time>2015-12-20T09:33:27Z</time>
      </trkpt>
      <trkpt lat="45.36906" lon="4.45265">
        <ele>1031.4</ele>
        <time>2015-12-20T09:33:28Z</time>
      </trkpt>
      <trkpt lat="45.36905" lon="4.45268">
        <ele>1031.3</ele>
        <time>2015-12-20T09:33:29Z</time>
      </trkpt>
      <trkpt lat="45.36902" lon="4.45271">
        <ele>1031.2</ele>
        <time>2015-12-20T09:33:30Z</time>
      </trkpt>
      <trkpt lat="45.369" lon="4.45275">
        <ele>1031.1</ele>
        <time>2015-12-20T09:33:31Z</time>
      </trkpt>
      <trkpt lat="45.36898" lon="4.45278">
        <ele>1030.9</ele>
        <time>2015-12-20T09:33:32Z</time>
      </trkpt>
      <trkpt lat="45.36895" lon="4.45282">
        <ele>1030.6</ele>
        <time>2015-12-20T09:33:34Z</time>
      </trkpt>
      <trkpt lat="45.36887" lon="4.45291">
        <ele>1030</ele>
        <time>2015-12-20T09:33:39Z</time>
      </trkpt>
      <trkpt lat="45.36883" lon="4.45295">
        <ele>1029.7</ele>
        <time>2015-12-20T09:35:05Z</time>
      </trkpt>
      <trkpt lat="45.36879" lon="4.453">
        <ele>1029.6</ele>
        <time>2015-12-20T09:35:36Z</time>
      </trkpt>
      <trkpt lat="45.36875" lon="4.45304">
        <ele>1029.4</ele>
        <time>2015-12-20T09:35:37Z</time>
      </trkpt>
      <trkpt lat="45.36876" lon="4.45271">
        <ele>1026.9</ele>
        <time>2015-12-20T09:35:45Z</time>
      </trkpt>
      <trkpt lat="45.36883" lon="4.45292">
        <ele>1029.5</ele>
        <time>2015-12-20T09:38:01Z</time>
      </trkpt>
      <trkpt lat="45.3688" lon="4.45296">
        <ele>1029.2</ele>
        <time>2015-12-20T09:38:03Z</time>
      </trkpt>
      <trkpt lat="45.36875" lon="4.45299">
        <ele>1028.8</ele>
        <time>2015-12-20T09:38:05Z</time>
      </trkpt>
      <trkpt lat="45.36871" lon="4.45302">
        <ele>1028.8</ele>
        <time>2015-12-20T09:38:07Z</time>
      </trkpt>
      <trkpt lat="45.36867" lon="4.45304">
        <ele>1028.9</ele>
        <time>2015-12-20T09:38:10Z</time>
      </trkpt>
      <trkpt lat="45.36865" lon="4.45307">
        <ele>1029.1</ele>
        <time>2015-12-20T09:38:12Z</time>
      </trkpt>
      <trkpt lat="45.36862" lon="4.45312">
        <ele>1029.4</ele>
        <time>2015-12-20T09:38:14Z</time>
      </trkpt>
      <trkpt lat="45.36859" lon="4.45314">
        <ele>1029.4</ele>
        <time>2015-12-20T09:38:15Z</time>
      </trkpt>
      <trkpt lat="45.36857" lon="4.45316">
        <ele>1029.5</ele>
        <time>2015-12-20T09:38:16Z</time>
      </trkpt>
      <trkpt lat="45.36854" lon="4.45318">
        <ele>1029.5</ele>
        <time>2015-12-20T09:38:17Z</time>
      </trkpt>
      <trkpt lat="45.36851" lon="4.4532">
        <ele>1029.5</ele>
        <time>2015-12-20T09:38:18Z</time>
      </trkpt>
      <trkpt lat="45.36848" lon="4.45322">
        <ele>1029.5</ele>
        <time>2015-12-20T09:38:19Z</time>
      </trkpt>
      <trkpt lat="45.36845" lon="4.45325">
        <ele>1029.5</ele>
        <time>2015-12-20T09:38:20Z</time>
      </trkpt>
      <trkpt lat="45.36842" lon="4.45327">
        <ele>1029.5</ele>
        <time>2015-12-20T09:38:21Z</time>
      </trkpt>
      <trkpt lat="45.36839" lon="4.45329">
        <ele>1029.6</ele>
        <time>2015-12-20T09:38:22Z</time>
      </trkpt>
      <trkpt lat="45.36836" lon="4.45331">
        <ele>1029.5</ele>
        <time>2015-12-20T09:38:23Z</time>
      </trkpt>
      <trkpt lat="45.36834" lon="4.45333">
        <ele>1029.5</ele>
        <time>2015-12-20T09:38:24Z</time>
      </trkpt>
      <trkpt lat="45.3683" lon="4.45336">
        <ele>1029.5</ele>
        <time>2015-12-20T09:38:25Z</time>
      </trkpt>
      <trkpt lat="45.36827" lon="4.45338">
        <ele>1029.5</ele>
        <time>2015-12-20T09:38:26Z</time>
      </trkpt>
      <trkpt lat="45.36824" lon="4.45341">
        <ele>1029.4</ele>
        <time>2015-12-20T09:38:27Z</time>
      </trkpt>
      <trkpt lat="45.3682" lon="4.45344">
        <ele>1029.4</ele>
        <time>2015-12-20T09:38:28Z</time>
      </trkpt>
      <trkpt lat="45.36817" lon="4.45347">
        <ele>1029.3</ele>
        <time>2015-12-20T09:38:29Z</time>
      </trkpt>
      <trkpt lat="45.36813" lon="4.45349">
        <ele>1029.2</ele>
        <time>2015-12-20T09:38:30Z</time>
      </trkpt>
      <trkpt lat="45.3681" lon="4.45352">
        <ele>1029.2</ele>
        <time>2015-12-20T09:38:31Z</time>
      </trkpt>
      <trkpt lat="45.36807" lon="4.45355">
        <ele>1029.1</ele>
        <time>2015-12-20T09:38:32Z</time>
      </trkpt>
      <trkpt lat="45.36804" lon="4.45357">
        <ele>1029</ele>
        <time>2015-12-20T09:38:33Z</time>
      </trkpt>
      <trkpt lat="45.368" lon="4.4536">
        <ele>1028.8</ele>
        <time>2015-12-20T09:38:34Z</time>
      </trkpt>
      <trkpt lat="45.36797" lon="4.45361">
        <ele>1028.6</ele>
        <time>2015-12-20T09:38:35Z</time>
      </trkpt>
      <trkpt lat="45.36793" lon="4.45362">
        <ele>1028.4</ele>
        <time>2015-12-20T09:38:36Z</time>
      </trkpt>
      <trkpt lat="45.3679" lon="4.45363">
        <ele>1028.3</ele>
        <time>2015-12-20T09:38:37Z</time>
      </trkpt>
      <trkpt lat="45.36786" lon="4.45365">
        <ele>1028.4</ele>
        <time>2015-12-20T09:38:38Z</time>
      </trkpt>
      <trkpt lat="45.36783" lon="4.45366">
        <ele>1028.5</ele>
        <time>2015-12-20T09:38:39Z</time>
      </trkpt>
      <trkpt lat="45.36779" lon="4.45366">
        <ele>1028.6</ele>
        <time>2015-12-20T09:38:40Z</time>
      </trkpt>
      <trkpt lat="45.36776" lon="4.45366">
        <ele>1028.6</ele>
        <time>2015-12-20T09:38:41Z</time>
      </trkpt>
      <trkpt lat="45.36774" lon="4.45365">
        <ele>1028.6</ele>
        <time>2015-12-20T09:38:42Z</time>
      </trkpt>
      <trkpt lat="45.36769" lon="4.45363">
        <ele>1028.5</ele>
        <time>2015-12-20T09:38:44Z</time>
      </trkpt>
      <trkpt lat="45.36766" lon="4.45362">
        <ele>1028.5</ele>
        <time>2015-12-20T09:38:45Z</time>
      </trkpt>
      <trkpt lat="45.36763" lon="4.4536">
        <ele>1028.5</ele>
        <time>2015-12-20T09:38:46Z</time>
      </trkpt>
      <trkpt lat="45.3676" lon="4.45357">
        <ele>1028.4</ele>
        <time>2015-12-20T09:38:48Z</time>
      </trkpt>
      <trkpt lat="45.36757" lon="4.45352">
        <ele>1028.3</ele>
        <time>2015-12-20T09:38:50Z</time>
      </trkpt>
      <trkpt lat="45.36755" lon="4.45348">
        <ele>1028.2</ele>
        <time>2015-12-20T09:38:51Z</time>
      </trkpt>
      <trkpt lat="45.36755" lon="4.45343">
        <ele>1028.1</ele>
        <time>2015-12-20T09:38:53Z</time>
      </trkpt>
      <trkpt lat="45.36754" lon="4.45338">
        <ele>1028</ele>
        <time>2015-12-20T09:38:56Z</time>
      </trkpt>
      <trkpt lat="45.3675" lon="4.45335">
        <ele>1028</ele>
        <time>2015-12-20T09:38:58Z</time>
      </trkpt>
      <trkpt lat="45.36747" lon="4.45334">
        <ele>1028.1</ele>
        <time>2015-12-20T09:38:59Z</time>
      </trkpt>
      <trkpt lat="45.36743" lon="4.45334">
        <ele>1028.2</ele>
        <time>2015-12-20T09:39:00Z</time>
      </trkpt>
      <trkpt lat="45.3674" lon="4.45335">
        <ele>1028.4</ele>
        <time>2015-12-20T09:39:01Z</time>
      </trkpt>
      <trkpt lat="45.36736" lon="4.45337">
        <ele>1028.5</ele>
        <time>2015-12-20T09:39:02Z</time>
      </trkpt>
      <trkpt lat="45.36733" lon="4.45339">
        <ele>1028.7</ele>
        <time>2015-12-20T09:39:03Z</time>
      </trkpt>
      <trkpt lat="45.36729" lon="4.45341">
        <ele>1028.8</ele>
        <time>2015-12-20T09:39:04Z</time>
      </trkpt>
      <trkpt lat="45.36725" lon="4.45342">
        <ele>1028.9</ele>
        <time>2015-12-20T09:39:05Z</time>
      </trkpt>
      <trkpt lat="45.36722" lon="4.45344">
        <ele>1029</ele>
        <time>2015-12-20T09:39:06Z</time>
      </trkpt>
      <trkpt lat="45.36718" lon="4.45345">
        <ele>1029.1</ele>
        <time>2015-12-20T09:39:07Z</time>
      </trkpt>
      <trkpt lat="45.36715" lon="4.45346">
        <ele>1029.2</ele>
        <time>2015-12-20T09:39:08Z</time>
      </trkpt>
      <trkpt lat="45.36712" lon="4.45347">
        <ele>1029.3</ele>
        <time>2015-12-20T09:39:09Z</time>
      </trkpt>
      <trkpt lat="45.36708" lon="4.45348">
        <ele>1029.3</ele>
        <time>2015-12-20T09:39:10Z</time>
      </trkpt>
      <trkpt lat="45.36705" lon="4.45349">
        <ele>1029.5</ele>
        <time>2015-12-20T09:39:11Z</time>
      </trkpt>
      <trkpt lat="45.36702" lon="4.45349">
        <ele>1029.6</ele>
        <time>2015-12-20T09:39:12Z</time>
      </trkpt>
      <trkpt lat="45.36698" lon="4.4535">
        <ele>1029.8</ele>
        <time>2015-12-20T09:39:13Z</time>
      </trkpt>
      <trkpt lat="45.36695" lon="4.4535">
        <ele>1029.9</ele>
        <time>2015-12-20T09:39:14Z</time>
      </trkpt>
      <trkpt lat="45.36692" lon="4.45351">
        <ele>1030</ele>
        <time>2015-12-20T09:39:15Z</time>
      </trkpt>
      <trkpt lat="45.36688" lon="4.45351">
        <ele>1030.2</ele>
        <time>2015-12-20T09:39:16Z</time>
      </trkpt>
      <trkpt lat="45.36685" lon="4.45351">
        <ele>1030.3</ele>
        <time>2015-12-20T09:39:17Z</time>
      </trkpt>
      <trkpt lat="45.36682" lon="4.45351">
        <ele>1030.5</ele>
        <time>2015-12-20T09:39:18Z</time>
      </trkpt>
      <trkpt lat="45.36679" lon="4.45351">
        <ele>1030.6</ele>
        <time>2015-12-20T09:39:19Z</time>
      </trkpt>
      <trkpt lat="45.36676" lon="4.45351">
        <ele>1030.7</ele>
        <time>2015-12-20T09:39:20Z</time>
      </trkpt>
      <trkpt lat="45.36673" lon="4.45351">
        <ele>1030.9</ele>
        <time>2015-12-20T09:39:21Z</time>
      </trkpt>
      <trkpt lat="45.36669" lon="4.45351">
        <ele>1031</ele>
        <time>2015-12-20T09:39:22Z</time>
      </trkpt>
      <trkpt lat="45.36666" lon="4.4535">
        <ele>1031.2</ele>
        <time>2015-12-20T09:39:23Z</time>
      </trkpt>
      <trkpt lat="45.36663" lon="4.4535">
        <ele>1031.3</ele>
        <time>2015-12-20T09:39:24Z</time>
      </trkpt>
      <trkpt lat="45.36659" lon="4.4535">
        <ele>1031.5</ele>
        <time>2015-12-20T09:39:25Z</time>
      </trkpt>
      <trkpt lat="45.36656" lon="4.4535">
        <ele>1031.6</ele>
        <time>2015-12-20T09:39:26Z</time>
      </trkpt>
      <trkpt lat="45.36652" lon="4.45349">
        <ele>1031.8</ele>
        <time>2015-12-20T09:39:27Z</time>
      </trkpt>
      <trkpt lat="45.36648" lon="4.45349">
        <ele>1032</ele>
        <time>2015-12-20T09:39:28Z</time>
      </trkpt>
      <trkpt lat="45.36645" lon="4.45349">
        <ele>1032.1</ele>
        <time>2015-12-20T09:39:29Z</time>
      </trkpt>
      <trkpt lat="45.36642" lon="4.45348">
        <ele>1032.3</ele>
        <time>2015-12-20T09:39:30Z</time>
      </trkpt>
      <trkpt lat="45.36639" lon="4.45347">
        <ele>1032.4</ele>
        <time>2015-12-20T09:39:31Z</time>
      </trkpt>
      <trkpt lat="45.36635" lon="4.45347">
        <ele>1032.6</ele>
        <time>2015-12-20T09:39:32Z</time>
      </trkpt>
      <trkpt lat="45.36632" lon="4.45346">
        <ele>1032.7</ele>
        <time>2015-12-20T09:39:33Z</time>
      </trkpt>
      <trkpt lat="45.36628" lon="4.45346">
        <ele>1032.9</ele>
        <time>2015-12-20T09:39:34Z</time>
      </trkpt>
      <trkpt lat="45.36625" lon="4.45345">
        <ele>1033</ele>
        <time>2015-12-20T09:39:35Z</time>
      </trkpt>
      <trkpt lat="45.36622" lon="4.45344">
        <ele>1033</ele>
        <time>2015-12-20T09:39:36Z</time>
      </trkpt>
      <trkpt lat="45.36619" lon="4.45344">
        <ele>1033</ele>
        <time>2015-12-20T09:39:37Z</time>
      </trkpt>
      <trkpt lat="45.36616" lon="4.45344">
        <ele>1033</ele>
        <time>2015-12-20T09:39:38Z</time>
      </trkpt>
      <trkpt lat="45.36612" lon="4.45343">
        <ele>1033</ele>
        <time>2015-12-20T09:39:39Z</time>
      </trkpt>
      <trkpt lat="45.36609" lon="4.45342">
        <ele>1033</ele>
        <time>2015-12-20T09:39:40Z</time>
      </trkpt>
      <trkpt lat="45.36606" lon="4.45342">
        <ele>1033</ele>
        <time>2015-12-20T09:39:41Z</time>
      </trkpt>
      <trkpt lat="45.36602" lon="4.45342">
        <ele>1033</ele>
        <time>2015-12-20T09:39:42Z</time>
      </trkpt>
      <trkpt lat="45.36599" lon="4.45341">
        <ele>1033</ele>
        <time>2015-12-20T09:39:43Z</time>
      </trkpt>
      <trkpt lat="45.36595" lon="4.45341">
        <ele>1033</ele>
        <time>2015-12-20T09:39:44Z</time>
      </trkpt>
      <trkpt lat="45.36591" lon="4.4534">
        <ele>1033</ele>
        <time>2015-12-20T09:39:45Z</time>
      </trkpt>
      <trkpt lat="45.36588" lon="4.4534">
        <ele>1033</ele>
        <time>2015-12-20T09:39:46Z</time>
      </trkpt>
      <trkpt lat="45.36584" lon="4.4534">
        <ele>1033</ele>
        <time>2015-12-20T09:39:47Z</time>
      </trkpt>
      <trkpt lat="45.36581" lon="4.4534">
        <ele>1033</ele>
        <time>2015-12-20T09:39:48Z</time>
      </trkpt>
      <trkpt lat="45.36576" lon="4.4534">
        <ele>1033</ele>
        <time>2015-12-20T09:39:49Z</time>
      </trkpt>
      <trkpt lat="45.36573" lon="4.4534">
        <ele>1033</ele>
        <time>2015-12-20T09:39:50Z</time>
      </trkpt>
      <trkpt lat="45.36569" lon="4.4534">
        <ele>1033</ele>
        <time>2015-12-20T09:39:51Z</time>
      </trkpt>
      <trkpt lat="45.36566" lon="4.4534">
        <ele>1033</ele>
        <time>2015-12-20T09:39:52Z</time>
      </trkpt>
      <trkpt lat="45.36563" lon="4.4534">
        <ele>1033</ele>
        <time>2015-12-20T09:39:53Z</time>
      </trkpt>
      <trkpt lat="45.36559" lon="4.45339">
        <ele>1033</ele>
        <time>2015-12-20T09:39:54Z</time>
      </trkpt>
      <trkpt lat="45.36555" lon="4.45338">
        <ele>1033</ele>
        <time>2015-12-20T09:39:55Z</time>
      </trkpt>
      <trkpt lat="45.36551" lon="4.45338">
        <ele>1033</ele>
        <time>2015-12-20T09:39:56Z</time>
      </trkpt>
      <trkpt lat="45.36548" lon="4.45337">
        <ele>1033</ele>
        <time>2015-12-20T09:39:57Z</time>
      </trkpt>
      <trkpt lat="45.36544" lon="4.45336">
        <ele>1033</ele>
        <time>2015-12-20T09:39:58Z</time>
      </trkpt>
      <trkpt lat="45.36541" lon="4.45336">
        <ele>1033</ele>
        <time>2015-12-20T09:39:59Z</time>
      </trkpt>
      <trkpt lat="45.36538" lon="4.45336">
        <ele>1033.2</ele>
        <time>2015-12-20T09:40:00Z</time>
      </trkpt>
      <trkpt lat="45.36534" lon="4.45335">
        <ele>1033.4</ele>
        <time>2015-12-20T09:40:01Z</time>
      </trkpt>
      <trkpt lat="45.36531" lon="4.45335">
        <ele>1033.5</ele>
        <time>2015-12-20T09:40:02Z</time>
      </trkpt>
      <trkpt lat="45.36527" lon="4.45334">
        <ele>1033.7</ele>
        <time>2015-12-20T09:40:03Z</time>
      </trkpt>
      <trkpt lat="45.36524" lon="4.45333">
        <ele>1033.9</ele>
        <time>2015-12-20T09:40:04Z</time>
      </trkpt>
      <trkpt lat="45.3652" lon="4.45333">
        <ele>1034</ele>
        <time>2015-12-20T09:40:05Z</time>
      </trkpt>
      <trkpt lat="45.36516" lon="4.45333">
        <ele>1034.2</ele>
        <time>2015-12-20T09:40:06Z</time>
      </trkpt>
      <trkpt lat="45.36509" lon="4.45332">
        <ele>1034.6</ele>
        <time>2015-12-20T09:40:08Z</time>
      </trkpt>
      <trkpt lat="45.36505" lon="4.45331">
        <ele>1034.7</ele>
        <time>2015-12-20T09:40:09Z</time>
      </trkpt>
      <trkpt lat="45.36502" lon="4.45331">
        <ele>1034.9</ele>
        <time>2015-12-20T09:40:10Z</time>
      </trkpt>
      <trkpt lat="45.36498" lon="4.4533">
        <ele>1035</ele>
        <time>2015-12-20T09:40:11Z</time>
      </trkpt>
      <trkpt lat="45.36495" lon="4.4533">
        <ele>1035.2</ele>
        <time>2015-12-20T09:40:12Z</time>
      </trkpt>
      <trkpt lat="45.36491" lon="4.4533">
        <ele>1035.3</ele>
        <time>2015-12-20T09:40:13Z</time>
      </trkpt>
      <trkpt lat="45.36487" lon="4.45329">
        <ele>1035.5</ele>
        <time>2015-12-20T09:40:14Z</time>
      </trkpt>
      <trkpt lat="45.36483" lon="4.45329">
        <ele>1035.7</ele>
        <time>2015-12-20T09:40:15Z</time>
      </trkpt>
      <trkpt lat="45.36478" lon="4.45329">
        <ele>1035.9</ele>
        <time>2015-12-20T09:40:16Z</time>
      </trkpt>
      <trkpt lat="45.36474" lon="4.45328">
        <ele>1036</ele>
        <time>2015-12-20T09:40:17Z</time>
      </trkpt>
      <trkpt lat="45.36471" lon="4.45328">
        <ele>1036.2</ele>
        <time>2015-12-20T09:40:18Z</time>
      </trkpt>
      <trkpt lat="45.36467" lon="4.45328">
        <ele>1036.4</ele>
        <time>2015-12-20T09:40:19Z</time>
      </trkpt>
      <trkpt lat="45.36463" lon="4.45328">
        <ele>1036.5</ele>
        <time>2015-12-20T09:40:20Z</time>
      </trkpt>
      <trkpt lat="45.36459" lon="4.45328">
        <ele>1036.7</ele>
        <time>2015-12-20T09:40:21Z</time>
      </trkpt>
      <trkpt lat="45.36456" lon="4.45328">
        <ele>1036.9</ele>
        <time>2015-12-20T09:40:22Z</time>
      </trkpt>
      <trkpt lat="45.36452" lon="4.45327">
        <ele>1037.1</ele>
        <time>2015-12-20T09:40:23Z</time>
      </trkpt>
      <trkpt lat="45.36449" lon="4.45327">
        <ele>1037.2</ele>
        <time>2015-12-20T09:40:24Z</time>
      </trkpt>
      <trkpt lat="45.36446" lon="4.45327">
        <ele>1037.4</ele>
        <time>2015-12-20T09:40:25Z</time>
      </trkpt>
      <trkpt lat="45.36442" lon="4.45326">
        <ele>1037.6</ele>
        <time>2015-12-20T09:40:26Z</time>
      </trkpt>
      <trkpt lat="45.36439" lon="4.45326">
        <ele>1037.8</ele>
        <time>2015-12-20T09:40:27Z</time>
      </trkpt>
      <trkpt lat="45.36435" lon="4.45325">
        <ele>1037.9</ele>
        <time>2015-12-20T09:40:28Z</time>
      </trkpt>
      <trkpt lat="45.36432" lon="4.45325">
        <ele>1038.1</ele>
        <time>2015-12-20T09:40:29Z</time>
      </trkpt>
      <trkpt lat="45.36428" lon="4.45324">
        <ele>1038.3</ele>
        <time>2015-12-20T09:40:30Z</time>
      </trkpt>
      <trkpt lat="45.36425" lon="4.45324">
        <ele>1038.5</ele>
        <time>2015-12-20T09:40:31Z</time>
      </trkpt>
      <trkpt lat="45.36422" lon="4.45324">
        <ele>1038.7</ele>
        <time>2015-12-20T09:40:32Z</time>
      </trkpt>
      <trkpt lat="45.36418" lon="4.45323">
        <ele>1038.8</ele>
        <time>2015-12-20T09:40:33Z</time>
      </trkpt>
      <trkpt lat="45.36414" lon="4.45323">
        <ele>1039</ele>
        <time>2015-12-20T09:40:34Z</time>
      </trkpt>
      <trkpt lat="45.36411" lon="4.45323">
        <ele>1039.2</ele>
        <time>2015-12-20T09:40:35Z</time>
      </trkpt>
      <trkpt lat="45.36408" lon="4.45323">
        <ele>1039.4</ele>
        <time>2015-12-20T09:40:36Z</time>
      </trkpt>
      <trkpt lat="45.36404" lon="4.45323">
        <ele>1039.6</ele>
        <time>2015-12-20T09:40:37Z</time>
      </trkpt>
      <trkpt lat="45.364" lon="4.45324">
        <ele>1039.9</ele>
        <time>2015-12-20T09:40:38Z</time>
      </trkpt>
      <trkpt lat="45.36397" lon="4.45325">
        <ele>1040.1</ele>
        <time>2015-12-20T09:40:39Z</time>
      </trkpt>
      <trkpt lat="45.36393" lon="4.45325">
        <ele>1040.4</ele>
        <time>2015-12-20T09:40:40Z</time>
      </trkpt>
      <trkpt lat="45.36389" lon="4.45326">
        <ele>1040.7</ele>
        <time>2015-12-20T09:40:41Z</time>
      </trkpt>
      <trkpt lat="45.36386" lon="4.45327">
        <ele>1040.9</ele>
        <time>2015-12-20T09:40:42Z</time>
      </trkpt>
      <trkpt lat="45.36382" lon="4.45328">
        <ele>1041.2</ele>
        <time>2015-12-20T09:40:43Z</time>
      </trkpt>
      <trkpt lat="45.36378" lon="4.45329">
        <ele>1041.5</ele>
        <time>2015-12-20T09:40:44Z</time>
      </trkpt>
      <trkpt lat="45.36375" lon="4.4533">
        <ele>1041.8</ele>
        <time>2015-12-20T09:40:45Z</time>
      </trkpt>
      <trkpt lat="45.36371" lon="4.45332">
        <ele>1042.5</ele>
        <time>2015-12-20T09:40:46Z</time>
      </trkpt>
      <trkpt lat="45.36367" lon="4.45334">
        <ele>1043.1</ele>
        <time>2015-12-20T09:40:47Z</time>
      </trkpt>
      <trkpt lat="45.36364" lon="4.45336">
        <ele>1043.7</ele>
        <time>2015-12-20T09:40:48Z</time>
      </trkpt>
      <trkpt lat="45.3636" lon="4.45338">
        <ele>1044.4</ele>
        <time>2015-12-20T09:40:49Z</time>
      </trkpt>
      <trkpt lat="45.36357" lon="4.45339">
        <ele>1045</ele>
        <time>2015-12-20T09:40:50Z</time>
      </trkpt>
      <trkpt lat="45.36354" lon="4.45341">
        <ele>1045.5</ele>
        <time>2015-12-20T09:40:51Z</time>
      </trkpt>
      <trkpt lat="45.36351" lon="4.45344">
        <ele>1046</ele>
        <time>2015-12-20T09:40:52Z</time>
      </trkpt>
      <trkpt lat="45.36348" lon="4.45345">
        <ele>1046.5</ele>
        <time>2015-12-20T09:40:53Z</time>
      </trkpt>
      <trkpt lat="45.36344" lon="4.45348">
        <ele>1047.3</ele>
        <time>2015-12-20T09:40:55Z</time>
      </trkpt>
      <trkpt lat="45.3634" lon="4.45349">
        <ele>1047.8</ele>
        <time>2015-12-20T09:40:57Z</time>
      </trkpt>
      <trkpt lat="45.36339" lon="4.45353">
        <ele>1048.3</ele>
        <time>2015-12-20T09:41:08Z</time>
      </trkpt>
      <trkpt lat="45.36336" lon="4.45358">
        <ele>1049</ele>
        <time>2015-12-20T09:41:11Z</time>
      </trkpt>
      <trkpt lat="45.36332" lon="4.45362">
        <ele>1049.8</ele>
        <time>2015-12-20T09:41:13Z</time>
      </trkpt>
      <trkpt lat="45.36329" lon="4.45366">
        <ele>1050.5</ele>
        <time>2015-12-20T09:41:15Z</time>
      </trkpt>
      <trkpt lat="45.36326" lon="4.45371">
        <ele>1051.2</ele>
        <time>2015-12-20T09:41:17Z</time>
      </trkpt>
      <trkpt lat="45.36322" lon="4.45374">
        <ele>1052</ele>
        <time>2015-12-20T09:41:19Z</time>
      </trkpt>
      <trkpt lat="45.36318" lon="4.45377">
        <ele>1052.5</ele>
        <time>2015-12-20T09:41:21Z</time>
      </trkpt>
      <trkpt lat="45.36314" lon="4.45383">
        <ele>1052.9</ele>
        <time>2015-12-20T09:41:23Z</time>
      </trkpt>
      <trkpt lat="45.36311" lon="4.45388">
        <ele>1053.2</ele>
        <time>2015-12-20T09:41:25Z</time>
      </trkpt>
      <trkpt lat="45.36309" lon="4.45391">
        <ele>1053.3</ele>
        <time>2015-12-20T09:41:26Z</time>
      </trkpt>
      <trkpt lat="45.36307" lon="4.45395">
        <ele>1053.5</ele>
        <time>2015-12-20T09:41:27Z</time>
      </trkpt>
      <trkpt lat="45.36305" lon="4.45398">
        <ele>1053.8</ele>
        <time>2015-12-20T09:41:28Z</time>
      </trkpt>
      <trkpt lat="45.36302" lon="4.45401">
        <ele>1054</ele>
        <time>2015-12-20T09:41:29Z</time>
      </trkpt>
      <trkpt lat="45.363" lon="4.45405">
        <ele>1054.3</ele>
        <time>2015-12-20T09:41:30Z</time>
      </trkpt>
      <trkpt lat="45.36298" lon="4.45409">
        <ele>1054.5</ele>
        <time>2015-12-20T09:41:31Z</time>
      </trkpt>
      <trkpt lat="45.36296" lon="4.45412">
        <ele>1054.6</ele>
        <time>2015-12-20T09:41:32Z</time>
      </trkpt>
      <trkpt lat="45.36293" lon="4.45415">
        <ele>1054.9</ele>
        <time>2015-12-20T09:41:33Z</time>
      </trkpt>
      <trkpt lat="45.36291" lon="4.45419">
        <ele>1055</ele>
        <time>2015-12-20T09:41:34Z</time>
      </trkpt>
      <trkpt lat="45.36288" lon="4.45422">
        <ele>1055</ele>
        <time>2015-12-20T09:41:35Z</time>
      </trkpt>
      <trkpt lat="45.36286" lon="4.45425">
        <ele>1055.1</ele>
        <time>2015-12-20T09:41:36Z</time>
      </trkpt>
      <trkpt lat="45.36284" lon="4.45429">
        <ele>1055.1</ele>
        <time>2015-12-20T09:41:37Z</time>
      </trkpt>
      <trkpt lat="45.3628" lon="4.45433">
        <ele>1055.2</ele>
        <time>2015-12-20T09:41:39Z</time>
      </trkpt>
      <trkpt lat="45.36277" lon="4.45436">
        <ele>1055.2</ele>
        <time>2015-12-20T09:41:40Z</time>
      </trkpt>
      <trkpt lat="45.36275" lon="4.4544">
        <ele>1055.2</ele>
        <time>2015-12-20T09:41:41Z</time>
      </trkpt>
      <trkpt lat="45.36272" lon="4.45444">
        <ele>1055.2</ele>
        <time>2015-12-20T09:41:42Z</time>
      </trkpt>
      <trkpt lat="45.3627" lon="4.45449">
        <ele>1055.1</ele>
        <time>2015-12-20T09:41:43Z</time>
      </trkpt>
      <trkpt lat="45.36267" lon="4.45453">
        <ele>1055.1</ele>
        <time>2015-12-20T09:41:44Z</time>
      </trkpt>
      <trkpt lat="45.36265" lon="4.45457">
        <ele>1055</ele>
        <time>2015-12-20T09:41:45Z</time>
      </trkpt>
      <trkpt lat="45.36263" lon="4.45462">
        <ele>1054.7</ele>
        <time>2015-12-20T09:41:46Z</time>
      </trkpt>
      <trkpt lat="45.3626" lon="4.45466">
        <ele>1054.2</ele>
        <time>2015-12-20T09:41:47Z</time>
      </trkpt>
      <trkpt lat="45.36257" lon="4.4547">
        <ele>1053.8</ele>
        <time>2015-12-20T09:41:48Z</time>
      </trkpt>
      <trkpt lat="45.36254" lon="4.45474">
        <ele>1053.4</ele>
        <time>2015-12-20T09:41:49Z</time>
      </trkpt>
      <trkpt lat="45.36252" lon="4.45478">
        <ele>1053</ele>
        <time>2015-12-20T09:41:50Z</time>
      </trkpt>
      <trkpt lat="45.36249" lon="4.45481">
        <ele>1052.6</ele>
        <time>2015-12-20T09:41:51Z</time>
      </trkpt>
      <trkpt lat="45.36246" lon="4.45485">
        <ele>1052.2</ele>
        <time>2015-12-20T09:41:52Z</time>
      </trkpt>
      <trkpt lat="45.36244" lon="4.45489">
        <ele>1051.8</ele>
        <time>2015-12-20T09:41:53Z</time>
      </trkpt>
      <trkpt lat="45.36241" lon="4.45493">
        <ele>1051.4</ele>
        <time>2015-12-20T09:41:54Z</time>
      </trkpt>
      <trkpt lat="45.36238" lon="4.45497">
        <ele>1051</ele>
        <time>2015-12-20T09:41:55Z</time>
      </trkpt>
      <trkpt lat="45.36235" lon="4.45501">
        <ele>1050.5</ele>
        <time>2015-12-20T09:41:56Z</time>
      </trkpt>
      <trkpt lat="45.36233" lon="4.45505">
        <ele>1050.1</ele>
        <time>2015-12-20T09:41:57Z</time>
      </trkpt>
      <trkpt lat="45.3623" lon="4.4551">
        <ele>1049.6</ele>
        <time>2015-12-20T09:41:58Z</time>
      </trkpt>
      <trkpt lat="45.36228" lon="4.45514">
        <ele>1049.1</ele>
        <time>2015-12-20T09:41:59Z</time>
      </trkpt>
      <trkpt lat="45.36225" lon="4.45518">
        <ele>1048.6</ele>
        <time>2015-12-20T09:42:00Z</time>
      </trkpt>
      <trkpt lat="45.36222" lon="4.45523">
        <ele>1048.2</ele>
        <time>2015-12-20T09:42:01Z</time>
      </trkpt>
      <trkpt lat="45.3622" lon="4.45527">
        <ele>1047.7</ele>
        <time>2015-12-20T09:42:02Z</time>
      </trkpt>
      <trkpt lat="45.36217" lon="4.45531">
        <ele>1047.2</ele>
        <time>2015-12-20T09:42:03Z</time>
      </trkpt>
      <trkpt lat="45.36214" lon="4.45536">
        <ele>1046.6</ele>
        <time>2015-12-20T09:42:04Z</time>
      </trkpt>
      <trkpt lat="45.36212" lon="4.45541">
        <ele>1046</ele>
        <time>2015-12-20T09:42:05Z</time>
      </trkpt>
      <trkpt lat="45.36209" lon="4.45546">
        <ele>1045.8</ele>
        <time>2015-12-20T09:42:06Z</time>
      </trkpt>
      <trkpt lat="45.36207" lon="4.45551">
        <ele>1045.8</ele>
        <time>2015-12-20T09:42:07Z</time>
      </trkpt>
      <trkpt lat="45.36204" lon="4.45556">
        <ele>1045.8</ele>
        <time>2015-12-20T09:42:08Z</time>
      </trkpt>
      <trkpt lat="45.36201" lon="4.4556">
        <ele>1045.9</ele>
        <time>2015-12-20T09:42:09Z</time>
      </trkpt>
      <trkpt lat="45.36198" lon="4.45565">
        <ele>1046</ele>
        <time>2015-12-20T09:42:10Z</time>
      </trkpt>
      <trkpt lat="45.36195" lon="4.4557">
        <ele>1046</ele>
        <time>2015-12-20T09:42:11Z</time>
      </trkpt>
      <trkpt lat="45.36192" lon="4.45574">
        <ele>1046</ele>
        <time>2015-12-20T09:42:12Z</time>
      </trkpt>
      <trkpt lat="45.36189" lon="4.45579">
        <ele>1046</ele>
        <time>2015-12-20T09:42:13Z</time>
      </trkpt>
      <trkpt lat="45.36187" lon="4.45585">
        <ele>1045.8</ele>
        <time>2015-12-20T09:42:14Z</time>
      </trkpt>
      <trkpt lat="45.36184" lon="4.4559">
        <ele>1045.8</ele>
        <time>2015-12-20T09:42:15Z</time>
      </trkpt>
      <trkpt lat="45.36182" lon="4.45594">
        <ele>1045.7</ele>
        <time>2015-12-20T09:42:16Z</time>
      </trkpt>
      <trkpt lat="45.36179" lon="4.45598">
        <ele>1045.6</ele>
        <time>2015-12-20T09:42:17Z</time>
      </trkpt>
      <trkpt lat="45.36176" lon="4.45603">
        <ele>1045.5</ele>
        <time>2015-12-20T09:42:18Z</time>
      </trkpt>
      <trkpt lat="45.36173" lon="4.45608">
        <ele>1045.4</ele>
        <time>2015-12-20T09:42:19Z</time>
      </trkpt>
      <trkpt lat="45.36171" lon="4.45612">
        <ele>1045.3</ele>
        <time>2015-12-20T09:42:20Z</time>
      </trkpt>
      <trkpt lat="45.36168" lon="4.45616">
        <ele>1045.1</ele>
        <time>2015-12-20T09:42:21Z</time>
      </trkpt>
      <trkpt lat="45.36164" lon="4.4562">
        <ele>1045</ele>
        <time>2015-12-20T09:42:22Z</time>
      </trkpt>
      <trkpt lat="45.36162" lon="4.45625">
        <ele>1044.8</ele>
        <time>2015-12-20T09:42:23Z</time>
      </trkpt>
      <trkpt lat="45.36159" lon="4.45629">
        <ele>1045.1</ele>
        <time>2015-12-20T09:42:24Z</time>
      </trkpt>
      <trkpt lat="45.36156" lon="4.45634">
        <ele>1045.5</ele>
        <time>2015-12-20T09:42:25Z</time>
      </trkpt>
      <trkpt lat="45.36153" lon="4.45638">
        <ele>1045.8</ele>
        <time>2015-12-20T09:42:26Z</time>
      </trkpt>
      <trkpt lat="45.3615" lon="4.45643">
        <ele>1046.1</ele>
        <time>2015-12-20T09:42:27Z</time>
      </trkpt>
      <trkpt lat="45.36147" lon="4.45648">
        <ele>1046.4</ele>
        <time>2015-12-20T09:42:28Z</time>
      </trkpt>
      <trkpt lat="45.36144" lon="4.45652">
        <ele>1046.6</ele>
        <time>2015-12-20T09:42:29Z</time>
      </trkpt>
      <trkpt lat="45.3614" lon="4.45657">
        <ele>1046.9</ele>
        <time>2015-12-20T09:42:30Z</time>
      </trkpt>
      <trkpt lat="45.36137" lon="4.45661">
        <ele>1047.1</ele>
        <time>2015-12-20T09:42:31Z</time>
      </trkpt>
      <trkpt lat="45.36134" lon="4.45666">
        <ele>1047.3</ele>
        <time>2015-12-20T09:42:32Z</time>
      </trkpt>
      <trkpt lat="45.36131" lon="4.45671">
        <ele>1047.4</ele>
        <time>2015-12-20T09:42:33Z</time>
      </trkpt>
      <trkpt lat="45.36128" lon="4.45676">
        <ele>1047.6</ele>
        <time>2015-12-20T09:42:34Z</time>
      </trkpt>
      <trkpt lat="45.36124" lon="4.45684">
        <ele>1047.8</ele>
        <time>2015-12-20T09:42:35Z</time>
      </trkpt>
      <trkpt lat="45.36121" lon="4.45687">
        <ele>1047.9</ele>
        <time>2015-12-20T09:42:36Z</time>
      </trkpt>
      <trkpt lat="45.36117" lon="4.45692">
        <ele>1048.1</ele>
        <time>2015-12-20T09:42:37Z</time>
      </trkpt>
      <trkpt lat="45.36114" lon="4.45697">
        <ele>1048.2</ele>
        <time>2015-12-20T09:42:38Z</time>
      </trkpt>
      <trkpt lat="45.36111" lon="4.45702">
        <ele>1048.3</ele>
        <time>2015-12-20T09:42:39Z</time>
      </trkpt>
      <trkpt lat="45.36109" lon="4.45707">
        <ele>1048.4</ele>
        <time>2015-12-20T09:42:40Z</time>
      </trkpt>
      <trkpt lat="45.36106" lon="4.45711">
        <ele>1048.5</ele>
        <time>2015-12-20T09:42:41Z</time>
      </trkpt>
      <trkpt lat="45.36103" lon="4.45715">
        <ele>1048.7</ele>
        <time>2015-12-20T09:42:42Z</time>
      </trkpt>
      <trkpt lat="45.361" lon="4.4572">
        <ele>1048.8</ele>
        <time>2015-12-20T09:42:43Z</time>
      </trkpt>
      <trkpt lat="45.36098" lon="4.45727">
        <ele>1049</ele>
        <time>2015-12-20T09:42:44Z</time>
      </trkpt>
      <trkpt lat="45.36095" lon="4.4573">
        <ele>1049.1</ele>
        <time>2015-12-20T09:42:45Z</time>
      </trkpt>
      <trkpt lat="45.36091" lon="4.45733">
        <ele>1049.2</ele>
        <time>2015-12-20T09:42:46Z</time>
      </trkpt>
      <trkpt lat="45.36088" lon="4.45737">
        <ele>1049.3</ele>
        <time>2015-12-20T09:42:47Z</time>
      </trkpt>
      <trkpt lat="45.36085" lon="4.4574">
        <ele>1049.4</ele>
        <time>2015-12-20T09:42:48Z</time>
      </trkpt>
      <trkpt lat="45.36081" lon="4.45743">
        <ele>1049.4</ele>
        <time>2015-12-20T09:42:49Z</time>
      </trkpt>
      <trkpt lat="45.36077" lon="4.45746">
        <ele>1049.5</ele>
        <time>2015-12-20T09:42:50Z</time>
      </trkpt>
      <trkpt lat="45.36073" lon="4.4575">
        <ele>1049.5</ele>
        <time>2015-12-20T09:42:51Z</time>
      </trkpt>
      <trkpt lat="45.36069" lon="4.45753">
        <ele>1049.5</ele>
        <time>2015-12-20T09:42:52Z</time>
      </trkpt>
      <trkpt lat="45.36066" lon="4.45757">
        <ele>1049.5</ele>
        <time>2015-12-20T09:42:53Z</time>
      </trkpt>
      <trkpt lat="45.36063" lon="4.45762">
        <ele>1049.5</ele>
        <time>2015-12-20T09:42:54Z</time>
      </trkpt>
      <trkpt lat="45.36059" lon="4.45766">
        <ele>1049.5</ele>
        <time>2015-12-20T09:42:55Z</time>
      </trkpt>
      <trkpt lat="45.36057" lon="4.45772">
        <ele>1049.4</ele>
        <time>2015-12-20T09:42:56Z</time>
      </trkpt>
      <trkpt lat="45.36054" lon="4.45776">
        <ele>1049.4</ele>
        <time>2015-12-20T09:42:57Z</time>
      </trkpt>
      <trkpt lat="45.36052" lon="4.45782">
        <ele>1049.3</ele>
        <time>2015-12-20T09:42:58Z</time>
      </trkpt>
      <trkpt lat="45.3605" lon="4.45787">
        <ele>1049.2</ele>
        <time>2015-12-20T09:42:59Z</time>
      </trkpt>
      <trkpt lat="45.36048" lon="4.45793">
        <ele>1049.1</ele>
        <time>2015-12-20T09:43:00Z</time>
      </trkpt>
      <trkpt lat="45.36046" lon="4.45797">
        <ele>1049.1</ele>
        <time>2015-12-20T09:43:01Z</time>
      </trkpt>
      <trkpt lat="45.36046" lon="4.45804">
        <ele>1049</ele>
        <time>2015-12-20T09:43:02Z</time>
      </trkpt>
      <trkpt lat="45.36043" lon="4.45807">
        <ele>1048.9</ele>
        <time>2015-12-20T09:43:03Z</time>
      </trkpt>
      <trkpt lat="45.36041" lon="4.45812">
        <ele>1048.8</ele>
        <time>2015-12-20T09:43:04Z</time>
      </trkpt>
      <trkpt lat="45.3604" lon="4.45815">
        <ele>1048.7</ele>
        <time>2015-12-20T09:43:05Z</time>
      </trkpt>
      <trkpt lat="45.36037" lon="4.45819">
        <ele>1048.6</ele>
        <time>2015-12-20T09:43:06Z</time>
      </trkpt>
      <trkpt lat="45.36034" lon="4.45823">
        <ele>1048.5</ele>
        <time>2015-12-20T09:43:07Z</time>
      </trkpt>
      <trkpt lat="45.36032" lon="4.45827">
        <ele>1048.5</ele>
        <time>2015-12-20T09:43:08Z</time>
      </trkpt>
      <trkpt lat="45.3603" lon="4.45831">
        <ele>1048.4</ele>
        <time>2015-12-20T09:43:09Z</time>
      </trkpt>
      <trkpt lat="45.36026" lon="4.45837">
        <ele>1048.3</ele>
        <time>2015-12-20T09:43:11Z</time>
      </trkpt>
      <trkpt lat="45.36023" lon="4.45841">
        <ele>1048.2</ele>
        <time>2015-12-20T09:43:12Z</time>
      </trkpt>
      <trkpt lat="45.36021" lon="4.45844">
        <ele>1048.1</ele>
        <time>2015-12-20T09:43:13Z</time>
      </trkpt>
      <trkpt lat="45.36018" lon="4.45848">
        <ele>1048</ele>
        <time>2015-12-20T09:43:14Z</time>
      </trkpt>
      <trkpt lat="45.36016" lon="4.45853">
        <ele>1048</ele>
        <time>2015-12-20T09:43:15Z</time>
      </trkpt>
      <trkpt lat="45.36015" lon="4.45859">
        <ele>1047.9</ele>
        <time>2015-12-20T09:43:16Z</time>
      </trkpt>
      <trkpt lat="45.36014" lon="4.45864">
        <ele>1047.8</ele>
        <time>2015-12-20T09:43:17Z</time>
      </trkpt>
      <trkpt lat="45.36013" lon="4.45869">
        <ele>1047.7</ele>
        <time>2015-12-20T09:43:18Z</time>
      </trkpt>
      <trkpt lat="45.36014" lon="4.45874">
        <ele>1047.7</ele>
        <time>2015-12-20T09:43:19Z</time>
      </trkpt>
      <trkpt lat="45.36014" lon="4.45879">
        <ele>1047.7</ele>
        <time>2015-12-20T09:43:20Z</time>
      </trkpt>
      <trkpt lat="45.36014" lon="4.45883">
        <ele>1047.7</ele>
        <time>2015-12-20T09:43:21Z</time>
      </trkpt>
      <trkpt lat="45.36014" lon="4.45887">
        <ele>1047.7</ele>
        <time>2015-12-20T09:43:22Z</time>
      </trkpt>
      <trkpt lat="45.36013" lon="4.45892">
        <ele>1047.7</ele>
        <time>2015-12-20T09:43:23Z</time>
      </trkpt>
      <trkpt lat="45.36012" lon="4.45899">
        <ele>1047.6</ele>
        <time>2015-12-20T09:43:25Z</time>
      </trkpt>
      <trkpt lat="45.36011" lon="4.45902">
        <ele>1047.6</ele>
        <time>2015-12-20T09:43:26Z</time>
      </trkpt>
      <trkpt lat="45.36009" lon="4.45906">
        <ele>1047.6</ele>
        <time>2015-12-20T09:43:27Z</time>
      </trkpt>
      <trkpt lat="45.36007" lon="4.45909">
        <ele>1047.6</ele>
        <time>2015-12-20T09:43:28Z</time>
      </trkpt>
      <trkpt lat="45.36005" lon="4.45912">
        <ele>1047.6</ele>
        <time>2015-12-20T09:43:29Z</time>
      </trkpt>
      <trkpt lat="45.36004" lon="4.45916">
        <ele>1047.5</ele>
        <time>2015-12-20T09:43:30Z</time>
      </trkpt>
      <trkpt lat="45.36002" lon="4.4592">
        <ele>1047.5</ele>
        <time>2015-12-20T09:43:31Z</time>
      </trkpt>
      <trkpt lat="45.36001" lon="4.45925">
        <ele>1047.5</ele>
        <time>2015-12-20T09:43:32Z</time>
      </trkpt>
      <trkpt lat="45.36" lon="4.4593">
        <ele>1047.5</ele>
        <time>2015-12-20T09:43:33Z</time>
      </trkpt>
      <trkpt lat="45.35999" lon="4.45935">
        <ele>1047.5</ele>
        <time>2015-12-20T09:43:34Z</time>
      </trkpt>
      <trkpt lat="45.35999" lon="4.4594">
        <ele>1047.5</ele>
        <time>2015-12-20T09:43:35Z</time>
      </trkpt>
      <trkpt lat="45.35998" lon="4.45944">
        <ele>1047.5</ele>
        <time>2015-12-20T09:43:36Z</time>
      </trkpt>
      <trkpt lat="45.35997" lon="4.45949">
        <ele>1047.5</ele>
        <time>2015-12-20T09:43:37Z</time>
      </trkpt>
      <trkpt lat="45.35996" lon="4.45953">
        <ele>1047.5</ele>
        <time>2015-12-20T09:43:38Z</time>
      </trkpt>
      <trkpt lat="45.35995" lon="4.45958">
        <ele>1047.4</ele>
        <time>2015-12-20T09:43:39Z</time>
      </trkpt>
      <trkpt lat="45.35995" lon="4.45962">
        <ele>1047.5</ele>
        <time>2015-12-20T09:43:40Z</time>
      </trkpt>
      <trkpt lat="45.35994" lon="4.45967">
        <ele>1047.7</ele>
        <time>2015-12-20T09:43:41Z</time>
      </trkpt>
      <trkpt lat="45.35994" lon="4.45971">
        <ele>1047.8</ele>
        <time>2015-12-20T09:43:42Z</time>
      </trkpt>
      <trkpt lat="45.35994" lon="4.45975">
        <ele>1047.9</ele>
        <time>2015-12-20T09:43:43Z</time>
      </trkpt>
      <trkpt lat="45.35995" lon="4.4598">
        <ele>1048.1</ele>
        <time>2015-12-20T09:43:44Z</time>
      </trkpt>
      <trkpt lat="45.35996" lon="4.45986">
        <ele>1048.3</ele>
        <time>2015-12-20T09:43:45Z</time>
      </trkpt>
      <trkpt lat="45.35997" lon="4.4599">
        <ele>1048.4</ele>
        <time>2015-12-20T09:43:46Z</time>
      </trkpt>
      <trkpt lat="45.35999" lon="4.45994">
        <ele>1048.6</ele>
        <time>2015-12-20T09:43:47Z</time>
      </trkpt>
      <trkpt lat="45.36" lon="4.45999">
        <ele>1048.7</ele>
        <time>2015-12-20T09:43:48Z</time>
      </trkpt>
      <trkpt lat="45.36001" lon="4.46003">
        <ele>1048.9</ele>
        <time>2015-12-20T09:43:49Z</time>
      </trkpt>
      <trkpt lat="45.36002" lon="4.46008">
        <ele>1049</ele>
        <time>2015-12-20T09:43:50Z</time>
      </trkpt>
      <trkpt lat="45.36003" lon="4.46013">
        <ele>1049.2</ele>
        <time>2015-12-20T09:43:51Z</time>
      </trkpt>
      <trkpt lat="45.36004" lon="4.46017">
        <ele>1049.3</ele>
        <time>2015-12-20T09:43:52Z</time>
      </trkpt>
      <trkpt lat="45.36005" lon="4.4602">
        <ele>1049.5</ele>
        <time>2015-12-20T09:43:53Z</time>
      </trkpt>
      <trkpt lat="45.36006" lon="4.46024">
        <ele>1049.6</ele>
        <time>2015-12-20T09:43:54Z</time>
      </trkpt>
      <trkpt lat="45.36007" lon="4.46029">
        <ele>1049.8</ele>
        <time>2015-12-20T09:43:55Z</time>
      </trkpt>
      <trkpt lat="45.36008" lon="4.46033">
        <ele>1049.9</ele>
        <time>2015-12-20T09:43:56Z</time>
      </trkpt>
      <trkpt lat="45.36009" lon="4.46036">
        <ele>1050</ele>
        <time>2015-12-20T09:43:57Z</time>
      </trkpt>
      <trkpt lat="45.3601" lon="4.4604">
        <ele>1050.2</ele>
        <time>2015-12-20T09:43:58Z</time>
      </trkpt>
      <trkpt lat="45.36011" lon="4.46046">
        <ele>1050.5</ele>
        <time>2015-12-20T09:44:00Z</time>
      </trkpt>
      <trkpt lat="45.36011" lon="4.4605">
        <ele>1050.8</ele>
        <time>2015-12-20T09:44:02Z</time>
      </trkpt>
      <trkpt lat="45.36013" lon="4.46057">
        <ele>1051.2</ele>
        <time>2015-12-20T09:44:04Z</time>
      </trkpt>
      <trkpt lat="45.36015" lon="4.46064">
        <ele>1051.7</ele>
        <time>2015-12-20T09:44:06Z</time>
      </trkpt>
      <trkpt lat="45.36015" lon="4.46068">
        <ele>1051.9</ele>
        <time>2015-12-20T09:44:07Z</time>
      </trkpt>
      <trkpt lat="45.36016" lon="4.46075">
        <ele>1052.4</ele>
        <time>2015-12-20T09:44:09Z</time>
      </trkpt>
      <trkpt lat="45.36017" lon="4.46079">
        <ele>1052.6</ele>
        <time>2015-12-20T09:44:10Z</time>
      </trkpt>
      <trkpt lat="45.36018" lon="4.46084">
        <ele>1052.9</ele>
        <time>2015-12-20T09:44:11Z</time>
      </trkpt>
      <trkpt lat="45.36018" lon="4.46088">
        <ele>1053.2</ele>
        <time>2015-12-20T09:44:12Z</time>
      </trkpt>
      <trkpt lat="45.3602" lon="4.46095">
        <ele>1053.7</ele>
        <time>2015-12-20T09:44:14Z</time>
      </trkpt>
      <trkpt lat="45.3602" lon="4.461">
        <ele>1053.9</ele>
        <time>2015-12-20T09:44:15Z</time>
      </trkpt>
      <trkpt lat="45.3602" lon="4.46104">
        <ele>1054.2</ele>
        <time>2015-12-20T09:44:16Z</time>
      </trkpt>
      <trkpt lat="45.3602" lon="4.46108">
        <ele>1054.5</ele>
        <time>2015-12-20T09:44:17Z</time>
      </trkpt>
      <trkpt lat="45.3602" lon="4.46115">
        <ele>1054.9</ele>
        <time>2015-12-20T09:44:19Z</time>
      </trkpt>
      <trkpt lat="45.3602" lon="4.46119">
        <ele>1055.1</ele>
        <time>2015-12-20T09:44:20Z</time>
      </trkpt>
      <trkpt lat="45.3602" lon="4.46127">
        <ele>1055.5</ele>
        <time>2015-12-20T09:44:22Z</time>
      </trkpt>
      <trkpt lat="45.36019" lon="4.46131">
        <ele>1055.6</ele>
        <time>2015-12-20T09:44:23Z</time>
      </trkpt>
      <trkpt lat="45.36019" lon="4.46135">
        <ele>1055.8</ele>
        <time>2015-12-20T09:44:24Z</time>
      </trkpt>
      <trkpt lat="45.36019" lon="4.46143">
        <ele>1056</ele>
        <time>2015-12-20T09:44:26Z</time>
      </trkpt>
      <trkpt lat="45.36018" lon="4.4615">
        <ele>1056.2</ele>
        <time>2015-12-20T09:44:28Z</time>
      </trkpt>
      <trkpt lat="45.36016" lon="4.46156">
        <ele>1056.4</ele>
        <time>2015-12-20T09:44:30Z</time>
      </trkpt>
      <trkpt lat="45.36015" lon="4.46163">
        <ele>1056.6</ele>
        <time>2015-12-20T09:44:32Z</time>
      </trkpt>
      <trkpt lat="45.36015" lon="4.4617">
        <ele>1056.8</ele>
        <time>2015-12-20T09:44:34Z</time>
      </trkpt>
      <trkpt lat="45.36015" lon="4.46177">
        <ele>1057</ele>
        <time>2015-12-20T09:44:36Z</time>
      </trkpt>
      <trkpt lat="45.36015" lon="4.46181">
        <ele>1057.1</ele>
        <time>2015-12-20T09:44:37Z</time>
      </trkpt>
      <trkpt lat="45.36014" lon="4.46185">
        <ele>1057.3</ele>
        <time>2015-12-20T09:44:38Z</time>
      </trkpt>
      <trkpt lat="45.36014" lon="4.46189">
        <ele>1057.4</ele>
        <time>2015-12-20T09:44:39Z</time>
      </trkpt>
      <trkpt lat="45.36013" lon="4.46194">
        <ele>1057.5</ele>
        <time>2015-12-20T09:44:40Z</time>
      </trkpt>
      <trkpt lat="45.36012" lon="4.46199">
        <ele>1057.7</ele>
        <time>2015-12-20T09:44:41Z</time>
      </trkpt>
      <trkpt lat="45.36011" lon="4.46203">
        <ele>1057.8</ele>
        <time>2015-12-20T09:44:42Z</time>
      </trkpt>
      <trkpt lat="45.36011" lon="4.46208">
        <ele>1058</ele>
        <time>2015-12-20T09:44:43Z</time>
      </trkpt>
      <trkpt lat="45.3601" lon="4.46213">
        <ele>1058.1</ele>
        <time>2015-12-20T09:44:44Z</time>
      </trkpt>
      <trkpt lat="45.36009" lon="4.46218">
        <ele>1058.1</ele>
        <time>2015-12-20T09:44:45Z</time>
      </trkpt>
      <trkpt lat="45.36009" lon="4.46223">
        <ele>1058.2</ele>
        <time>2015-12-20T09:44:46Z</time>
      </trkpt>
      <trkpt lat="45.36008" lon="4.46228">
        <ele>1058.3</ele>
        <time>2015-12-20T09:44:47Z</time>
      </trkpt>
      <trkpt lat="45.36008" lon="4.46233">
        <ele>1058.3</ele>
        <time>2015-12-20T09:44:48Z</time>
      </trkpt>
      <trkpt lat="45.36008" lon="4.46238">
        <ele>1058.4</ele>
        <time>2015-12-20T09:44:49Z</time>
      </trkpt>
      <trkpt lat="45.36008" lon="4.46243">
        <ele>1058.5</ele>
        <time>2015-12-20T09:44:50Z</time>
      </trkpt>
      <trkpt lat="45.36008" lon="4.46248">
        <ele>1058.6</ele>
        <time>2015-12-20T09:44:51Z</time>
      </trkpt>
      <trkpt lat="45.36009" lon="4.46253">
        <ele>1058.6</ele>
        <time>2015-12-20T09:44:52Z</time>
      </trkpt>
      <trkpt lat="45.36008" lon="4.46257">
        <ele>1058.7</ele>
        <time>2015-12-20T09:44:53Z</time>
      </trkpt>
      <trkpt lat="45.36008" lon="4.46262">
        <ele>1058.8</ele>
        <time>2015-12-20T09:44:54Z</time>
      </trkpt>
      <trkpt lat="45.36007" lon="4.46266">
        <ele>1058.8</ele>
        <time>2015-12-20T09:44:55Z</time>
      </trkpt>
      <trkpt lat="45.36007" lon="4.4627">
        <ele>1058.9</ele>
        <time>2015-12-20T09:44:56Z</time>
      </trkpt>
      <trkpt lat="45.36006" lon="4.46274">
        <ele>1058.9</ele>
        <time>2015-12-20T09:44:57Z</time>
      </trkpt>
      <trkpt lat="45.36006" lon="4.46278">
        <ele>1059</ele>
        <time>2015-12-20T09:44:58Z</time>
      </trkpt>
      <trkpt lat="45.36005" lon="4.46282">
        <ele>1059</ele>
        <time>2015-12-20T09:44:59Z</time>
      </trkpt>
      <trkpt lat="45.36004" lon="4.46286">
        <ele>1059</ele>
        <time>2015-12-20T09:45:00Z</time>
      </trkpt>
      <trkpt lat="45.36003" lon="4.4629">
        <ele>1059</ele>
        <time>2015-12-20T09:45:01Z</time>
      </trkpt>
      <trkpt lat="45.36001" lon="4.46294">
        <ele>1059</ele>
        <time>2015-12-20T09:45:02Z</time>
      </trkpt>
      <trkpt lat="45.35999" lon="4.46299">
        <ele>1058.9</ele>
        <time>2015-12-20T09:45:03Z</time>
      </trkpt>
      <trkpt lat="45.35998" lon="4.46305">
        <ele>1058.8</ele>
        <time>2015-12-20T09:45:04Z</time>
      </trkpt>
      <trkpt lat="45.35996" lon="4.46311">
        <ele>1058.7</ele>
        <time>2015-12-20T09:45:05Z</time>
      </trkpt>
      <trkpt lat="45.35993" lon="4.46318">
        <ele>1058.6</ele>
        <time>2015-12-20T09:45:06Z</time>
      </trkpt>
      <trkpt lat="45.35992" lon="4.46326">
        <ele>1058.5</ele>
        <time>2015-12-20T09:45:07Z</time>
      </trkpt>
      <trkpt lat="45.3599" lon="4.46335">
        <ele>1058.3</ele>
        <time>2015-12-20T09:45:08Z</time>
      </trkpt>
      <trkpt lat="45.35988" lon="4.46345">
        <ele>1058.1</ele>
        <time>2015-12-20T09:45:09Z</time>
      </trkpt>
      <trkpt lat="45.35986" lon="4.46354">
        <ele>1057.9</ele>
        <time>2015-12-20T09:45:10Z</time>
      </trkpt>
      <trkpt lat="45.35983" lon="4.46363">
        <ele>1057.6</ele>
        <time>2015-12-20T09:45:11Z</time>
      </trkpt>
      <trkpt lat="45.35979" lon="4.46372">
        <ele>1057.3</ele>
        <time>2015-12-20T09:45:12Z</time>
      </trkpt>
      <trkpt lat="45.35974" lon="4.4638">
        <ele>1056.9</ele>
        <time>2015-12-20T09:45:13Z</time>
      </trkpt>
      <trkpt lat="45.3597" lon="4.46389">
        <ele>1056.5</ele>
        <time>2015-12-20T09:45:14Z</time>
      </trkpt>
      <trkpt lat="45.35966" lon="4.46396">
        <ele>1056.2</ele>
        <time>2015-12-20T09:45:15Z</time>
      </trkpt>
      <trkpt lat="45.35963" lon="4.46405">
        <ele>1055.9</ele>
        <time>2015-12-20T09:45:16Z</time>
      </trkpt>
      <trkpt lat="45.3596" lon="4.46414">
        <ele>1055.6</ele>
        <time>2015-12-20T09:45:17Z</time>
      </trkpt>
      <trkpt lat="45.35957" lon="4.46422">
        <ele>1055.5</ele>
        <time>2015-12-20T09:45:18Z</time>
      </trkpt>
      <trkpt lat="45.35955" lon="4.46432">
        <ele>1055.4</ele>
        <time>2015-12-20T09:45:19Z</time>
      </trkpt>
      <trkpt lat="45.35953" lon="4.46439">
        <ele>1055.4</ele>
        <time>2015-12-20T09:45:20Z</time>
      </trkpt>
      <trkpt lat="45.35954" lon="4.46445">
        <ele>1055.3</ele>
        <time>2015-12-20T09:45:21Z</time>
      </trkpt>
      <trkpt lat="45.35954" lon="4.46451">
        <ele>1055.2</ele>
        <time>2015-12-20T09:45:22Z</time>
      </trkpt>
      <trkpt lat="45.35955" lon="4.46458">
        <ele>1055.1</ele>
        <time>2015-12-20T09:45:23Z</time>
      </trkpt>
      <trkpt lat="45.35954" lon="4.46462">
        <ele>1055.4</ele>
        <time>2015-12-20T09:45:24Z</time>
      </trkpt>
      <trkpt lat="45.35955" lon="4.46466">
        <ele>1055.8</ele>
        <time>2015-12-20T09:45:25Z</time>
      </trkpt>
      <trkpt lat="45.35956" lon="4.46474">
        <ele>1056.5</ele>
        <time>2015-12-20T09:45:27Z</time>
      </trkpt>
      <trkpt lat="45.35957" lon="4.4648">
        <ele>1057.1</ele>
        <time>2015-12-20T09:45:29Z</time>
      </trkpt>
      <trkpt lat="45.35957" lon="4.46484">
        <ele>1057.5</ele>
        <time>2015-12-20T09:45:31Z</time>
      </trkpt>
      <trkpt lat="45.35953" lon="4.46482">
        <ele>1057.4</ele>
        <time>2015-12-20T09:45:37Z</time>
      </trkpt>
      <trkpt lat="45.3595" lon="4.46479">
        <ele>1057.1</ele>
        <time>2015-12-20T09:45:39Z</time>
      </trkpt>
      <trkpt lat="45.35946" lon="4.46475">
        <ele>1056.8</ele>
        <time>2015-12-20T09:45:41Z</time>
      </trkpt>
      <trkpt lat="45.35942" lon="4.4647">
        <ele>1056.4</ele>
        <time>2015-12-20T09:45:43Z</time>
      </trkpt>
      <trkpt lat="45.35939" lon="4.46464">
        <ele>1055.9</ele>
        <time>2015-12-20T09:45:45Z</time>
      </trkpt>
      <trkpt lat="45.35938" lon="4.4646">
        <ele>1055.6</ele>
        <time>2015-12-20T09:45:46Z</time>
      </trkpt>
      <trkpt lat="45.35935" lon="4.46454">
        <ele>1055.6</ele>
        <time>2015-12-20T09:45:48Z</time>
      </trkpt>
      <trkpt lat="45.35933" lon="4.46448">
        <ele>1055.7</ele>
        <time>2015-12-20T09:45:50Z</time>
      </trkpt>
      <trkpt lat="45.35931" lon="4.46442">
        <ele>1055.9</ele>
        <time>2015-12-20T09:45:52Z</time>
      </trkpt>
      <trkpt lat="45.35928" lon="4.46436">
        <ele>1056</ele>
        <time>2015-12-20T09:45:54Z</time>
      </trkpt>
      <trkpt lat="45.35927" lon="4.4643">
        <ele>1056.1</ele>
        <time>2015-12-20T09:45:56Z</time>
      </trkpt>
      <trkpt lat="45.35926" lon="4.46425">
        <ele>1056.2</ele>
        <time>2015-12-20T09:45:58Z</time>
      </trkpt>
      <trkpt lat="45.35925" lon="4.46419">
        <ele>1056.3</ele>
        <time>2015-12-20T09:46:00Z</time>
      </trkpt>
      <trkpt lat="45.35924" lon="4.46412">
        <ele>1056.4</ele>
        <time>2015-12-20T09:46:02Z</time>
      </trkpt>
      <trkpt lat="45.35923" lon="4.46405">
        <ele>1056.5</ele>
        <time>2015-12-20T09:46:04Z</time>
      </trkpt>
      <trkpt lat="45.35922" lon="4.46399">
        <ele>1056.6</ele>
        <time>2015-12-20T09:46:06Z</time>
      </trkpt>
      <trkpt lat="45.35922" lon="4.46392">
        <ele>1056.7</ele>
        <time>2015-12-20T09:46:08Z</time>
      </trkpt>
      <trkpt lat="45.35921" lon="4.46385">
        <ele>1056.8</ele>
        <time>2015-12-20T09:46:10Z</time>
      </trkpt>
      <trkpt lat="45.35919" lon="4.46379">
        <ele>1056.9</ele>
        <time>2015-12-20T09:46:12Z</time>
      </trkpt>
      <trkpt lat="45.35917" lon="4.46374">
        <ele>1057</ele>
        <time>2015-12-20T09:46:14Z</time>
      </trkpt>
      <trkpt lat="45.35916" lon="4.46368">
        <ele>1057.1</ele>
        <time>2015-12-20T09:46:16Z</time>
      </trkpt>
      <trkpt lat="45.35914" lon="4.46362">
        <ele>1057.2</ele>
        <time>2015-12-20T09:46:18Z</time>
      </trkpt>
      <trkpt lat="45.35912" lon="4.46357">
        <ele>1057.3</ele>
        <time>2015-12-20T09:46:20Z</time>
      </trkpt>
      <trkpt lat="45.35911" lon="4.46352">
        <ele>1057.4</ele>
        <time>2015-12-20T09:46:22Z</time>
      </trkpt>
      <trkpt lat="45.3591" lon="4.46348">
        <ele>1057.4</ele>
        <time>2015-12-20T09:46:24Z</time>
      </trkpt>
      <trkpt lat="45.35908" lon="4.46343">
        <ele>1057.5</ele>
        <time>2015-12-20T09:46:26Z</time>
      </trkpt>
      <trkpt lat="45.35905" lon="4.46339">
        <ele>1057.6</ele>
        <time>2015-12-20T09:46:28Z</time>
      </trkpt>
      <trkpt lat="45.359" lon="4.46338">
        <ele>1057.7</ele>
        <time>2015-12-20T09:46:30Z</time>
      </trkpt>
      <trkpt lat="45.35896" lon="4.46336">
        <ele>1057.7</ele>
        <time>2015-12-20T09:46:32Z</time>
      </trkpt>
      <trkpt lat="45.35891" lon="4.46334">
        <ele>1057.8</ele>
        <time>2015-12-20T09:46:34Z</time>
      </trkpt>
      <trkpt lat="45.35887" lon="4.46333">
        <ele>1057.9</ele>
        <time>2015-12-20T09:46:36Z</time>
      </trkpt>
      <trkpt lat="45.35883" lon="4.46331">
        <ele>1057.9</ele>
        <time>2015-12-20T09:46:38Z</time>
      </trkpt>
      <trkpt lat="45.35878" lon="4.4633">
        <ele>1058</ele>
        <time>2015-12-20T09:46:40Z</time>
      </trkpt>
      <trkpt lat="45.35874" lon="4.46328">
        <ele>1058</ele>
        <time>2015-12-20T09:46:42Z</time>
      </trkpt>
      <trkpt lat="45.35869" lon="4.46325">
        <ele>1058</ele>
        <time>2015-12-20T09:46:44Z</time>
      </trkpt>
      <trkpt lat="45.35865" lon="4.46323">
        <ele>1058</ele>
        <time>2015-12-20T09:46:46Z</time>
      </trkpt>
      <trkpt lat="45.3586" lon="4.46321">
        <ele>1058</ele>
        <time>2015-12-20T09:46:48Z</time>
      </trkpt>
      <trkpt lat="45.35856" lon="4.4632">
        <ele>1058</ele>
        <time>2015-12-20T09:46:50Z</time>
      </trkpt>
      <trkpt lat="45.35851" lon="4.46318">
        <ele>1058</ele>
        <time>2015-12-20T09:46:52Z</time>
      </trkpt>
      <trkpt lat="45.35846" lon="4.46315">
        <ele>1058</ele>
        <time>2015-12-20T09:46:54Z</time>
      </trkpt>
      <trkpt lat="45.35841" lon="4.46313">
        <ele>1058</ele>
        <time>2015-12-20T09:46:56Z</time>
      </trkpt>
      <trkpt lat="45.35836" lon="4.46311">
        <ele>1058</ele>
        <time>2015-12-20T09:46:58Z</time>
      </trkpt>
      <trkpt lat="45.35831" lon="4.46309">
        <ele>1058</ele>
        <time>2015-12-20T09:47:00Z</time>
      </trkpt>
      <trkpt lat="45.35827" lon="4.46308">
        <ele>1058</ele>
        <time>2015-12-20T09:47:02Z</time>
      </trkpt>
      <trkpt lat="45.35823" lon="4.46306">
        <ele>1058</ele>
        <time>2015-12-20T09:47:04Z</time>
      </trkpt>
      <trkpt lat="45.35819" lon="4.46306">
        <ele>1058</ele>
        <time>2015-12-20T09:47:06Z</time>
      </trkpt>
      <trkpt lat="45.35815" lon="4.4631">
        <ele>1058</ele>
        <time>2015-12-20T09:47:08Z</time>
      </trkpt>
      <trkpt lat="45.35813" lon="4.46313">
        <ele>1058</ele>
        <time>2015-12-20T09:47:09Z</time>
      </trkpt>
      <trkpt lat="45.35812" lon="4.46316">
        <ele>1058</ele>
        <time>2015-12-20T09:47:10Z</time>
      </trkpt>
      <trkpt lat="45.35809" lon="4.46322">
        <ele>1058</ele>
        <time>2015-12-20T09:47:12Z</time>
      </trkpt>
      <trkpt lat="45.35806" lon="4.46329">
        <ele>1058</ele>
        <time>2015-12-20T09:47:14Z</time>
      </trkpt>
      <trkpt lat="45.35804" lon="4.46332">
        <ele>1058</ele>
        <time>2015-12-20T09:47:15Z</time>
      </trkpt>
      <trkpt lat="45.35802" lon="4.46335">
        <ele>1058</ele>
        <time>2015-12-20T09:47:16Z</time>
      </trkpt>
      <trkpt lat="45.358" lon="4.46338">
        <ele>1058</ele>
        <time>2015-12-20T09:47:17Z</time>
      </trkpt>
      <trkpt lat="45.35798" lon="4.46342">
        <ele>1058</ele>
        <time>2015-12-20T09:47:18Z</time>
      </trkpt>
      <trkpt lat="45.35796" lon="4.46345">
        <ele>1058</ele>
        <time>2015-12-20T09:47:19Z</time>
      </trkpt>
      <trkpt lat="45.35794" lon="4.46348">
        <ele>1058</ele>
        <time>2015-12-20T09:47:20Z</time>
      </trkpt>
      <trkpt lat="45.35792" lon="4.46352">
        <ele>1058</ele>
        <time>2015-12-20T09:47:21Z</time>
      </trkpt>
      <trkpt lat="45.3579" lon="4.46355">
        <ele>1057.9</ele>
        <time>2015-12-20T09:47:22Z</time>
      </trkpt>
      <trkpt lat="45.35788" lon="4.46359">
        <ele>1057.8</ele>
        <time>2015-12-20T09:47:23Z</time>
      </trkpt>
      <trkpt lat="45.35786" lon="4.46363">
        <ele>1057.6</ele>
        <time>2015-12-20T09:47:24Z</time>
      </trkpt>
      <trkpt lat="45.35783" lon="4.46367">
        <ele>1057.5</ele>
        <time>2015-12-20T09:47:25Z</time>
      </trkpt>
      <trkpt lat="45.35781" lon="4.4637">
        <ele>1057.4</ele>
        <time>2015-12-20T09:47:26Z</time>
      </trkpt>
      <trkpt lat="45.35779" lon="4.46374">
        <ele>1057.4</ele>
        <time>2015-12-20T09:47:27Z</time>
      </trkpt>
      <trkpt lat="45.35776" lon="4.46377">
        <ele>1057.3</ele>
        <time>2015-12-20T09:47:28Z</time>
      </trkpt>
      <trkpt lat="45.35775" lon="4.46381">
        <ele>1057.2</ele>
        <time>2015-12-20T09:47:29Z</time>
      </trkpt>
      <trkpt lat="45.35773" lon="4.46384">
        <ele>1057</ele>
        <time>2015-12-20T09:47:30Z</time>
      </trkpt>
      <trkpt lat="45.35771" lon="4.46388">
        <ele>1056.9</ele>
        <time>2015-12-20T09:47:31Z</time>
      </trkpt>
      <trkpt lat="45.35768" lon="4.46391">
        <ele>1056.8</ele>
        <time>2015-12-20T09:47:32Z</time>
      </trkpt>
      <trkpt lat="45.35766" lon="4.46395">
        <ele>1056.7</ele>
        <time>2015-12-20T09:47:33Z</time>
      </trkpt>
      <trkpt lat="45.35763" lon="4.46399">
        <ele>1056.6</ele>
        <time>2015-12-20T09:47:34Z</time>
      </trkpt>
      <trkpt lat="45.35761" lon="4.46402">
        <ele>1056.5</ele>
        <time>2015-12-20T09:47:35Z</time>
      </trkpt>
      <trkpt lat="45.35758" lon="4.46406">
        <ele>1056.5</ele>
        <time>2015-12-20T09:47:36Z</time>
      </trkpt>
      <trkpt lat="45.35756" lon="4.46409">
        <ele>1056.4</ele>
        <time>2015-12-20T09:47:37Z</time>
      </trkpt>
      <trkpt lat="45.35754" lon="4.46413">
        <ele>1056.3</ele>
        <time>2015-12-20T09:47:38Z</time>
      </trkpt>
      <trkpt lat="45.35751" lon="4.46416">
        <ele>1056.3</ele>
        <time>2015-12-20T09:47:39Z</time>
      </trkpt>
      <trkpt lat="45.35748" lon="4.46419">
        <ele>1056.2</ele>
        <time>2015-12-20T09:47:40Z</time>
      </trkpt>
      <trkpt lat="45.35746" lon="4.46422">
        <ele>1056.2</ele>
        <time>2015-12-20T09:47:41Z</time>
      </trkpt>
      <trkpt lat="45.35743" lon="4.46425">
        <ele>1056.1</ele>
        <time>2015-12-20T09:47:42Z</time>
      </trkpt>
      <trkpt lat="45.3574" lon="4.46428">
        <ele>1056.1</ele>
        <time>2015-12-20T09:47:43Z</time>
      </trkpt>
      <trkpt lat="45.35737" lon="4.46431">
        <ele>1056</ele>
        <time>2015-12-20T09:47:44Z</time>
      </trkpt>
      <trkpt lat="45.35735" lon="4.46434">
        <ele>1056</ele>
        <time>2015-12-20T09:47:45Z</time>
      </trkpt>
      <trkpt lat="45.35732" lon="4.46437">
        <ele>1056</ele>
        <time>2015-12-20T09:47:46Z</time>
      </trkpt>
      <trkpt lat="45.35729" lon="4.46439">
        <ele>1056</ele>
        <time>2015-12-20T09:47:47Z</time>
      </trkpt>
      <trkpt lat="45.35726" lon="4.46441">
        <ele>1055.9</ele>
        <time>2015-12-20T09:47:48Z</time>
      </trkpt>
      <trkpt lat="45.35724" lon="4.46444">
        <ele>1055.9</ele>
        <time>2015-12-20T09:47:49Z</time>
      </trkpt>
      <trkpt lat="45.35721" lon="4.46446">
        <ele>1055.9</ele>
        <time>2015-12-20T09:47:50Z</time>
      </trkpt>
      <trkpt lat="45.35718" lon="4.46448">
        <ele>1055.9</ele>
        <time>2015-12-20T09:47:51Z</time>
      </trkpt>
      <trkpt lat="45.35715" lon="4.46451">
        <ele>1055.9</ele>
        <time>2015-12-20T09:47:52Z</time>
      </trkpt>
      <trkpt lat="45.35713" lon="4.46452">
        <ele>1055.9</ele>
        <time>2015-12-20T09:47:53Z</time>
      </trkpt>
      <trkpt lat="45.3571" lon="4.46454">
        <ele>1055.9</ele>
        <time>2015-12-20T09:47:54Z</time>
      </trkpt>
      <trkpt lat="45.35707" lon="4.46457">
        <ele>1055.9</ele>
        <time>2015-12-20T09:47:55Z</time>
      </trkpt>
      <trkpt lat="45.35704" lon="4.4646">
        <ele>1055.9</ele>
        <time>2015-12-20T09:47:56Z</time>
      </trkpt>
      <trkpt lat="45.35701" lon="4.46462">
        <ele>1055.9</ele>
        <time>2015-12-20T09:47:57Z</time>
      </trkpt>
      <trkpt lat="45.35699" lon="4.46465">
        <ele>1056</ele>
        <time>2015-12-20T09:47:58Z</time>
      </trkpt>
      <trkpt lat="45.35696" lon="4.46468">
        <ele>1056</ele>
        <time>2015-12-20T09:47:59Z</time>
      </trkpt>
      <trkpt lat="45.35693" lon="4.46471">
        <ele>1056.1</ele>
        <time>2015-12-20T09:48:00Z</time>
      </trkpt>
      <trkpt lat="45.35691" lon="4.46474">
        <ele>1056.1</ele>
        <time>2015-12-20T09:48:01Z</time>
      </trkpt>
      <trkpt lat="45.35689" lon="4.46477">
        <ele>1056.2</ele>
        <time>2015-12-20T09:48:02Z</time>
      </trkpt>
      <trkpt lat="45.35686" lon="4.4648">
        <ele>1056.3</ele>
        <time>2015-12-20T09:48:03Z</time>
      </trkpt>
      <trkpt lat="45.35682" lon="4.46484">
        <ele>1056.3</ele>
        <time>2015-12-20T09:48:05Z</time>
      </trkpt>
      <trkpt lat="45.35678" lon="4.46488">
        <ele>1056.3</ele>
        <time>2015-12-20T09:48:07Z</time>
      </trkpt>
      <trkpt lat="45.35674" lon="4.46492">
        <ele>1056.4</ele>
        <time>2015-12-20T09:48:09Z</time>
      </trkpt>
      <trkpt lat="45.3567" lon="4.46496">
        <ele>1056.4</ele>
        <time>2015-12-20T09:48:11Z</time>
      </trkpt>
      <trkpt lat="45.35668" lon="4.46498">
        <ele>1056.5</ele>
        <time>2015-12-20T09:48:12Z</time>
      </trkpt>
      <trkpt lat="45.35665" lon="4.46501">
        <ele>1056.5</ele>
        <time>2015-12-20T09:48:13Z</time>
      </trkpt>
      <trkpt lat="45.35661" lon="4.46505">
        <ele>1056.5</ele>
        <time>2015-12-20T09:48:15Z</time>
      </trkpt>
      <trkpt lat="45.35658" lon="4.46508">
        <ele>1056.6</ele>
        <time>2015-12-20T09:48:17Z</time>
      </trkpt>
      <trkpt lat="45.35655" lon="4.46512">
        <ele>1056.6</ele>
        <time>2015-12-20T09:48:19Z</time>
      </trkpt>
      <trkpt lat="45.35653" lon="4.46515">
        <ele>1056.7</ele>
        <time>2015-12-20T09:48:21Z</time>
      </trkpt>
      <trkpt lat="45.35651" lon="4.46519">
        <ele>1056.9</ele>
        <time>2015-12-20T09:48:23Z</time>
      </trkpt>
      <trkpt lat="45.35649" lon="4.46524">
        <ele>1057</ele>
        <time>2015-12-20T09:48:25Z</time>
      </trkpt>
      <trkpt lat="45.35647" lon="4.46529">
        <ele>1057.2</ele>
        <time>2015-12-20T09:48:27Z</time>
      </trkpt>
      <trkpt lat="45.35646" lon="4.46534">
        <ele>1057.4</ele>
        <time>2015-12-20T09:48:29Z</time>
      </trkpt>
      <trkpt lat="45.35644" lon="4.4654">
        <ele>1057.6</ele>
        <time>2015-12-20T09:48:31Z</time>
      </trkpt>
      <trkpt lat="45.35642" lon="4.46545">
        <ele>1057.7</ele>
        <time>2015-12-20T09:48:33Z</time>
      </trkpt>
      <trkpt lat="45.35639" lon="4.46548">
        <ele>1057.8</ele>
        <time>2015-12-20T09:48:42Z</time>
      </trkpt>
      <trkpt lat="45.35637" lon="4.46551">
        <ele>1057.8</ele>
        <time>2015-12-20T09:48:47Z</time>
      </trkpt>
      <trkpt lat="45.35636" lon="4.46554">
        <ele>1057.9</ele>
        <time>2015-12-20T09:48:49Z</time>
      </trkpt>
      <trkpt lat="45.35635" lon="4.46559">
        <ele>1058</ele>
        <time>2015-12-20T09:48:51Z</time>
      </trkpt>
      <trkpt lat="45.35634" lon="4.46565">
        <ele>1058.2</ele>
        <time>2015-12-20T09:48:53Z</time>
      </trkpt>
      <trkpt lat="45.35633" lon="4.46571">
        <ele>1058.3</ele>
        <time>2015-12-20T09:48:55Z</time>
      </trkpt>
      <trkpt lat="45.35631" lon="4.46576">
        <ele>1058.5</ele>
        <time>2015-12-20T09:48:57Z</time>
      </trkpt>
      <trkpt lat="45.35629" lon="4.46582">
        <ele>1058.6</ele>
        <time>2015-12-20T09:48:59Z</time>
      </trkpt>
      <trkpt lat="45.35627" lon="4.46587">
        <ele>1058.7</ele>
        <time>2015-12-20T09:49:01Z</time>
      </trkpt>
      <trkpt lat="45.35625" lon="4.46593">
        <ele>1058.8</ele>
        <time>2015-12-20T09:49:03Z</time>
      </trkpt>
      <trkpt lat="45.35623" lon="4.46598">
        <ele>1059.1</ele>
        <time>2015-12-20T09:49:05Z</time>
      </trkpt>
      <trkpt lat="45.35621" lon="4.46603">
        <ele>1059.3</ele>
        <time>2015-12-20T09:49:07Z</time>
      </trkpt>
      <trkpt lat="45.35619" lon="4.46607">
        <ele>1059.4</ele>
        <time>2015-12-20T09:49:09Z</time>
      </trkpt>
      <trkpt lat="45.35617" lon="4.46612">
        <ele>1059.6</ele>
        <time>2015-12-20T09:49:11Z</time>
      </trkpt>
      <trkpt lat="45.35615" lon="4.46616">
        <ele>1059.8</ele>
        <time>2015-12-20T09:49:13Z</time>
      </trkpt>
      <trkpt lat="45.35613" lon="4.46621">
        <ele>1060</ele>
        <time>2015-12-20T09:49:15Z</time>
      </trkpt>
      <trkpt lat="45.35611" lon="4.46624">
        <ele>1060.1</ele>
        <time>2015-12-20T09:49:17Z</time>
      </trkpt>
      <trkpt lat="45.35609" lon="4.46628">
        <ele>1060.3</ele>
        <time>2015-12-20T09:49:19Z</time>
      </trkpt>
      <trkpt lat="45.35607" lon="4.46631">
        <ele>1060.5</ele>
        <time>2015-12-20T09:49:21Z</time>
      </trkpt>
      <trkpt lat="45.35604" lon="4.46634">
        <ele>1060.6</ele>
        <time>2015-12-20T09:49:23Z</time>
      </trkpt>
      <trkpt lat="45.35602" lon="4.46639">
        <ele>1060.9</ele>
        <time>2015-12-20T09:49:25Z</time>
      </trkpt>
      <trkpt lat="45.35601" lon="4.46645">
        <ele>1061.1</ele>
        <time>2015-12-20T09:49:27Z</time>
      </trkpt>
      <trkpt lat="45.35599" lon="4.4665">
        <ele>1061.3</ele>
        <time>2015-12-20T09:49:29Z</time>
      </trkpt>
      <trkpt lat="45.35597" lon="4.46655">
        <ele>1061.5</ele>
        <time>2015-12-20T09:49:31Z</time>
      </trkpt>
      <trkpt lat="45.35595" lon="4.46659">
        <ele>1061.7</ele>
        <time>2015-12-20T09:49:33Z</time>
      </trkpt>
      <trkpt lat="45.35593" lon="4.46664">
        <ele>1061.9</ele>
        <time>2015-12-20T09:49:35Z</time>
      </trkpt>
      <trkpt lat="45.35591" lon="4.46668">
        <ele>1062.1</ele>
        <time>2015-12-20T09:49:37Z</time>
      </trkpt>
      <trkpt lat="45.35589" lon="4.46673">
        <ele>1062.2</ele>
        <time>2015-12-20T09:49:39Z</time>
      </trkpt>
      <trkpt lat="45.35587" lon="4.46678">
        <ele>1062.4</ele>
        <time>2015-12-20T09:49:41Z</time>
      </trkpt>
      <trkpt lat="45.35585" lon="4.46682">
        <ele>1062.6</ele>
        <time>2015-12-20T09:49:43Z</time>
      </trkpt>
      <trkpt lat="45.35583" lon="4.46687">
        <ele>1062.7</ele>
        <time>2015-12-20T09:49:45Z</time>
      </trkpt>
      <trkpt lat="45.35582" lon="4.46691">
        <ele>1062.9</ele>
        <time>2015-12-20T09:49:47Z</time>
      </trkpt>
      <trkpt lat="45.3558" lon="4.46695">
        <ele>1063</ele>
        <time>2015-12-20T09:49:49Z</time>
      </trkpt>
      <trkpt lat="45.35578" lon="4.46699">
        <ele>1063.1</ele>
        <time>2015-12-20T09:49:51Z</time>
      </trkpt>
      <trkpt lat="45.35575" lon="4.46704">
        <ele>1063.2</ele>
        <time>2015-12-20T09:49:53Z</time>
      </trkpt>
      <trkpt lat="45.35573" lon="4.46708">
        <ele>1063.4</ele>
        <time>2015-12-20T09:49:55Z</time>
      </trkpt>
      <trkpt lat="45.35571" lon="4.46714">
        <ele>1063.6</ele>
        <time>2015-12-20T09:49:57Z</time>
      </trkpt>
      <trkpt lat="45.35569" lon="4.46719">
        <ele>1063.9</ele>
        <time>2015-12-20T09:49:59Z</time>
      </trkpt>
      <trkpt lat="45.35567" lon="4.46725">
        <ele>1064.2</ele>
        <time>2015-12-20T09:50:01Z</time>
      </trkpt>
      <trkpt lat="45.35565" lon="4.4673">
        <ele>1064.4</ele>
        <time>2015-12-20T09:50:03Z</time>
      </trkpt>
      <trkpt lat="45.35563" lon="4.46735">
        <ele>1064.7</ele>
        <time>2015-12-20T09:50:05Z</time>
      </trkpt>
      <trkpt lat="45.35561" lon="4.46739">
        <ele>1064.9</ele>
        <time>2015-12-20T09:50:07Z</time>
      </trkpt>
      <trkpt lat="45.35559" lon="4.46744">
        <ele>1065.2</ele>
        <time>2015-12-20T09:50:09Z</time>
      </trkpt>
      <trkpt lat="45.35556" lon="4.46749">
        <ele>1065.4</ele>
        <time>2015-12-20T09:50:11Z</time>
      </trkpt>
      <trkpt lat="45.35554" lon="4.46753">
        <ele>1065.7</ele>
        <time>2015-12-20T09:50:13Z</time>
      </trkpt>
      <trkpt lat="45.35553" lon="4.46757">
        <ele>1065.9</ele>
        <time>2015-12-20T09:50:15Z</time>
      </trkpt>
      <trkpt lat="45.35551" lon="4.46762">
        <ele>1066.2</ele>
        <time>2015-12-20T09:50:17Z</time>
      </trkpt>
      <trkpt lat="45.35549" lon="4.46767">
        <ele>1066.5</ele>
        <time>2015-12-20T09:50:19Z</time>
      </trkpt>
      <trkpt lat="45.35547" lon="4.46771">
        <ele>1066.7</ele>
        <time>2015-12-20T09:50:21Z</time>
      </trkpt>
      <trkpt lat="45.35545" lon="4.46776">
        <ele>1067</ele>
        <time>2015-12-20T09:50:23Z</time>
      </trkpt>
      <trkpt lat="45.35543" lon="4.46781">
        <ele>1067.3</ele>
        <time>2015-12-20T09:50:25Z</time>
      </trkpt>
      <trkpt lat="45.35541" lon="4.46786">
        <ele>1067.6</ele>
        <time>2015-12-20T09:50:27Z</time>
      </trkpt>
      <trkpt lat="45.35539" lon="4.46791">
        <ele>1067.9</ele>
        <time>2015-12-20T09:50:29Z</time>
      </trkpt>
      <trkpt lat="45.35537" lon="4.46796">
        <ele>1068.1</ele>
        <time>2015-12-20T09:50:31Z</time>
      </trkpt>
      <trkpt lat="45.35535" lon="4.468">
        <ele>1068.3</ele>
        <time>2015-12-20T09:50:33Z</time>
      </trkpt>
      <trkpt lat="45.35533" lon="4.46805">
        <ele>1068.5</ele>
        <time>2015-12-20T09:50:35Z</time>
      </trkpt>
      <trkpt lat="45.35532" lon="4.46809">
        <ele>1068.7</ele>
        <time>2015-12-20T09:50:37Z</time>
      </trkpt>
      <trkpt lat="45.35529" lon="4.46814">
        <ele>1068.8</ele>
        <time>2015-12-20T09:50:39Z</time>
      </trkpt>
      <trkpt lat="45.35527" lon="4.46819">
        <ele>1069</ele>
        <time>2015-12-20T09:50:41Z</time>
      </trkpt>
      <trkpt lat="45.35526" lon="4.46824">
        <ele>1069.2</ele>
        <time>2015-12-20T09:50:43Z</time>
      </trkpt>
      <trkpt lat="45.35524" lon="4.46829">
        <ele>1069.4</ele>
        <time>2015-12-20T09:50:45Z</time>
      </trkpt>
      <trkpt lat="45.35522" lon="4.46833">
        <ele>1069.5</ele>
        <time>2015-12-20T09:50:47Z</time>
      </trkpt>
      <trkpt lat="45.3552" lon="4.46837">
        <ele>1069.6</ele>
        <time>2015-12-20T09:50:49Z</time>
      </trkpt>
      <trkpt lat="45.35518" lon="4.46842">
        <ele>1069.8</ele>
        <time>2015-12-20T09:50:51Z</time>
      </trkpt>
      <trkpt lat="45.35515" lon="4.46848">
        <ele>1069.9</ele>
        <time>2015-12-20T09:50:53Z</time>
      </trkpt>
      <trkpt lat="45.35513" lon="4.46853">
        <ele>1070.1</ele>
        <time>2015-12-20T09:50:55Z</time>
      </trkpt>
      <trkpt lat="45.3551" lon="4.46859">
        <ele>1070.2</ele>
        <time>2015-12-20T09:50:57Z</time>
      </trkpt>
      <trkpt lat="45.35508" lon="4.46864">
        <ele>1070.4</ele>
        <time>2015-12-20T09:50:59Z</time>
      </trkpt>
      <trkpt lat="45.35507" lon="4.4687">
        <ele>1070.5</ele>
        <time>2015-12-20T09:51:01Z</time>
      </trkpt>
      <trkpt lat="45.35505" lon="4.46875">
        <ele>1070.7</ele>
        <time>2015-12-20T09:51:03Z</time>
      </trkpt>
      <trkpt lat="45.35503" lon="4.4688">
        <ele>1070.7</ele>
        <time>2015-12-20T09:51:05Z</time>
      </trkpt>
      <trkpt lat="45.35501" lon="4.46885">
        <ele>1070.8</ele>
        <time>2015-12-20T09:51:07Z</time>
      </trkpt>
      <trkpt lat="45.35499" lon="4.46889">
        <ele>1070.9</ele>
        <time>2015-12-20T09:51:09Z</time>
      </trkpt>
      <trkpt lat="45.35497" lon="4.46894">
        <ele>1070.9</ele>
        <time>2015-12-20T09:51:11Z</time>
      </trkpt>
      <trkpt lat="45.35495" lon="4.46898">
        <ele>1071</ele>
        <time>2015-12-20T09:51:13Z</time>
      </trkpt>
      <trkpt lat="45.35493" lon="4.46904">
        <ele>1071.1</ele>
        <time>2015-12-20T09:51:15Z</time>
      </trkpt>
      <trkpt lat="45.3549" lon="4.46908">
        <ele>1071.2</ele>
        <time>2015-12-20T09:51:17Z</time>
      </trkpt>
      <trkpt lat="45.35488" lon="4.46913">
        <ele>1071.3</ele>
        <time>2015-12-20T09:51:19Z</time>
      </trkpt>
      <trkpt lat="45.35486" lon="4.46917">
        <ele>1071.3</ele>
        <time>2015-12-20T09:51:21Z</time>
      </trkpt>
      <trkpt lat="45.35483" lon="4.46921">
        <ele>1071.4</ele>
        <time>2015-12-20T09:51:23Z</time>
      </trkpt>
      <trkpt lat="45.35481" lon="4.46926">
        <ele>1071.5</ele>
        <time>2015-12-20T09:51:25Z</time>
      </trkpt>
      <trkpt lat="45.3548" lon="4.46931">
        <ele>1071.6</ele>
        <time>2015-12-20T09:51:27Z</time>
      </trkpt>
      <trkpt lat="45.35478" lon="4.46935">
        <ele>1071.7</ele>
        <time>2015-12-20T09:51:29Z</time>
      </trkpt>
      <trkpt lat="45.35476" lon="4.46939">
        <ele>1071.8</ele>
        <time>2015-12-20T09:51:31Z</time>
      </trkpt>
      <trkpt lat="45.35472" lon="4.46943">
        <ele>1071.8</ele>
        <time>2015-12-20T09:51:33Z</time>
      </trkpt>
      <trkpt lat="45.3547" lon="4.46948">
        <ele>1071.9</ele>
        <time>2015-12-20T09:51:35Z</time>
      </trkpt>
      <trkpt lat="45.35469" lon="4.46955">
        <ele>1072.1</ele>
        <time>2015-12-20T09:51:37Z</time>
      </trkpt>
      <trkpt lat="45.35467" lon="4.46961">
        <ele>1072.4</ele>
        <time>2015-12-20T09:51:39Z</time>
      </trkpt>
      <trkpt lat="45.35464" lon="4.46967">
        <ele>1072.7</ele>
        <time>2015-12-20T09:51:41Z</time>
      </trkpt>
      <trkpt lat="45.35461" lon="4.46972">
        <ele>1073.1</ele>
        <time>2015-12-20T09:51:43Z</time>
      </trkpt>
      <trkpt lat="45.35459" lon="4.46978">
        <ele>1073.4</ele>
        <time>2015-12-20T09:51:45Z</time>
      </trkpt>
      <trkpt lat="45.35457" lon="4.46983">
        <ele>1073.7</ele>
        <time>2015-12-20T09:51:47Z</time>
      </trkpt>
      <trkpt lat="45.35455" lon="4.46989">
        <ele>1074</ele>
        <time>2015-12-20T09:51:49Z</time>
      </trkpt>
      <trkpt lat="45.35453" lon="4.46993">
        <ele>1074.2</ele>
        <time>2015-12-20T09:51:51Z</time>
      </trkpt>
      <trkpt lat="45.35451" lon="4.46999">
        <ele>1074.4</ele>
        <time>2015-12-20T09:51:53Z</time>
      </trkpt>
      <trkpt lat="45.35448" lon="4.47004">
        <ele>1074.6</ele>
        <time>2015-12-20T09:51:55Z</time>
      </trkpt>
      <trkpt lat="45.35445" lon="4.47009">
        <ele>1074.8</ele>
        <time>2015-12-20T09:51:57Z</time>
      </trkpt>
      <trkpt lat="45.35443" lon="4.47015">
        <ele>1075.1</ele>
        <time>2015-12-20T09:51:59Z</time>
      </trkpt>
      <trkpt lat="45.35441" lon="4.47021">
        <ele>1075.3</ele>
        <time>2015-12-20T09:52:01Z</time>
      </trkpt>
      <trkpt lat="45.35438" lon="4.47027">
        <ele>1075.6</ele>
        <time>2015-12-20T09:52:03Z</time>
      </trkpt>
      <trkpt lat="45.35436" lon="4.47033">
        <ele>1075.8</ele>
        <time>2015-12-20T09:52:05Z</time>
      </trkpt>
      <trkpt lat="45.35434" lon="4.47039">
        <ele>1076.1</ele>
        <time>2015-12-20T09:52:07Z</time>
      </trkpt>
      <trkpt lat="45.35432" lon="4.47045">
        <ele>1076.3</ele>
        <time>2015-12-20T09:52:09Z</time>
      </trkpt>
      <trkpt lat="45.3543" lon="4.47051">
        <ele>1076.6</ele>
        <time>2015-12-20T09:52:11Z</time>
      </trkpt>
      <trkpt lat="45.35427" lon="4.47057">
        <ele>1077</ele>
        <time>2015-12-20T09:52:13Z</time>
      </trkpt>
      <trkpt lat="45.35425" lon="4.47063">
        <ele>1077.3</ele>
        <time>2015-12-20T09:52:15Z</time>
      </trkpt>
      <trkpt lat="45.35423" lon="4.47068">
        <ele>1077.6</ele>
        <time>2015-12-20T09:52:17Z</time>
      </trkpt>
      <trkpt lat="45.3542" lon="4.47074">
        <ele>1077.9</ele>
        <time>2015-12-20T09:52:19Z</time>
      </trkpt>
      <trkpt lat="45.35418" lon="4.4708">
        <ele>1078.2</ele>
        <time>2015-12-20T09:52:21Z</time>
      </trkpt>
      <trkpt lat="45.35416" lon="4.47083">
        <ele>1078.4</ele>
        <time>2015-12-20T09:52:22Z</time>
      </trkpt>
      <trkpt lat="45.35415" lon="4.47086">
        <ele>1078.7</ele>
        <time>2015-12-20T09:52:23Z</time>
      </trkpt>
      <trkpt lat="45.35414" lon="4.4709">
        <ele>1078.9</ele>
        <time>2015-12-20T09:52:24Z</time>
      </trkpt>
      <trkpt lat="45.35412" lon="4.47094">
        <ele>1079.1</ele>
        <time>2015-12-20T09:52:25Z</time>
      </trkpt>
      <trkpt lat="45.35411" lon="4.47097">
        <ele>1079.3</ele>
        <time>2015-12-20T09:52:26Z</time>
      </trkpt>
      <trkpt lat="45.35409" lon="4.47101">
        <ele>1079.5</ele>
        <time>2015-12-20T09:52:27Z</time>
      </trkpt>
      <trkpt lat="45.35407" lon="4.47104">
        <ele>1079.7</ele>
        <time>2015-12-20T09:52:28Z</time>
      </trkpt>
      <trkpt lat="45.35405" lon="4.47108">
        <ele>1079.9</ele>
        <time>2015-12-20T09:52:29Z</time>
      </trkpt>
      <trkpt lat="45.35404" lon="4.47111">
        <ele>1080.1</ele>
        <time>2015-12-20T09:52:30Z</time>
      </trkpt>
      <trkpt lat="45.35402" lon="4.47115">
        <ele>1080.4</ele>
        <time>2015-12-20T09:52:31Z</time>
      </trkpt>
      <trkpt lat="45.354" lon="4.47118">
        <ele>1080.6</ele>
        <time>2015-12-20T09:52:32Z</time>
      </trkpt>
      <trkpt lat="45.35398" lon="4.47122">
        <ele>1080.8</ele>
        <time>2015-12-20T09:52:33Z</time>
      </trkpt>
      <trkpt lat="45.35397" lon="4.47126">
        <ele>1081.1</ele>
        <time>2015-12-20T09:52:34Z</time>
      </trkpt>
      <trkpt lat="45.35395" lon="4.47129">
        <ele>1081.1</ele>
        <time>2015-12-20T09:52:35Z</time>
      </trkpt>
      <trkpt lat="45.35393" lon="4.47133">
        <ele>1081.2</ele>
        <time>2015-12-20T09:52:36Z</time>
      </trkpt>
      <trkpt lat="45.35391" lon="4.47137">
        <ele>1081.2</ele>
        <time>2015-12-20T09:52:37Z</time>
      </trkpt>
      <trkpt lat="45.35388" lon="4.47142">
        <ele>1081.3</ele>
        <time>2015-12-20T09:52:38Z</time>
      </trkpt>
      <trkpt lat="45.35386" lon="4.47146">
        <ele>1081.4</ele>
        <time>2015-12-20T09:52:39Z</time>
      </trkpt>
      <trkpt lat="45.35384" lon="4.47151">
        <ele>1081.5</ele>
        <time>2015-12-20T09:52:40Z</time>
      </trkpt>
      <trkpt lat="45.35382" lon="4.47155">
        <ele>1081.7</ele>
        <time>2015-12-20T09:52:41Z</time>
      </trkpt>
      <trkpt lat="45.35379" lon="4.47159">
        <ele>1081.8</ele>
        <time>2015-12-20T09:52:42Z</time>
      </trkpt>
      <trkpt lat="45.35377" lon="4.47164">
        <ele>1081.9</ele>
        <time>2015-12-20T09:52:43Z</time>
      </trkpt>
      <trkpt lat="45.35374" lon="4.47168">
        <ele>1082</ele>
        <time>2015-12-20T09:52:44Z</time>
      </trkpt>
      <trkpt lat="45.35371" lon="4.47172">
        <ele>1081.8</ele>
        <time>2015-12-20T09:52:45Z</time>
      </trkpt>
      <trkpt lat="45.35369" lon="4.47176">
        <ele>1081.6</ele>
        <time>2015-12-20T09:52:46Z</time>
      </trkpt>
      <trkpt lat="45.35366" lon="4.47181">
        <ele>1081.4</ele>
        <time>2015-12-20T09:52:47Z</time>
      </trkpt>
      <trkpt lat="45.35363" lon="4.47185">
        <ele>1081.2</ele>
        <time>2015-12-20T09:52:48Z</time>
      </trkpt>
      <trkpt lat="45.3536" lon="4.47189">
        <ele>1081</ele>
        <time>2015-12-20T09:52:49Z</time>
      </trkpt>
      <trkpt lat="45.35357" lon="4.47194">
        <ele>1080.8</ele>
        <time>2015-12-20T09:52:50Z</time>
      </trkpt>
      <trkpt lat="45.35354" lon="4.47198">
        <ele>1080.6</ele>
        <time>2015-12-20T09:52:51Z</time>
      </trkpt>
      <trkpt lat="45.35351" lon="4.47203">
        <ele>1080.3</ele>
        <time>2015-12-20T09:52:52Z</time>
      </trkpt>
      <trkpt lat="45.35348" lon="4.47209">
        <ele>1080.1</ele>
        <time>2015-12-20T09:52:53Z</time>
      </trkpt>
      <trkpt lat="45.35345" lon="4.47214">
        <ele>1079.9</ele>
        <time>2015-12-20T09:52:54Z</time>
      </trkpt>
      <trkpt lat="45.35343" lon="4.47219">
        <ele>1079.7</ele>
        <time>2015-12-20T09:52:55Z</time>
      </trkpt>
      <trkpt lat="45.3534" lon="4.47225">
        <ele>1079.6</ele>
        <time>2015-12-20T09:52:56Z</time>
      </trkpt>
      <trkpt lat="45.35338" lon="4.4723">
        <ele>1079.5</ele>
        <time>2015-12-20T09:52:57Z</time>
      </trkpt>
      <trkpt lat="45.35335" lon="4.47235">
        <ele>1079.4</ele>
        <time>2015-12-20T09:52:58Z</time>
      </trkpt>
      <trkpt lat="45.35333" lon="4.47241">
        <ele>1079.3</ele>
        <time>2015-12-20T09:52:59Z</time>
      </trkpt>
      <trkpt lat="45.35331" lon="4.47247">
        <ele>1079.3</ele>
        <time>2015-12-20T09:53:00Z</time>
      </trkpt>
      <trkpt lat="45.35329" lon="4.47253">
        <ele>1079.3</ele>
        <time>2015-12-20T09:53:01Z</time>
      </trkpt>
      <trkpt lat="45.35326" lon="4.47258">
        <ele>1079.3</ele>
        <time>2015-12-20T09:53:02Z</time>
      </trkpt>
      <trkpt lat="45.35324" lon="4.47264">
        <ele>1079.3</ele>
        <time>2015-12-20T09:53:03Z</time>
      </trkpt>
      <trkpt lat="45.35322" lon="4.47269">
        <ele>1079.4</ele>
        <time>2015-12-20T09:53:04Z</time>
      </trkpt>
      <trkpt lat="45.35319" lon="4.47275">
        <ele>1079.4</ele>
        <time>2015-12-20T09:53:05Z</time>
      </trkpt>
      <trkpt lat="45.35317" lon="4.47281">
        <ele>1079.5</ele>
        <time>2015-12-20T09:53:06Z</time>
      </trkpt>
      <trkpt lat="45.35315" lon="4.47286">
        <ele>1079.6</ele>
        <time>2015-12-20T09:53:07Z</time>
      </trkpt>
      <trkpt lat="45.35313" lon="4.47292">
        <ele>1079.8</ele>
        <time>2015-12-20T09:53:08Z</time>
      </trkpt>
      <trkpt lat="45.3531" lon="4.47297">
        <ele>1079.8</ele>
        <time>2015-12-20T09:53:09Z</time>
      </trkpt>
      <trkpt lat="45.35308" lon="4.47302">
        <ele>1080</ele>
        <time>2015-12-20T09:53:10Z</time>
      </trkpt>
      <trkpt lat="45.35306" lon="4.47308">
        <ele>1080.1</ele>
        <time>2015-12-20T09:53:11Z</time>
      </trkpt>
      <trkpt lat="45.35304" lon="4.47314">
        <ele>1080.3</ele>
        <time>2015-12-20T09:53:12Z</time>
      </trkpt>
      <trkpt lat="45.35301" lon="4.4732">
        <ele>1080.5</ele>
        <time>2015-12-20T09:53:13Z</time>
      </trkpt>
      <trkpt lat="45.35299" lon="4.47326">
        <ele>1080.8</ele>
        <time>2015-12-20T09:53:14Z</time>
      </trkpt>
      <trkpt lat="45.35298" lon="4.47331">
        <ele>1081.1</ele>
        <time>2015-12-20T09:53:15Z</time>
      </trkpt>
      <trkpt lat="45.35296" lon="4.47336">
        <ele>1081.4</ele>
        <time>2015-12-20T09:53:16Z</time>
      </trkpt>
      <trkpt lat="45.35294" lon="4.47341">
        <ele>1081.7</ele>
        <time>2015-12-20T09:53:17Z</time>
      </trkpt>
      <trkpt lat="45.35292" lon="4.47345">
        <ele>1081.9</ele>
        <time>2015-12-20T09:53:18Z</time>
      </trkpt>
      <trkpt lat="45.35291" lon="4.47349">
        <ele>1082.1</ele>
        <time>2015-12-20T09:53:19Z</time>
      </trkpt>
      <trkpt lat="45.35289" lon="4.47354">
        <ele>1082.3</ele>
        <time>2015-12-20T09:53:20Z</time>
      </trkpt>
      <trkpt lat="45.35288" lon="4.47358">
        <ele>1082.4</ele>
        <time>2015-12-20T09:53:21Z</time>
      </trkpt>
      <trkpt lat="45.35286" lon="4.47361">
        <ele>1082.5</ele>
        <time>2015-12-20T09:53:22Z</time>
      </trkpt>
      <trkpt lat="45.35284" lon="4.47365">
        <ele>1082.7</ele>
        <time>2015-12-20T09:53:23Z</time>
      </trkpt>
      <trkpt lat="45.35283" lon="4.47369">
        <ele>1082.9</ele>
        <time>2015-12-20T09:53:24Z</time>
      </trkpt>
      <trkpt lat="45.3528" lon="4.47375">
        <ele>1083.1</ele>
        <time>2015-12-20T09:53:26Z</time>
      </trkpt>
      <trkpt lat="45.35277" lon="4.4738">
        <ele>1083.1</ele>
        <time>2015-12-20T09:53:28Z</time>
      </trkpt>
      <trkpt lat="45.35275" lon="4.47387">
        <ele>1083.1</ele>
        <time>2015-12-20T09:53:30Z</time>
      </trkpt>
      <trkpt lat="45.35274" lon="4.47391">
        <ele>1083.1</ele>
        <time>2015-12-20T09:53:31Z</time>
      </trkpt>
      <trkpt lat="45.35271" lon="4.47398">
        <ele>1083.1</ele>
        <time>2015-12-20T09:53:33Z</time>
      </trkpt>
      <trkpt lat="45.3527" lon="4.47402">
        <ele>1083.1</ele>
        <time>2015-12-20T09:53:34Z</time>
      </trkpt>
      <trkpt lat="45.35269" lon="4.47405">
        <ele>1083.1</ele>
        <time>2015-12-20T09:53:35Z</time>
      </trkpt>
      <trkpt lat="45.35268" lon="4.47412">
        <ele>1083.2</ele>
        <time>2015-12-20T09:53:37Z</time>
      </trkpt>
      <trkpt lat="45.35267" lon="4.47419">
        <ele>1083.3</ele>
        <time>2015-12-20T09:53:39Z</time>
      </trkpt>
      <trkpt lat="45.35266" lon="4.47422">
        <ele>1083.3</ele>
        <time>2015-12-20T09:53:40Z</time>
      </trkpt>
      <trkpt lat="45.35266" lon="4.47427">
        <ele>1083.4</ele>
        <time>2015-12-20T09:53:41Z</time>
      </trkpt>
      <trkpt lat="45.35264" lon="4.47433">
        <ele>1083.4</ele>
        <time>2015-12-20T09:53:43Z</time>
      </trkpt>
      <trkpt lat="45.35262" lon="4.47438">
        <ele>1083.4</ele>
        <time>2015-12-20T09:53:45Z</time>
      </trkpt>
      <trkpt lat="45.3526" lon="4.47446">
        <ele>1083.4</ele>
        <time>2015-12-20T09:53:47Z</time>
      </trkpt>
      <trkpt lat="45.35259" lon="4.47449">
        <ele>1083.5</ele>
        <time>2015-12-20T09:53:48Z</time>
      </trkpt>
      <trkpt lat="45.35258" lon="4.47453">
        <ele>1083.5</ele>
        <time>2015-12-20T09:53:49Z</time>
      </trkpt>
      <trkpt lat="45.35256" lon="4.4746">
        <ele>1083.4</ele>
        <time>2015-12-20T09:53:51Z</time>
      </trkpt>
      <trkpt lat="45.35255" lon="4.47464">
        <ele>1083.3</ele>
        <time>2015-12-20T09:53:52Z</time>
      </trkpt>
      <trkpt lat="45.35254" lon="4.47468">
        <ele>1083.3</ele>
        <time>2015-12-20T09:53:53Z</time>
      </trkpt>
      <trkpt lat="45.35252" lon="4.47473">
        <ele>1083.1</ele>
        <time>2015-12-20T09:53:54Z</time>
      </trkpt>
      <trkpt lat="45.3525" lon="4.47477">
        <ele>1083</ele>
        <time>2015-12-20T09:53:55Z</time>
      </trkpt>
      <trkpt lat="45.35248" lon="4.47481">
        <ele>1082.9</ele>
        <time>2015-12-20T09:53:56Z</time>
      </trkpt>
      <trkpt lat="45.35246" lon="4.47485">
        <ele>1082.7</ele>
        <time>2015-12-20T09:53:57Z</time>
      </trkpt>
      <trkpt lat="45.35243" lon="4.47489">
        <ele>1082.6</ele>
        <time>2015-12-20T09:53:58Z</time>
      </trkpt>
      <trkpt lat="45.3524" lon="4.47493">
        <ele>1082.4</ele>
        <time>2015-12-20T09:53:59Z</time>
      </trkpt>
      <trkpt lat="45.35236" lon="4.47496">
        <ele>1082.1</ele>
        <time>2015-12-20T09:54:00Z</time>
      </trkpt>
      <trkpt lat="45.35232" lon="4.47499">
        <ele>1081.9</ele>
        <time>2015-12-20T09:54:01Z</time>
      </trkpt>
      <trkpt lat="45.35228" lon="4.47502">
        <ele>1081.7</ele>
        <time>2015-12-20T09:54:02Z</time>
      </trkpt>
      <trkpt lat="45.35224" lon="4.47505">
        <ele>1081.5</ele>
        <time>2015-12-20T09:54:03Z</time>
      </trkpt>
      <trkpt lat="45.3522" lon="4.47508">
        <ele>1081.2</ele>
        <time>2015-12-20T09:54:04Z</time>
      </trkpt>
      <trkpt lat="45.35216" lon="4.4751">
        <ele>1081</ele>
        <time>2015-12-20T09:54:05Z</time>
      </trkpt>
      <trkpt lat="45.3521" lon="4.47513">
        <ele>1080.7</ele>
        <time>2015-12-20T09:54:06Z</time>
      </trkpt>
      <trkpt lat="45.35205" lon="4.47516">
        <ele>1080.4</ele>
        <time>2015-12-20T09:54:07Z</time>
      </trkpt>
      <trkpt lat="45.35199" lon="4.47519">
        <ele>1080.1</ele>
        <time>2015-12-20T09:54:08Z</time>
      </trkpt>
      <trkpt lat="45.35194" lon="4.47522">
        <ele>1079.8</ele>
        <time>2015-12-20T09:54:09Z</time>
      </trkpt>
      <trkpt lat="45.35188" lon="4.47524">
        <ele>1079.4</ele>
        <time>2015-12-20T09:54:10Z</time>
      </trkpt>
      <trkpt lat="45.35183" lon="4.47527">
        <ele>1079.1</ele>
        <time>2015-12-20T09:54:11Z</time>
      </trkpt>
      <trkpt lat="45.35177" lon="4.47528">
        <ele>1078.8</ele>
        <time>2015-12-20T09:54:12Z</time>
      </trkpt>
      <trkpt lat="45.35171" lon="4.47528">
        <ele>1078.4</ele>
        <time>2015-12-20T09:54:13Z</time>
      </trkpt>
      <trkpt lat="45.35165" lon="4.47529">
        <ele>1078</ele>
        <time>2015-12-20T09:54:14Z</time>
      </trkpt>
      <trkpt lat="45.35159" lon="4.47531">
        <ele>1077.7</ele>
        <time>2015-12-20T09:54:15Z</time>
      </trkpt>
      <trkpt lat="45.35154" lon="4.47532">
        <ele>1077.4</ele>
        <time>2015-12-20T09:54:16Z</time>
      </trkpt>
      <trkpt lat="45.35148" lon="4.47534">
        <ele>1077.1</ele>
        <time>2015-12-20T09:54:17Z</time>
      </trkpt>
      <trkpt lat="45.35142" lon="4.47535">
        <ele>1076.8</ele>
        <time>2015-12-20T09:54:18Z</time>
      </trkpt>
      <trkpt lat="45.35136" lon="4.47538">
        <ele>1076.5</ele>
        <time>2015-12-20T09:54:19Z</time>
      </trkpt>
      <trkpt lat="45.3513" lon="4.4754">
        <ele>1076.2</ele>
        <time>2015-12-20T09:54:20Z</time>
      </trkpt>
      <trkpt lat="45.35124" lon="4.47544">
        <ele>1075.8</ele>
        <time>2015-12-20T09:54:21Z</time>
      </trkpt>
      <trkpt lat="45.35119" lon="4.47548">
        <ele>1074.9</ele>
        <time>2015-12-20T09:54:22Z</time>
      </trkpt>
      <trkpt lat="45.35113" lon="4.47553">
        <ele>1074</ele>
        <time>2015-12-20T09:54:23Z</time>
      </trkpt>
      <trkpt lat="45.35107" lon="4.47558">
        <ele>1073.2</ele>
        <time>2015-12-20T09:54:24Z</time>
      </trkpt>
      <trkpt lat="45.35102" lon="4.47564">
        <ele>1072.6</ele>
        <time>2015-12-20T09:54:25Z</time>
      </trkpt>
      <trkpt lat="45.35097" lon="4.47571">
        <ele>1072</ele>
        <time>2015-12-20T09:54:26Z</time>
      </trkpt>
      <trkpt lat="45.35092" lon="4.47577">
        <ele>1071.5</ele>
        <time>2015-12-20T09:54:27Z</time>
      </trkpt>
      <trkpt lat="45.35088" lon="4.47583">
        <ele>1071.1</ele>
        <time>2015-12-20T09:54:28Z</time>
      </trkpt>
      <trkpt lat="45.35083" lon="4.47589">
        <ele>1070.8</ele>
        <time>2015-12-20T09:54:29Z</time>
      </trkpt>
      <trkpt lat="45.35079" lon="4.47596">
        <ele>1070.7</ele>
        <time>2015-12-20T09:54:30Z</time>
      </trkpt>
      <trkpt lat="45.35075" lon="4.47602">
        <ele>1070.5</ele>
        <time>2015-12-20T09:54:31Z</time>
      </trkpt>
      <trkpt lat="45.35071" lon="4.47608">
        <ele>1070.5</ele>
        <time>2015-12-20T09:54:32Z</time>
      </trkpt>
      <trkpt lat="45.35067" lon="4.47614">
        <ele>1070.5</ele>
        <time>2015-12-20T09:54:33Z</time>
      </trkpt>
      <trkpt lat="45.35062" lon="4.47621">
        <ele>1070.5</ele>
        <time>2015-12-20T09:54:34Z</time>
      </trkpt>
      <trkpt lat="45.35059" lon="4.47628">
        <ele>1070.6</ele>
        <time>2015-12-20T09:54:35Z</time>
      </trkpt>
      <trkpt lat="45.35054" lon="4.47634">
        <ele>1070.4</ele>
        <time>2015-12-20T09:54:36Z</time>
      </trkpt>
      <trkpt lat="45.35051" lon="4.47641">
        <ele>1070.3</ele>
        <time>2015-12-20T09:54:37Z</time>
      </trkpt>
      <trkpt lat="45.35048" lon="4.47649">
        <ele>1070.2</ele>
        <time>2015-12-20T09:54:38Z</time>
      </trkpt>
      <trkpt lat="45.35045" lon="4.47657">
        <ele>1070.1</ele>
        <time>2015-12-20T09:54:39Z</time>
      </trkpt>
      <trkpt lat="45.35043" lon="4.47664">
        <ele>1070</ele>
        <time>2015-12-20T09:54:40Z</time>
      </trkpt>
      <trkpt lat="45.35041" lon="4.47672">
        <ele>1069.9</ele>
        <time>2015-12-20T09:54:41Z</time>
      </trkpt>
      <trkpt lat="45.35038" lon="4.4768">
        <ele>1069.4</ele>
        <time>2015-12-20T09:54:42Z</time>
      </trkpt>
      <trkpt lat="45.35037" lon="4.47687">
        <ele>1069.2</ele>
        <time>2015-12-20T09:54:43Z</time>
      </trkpt>
      <trkpt lat="45.35035" lon="4.47693">
        <ele>1068.9</ele>
        <time>2015-12-20T09:54:44Z</time>
      </trkpt>
      <trkpt lat="45.35032" lon="4.47698">
        <ele>1068.6</ele>
        <time>2015-12-20T09:54:45Z</time>
      </trkpt>
      <trkpt lat="45.3503" lon="4.47703">
        <ele>1068.2</ele>
        <time>2015-12-20T09:54:46Z</time>
      </trkpt>
      <trkpt lat="45.35028" lon="4.47709">
        <ele>1068.1</ele>
        <time>2015-12-20T09:54:47Z</time>
      </trkpt>
      <trkpt lat="45.35026" lon="4.47715">
        <ele>1067.7</ele>
        <time>2015-12-20T09:54:48Z</time>
      </trkpt>
      <trkpt lat="45.35024" lon="4.47721">
        <ele>1067.3</ele>
        <time>2015-12-20T09:54:49Z</time>
      </trkpt>
      <trkpt lat="45.35022" lon="4.47725">
        <ele>1067.1</ele>
        <time>2015-12-20T09:54:50Z</time>
      </trkpt>
      <trkpt lat="45.35021" lon="4.47732">
        <ele>1067</ele>
        <time>2015-12-20T09:54:51Z</time>
      </trkpt>
      <trkpt lat="45.35019" lon="4.47738">
        <ele>1066.8</ele>
        <time>2015-12-20T09:54:52Z</time>
      </trkpt>
      <trkpt lat="45.35017" lon="4.47744">
        <ele>1066.6</ele>
        <time>2015-12-20T09:54:53Z</time>
      </trkpt>
      <trkpt lat="45.35015" lon="4.47747">
        <ele>1066.5</ele>
        <time>2015-12-20T09:54:54Z</time>
      </trkpt>
      <trkpt lat="45.35013" lon="4.47749">
        <ele>1066.2</ele>
        <time>2015-12-20T09:54:55Z</time>
      </trkpt>
      <trkpt lat="45.3501" lon="4.47749">
        <ele>1065.9</ele>
        <time>2015-12-20T09:54:56Z</time>
      </trkpt>
      <trkpt lat="45.35007" lon="4.47747">
        <ele>1065.6</ele>
        <time>2015-12-20T09:54:57Z</time>
      </trkpt>
      <trkpt lat="45.35004" lon="4.47745">
        <ele>1065.2</ele>
        <time>2015-12-20T09:54:58Z</time>
      </trkpt>
      <trkpt lat="45.35001" lon="4.47742">
        <ele>1064.9</ele>
        <time>2015-12-20T09:54:59Z</time>
      </trkpt>
      <trkpt lat="45.34998" lon="4.4774">
        <ele>1064.5</ele>
        <time>2015-12-20T09:55:00Z</time>
      </trkpt>
      <trkpt lat="45.34995" lon="4.47737">
        <ele>1064.2</ele>
        <time>2015-12-20T09:55:01Z</time>
      </trkpt>
      <trkpt lat="45.34993" lon="4.47735">
        <ele>1063.9</ele>
        <time>2015-12-20T09:55:13Z</time>
      </trkpt>
      <trkpt lat="45.34988" lon="4.47735">
        <ele>1063.3</ele>
        <time>2015-12-20T09:55:16Z</time>
      </trkpt>
      <trkpt lat="45.34986" lon="4.47736">
        <ele>1063</ele>
        <time>2015-12-20T09:55:17Z</time>
      </trkpt>
      <trkpt lat="45.34983" lon="4.47738">
        <ele>1062.9</ele>
        <time>2015-12-20T09:55:18Z</time>
      </trkpt>
      <trkpt lat="45.34982" lon="4.47742">
        <ele>1062.9</ele>
        <time>2015-12-20T09:55:19Z</time>
      </trkpt>
      <trkpt lat="45.34981" lon="4.47747">
        <ele>1063</ele>
        <time>2015-12-20T09:55:20Z</time>
      </trkpt>
      <trkpt lat="45.3498" lon="4.47753">
        <ele>1063.2</ele>
        <time>2015-12-20T09:55:21Z</time>
      </trkpt>
      <trkpt lat="45.3498" lon="4.47758">
        <ele>1063.4</ele>
        <time>2015-12-20T09:55:22Z</time>
      </trkpt>
      <trkpt lat="45.34979" lon="4.47764">
        <ele>1063.7</ele>
        <time>2015-12-20T09:55:23Z</time>
      </trkpt>
      <trkpt lat="45.34978" lon="4.4777">
        <ele>1063.9</ele>
        <time>2015-12-20T09:55:24Z</time>
      </trkpt>
      <trkpt lat="45.34977" lon="4.47776">
        <ele>1064.1</ele>
        <time>2015-12-20T09:55:25Z</time>
      </trkpt>
      <trkpt lat="45.34976" lon="4.47781">
        <ele>1064.3</ele>
        <time>2015-12-20T09:55:26Z</time>
      </trkpt>
      <trkpt lat="45.34975" lon="4.47787">
        <ele>1064.5</ele>
        <time>2015-12-20T09:55:27Z</time>
      </trkpt>
      <trkpt lat="45.34975" lon="4.47792">
        <ele>1064.8</ele>
        <time>2015-12-20T09:55:28Z</time>
      </trkpt>
      <trkpt lat="45.34974" lon="4.47798">
        <ele>1064.8</ele>
        <time>2015-12-20T09:55:29Z</time>
      </trkpt>
      <trkpt lat="45.34973" lon="4.47804">
        <ele>1064.8</ele>
        <time>2015-12-20T09:55:30Z</time>
      </trkpt>
      <trkpt lat="45.34972" lon="4.4781">
        <ele>1064.8</ele>
        <time>2015-12-20T09:55:31Z</time>
      </trkpt>
      <trkpt lat="45.34971" lon="4.47816">
        <ele>1064.9</ele>
        <time>2015-12-20T09:55:32Z</time>
      </trkpt>
      <trkpt lat="45.3497" lon="4.47822">
        <ele>1064.9</ele>
        <time>2015-12-20T09:55:33Z</time>
      </trkpt>
      <trkpt lat="45.34969" lon="4.47828">
        <ele>1064.9</ele>
        <time>2015-12-20T09:55:34Z</time>
      </trkpt>
      <trkpt lat="45.34968" lon="4.47834">
        <ele>1064.9</ele>
        <time>2015-12-20T09:55:35Z</time>
      </trkpt>
      <trkpt lat="45.34968" lon="4.4784">
        <ele>1065</ele>
        <time>2015-12-20T09:55:36Z</time>
      </trkpt>
      <trkpt lat="45.34967" lon="4.47846">
        <ele>1065</ele>
        <time>2015-12-20T09:55:37Z</time>
      </trkpt>
      <trkpt lat="45.34966" lon="4.47852">
        <ele>1065</ele>
        <time>2015-12-20T09:55:38Z</time>
      </trkpt>
      <trkpt lat="45.34965" lon="4.47858">
        <ele>1065</ele>
        <time>2015-12-20T09:55:39Z</time>
      </trkpt>
      <trkpt lat="45.34964" lon="4.47864">
        <ele>1065.1</ele>
        <time>2015-12-20T09:55:40Z</time>
      </trkpt>
      <trkpt lat="45.34963" lon="4.47869">
        <ele>1065.1</ele>
        <time>2015-12-20T09:55:41Z</time>
      </trkpt>
      <trkpt lat="45.3496" lon="4.47876">
        <ele>1065.1</ele>
        <time>2015-12-20T09:55:42Z</time>
      </trkpt>
      <trkpt lat="45.3496" lon="4.47882">
        <ele>1065.3</ele>
        <time>2015-12-20T09:55:43Z</time>
      </trkpt>
      <trkpt lat="45.34959" lon="4.47888">
        <ele>1065.5</ele>
        <time>2015-12-20T09:55:44Z</time>
      </trkpt>
      <trkpt lat="45.34958" lon="4.47894">
        <ele>1065.6</ele>
        <time>2015-12-20T09:55:45Z</time>
      </trkpt>
      <trkpt lat="45.34957" lon="4.479">
        <ele>1065.8</ele>
        <time>2015-12-20T09:55:46Z</time>
      </trkpt>
      <trkpt lat="45.34956" lon="4.47906">
        <ele>1065.9</ele>
        <time>2015-12-20T09:55:47Z</time>
      </trkpt>
      <trkpt lat="45.34955" lon="4.47913">
        <ele>1066.1</ele>
        <time>2015-12-20T09:55:48Z</time>
      </trkpt>
      <trkpt lat="45.34953" lon="4.47919">
        <ele>1066.2</ele>
        <time>2015-12-20T09:55:49Z</time>
      </trkpt>
      <trkpt lat="45.34952" lon="4.47926">
        <ele>1066.3</ele>
        <time>2015-12-20T09:55:50Z</time>
      </trkpt>
      <trkpt lat="45.3495" lon="4.47932">
        <ele>1066.4</ele>
        <time>2015-12-20T09:55:51Z</time>
      </trkpt>
      <trkpt lat="45.34949" lon="4.47938">
        <ele>1066.6</ele>
        <time>2015-12-20T09:55:52Z</time>
      </trkpt>
      <trkpt lat="45.34948" lon="4.47945">
        <ele>1066.7</ele>
        <time>2015-12-20T09:55:53Z</time>
      </trkpt>
      <trkpt lat="45.34946" lon="4.47951">
        <ele>1066.8</ele>
        <time>2015-12-20T09:55:54Z</time>
      </trkpt>
      <trkpt lat="45.34943" lon="4.47959">
        <ele>1066.9</ele>
        <time>2015-12-20T09:55:55Z</time>
      </trkpt>
      <trkpt lat="45.34942" lon="4.47966">
        <ele>1067.1</ele>
        <time>2015-12-20T09:55:56Z</time>
      </trkpt>
      <trkpt lat="45.3494" lon="4.47972">
        <ele>1067.2</ele>
        <time>2015-12-20T09:55:57Z</time>
      </trkpt>
      <trkpt lat="45.3494" lon="4.47977">
        <ele>1067.4</ele>
        <time>2015-12-20T09:55:58Z</time>
      </trkpt>
      <trkpt lat="45.34938" lon="4.47982">
        <ele>1067.5</ele>
        <time>2015-12-20T09:55:59Z</time>
      </trkpt>
      <trkpt lat="45.34937" lon="4.47986">
        <ele>1067.5</ele>
        <time>2015-12-20T09:56:00Z</time>
      </trkpt>
      <trkpt lat="45.34934" lon="4.4799">
        <ele>1067.5</ele>
        <time>2015-12-20T09:56:01Z</time>
      </trkpt>
      <trkpt lat="45.34931" lon="4.47995">
        <ele>1067.5</ele>
        <time>2015-12-20T09:56:02Z</time>
      </trkpt>
      <trkpt lat="45.3493" lon="4.47999">
        <ele>1067.6</ele>
        <time>2015-12-20T09:56:03Z</time>
      </trkpt>
      <trkpt lat="45.34928" lon="4.48004">
        <ele>1067.6</ele>
        <time>2015-12-20T09:56:04Z</time>
      </trkpt>
      <trkpt lat="45.34925" lon="4.48009">
        <ele>1067.7</ele>
        <time>2015-12-20T09:56:05Z</time>
      </trkpt>
      <trkpt lat="45.34923" lon="4.48013">
        <ele>1067.7</ele>
        <time>2015-12-20T09:56:06Z</time>
      </trkpt>
      <trkpt lat="45.3492" lon="4.48017">
        <ele>1067.7</ele>
        <time>2015-12-20T09:56:07Z</time>
      </trkpt>
      <trkpt lat="45.34918" lon="4.48022">
        <ele>1067.7</ele>
        <time>2015-12-20T09:56:08Z</time>
      </trkpt>
      <trkpt lat="45.34915" lon="4.48025">
        <ele>1067.7</ele>
        <time>2015-12-20T09:56:09Z</time>
      </trkpt>
      <trkpt lat="45.34912" lon="4.48029">
        <ele>1067.6</ele>
        <time>2015-12-20T09:56:10Z</time>
      </trkpt>
      <trkpt lat="45.34908" lon="4.48033">
        <ele>1067.6</ele>
        <time>2015-12-20T09:56:11Z</time>
      </trkpt>
      <trkpt lat="45.34905" lon="4.48036">
        <ele>1067.6</ele>
        <time>2015-12-20T09:56:12Z</time>
      </trkpt>
      <trkpt lat="45.34902" lon="4.4804">
        <ele>1067.5</ele>
        <time>2015-12-20T09:56:13Z</time>
      </trkpt>
      <trkpt lat="45.34899" lon="4.48044">
        <ele>1067.6</ele>
        <time>2015-12-20T09:56:14Z</time>
      </trkpt>
      <trkpt lat="45.34896" lon="4.48048">
        <ele>1067.7</ele>
        <time>2015-12-20T09:56:15Z</time>
      </trkpt>
      <trkpt lat="45.34892" lon="4.48052">
        <ele>1067.8</ele>
        <time>2015-12-20T09:56:16Z</time>
      </trkpt>
      <trkpt lat="45.34889" lon="4.48056">
        <ele>1067.8</ele>
        <time>2015-12-20T09:56:17Z</time>
      </trkpt>
      <trkpt lat="45.34885" lon="4.48059">
        <ele>1067.8</ele>
        <time>2015-12-20T09:56:18Z</time>
      </trkpt>
      <trkpt lat="45.34882" lon="4.48062">
        <ele>1067.8</ele>
        <time>2015-12-20T09:56:19Z</time>
      </trkpt>
      <trkpt lat="45.34879" lon="4.48065">
        <ele>1067.9</ele>
        <time>2015-12-20T09:56:20Z</time>
      </trkpt>
      <trkpt lat="45.34876" lon="4.48068">
        <ele>1067.9</ele>
        <time>2015-12-20T09:56:21Z</time>
      </trkpt>
      <trkpt lat="45.34873" lon="4.48071">
        <ele>1068.1</ele>
        <time>2015-12-20T09:56:22Z</time>
      </trkpt>
      <trkpt lat="45.3487" lon="4.48074">
        <ele>1068.5</ele>
        <time>2015-12-20T09:56:23Z</time>
      </trkpt>
      <trkpt lat="45.34866" lon="4.48077">
        <ele>1068.8</ele>
        <time>2015-12-20T09:56:24Z</time>
      </trkpt>
      <trkpt lat="45.34863" lon="4.4808">
        <ele>1069.2</ele>
        <time>2015-12-20T09:56:25Z</time>
      </trkpt>
      <trkpt lat="45.3486" lon="4.48083">
        <ele>1069.5</ele>
        <time>2015-12-20T09:56:26Z</time>
      </trkpt>
      <trkpt lat="45.34857" lon="4.48086">
        <ele>1069.9</ele>
        <time>2015-12-20T09:56:27Z</time>
      </trkpt>
      <trkpt lat="45.34854" lon="4.48089">
        <ele>1070.2</ele>
        <time>2015-12-20T09:56:28Z</time>
      </trkpt>
      <trkpt lat="45.34852" lon="4.48092">
        <ele>1070.5</ele>
        <time>2015-12-20T09:56:29Z</time>
      </trkpt>
      <trkpt lat="45.34849" lon="4.48096">
        <ele>1070.9</ele>
        <time>2015-12-20T09:56:30Z</time>
      </trkpt>
      <trkpt lat="45.34846" lon="4.48099">
        <ele>1071.3</ele>
        <time>2015-12-20T09:56:31Z</time>
      </trkpt>
      <trkpt lat="45.34842" lon="4.48101">
        <ele>1071.6</ele>
        <time>2015-12-20T09:56:32Z</time>
      </trkpt>
      <trkpt lat="45.34838" lon="4.48104">
        <ele>1072</ele>
        <time>2015-12-20T09:56:33Z</time>
      </trkpt>
      <trkpt lat="45.34834" lon="4.48106">
        <ele>1072.4</ele>
        <time>2015-12-20T09:56:34Z</time>
      </trkpt>
      <trkpt lat="45.34831" lon="4.48109">
        <ele>1072.8</ele>
        <time>2015-12-20T09:56:35Z</time>
      </trkpt>
      <trkpt lat="45.34827" lon="4.48111">
        <ele>1073.1</ele>
        <time>2015-12-20T09:56:36Z</time>
      </trkpt>
      <trkpt lat="45.34823" lon="4.48114">
        <ele>1073.5</ele>
        <time>2015-12-20T09:56:37Z</time>
      </trkpt>
      <trkpt lat="45.3482" lon="4.48116">
        <ele>1073.9</ele>
        <time>2015-12-20T09:56:38Z</time>
      </trkpt>
      <trkpt lat="45.34816" lon="4.48118">
        <ele>1074.2</ele>
        <time>2015-12-20T09:56:39Z</time>
      </trkpt>
      <trkpt lat="45.34812" lon="4.48121">
        <ele>1074.6</ele>
        <time>2015-12-20T09:56:40Z</time>
      </trkpt>
      <trkpt lat="45.34809" lon="4.48124">
        <ele>1075</ele>
        <time>2015-12-20T09:56:41Z</time>
      </trkpt>
      <trkpt lat="45.34806" lon="4.48127">
        <ele>1075.5</ele>
        <time>2015-12-20T09:56:42Z</time>
      </trkpt>
      <trkpt lat="45.34802" lon="4.4813">
        <ele>1076.1</ele>
        <time>2015-12-20T09:56:43Z</time>
      </trkpt>
      <trkpt lat="45.34799" lon="4.48133">
        <ele>1076.6</ele>
        <time>2015-12-20T09:56:44Z</time>
      </trkpt>
      <trkpt lat="45.34796" lon="4.48136">
        <ele>1077.2</ele>
        <time>2015-12-20T09:56:45Z</time>
      </trkpt>
      <trkpt lat="45.34792" lon="4.48139">
        <ele>1077.8</ele>
        <time>2015-12-20T09:56:46Z</time>
      </trkpt>
      <trkpt lat="45.34789" lon="4.48142">
        <ele>1078.4</ele>
        <time>2015-12-20T09:56:47Z</time>
      </trkpt>
      <trkpt lat="45.34785" lon="4.48145">
        <ele>1079.1</ele>
        <time>2015-12-20T09:56:48Z</time>
      </trkpt>
      <trkpt lat="45.34781" lon="4.48149">
        <ele>1079.6</ele>
        <time>2015-12-20T09:56:49Z</time>
      </trkpt>
      <trkpt lat="45.34778" lon="4.48151">
        <ele>1080.2</ele>
        <time>2015-12-20T09:56:50Z</time>
      </trkpt>
      <trkpt lat="45.34774" lon="4.48154">
        <ele>1080.6</ele>
        <time>2015-12-20T09:56:51Z</time>
      </trkpt>
      <trkpt lat="45.3477" lon="4.48156">
        <ele>1081.1</ele>
        <time>2015-12-20T09:56:52Z</time>
      </trkpt>
      <trkpt lat="45.34767" lon="4.48159">
        <ele>1081.5</ele>
        <time>2015-12-20T09:56:53Z</time>
      </trkpt>
      <trkpt lat="45.34763" lon="4.48161">
        <ele>1081.9</ele>
        <time>2015-12-20T09:56:54Z</time>
      </trkpt>
      <trkpt lat="45.34759" lon="4.48163">
        <ele>1082.3</ele>
        <time>2015-12-20T09:56:55Z</time>
      </trkpt>
      <trkpt lat="45.34756" lon="4.48166">
        <ele>1082.7</ele>
        <time>2015-12-20T09:56:56Z</time>
      </trkpt>
      <trkpt lat="45.34752" lon="4.48168">
        <ele>1083</ele>
        <time>2015-12-20T09:56:57Z</time>
      </trkpt>
      <trkpt lat="45.34748" lon="4.4817">
        <ele>1083.3</ele>
        <time>2015-12-20T09:56:58Z</time>
      </trkpt>
      <trkpt lat="45.34744" lon="4.48171">
        <ele>1083.6</ele>
        <time>2015-12-20T09:56:59Z</time>
      </trkpt>
      <trkpt lat="45.34741" lon="4.48172">
        <ele>1083.8</ele>
        <time>2015-12-20T09:57:00Z</time>
      </trkpt>
      <trkpt lat="45.34737" lon="4.48173">
        <ele>1084</ele>
        <time>2015-12-20T09:57:01Z</time>
      </trkpt>
      <trkpt lat="45.34731" lon="4.48171">
        <ele>1084.1</ele>
        <time>2015-12-20T09:57:02Z</time>
      </trkpt>
      <trkpt lat="45.34727" lon="4.48172">
        <ele>1084.2</ele>
        <time>2015-12-20T09:57:03Z</time>
      </trkpt>
      <trkpt lat="45.34724" lon="4.48173">
        <ele>1084.4</ele>
        <time>2015-12-20T09:57:04Z</time>
      </trkpt>
      <trkpt lat="45.34721" lon="4.48176">
        <ele>1084.7</ele>
        <time>2015-12-20T09:57:05Z</time>
      </trkpt>
      <trkpt lat="45.34716" lon="4.48175">
        <ele>1084.8</ele>
        <time>2015-12-20T09:57:06Z</time>
      </trkpt>
      <trkpt lat="45.34713" lon="4.48177">
        <ele>1085</ele>
        <time>2015-12-20T09:57:07Z</time>
      </trkpt>
      <trkpt lat="45.34709" lon="4.48177">
        <ele>1085.1</ele>
        <time>2015-12-20T09:57:08Z</time>
      </trkpt>
      <trkpt lat="45.34706" lon="4.48177">
        <ele>1085.2</ele>
        <time>2015-12-20T09:57:09Z</time>
      </trkpt>
      <trkpt lat="45.34702" lon="4.48177">
        <ele>1085.2</ele>
        <time>2015-12-20T09:57:10Z</time>
      </trkpt>
      <trkpt lat="45.34699" lon="4.48179">
        <ele>1085.3</ele>
        <time>2015-12-20T09:57:11Z</time>
      </trkpt>
      <trkpt lat="45.34694" lon="4.48179">
        <ele>1085.4</ele>
        <time>2015-12-20T09:57:12Z</time>
      </trkpt>
      <trkpt lat="45.3469" lon="4.48179">
        <ele>1085.5</ele>
        <time>2015-12-20T09:57:13Z</time>
      </trkpt>
      <trkpt lat="45.34687" lon="4.48179">
        <ele>1085.5</ele>
        <time>2015-12-20T09:57:14Z</time>
      </trkpt>
      <trkpt lat="45.34683" lon="4.48179">
        <ele>1085.6</ele>
        <time>2015-12-20T09:57:15Z</time>
      </trkpt>
      <trkpt lat="45.3468" lon="4.4818">
        <ele>1085.7</ele>
        <time>2015-12-20T09:57:16Z</time>
      </trkpt>
      <trkpt lat="45.34675" lon="4.4818">
        <ele>1085.7</ele>
        <time>2015-12-20T09:57:17Z</time>
      </trkpt>
      <trkpt lat="45.34671" lon="4.4818">
        <ele>1085.8</ele>
        <time>2015-12-20T09:57:18Z</time>
      </trkpt>
      <trkpt lat="45.34667" lon="4.4818">
        <ele>1085.8</ele>
        <time>2015-12-20T09:57:19Z</time>
      </trkpt>
      <trkpt lat="45.34664" lon="4.48179">
        <ele>1085.8</ele>
        <time>2015-12-20T09:57:20Z</time>
      </trkpt>
      <trkpt lat="45.3466" lon="4.4818">
        <ele>1085.9</ele>
        <time>2015-12-20T09:57:21Z</time>
      </trkpt>
      <trkpt lat="45.34656" lon="4.48179">
        <ele>1085.9</ele>
        <time>2015-12-20T09:57:22Z</time>
      </trkpt>
      <trkpt lat="45.34653" lon="4.4818">
        <ele>1086</ele>
        <time>2015-12-20T09:57:23Z</time>
      </trkpt>
      <trkpt lat="45.3465" lon="4.48179">
        <ele>1086</ele>
        <time>2015-12-20T09:57:24Z</time>
      </trkpt>
      <trkpt lat="45.34645" lon="4.48179">
        <ele>1086</ele>
        <time>2015-12-20T09:57:26Z</time>
      </trkpt>
      <trkpt lat="45.34642" lon="4.48179">
        <ele>1086.1</ele>
        <time>2015-12-20T09:57:27Z</time>
      </trkpt>
      <trkpt lat="45.34638" lon="4.48177">
        <ele>1086.1</ele>
        <time>2015-12-20T09:57:29Z</time>
      </trkpt>
      <trkpt lat="45.34635" lon="4.48175">
        <ele>1086.1</ele>
        <time>2015-12-20T09:57:30Z</time>
      </trkpt>
      <trkpt lat="45.34632" lon="4.48173">
        <ele>1086.1</ele>
        <time>2015-12-20T09:57:31Z</time>
      </trkpt>
      <trkpt lat="45.34628" lon="4.48171">
        <ele>1086.1</ele>
        <time>2015-12-20T09:57:32Z</time>
      </trkpt>
      <trkpt lat="45.34624" lon="4.48167">
        <ele>1086.1</ele>
        <time>2015-12-20T09:57:33Z</time>
      </trkpt>
      <trkpt lat="45.34622" lon="4.48164">
        <ele>1086.3</ele>
        <time>2015-12-20T09:57:34Z</time>
      </trkpt>
      <trkpt lat="45.34618" lon="4.48162">
        <ele>1086.6</ele>
        <time>2015-12-20T09:57:35Z</time>
      </trkpt>
      <trkpt lat="45.34614" lon="4.4816">
        <ele>1087.1</ele>
        <time>2015-12-20T09:57:36Z</time>
      </trkpt>
      <trkpt lat="45.34611" lon="4.48158">
        <ele>1087.4</ele>
        <time>2015-12-20T09:57:37Z</time>
      </trkpt>
      <trkpt lat="45.34607" lon="4.48156">
        <ele>1087.8</ele>
        <time>2015-12-20T09:57:38Z</time>
      </trkpt>
      <trkpt lat="45.34603" lon="4.48156">
        <ele>1088.2</ele>
        <time>2015-12-20T09:57:39Z</time>
      </trkpt>
      <trkpt lat="45.346" lon="4.48156">
        <ele>1088.6</ele>
        <time>2015-12-20T09:57:40Z</time>
      </trkpt>
      <trkpt lat="45.34597" lon="4.48157">
        <ele>1088.9</ele>
        <time>2015-12-20T09:57:41Z</time>
      </trkpt>
      <trkpt lat="45.34593" lon="4.4816">
        <ele>1089.3</ele>
        <time>2015-12-20T09:57:43Z</time>
      </trkpt>
      <trkpt lat="45.34589" lon="4.48163">
        <ele>1089.9</ele>
        <time>2015-12-20T09:57:45Z</time>
      </trkpt>
      <trkpt lat="45.34584" lon="4.48165">
        <ele>1090.5</ele>
        <time>2015-12-20T09:57:47Z</time>
      </trkpt>
      <trkpt lat="45.3458" lon="4.48166">
        <ele>1090.9</ele>
        <time>2015-12-20T09:57:49Z</time>
      </trkpt>
      <trkpt lat="45.34579" lon="4.48162">
        <ele>1090.9</ele>
        <time>2015-12-20T09:58:00Z</time>
      </trkpt>
      <trkpt lat="45.34576" lon="4.48164">
        <ele>1091.3</ele>
        <time>2015-12-20T09:58:18Z</time>
      </trkpt>
      <trkpt lat="45.34573" lon="4.48164">
        <ele>1091.6</ele>
        <time>2015-12-20T09:58:25Z</time>
      </trkpt>
      <trkpt lat="45.34567" lon="4.48164">
        <ele>1092.2</ele>
        <time>2015-12-20T09:58:34Z</time>
      </trkpt>
      <trkpt lat="45.34564" lon="4.48161">
        <ele>1092.6</ele>
        <time>2015-12-20T09:58:38Z</time>
      </trkpt>
      <trkpt lat="45.34561" lon="4.48158">
        <ele>1092.9</ele>
        <time>2015-12-20T09:58:40Z</time>
      </trkpt>
      <trkpt lat="45.34558" lon="4.48155">
        <ele>1093.2</ele>
        <time>2015-12-20T09:58:43Z</time>
      </trkpt>
      <trkpt lat="45.34554" lon="4.48154">
        <ele>1093.6</ele>
        <time>2015-12-20T09:58:45Z</time>
      </trkpt>
      <trkpt lat="45.34549" lon="4.48154">
        <ele>1094.1</ele>
        <time>2015-12-20T09:58:47Z</time>
      </trkpt>
      <trkpt lat="45.34548" lon="4.4815">
        <ele>1094.3</ele>
        <time>2015-12-20T09:58:48Z</time>
      </trkpt>
      <trkpt lat="45.34547" lon="4.48146">
        <ele>1094.4</ele>
        <time>2015-12-20T09:58:49Z</time>
      </trkpt>
      <trkpt lat="45.34543" lon="4.4814">
        <ele>1094.9</ele>
        <time>2015-12-20T09:58:51Z</time>
      </trkpt>
      <trkpt lat="45.3454" lon="4.48139">
        <ele>1095.3</ele>
        <time>2015-12-20T09:58:52Z</time>
      </trkpt>
      <trkpt lat="45.34537" lon="4.48139">
        <ele>1095.8</ele>
        <time>2015-12-20T09:58:53Z</time>
      </trkpt>
      <trkpt lat="45.34533" lon="4.48136">
        <ele>1096.4</ele>
        <time>2015-12-20T09:58:55Z</time>
      </trkpt>
      <trkpt lat="45.3453" lon="4.48131">
        <ele>1097</ele>
        <time>2015-12-20T09:58:57Z</time>
      </trkpt>
      <trkpt lat="45.34527" lon="4.48128">
        <ele>1097.4</ele>
        <time>2015-12-20T09:58:59Z</time>
      </trkpt>
      <trkpt lat="45.34524" lon="4.48125">
        <ele>1097.9</ele>
        <time>2015-12-20T09:59:01Z</time>
      </trkpt>
      <trkpt lat="45.34523" lon="4.48122">
        <ele>1098.2</ele>
        <time>2015-12-20T09:59:02Z</time>
      </trkpt>
      <trkpt lat="45.3452" lon="4.48115">
        <ele>1098.7</ele>
        <time>2015-12-20T09:59:04Z</time>
      </trkpt>
      <trkpt lat="45.34519" lon="4.48111">
        <ele>1098.9</ele>
        <time>2015-12-20T09:59:05Z</time>
      </trkpt>
      <trkpt lat="45.34518" lon="4.48108">
        <ele>1099.1</ele>
        <time>2015-12-20T09:59:06Z</time>
      </trkpt>
      <trkpt lat="45.34516" lon="4.48105">
        <ele>1099.5</ele>
        <time>2015-12-20T09:59:07Z</time>
      </trkpt>
      <trkpt lat="45.34514" lon="4.48101">
        <ele>1099.7</ele>
        <time>2015-12-20T09:59:08Z</time>
      </trkpt>
      <trkpt lat="45.34513" lon="4.48097">
        <ele>1099.9</ele>
        <time>2015-12-20T09:59:09Z</time>
      </trkpt>
      <trkpt lat="45.34512" lon="4.48093">
        <ele>1100.1</ele>
        <time>2015-12-20T09:59:10Z</time>
      </trkpt>
      <trkpt lat="45.3451" lon="4.4809">
        <ele>1100.4</ele>
        <time>2015-12-20T09:59:11Z</time>
      </trkpt>
      <trkpt lat="45.34509" lon="4.48085">
        <ele>1100.7</ele>
        <time>2015-12-20T09:59:12Z</time>
      </trkpt>
      <trkpt lat="45.34507" lon="4.48079">
        <ele>1100.9</ele>
        <time>2015-12-20T09:59:13Z</time>
      </trkpt>
      <trkpt lat="45.34507" lon="4.48073">
        <ele>1100.9</ele>
        <time>2015-12-20T09:59:14Z</time>
      </trkpt>
      <trkpt lat="45.34507" lon="4.48067">
        <ele>1100.9</ele>
        <time>2015-12-20T09:59:15Z</time>
      </trkpt>
      <trkpt lat="45.34508" lon="4.48061">
        <ele>1100.8</ele>
        <time>2015-12-20T09:59:16Z</time>
      </trkpt>
      <trkpt lat="45.34508" lon="4.48056">
        <ele>1100.8</ele>
        <time>2015-12-20T09:59:17Z</time>
      </trkpt>
      <trkpt lat="45.34509" lon="4.48051">
        <ele>1100.7</ele>
        <time>2015-12-20T09:59:18Z</time>
      </trkpt>
      <trkpt lat="45.3451" lon="4.48046">
        <ele>1100.6</ele>
        <time>2015-12-20T09:59:19Z</time>
      </trkpt>
      <trkpt lat="45.3451" lon="4.48041">
        <ele>1100.5</ele>
        <time>2015-12-20T09:59:20Z</time>
      </trkpt>
      <trkpt lat="45.34511" lon="4.48035">
        <ele>1100</ele>
        <time>2015-12-20T09:59:22Z</time>
      </trkpt>
      <trkpt lat="45.3451" lon="4.48029">
        <ele>1099.8</ele>
        <time>2015-12-20T09:59:24Z</time>
      </trkpt>
      <trkpt lat="45.34508" lon="4.48024">
        <ele>1099.8</ele>
        <time>2015-12-20T09:59:26Z</time>
      </trkpt>
      <trkpt lat="45.34505" lon="4.48021">
        <ele>1100</ele>
        <time>2015-12-20T09:59:28Z</time>
      </trkpt>
      <trkpt lat="45.34501" lon="4.4802">
        <ele>1100.5</ele>
        <time>2015-12-20T09:59:32Z</time>
      </trkpt>
      <trkpt lat="45.34498" lon="4.48018">
        <ele>1100.9</ele>
        <time>2015-12-20T09:59:34Z</time>
      </trkpt>
      <trkpt lat="45.34493" lon="4.48016">
        <ele>1101.5</ele>
        <time>2015-12-20T09:59:36Z</time>
      </trkpt>
      <trkpt lat="45.34489" lon="4.48014">
        <ele>1102</ele>
        <time>2015-12-20T09:59:38Z</time>
      </trkpt>
      <trkpt lat="45.34485" lon="4.4801">
        <ele>1102.4</ele>
        <time>2015-12-20T09:59:40Z</time>
      </trkpt>
      <trkpt lat="45.34483" lon="4.48005">
        <ele>1102.4</ele>
        <time>2015-12-20T09:59:42Z</time>
      </trkpt>
      <trkpt lat="45.34483" lon="4.47998">
        <ele>1102.1</ele>
        <time>2015-12-20T09:59:44Z</time>
      </trkpt>
      <trkpt lat="45.34481" lon="4.47992">
        <ele>1102</ele>
        <time>2015-12-20T09:59:46Z</time>
      </trkpt>
      <trkpt lat="45.34477" lon="4.47989">
        <ele>1102.5</ele>
        <time>2015-12-20T09:59:48Z</time>
      </trkpt>
      <trkpt lat="45.34472" lon="4.47988">
        <ele>1103.3</ele>
        <time>2015-12-20T09:59:50Z</time>
      </trkpt>
      <trkpt lat="45.34469" lon="4.47987">
        <ele>1103.7</ele>
        <time>2015-12-20T09:59:51Z</time>
      </trkpt>
      <trkpt lat="45.34466" lon="4.47984">
        <ele>1104</ele>
        <time>2015-12-20T09:59:52Z</time>
      </trkpt>
      <trkpt lat="45.34464" lon="4.47982">
        <ele>1104.3</ele>
        <time>2015-12-20T09:59:53Z</time>
      </trkpt>
      <trkpt lat="45.34461" lon="4.47977">
        <ele>1104.4</ele>
        <time>2015-12-20T09:59:55Z</time>
      </trkpt>
      <trkpt lat="45.34459" lon="4.47973">
        <ele>1104.6</ele>
        <time>2015-12-20T09:59:57Z</time>
      </trkpt>
      <trkpt lat="45.34457" lon="4.47968">
        <ele>1104.8</ele>
        <time>2015-12-20T10:00:00Z</time>
      </trkpt>
      <trkpt lat="45.34454" lon="4.47965">
        <ele>1105.2</ele>
        <time>2015-12-20T10:00:02Z</time>
      </trkpt>
      <trkpt lat="45.34451" lon="4.47962">
        <ele>1105.6</ele>
        <time>2015-12-20T10:00:04Z</time>
      </trkpt>
      <trkpt lat="45.34449" lon="4.47958">
        <ele>1105.8</ele>
        <time>2015-12-20T10:00:07Z</time>
      </trkpt>
      <trkpt lat="45.34447" lon="4.47955">
        <ele>1105.9</ele>
        <time>2015-12-20T10:00:09Z</time>
      </trkpt>
      <trkpt lat="45.34444" lon="4.47952">
        <ele>1106.1</ele>
        <time>2015-12-20T10:00:12Z</time>
      </trkpt>
      <trkpt lat="45.34441" lon="4.47949">
        <ele>1106.5</ele>
        <time>2015-12-20T10:00:15Z</time>
      </trkpt>
      <trkpt lat="45.34438" lon="4.47948">
        <ele>1107</ele>
        <time>2015-12-20T10:00:19Z</time>
      </trkpt>
      <trkpt lat="45.34436" lon="4.47946">
        <ele>1107.2</ele>
        <time>2015-12-20T10:00:21Z</time>
      </trkpt>
      <trkpt lat="45.34432" lon="4.47942">
        <ele>1107.6</ele>
        <time>2015-12-20T10:00:23Z</time>
      </trkpt>
      <trkpt lat="45.3443" lon="4.47939">
        <ele>1107.8</ele>
        <time>2015-12-20T10:00:25Z</time>
      </trkpt>
      <trkpt lat="45.34428" lon="4.47936">
        <ele>1107.9</ele>
        <time>2015-12-20T10:00:28Z</time>
      </trkpt>
      <trkpt lat="45.34425" lon="4.47933">
        <ele>1108.1</ele>
        <time>2015-12-20T10:00:30Z</time>
      </trkpt>
      <trkpt lat="45.34423" lon="4.47929">
        <ele>1108.2</ele>
        <time>2015-12-20T10:00:32Z</time>
      </trkpt>
      <trkpt lat="45.34421" lon="4.47924">
        <ele>1108.2</ele>
        <time>2015-12-20T10:00:34Z</time>
      </trkpt>
      <trkpt lat="45.34419" lon="4.4792">
        <ele>1108.2</ele>
        <time>2015-12-20T10:00:36Z</time>
      </trkpt>
      <trkpt lat="45.34416" lon="4.47914">
        <ele>1108.1</ele>
        <time>2015-12-20T10:00:38Z</time>
      </trkpt>
      <trkpt lat="45.34413" lon="4.47909">
        <ele>1108.3</ele>
        <time>2015-12-20T10:00:40Z</time>
      </trkpt>
      <trkpt lat="45.3441" lon="4.47904">
        <ele>1108.4</ele>
        <time>2015-12-20T10:00:42Z</time>
      </trkpt>
      <trkpt lat="45.34408" lon="4.479">
        <ele>1108.4</ele>
        <time>2015-12-20T10:00:44Z</time>
      </trkpt>
      <trkpt lat="45.34405" lon="4.47898">
        <ele>1108.6</ele>
        <time>2015-12-20T10:00:47Z</time>
      </trkpt>
      <trkpt lat="45.34402" lon="4.47897">
        <ele>1109.3</ele>
        <time>2015-12-20T10:00:49Z</time>
      </trkpt>
      <trkpt lat="45.34398" lon="4.47897">
        <ele>1109.9</ele>
        <time>2015-12-20T10:00:51Z</time>
      </trkpt>
      <trkpt lat="45.34395" lon="4.47895">
        <ele>1110.2</ele>
        <time>2015-12-20T10:00:53Z</time>
      </trkpt>
      <trkpt lat="45.34393" lon="4.47892">
        <ele>1110.4</ele>
        <time>2015-12-20T10:00:55Z</time>
      </trkpt>
      <trkpt lat="45.3439" lon="4.47888">
        <ele>1110.5</ele>
        <time>2015-12-20T10:00:57Z</time>
      </trkpt>
      <trkpt lat="45.34387" lon="4.47882">
        <ele>1110.5</ele>
        <time>2015-12-20T10:00:59Z</time>
      </trkpt>
      <trkpt lat="45.34384" lon="4.47877">
        <ele>1110.5</ele>
        <time>2015-12-20T10:01:01Z</time>
      </trkpt>
      <trkpt lat="45.34381" lon="4.47874">
        <ele>1110.7</ele>
        <time>2015-12-20T10:01:03Z</time>
      </trkpt>
      <trkpt lat="45.34378" lon="4.4787">
        <ele>1111</ele>
        <time>2015-12-20T10:01:05Z</time>
      </trkpt>
      <trkpt lat="45.34375" lon="4.47865">
        <ele>1111.1</ele>
        <time>2015-12-20T10:01:07Z</time>
      </trkpt>
      <trkpt lat="45.34372" lon="4.4786">
        <ele>1110.8</ele>
        <time>2015-12-20T10:01:09Z</time>
      </trkpt>
      <trkpt lat="45.3437" lon="4.47856">
        <ele>1110.6</ele>
        <time>2015-12-20T10:01:10Z</time>
      </trkpt>
      <trkpt lat="45.34368" lon="4.47852">
        <ele>1110.3</ele>
        <time>2015-12-20T10:01:11Z</time>
      </trkpt>
      <trkpt lat="45.34366" lon="4.47848">
        <ele>1110.2</ele>
        <time>2015-12-20T10:01:12Z</time>
      </trkpt>
      <trkpt lat="45.34363" lon="4.47845">
        <ele>1110</ele>
        <time>2015-12-20T10:01:13Z</time>
      </trkpt>
      <trkpt lat="45.34361" lon="4.47843">
        <ele>1109.9</ele>
        <time>2015-12-20T10:01:14Z</time>
      </trkpt>
      <trkpt lat="45.34359" lon="4.47839">
        <ele>1109.7</ele>
        <time>2015-12-20T10:01:15Z</time>
      </trkpt>
      <trkpt lat="45.34357" lon="4.47836">
        <ele>1109.5</ele>
        <time>2015-12-20T10:01:16Z</time>
      </trkpt>
      <trkpt lat="45.34354" lon="4.47833">
        <ele>1109.3</ele>
        <time>2015-12-20T10:01:17Z</time>
      </trkpt>
      <trkpt lat="45.34352" lon="4.47831">
        <ele>1109.2</ele>
        <time>2015-12-20T10:01:18Z</time>
      </trkpt>
      <trkpt lat="45.34348" lon="4.47826">
        <ele>1108.9</ele>
        <time>2015-12-20T10:01:20Z</time>
      </trkpt>
      <trkpt lat="45.34345" lon="4.47821">
        <ele>1108.5</ele>
        <time>2015-12-20T10:01:22Z</time>
      </trkpt>
      <trkpt lat="45.34342" lon="4.47816">
        <ele>1108.1</ele>
        <time>2015-12-20T10:01:24Z</time>
      </trkpt>
      <trkpt lat="45.3434" lon="4.47812">
        <ele>1107.8</ele>
        <time>2015-12-20T10:01:25Z</time>
      </trkpt>
      <trkpt lat="45.34337" lon="4.4781">
        <ele>1107.6</ele>
        <time>2015-12-20T10:01:26Z</time>
      </trkpt>
      <trkpt lat="45.34334" lon="4.47808">
        <ele>1107.5</ele>
        <time>2015-12-20T10:01:27Z</time>
      </trkpt>
      <trkpt lat="45.34332" lon="4.47805">
        <ele>1107.3</ele>
        <time>2015-12-20T10:01:28Z</time>
      </trkpt>
      <trkpt lat="45.3433" lon="4.47803">
        <ele>1107.1</ele>
        <time>2015-12-20T10:01:29Z</time>
      </trkpt>
      <trkpt lat="45.34327" lon="4.478">
        <ele>1106.8</ele>
        <time>2015-12-20T10:01:30Z</time>
      </trkpt>
      <trkpt lat="45.34325" lon="4.47796">
        <ele>1106.4</ele>
        <time>2015-12-20T10:01:31Z</time>
      </trkpt>
      <trkpt lat="45.34322" lon="4.47793">
        <ele>1106.1</ele>
        <time>2015-12-20T10:01:32Z</time>
      </trkpt>
      <trkpt lat="45.34319" lon="4.4779">
        <ele>1105.8</ele>
        <time>2015-12-20T10:01:33Z</time>
      </trkpt>
      <trkpt lat="45.34316" lon="4.47787">
        <ele>1105.4</ele>
        <time>2015-12-20T10:01:34Z</time>
      </trkpt>
      <trkpt lat="45.34313" lon="4.47785">
        <ele>1105</ele>
        <time>2015-12-20T10:01:35Z</time>
      </trkpt>
      <trkpt lat="45.3431" lon="4.47782">
        <ele>1104.5</ele>
        <time>2015-12-20T10:01:36Z</time>
      </trkpt>
      <trkpt lat="45.34307" lon="4.47779">
        <ele>1104.2</ele>
        <time>2015-12-20T10:01:37Z</time>
      </trkpt>
      <trkpt lat="45.34305" lon="4.47777">
        <ele>1103.8</ele>
        <time>2015-12-20T10:01:38Z</time>
      </trkpt>
      <trkpt lat="45.34302" lon="4.47774">
        <ele>1103.3</ele>
        <time>2015-12-20T10:01:39Z</time>
      </trkpt>
      <trkpt lat="45.34299" lon="4.4777">
        <ele>1102.7</ele>
        <time>2015-12-20T10:01:40Z</time>
      </trkpt>
      <trkpt lat="45.34296" lon="4.47767">
        <ele>1102.1</ele>
        <time>2015-12-20T10:01:41Z</time>
      </trkpt>
      <trkpt lat="45.34293" lon="4.47764">
        <ele>1101.6</ele>
        <time>2015-12-20T10:01:42Z</time>
      </trkpt>
      <trkpt lat="45.34291" lon="4.47761">
        <ele>1101.1</ele>
        <time>2015-12-20T10:01:43Z</time>
      </trkpt>
      <trkpt lat="45.34288" lon="4.47757">
        <ele>1100.7</ele>
        <time>2015-12-20T10:01:44Z</time>
      </trkpt>
      <trkpt lat="45.34286" lon="4.47754">
        <ele>1100.3</ele>
        <time>2015-12-20T10:01:45Z</time>
      </trkpt>
      <trkpt lat="45.34283" lon="4.4775">
        <ele>1099.9</ele>
        <time>2015-12-20T10:01:46Z</time>
      </trkpt>
      <trkpt lat="45.3428" lon="4.47746">
        <ele>1099.4</ele>
        <time>2015-12-20T10:01:47Z</time>
      </trkpt>
      <trkpt lat="45.34278" lon="4.47742">
        <ele>1098.8</ele>
        <time>2015-12-20T10:01:48Z</time>
      </trkpt>
      <trkpt lat="45.34275" lon="4.47738">
        <ele>1098.3</ele>
        <time>2015-12-20T10:01:49Z</time>
      </trkpt>
      <trkpt lat="45.34272" lon="4.47734">
        <ele>1097.7</ele>
        <time>2015-12-20T10:01:50Z</time>
      </trkpt>
      <trkpt lat="45.34269" lon="4.4773">
        <ele>1097.2</ele>
        <time>2015-12-20T10:01:51Z</time>
      </trkpt>
      <trkpt lat="45.34267" lon="4.47726">
        <ele>1096.6</ele>
        <time>2015-12-20T10:01:52Z</time>
      </trkpt>
      <trkpt lat="45.34264" lon="4.47721">
        <ele>1096.1</ele>
        <time>2015-12-20T10:01:53Z</time>
      </trkpt>
      <trkpt lat="45.34262" lon="4.47717">
        <ele>1095.6</ele>
        <time>2015-12-20T10:01:54Z</time>
      </trkpt>
      <trkpt lat="45.34259" lon="4.47713">
        <ele>1095.1</ele>
        <time>2015-12-20T10:01:55Z</time>
      </trkpt>
      <trkpt lat="45.34255" lon="4.47709">
        <ele>1094.6</ele>
        <time>2015-12-20T10:01:56Z</time>
      </trkpt>
      <trkpt lat="45.34253" lon="4.47706">
        <ele>1094.4</ele>
        <time>2015-12-20T10:01:57Z</time>
      </trkpt>
      <trkpt lat="45.3425" lon="4.47702">
        <ele>1094.2</ele>
        <time>2015-12-20T10:01:58Z</time>
      </trkpt>
      <trkpt lat="45.34247" lon="4.47698">
        <ele>1094</ele>
        <time>2015-12-20T10:01:59Z</time>
      </trkpt>
      <trkpt lat="45.34245" lon="4.47694">
        <ele>1093.8</ele>
        <time>2015-12-20T10:02:00Z</time>
      </trkpt>
      <trkpt lat="45.34242" lon="4.47691">
        <ele>1093.6</ele>
        <time>2015-12-20T10:02:01Z</time>
      </trkpt>
      <trkpt lat="45.3424" lon="4.47688">
        <ele>1093.5</ele>
        <time>2015-12-20T10:02:02Z</time>
      </trkpt>
      <trkpt lat="45.34237" lon="4.47685">
        <ele>1093.5</ele>
        <time>2015-12-20T10:02:03Z</time>
      </trkpt>
      <trkpt lat="45.34234" lon="4.47683">
        <ele>1093.5</ele>
        <time>2015-12-20T10:02:04Z</time>
      </trkpt>
      <trkpt lat="45.34231" lon="4.47682">
        <ele>1093.6</ele>
        <time>2015-12-20T10:02:05Z</time>
      </trkpt>
      <trkpt lat="45.34228" lon="4.4768">
        <ele>1093.8</ele>
        <time>2015-12-20T10:02:06Z</time>
      </trkpt>
      <trkpt lat="45.34224" lon="4.47679">
        <ele>1093.9</ele>
        <time>2015-12-20T10:02:07Z</time>
      </trkpt>
      <trkpt lat="45.34221" lon="4.47676">
        <ele>1093.9</ele>
        <time>2015-12-20T10:02:08Z</time>
      </trkpt>
      <trkpt lat="45.34219" lon="4.47674">
        <ele>1093.9</ele>
        <time>2015-12-20T10:02:09Z</time>
      </trkpt>
      <trkpt lat="45.34216" lon="4.47672">
        <ele>1093.9</ele>
        <time>2015-12-20T10:02:10Z</time>
      </trkpt>
      <trkpt lat="45.34214" lon="4.4767">
        <ele>1093.8</ele>
        <time>2015-12-20T10:02:11Z</time>
      </trkpt>
      <trkpt lat="45.34211" lon="4.47667">
        <ele>1093.8</ele>
        <time>2015-12-20T10:02:12Z</time>
      </trkpt>
      <trkpt lat="45.34208" lon="4.47665">
        <ele>1094</ele>
        <time>2015-12-20T10:02:13Z</time>
      </trkpt>
      <trkpt lat="45.34204" lon="4.47662">
        <ele>1094.5</ele>
        <time>2015-12-20T10:02:14Z</time>
      </trkpt>
      <trkpt lat="45.34201" lon="4.4766">
        <ele>1095.2</ele>
        <time>2015-12-20T10:02:15Z</time>
      </trkpt>
      <trkpt lat="45.34197" lon="4.47657">
        <ele>1095.9</ele>
        <time>2015-12-20T10:02:16Z</time>
      </trkpt>
      <trkpt lat="45.34192" lon="4.47654">
        <ele>1096.9</ele>
        <time>2015-12-20T10:02:17Z</time>
      </trkpt>
      <trkpt lat="45.34188" lon="4.47652">
        <ele>1098</ele>
        <time>2015-12-20T10:02:18Z</time>
      </trkpt>
      <trkpt lat="45.34183" lon="4.47651">
        <ele>1099.2</ele>
        <time>2015-12-20T10:02:19Z</time>
      </trkpt>
      <trkpt lat="45.34179" lon="4.47651">
        <ele>1100.3</ele>
        <time>2015-12-20T10:02:20Z</time>
      </trkpt>
      <trkpt lat="45.34172" lon="4.47654">
        <ele>1102.5</ele>
        <time>2015-12-20T10:02:21Z</time>
      </trkpt>
      <trkpt lat="45.34167" lon="4.47654">
        <ele>1103.9</ele>
        <time>2015-12-20T10:02:22Z</time>
      </trkpt>
      <trkpt lat="45.34161" lon="4.47653">
        <ele>1105.5</ele>
        <time>2015-12-20T10:02:24Z</time>
      </trkpt>
      <trkpt lat="45.34157" lon="4.47654">
        <ele>1106.6</ele>
        <time>2015-12-20T10:02:25Z</time>
      </trkpt>
      <trkpt lat="45.34152" lon="4.47653">
        <ele>1108</ele>
        <time>2015-12-20T10:02:26Z</time>
      </trkpt>
      <trkpt lat="45.34147" lon="4.47651">
        <ele>1109.3</ele>
        <time>2015-12-20T10:02:27Z</time>
      </trkpt>
      <trkpt lat="45.34141" lon="4.47651">
        <ele>1110.8</ele>
        <time>2015-12-20T10:02:29Z</time>
      </trkpt>
      <trkpt lat="45.34138" lon="4.47646">
        <ele>1111.9</ele>
        <time>2015-12-20T10:02:31Z</time>
      </trkpt>
      <trkpt lat="45.34136" lon="4.47641">
        <ele>1112.3</ele>
        <time>2015-12-20T10:02:32Z</time>
      </trkpt>
      <trkpt lat="45.34136" lon="4.47635">
        <ele>1112.4</ele>
        <time>2015-12-20T10:02:33Z</time>
      </trkpt>
      <trkpt lat="45.34136" lon="4.47629">
        <ele>1112.3</ele>
        <time>2015-12-20T10:02:34Z</time>
      </trkpt>
      <trkpt lat="45.34137" lon="4.47623">
        <ele>1112.2</ele>
        <time>2015-12-20T10:02:35Z</time>
      </trkpt>
      <trkpt lat="45.34137" lon="4.47616">
        <ele>1112.2</ele>
        <time>2015-12-20T10:02:36Z</time>
      </trkpt>
      <trkpt lat="45.34138" lon="4.4761">
        <ele>1112</ele>
        <time>2015-12-20T10:02:37Z</time>
      </trkpt>
      <trkpt lat="45.34142" lon="4.47601">
        <ele>1110.9</ele>
        <time>2015-12-20T10:02:38Z</time>
      </trkpt>
      <trkpt lat="45.34143" lon="4.47593">
        <ele>1110.9</ele>
        <time>2015-12-20T10:02:39Z</time>
      </trkpt>
      <trkpt lat="45.34145" lon="4.47587">
        <ele>1110.2</ele>
        <time>2015-12-20T10:02:40Z</time>
      </trkpt>
      <trkpt lat="45.34146" lon="4.4758">
        <ele>1110</ele>
        <time>2015-12-20T10:02:41Z</time>
      </trkpt>
      <trkpt lat="45.34145" lon="4.47574">
        <ele>1110.4</ele>
        <time>2015-12-20T10:02:42Z</time>
      </trkpt>
      <trkpt lat="45.34146" lon="4.47569">
        <ele>1110.2</ele>
        <time>2015-12-20T10:02:43Z</time>
      </trkpt>
      <trkpt lat="45.34146" lon="4.4756">
        <ele>1110.4</ele>
        <time>2015-12-20T10:02:44Z</time>
      </trkpt>
      <trkpt lat="45.34146" lon="4.47552">
        <ele>1110.6</ele>
        <time>2015-12-20T10:02:45Z</time>
      </trkpt>
      <trkpt lat="45.3415" lon="4.47546">
        <ele>1109.1</ele>
        <time>2015-12-20T10:02:46Z</time>
      </trkpt>
      <trkpt lat="45.34153" lon="4.4754">
        <ele>1107.9</ele>
        <time>2015-12-20T10:02:47Z</time>
      </trkpt>
      <trkpt lat="45.34155" lon="4.47533">
        <ele>1106.8</ele>
        <time>2015-12-20T10:02:48Z</time>
      </trkpt>
      <trkpt lat="45.34156" lon="4.47525">
        <ele>1105.8</ele>
        <time>2015-12-20T10:02:49Z</time>
      </trkpt>
      <trkpt lat="45.34157" lon="4.47519">
        <ele>1105</ele>
        <time>2015-12-20T10:02:50Z</time>
      </trkpt>
      <trkpt lat="45.34159" lon="4.47512">
        <ele>1104.2</ele>
        <time>2015-12-20T10:02:51Z</time>
      </trkpt>
      <trkpt lat="45.34158" lon="4.47505">
        <ele>1104</ele>
        <time>2015-12-20T10:02:52Z</time>
      </trkpt>
      <trkpt lat="45.34159" lon="4.475">
        <ele>1103.5</ele>
        <time>2015-12-20T10:02:53Z</time>
      </trkpt>
      <trkpt lat="45.34159" lon="4.47495">
        <ele>1103</ele>
        <time>2015-12-20T10:02:54Z</time>
      </trkpt>
      <trkpt lat="45.34159" lon="4.47491">
        <ele>1102.7</ele>
        <time>2015-12-20T10:02:55Z</time>
      </trkpt>
      <trkpt lat="45.34159" lon="4.47486">
        <ele>1102.4</ele>
        <time>2015-12-20T10:02:56Z</time>
      </trkpt>
      <trkpt lat="45.34159" lon="4.47482">
        <ele>1102.4</ele>
        <time>2015-12-20T10:02:57Z</time>
      </trkpt>
      <trkpt lat="45.34158" lon="4.47476">
        <ele>1102.5</ele>
        <time>2015-12-20T10:02:58Z</time>
      </trkpt>
      <trkpt lat="45.34158" lon="4.4747">
        <ele>1102.4</ele>
        <time>2015-12-20T10:02:59Z</time>
      </trkpt>
      <trkpt lat="45.34157" lon="4.47465">
        <ele>1102.4</ele>
        <time>2015-12-20T10:03:00Z</time>
      </trkpt>
      <trkpt lat="45.34157" lon="4.4746">
        <ele>1102.1</ele>
        <time>2015-12-20T10:03:01Z</time>
      </trkpt>
      <trkpt lat="45.34156" lon="4.47455">
        <ele>1102.1</ele>
        <time>2015-12-20T10:03:02Z</time>
      </trkpt>
      <trkpt lat="45.34155" lon="4.4745">
        <ele>1101.8</ele>
        <time>2015-12-20T10:03:03Z</time>
      </trkpt>
      <trkpt lat="45.34155" lon="4.47446">
        <ele>1101.4</ele>
        <time>2015-12-20T10:03:04Z</time>
      </trkpt>
      <trkpt lat="45.34155" lon="4.47442">
        <ele>1101.1</ele>
        <time>2015-12-20T10:03:05Z</time>
      </trkpt>
      <trkpt lat="45.34155" lon="4.47438">
        <ele>1100.7</ele>
        <time>2015-12-20T10:03:06Z</time>
      </trkpt>
      <trkpt lat="45.34154" lon="4.47434">
        <ele>1100.5</ele>
        <time>2015-12-20T10:03:07Z</time>
      </trkpt>
      <trkpt lat="45.34153" lon="4.4743">
        <ele>1100.4</ele>
        <time>2015-12-20T10:03:08Z</time>
      </trkpt>
      <trkpt lat="45.34152" lon="4.47426">
        <ele>1100.3</ele>
        <time>2015-12-20T10:03:09Z</time>
      </trkpt>
      <trkpt lat="45.34152" lon="4.47421">
        <ele>1100.1</ele>
        <time>2015-12-20T10:03:10Z</time>
      </trkpt>
      <trkpt lat="45.34151" lon="4.47416">
        <ele>1099.8</ele>
        <time>2015-12-20T10:03:11Z</time>
      </trkpt>
      <trkpt lat="45.3415" lon="4.47412">
        <ele>1099.5</ele>
        <time>2015-12-20T10:03:12Z</time>
      </trkpt>
      <trkpt lat="45.3415" lon="4.47407">
        <ele>1099.3</ele>
        <time>2015-12-20T10:03:13Z</time>
      </trkpt>
      <trkpt lat="45.34149" lon="4.47403">
        <ele>1099.1</ele>
        <time>2015-12-20T10:03:14Z</time>
      </trkpt>
      <trkpt lat="45.34148" lon="4.47398">
        <ele>1099</ele>
        <time>2015-12-20T10:03:15Z</time>
      </trkpt>
      <trkpt lat="45.34147" lon="4.47393">
        <ele>1098.8</ele>
        <time>2015-12-20T10:03:16Z</time>
      </trkpt>
      <trkpt lat="45.34146" lon="4.47389">
        <ele>1098.7</ele>
        <time>2015-12-20T10:03:17Z</time>
      </trkpt>
      <trkpt lat="45.34145" lon="4.47384">
        <ele>1098.6</ele>
        <time>2015-12-20T10:03:18Z</time>
      </trkpt>
      <trkpt lat="45.34144" lon="4.4738">
        <ele>1098.5</ele>
        <time>2015-12-20T10:03:19Z</time>
      </trkpt>
      <trkpt lat="45.34143" lon="4.47375">
        <ele>1098.4</ele>
        <time>2015-12-20T10:03:20Z</time>
      </trkpt>
      <trkpt lat="45.34142" lon="4.47371">
        <ele>1098</ele>
        <time>2015-12-20T10:03:21Z</time>
      </trkpt>
      <trkpt lat="45.3414" lon="4.47367">
        <ele>1097.7</ele>
        <time>2015-12-20T10:03:22Z</time>
      </trkpt>
      <trkpt lat="45.34139" lon="4.47363">
        <ele>1097.4</ele>
        <time>2015-12-20T10:03:23Z</time>
      </trkpt>
      <trkpt lat="45.34137" lon="4.47359">
        <ele>1097.1</ele>
        <time>2015-12-20T10:03:24Z</time>
      </trkpt>
      <trkpt lat="45.34136" lon="4.47355">
        <ele>1096.9</ele>
        <time>2015-12-20T10:03:25Z</time>
      </trkpt>
      <trkpt lat="45.34134" lon="4.4735">
        <ele>1096.5</ele>
        <time>2015-12-20T10:03:26Z</time>
      </trkpt>
      <trkpt lat="45.34133" lon="4.47347">
        <ele>1096.1</ele>
        <time>2015-12-20T10:03:27Z</time>
      </trkpt>
      <trkpt lat="45.34131" lon="4.47343">
        <ele>1095.7</ele>
        <time>2015-12-20T10:03:28Z</time>
      </trkpt>
      <trkpt lat="45.3413" lon="4.47338">
        <ele>1095.2</ele>
        <time>2015-12-20T10:03:29Z</time>
      </trkpt>
      <trkpt lat="45.34128" lon="4.47335">
        <ele>1095</ele>
        <time>2015-12-20T10:03:30Z</time>
      </trkpt>
      <trkpt lat="45.34126" lon="4.47332">
        <ele>1094.8</ele>
        <time>2015-12-20T10:03:31Z</time>
      </trkpt>
      <trkpt lat="45.34124" lon="4.47329">
        <ele>1094.8</ele>
        <time>2015-12-20T10:03:32Z</time>
      </trkpt>
      <trkpt lat="45.34122" lon="4.47326">
        <ele>1094.9</ele>
        <time>2015-12-20T10:03:33Z</time>
      </trkpt>
      <trkpt lat="45.3412" lon="4.47323">
        <ele>1094.9</ele>
        <time>2015-12-20T10:03:34Z</time>
      </trkpt>
      <trkpt lat="45.34118" lon="4.47319">
        <ele>1094.8</ele>
        <time>2015-12-20T10:03:35Z</time>
      </trkpt>
      <trkpt lat="45.34116" lon="4.47315">
        <ele>1094.8</ele>
        <time>2015-12-20T10:03:36Z</time>
      </trkpt>
      <trkpt lat="45.34113" lon="4.47312">
        <ele>1095</ele>
        <time>2015-12-20T10:03:37Z</time>
      </trkpt>
      <trkpt lat="45.34111" lon="4.47309">
        <ele>1095.2</ele>
        <time>2015-12-20T10:03:38Z</time>
      </trkpt>
      <trkpt lat="45.34109" lon="4.47306">
        <ele>1095.4</ele>
        <time>2015-12-20T10:03:39Z</time>
      </trkpt>
      <trkpt lat="45.34106" lon="4.47302">
        <ele>1095.6</ele>
        <time>2015-12-20T10:03:40Z</time>
      </trkpt>
      <trkpt lat="45.34104" lon="4.47298">
        <ele>1095.7</ele>
        <time>2015-12-20T10:03:41Z</time>
      </trkpt>
      <trkpt lat="45.34101" lon="4.47294">
        <ele>1095.8</ele>
        <time>2015-12-20T10:03:42Z</time>
      </trkpt>
      <trkpt lat="45.34099" lon="4.4729">
        <ele>1096</ele>
        <time>2015-12-20T10:03:43Z</time>
      </trkpt>
      <trkpt lat="45.34097" lon="4.47285">
        <ele>1096.1</ele>
        <time>2015-12-20T10:03:44Z</time>
      </trkpt>
      <trkpt lat="45.34096" lon="4.47281">
        <ele>1096.1</ele>
        <time>2015-12-20T10:03:45Z</time>
      </trkpt>
      <trkpt lat="45.34094" lon="4.47277">
        <ele>1096.1</ele>
        <time>2015-12-20T10:03:46Z</time>
      </trkpt>
      <trkpt lat="45.34092" lon="4.47273">
        <ele>1096.1</ele>
        <time>2015-12-20T10:03:47Z</time>
      </trkpt>
      <trkpt lat="45.3409" lon="4.47268">
        <ele>1096.3</ele>
        <time>2015-12-20T10:03:48Z</time>
      </trkpt>
      <trkpt lat="45.34088" lon="4.47264">
        <ele>1096.4</ele>
        <time>2015-12-20T10:03:49Z</time>
      </trkpt>
      <trkpt lat="45.34086" lon="4.4726">
        <ele>1096.7</ele>
        <time>2015-12-20T10:03:50Z</time>
      </trkpt>
      <trkpt lat="45.34084" lon="4.47257">
        <ele>1097</ele>
        <time>2015-12-20T10:03:51Z</time>
      </trkpt>
      <trkpt lat="45.34082" lon="4.47254">
        <ele>1097.5</ele>
        <time>2015-12-20T10:03:52Z</time>
      </trkpt>
      <trkpt lat="45.34079" lon="4.47251">
        <ele>1097.9</ele>
        <time>2015-12-20T10:03:53Z</time>
      </trkpt>
      <trkpt lat="45.34077" lon="4.47247">
        <ele>1098.3</ele>
        <time>2015-12-20T10:03:54Z</time>
      </trkpt>
      <trkpt lat="45.34075" lon="4.47243">
        <ele>1098.6</ele>
        <time>2015-12-20T10:03:55Z</time>
      </trkpt>
      <trkpt lat="45.34073" lon="4.47239">
        <ele>1098.8</ele>
        <time>2015-12-20T10:03:56Z</time>
      </trkpt>
      <trkpt lat="45.34071" lon="4.47235">
        <ele>1098.8</ele>
        <time>2015-12-20T10:03:57Z</time>
      </trkpt>
      <trkpt lat="45.34069" lon="4.47231">
        <ele>1098.8</ele>
        <time>2015-12-20T10:03:58Z</time>
      </trkpt>
      <trkpt lat="45.34067" lon="4.47227">
        <ele>1099</ele>
        <time>2015-12-20T10:03:59Z</time>
      </trkpt>
      <trkpt lat="45.34065" lon="4.47223">
        <ele>1099.4</ele>
        <time>2015-12-20T10:04:00Z</time>
      </trkpt>
      <trkpt lat="45.34063" lon="4.47219">
        <ele>1099.6</ele>
        <time>2015-12-20T10:04:01Z</time>
      </trkpt>
      <trkpt lat="45.3406" lon="4.47215">
        <ele>1099.8</ele>
        <time>2015-12-20T10:04:02Z</time>
      </trkpt>
      <trkpt lat="45.34059" lon="4.47211">
        <ele>1099.8</ele>
        <time>2015-12-20T10:04:03Z</time>
      </trkpt>
      <trkpt lat="45.34057" lon="4.47207">
        <ele>1099.8</ele>
        <time>2015-12-20T10:04:04Z</time>
      </trkpt>
      <trkpt lat="45.34056" lon="4.47203">
        <ele>1100.1</ele>
        <time>2015-12-20T10:04:05Z</time>
      </trkpt>
      <trkpt lat="45.34054" lon="4.47199">
        <ele>1100.5</ele>
        <time>2015-12-20T10:04:06Z</time>
      </trkpt>
      <trkpt lat="45.34052" lon="4.47195">
        <ele>1101</ele>
        <time>2015-12-20T10:04:07Z</time>
      </trkpt>
      <trkpt lat="45.34049" lon="4.47192">
        <ele>1101.6</ele>
        <time>2015-12-20T10:04:08Z</time>
      </trkpt>
      <trkpt lat="45.34046" lon="4.47189">
        <ele>1102.4</ele>
        <time>2015-12-20T10:04:09Z</time>
      </trkpt>
      <trkpt lat="45.34043" lon="4.47185">
        <ele>1103.2</ele>
        <time>2015-12-20T10:04:10Z</time>
      </trkpt>
      <trkpt lat="45.3404" lon="4.47182">
        <ele>1103.8</ele>
        <time>2015-12-20T10:04:11Z</time>
      </trkpt>
      <trkpt lat="45.34039" lon="4.47178">
        <ele>1103.9</ele>
        <time>2015-12-20T10:04:12Z</time>
      </trkpt>
      <trkpt lat="45.34038" lon="4.47174">
        <ele>1103.8</ele>
        <time>2015-12-20T10:04:13Z</time>
      </trkpt>
      <trkpt lat="45.34036" lon="4.47169">
        <ele>1103.7</ele>
        <time>2015-12-20T10:04:14Z</time>
      </trkpt>
      <trkpt lat="45.34035" lon="4.47165">
        <ele>1103.5</ele>
        <time>2015-12-20T10:04:15Z</time>
      </trkpt>
      <trkpt lat="45.34035" lon="4.4716">
        <ele>1103.3</ele>
        <time>2015-12-20T10:04:16Z</time>
      </trkpt>
      <trkpt lat="45.34034" lon="4.47156">
        <ele>1103</ele>
        <time>2015-12-20T10:04:17Z</time>
      </trkpt>
      <trkpt lat="45.34034" lon="4.47151">
        <ele>1102.7</ele>
        <time>2015-12-20T10:04:18Z</time>
      </trkpt>
      <trkpt lat="45.34033" lon="4.47145">
        <ele>1102.3</ele>
        <time>2015-12-20T10:04:19Z</time>
      </trkpt>
      <trkpt lat="45.34033" lon="4.4714">
        <ele>1102</ele>
        <time>2015-12-20T10:04:20Z</time>
      </trkpt>
      <trkpt lat="45.34033" lon="4.47135">
        <ele>1101.7</ele>
        <time>2015-12-20T10:04:21Z</time>
      </trkpt>
      <trkpt lat="45.34032" lon="4.47131">
        <ele>1101.4</ele>
        <time>2015-12-20T10:04:22Z</time>
      </trkpt>
      <trkpt lat="45.34032" lon="4.47127">
        <ele>1101.2</ele>
        <time>2015-12-20T10:04:23Z</time>
      </trkpt>
      <trkpt lat="45.3403" lon="4.4712">
        <ele>1101.3</ele>
        <time>2015-12-20T10:04:25Z</time>
      </trkpt>
      <trkpt lat="45.34029" lon="4.47116">
        <ele>1101.4</ele>
        <time>2015-12-20T10:04:26Z</time>
      </trkpt>
      <trkpt lat="45.34029" lon="4.47112">
        <ele>1101.5</ele>
        <time>2015-12-20T10:04:27Z</time>
      </trkpt>
      <trkpt lat="45.34029" lon="4.47108">
        <ele>1101.4</ele>
        <time>2015-12-20T10:04:28Z</time>
      </trkpt>
      <trkpt lat="45.34029" lon="4.47103">
        <ele>1101.2</ele>
        <time>2015-12-20T10:04:29Z</time>
      </trkpt>
      <trkpt lat="45.34029" lon="4.47097">
        <ele>1100.9</ele>
        <time>2015-12-20T10:04:30Z</time>
      </trkpt>
      <trkpt lat="45.34029" lon="4.47091">
        <ele>1100.8</ele>
        <time>2015-12-20T10:04:31Z</time>
      </trkpt>
      <trkpt lat="45.34028" lon="4.47086">
        <ele>1100.8</ele>
        <time>2015-12-20T10:04:32Z</time>
      </trkpt>
      <trkpt lat="45.34028" lon="4.47081">
        <ele>1100.7</ele>
        <time>2015-12-20T10:04:33Z</time>
      </trkpt>
      <trkpt lat="45.34027" lon="4.47076">
        <ele>1100.8</ele>
        <time>2015-12-20T10:04:34Z</time>
      </trkpt>
      <trkpt lat="45.34025" lon="4.47071">
        <ele>1101</ele>
        <time>2015-12-20T10:04:35Z</time>
      </trkpt>
      <trkpt lat="45.34024" lon="4.47066">
        <ele>1101.3</ele>
        <time>2015-12-20T10:04:36Z</time>
      </trkpt>
      <trkpt lat="45.34022" lon="4.47061">
        <ele>1101.5</ele>
        <time>2015-12-20T10:04:37Z</time>
      </trkpt>
      <trkpt lat="45.34021" lon="4.47057">
        <ele>1101.6</ele>
        <time>2015-12-20T10:04:38Z</time>
      </trkpt>
      <trkpt lat="45.34019" lon="4.47052">
        <ele>1101.8</ele>
        <time>2015-12-20T10:04:39Z</time>
      </trkpt>
      <trkpt lat="45.34019" lon="4.47048">
        <ele>1101.8</ele>
        <time>2015-12-20T10:04:40Z</time>
      </trkpt>
      <trkpt lat="45.34018" lon="4.47043">
        <ele>1101.7</ele>
        <time>2015-12-20T10:04:41Z</time>
      </trkpt>
      <trkpt lat="45.34018" lon="4.47039">
        <ele>1101.5</ele>
        <time>2015-12-20T10:04:42Z</time>
      </trkpt>
      <trkpt lat="45.34017" lon="4.47034">
        <ele>1101.3</ele>
        <time>2015-12-20T10:04:43Z</time>
      </trkpt>
      <trkpt lat="45.34016" lon="4.47029">
        <ele>1101.2</ele>
        <time>2015-12-20T10:04:44Z</time>
      </trkpt>
      <trkpt lat="45.34014" lon="4.47024">
        <ele>1101.1</ele>
        <time>2015-12-20T10:04:45Z</time>
      </trkpt>
      <trkpt lat="45.34013" lon="4.4702">
        <ele>1101</ele>
        <time>2015-12-20T10:04:46Z</time>
      </trkpt>
      <trkpt lat="45.34012" lon="4.47015">
        <ele>1100.8</ele>
        <time>2015-12-20T10:04:47Z</time>
      </trkpt>
      <trkpt lat="45.34012" lon="4.47011">
        <ele>1100.5</ele>
        <time>2015-12-20T10:04:48Z</time>
      </trkpt>
      <trkpt lat="45.34012" lon="4.47006">
        <ele>1100.2</ele>
        <time>2015-12-20T10:04:49Z</time>
      </trkpt>
      <trkpt lat="45.34011" lon="4.47001">
        <ele>1099.8</ele>
        <time>2015-12-20T10:04:50Z</time>
      </trkpt>
      <trkpt lat="45.3401" lon="4.46997">
        <ele>1099.6</ele>
        <time>2015-12-20T10:04:51Z</time>
      </trkpt>
      <trkpt lat="45.3401" lon="4.46992">
        <ele>1099.3</ele>
        <time>2015-12-20T10:04:52Z</time>
      </trkpt>
      <trkpt lat="45.34009" lon="4.46987">
        <ele>1099</ele>
        <time>2015-12-20T10:04:53Z</time>
      </trkpt>
      <trkpt lat="45.34008" lon="4.46981">
        <ele>1098.8</ele>
        <time>2015-12-20T10:04:54Z</time>
      </trkpt>
      <trkpt lat="45.34006" lon="4.46975">
        <ele>1098.5</ele>
        <time>2015-12-20T10:04:55Z</time>
      </trkpt>
      <trkpt lat="45.34005" lon="4.46969">
        <ele>1098.2</ele>
        <time>2015-12-20T10:04:56Z</time>
      </trkpt>
      <trkpt lat="45.34003" lon="4.46963">
        <ele>1097.9</ele>
        <time>2015-12-20T10:04:57Z</time>
      </trkpt>
      <trkpt lat="45.34002" lon="4.46958">
        <ele>1097.6</ele>
        <time>2015-12-20T10:04:58Z</time>
      </trkpt>
      <trkpt lat="45.34002" lon="4.46951">
        <ele>1097.3</ele>
        <time>2015-12-20T10:04:59Z</time>
      </trkpt>
      <trkpt lat="45.34001" lon="4.46943">
        <ele>1096.9</ele>
        <time>2015-12-20T10:05:00Z</time>
      </trkpt>
      <trkpt lat="45.34" lon="4.46938">
        <ele>1096.9</ele>
        <time>2015-12-20T10:05:01Z</time>
      </trkpt>
      <trkpt lat="45.33998" lon="4.46935">
        <ele>1096.9</ele>
        <time>2015-12-20T10:05:02Z</time>
      </trkpt>
      <trkpt lat="45.33996" lon="4.46926">
        <ele>1096.7</ele>
        <time>2015-12-20T10:05:04Z</time>
      </trkpt>
      <trkpt lat="45.33995" lon="4.4692">
        <ele>1096.5</ele>
        <time>2015-12-20T10:05:05Z</time>
      </trkpt>
      <trkpt lat="45.33995" lon="4.46914">
        <ele>1096.3</ele>
        <time>2015-12-20T10:05:06Z</time>
      </trkpt>
      <trkpt lat="45.33994" lon="4.46909">
        <ele>1096</ele>
        <time>2015-12-20T10:05:07Z</time>
      </trkpt>
      <trkpt lat="45.33994" lon="4.46903">
        <ele>1095.6</ele>
        <time>2015-12-20T10:05:08Z</time>
      </trkpt>
      <trkpt lat="45.33994" lon="4.46897">
        <ele>1095.4</ele>
        <time>2015-12-20T10:05:09Z</time>
      </trkpt>
      <trkpt lat="45.33993" lon="4.46891">
        <ele>1095.2</ele>
        <time>2015-12-20T10:05:11Z</time>
      </trkpt>
      <trkpt lat="45.33991" lon="4.46886">
        <ele>1095.2</ele>
        <time>2015-12-20T10:05:12Z</time>
      </trkpt>
      <trkpt lat="45.3399" lon="4.46881">
        <ele>1095.1</ele>
        <time>2015-12-20T10:05:13Z</time>
      </trkpt>
      <trkpt lat="45.33989" lon="4.46876">
        <ele>1095</ele>
        <time>2015-12-20T10:05:14Z</time>
      </trkpt>
      <trkpt lat="45.33988" lon="4.46871">
        <ele>1094.7</ele>
        <time>2015-12-20T10:05:15Z</time>
      </trkpt>
      <trkpt lat="45.33987" lon="4.46866">
        <ele>1094.3</ele>
        <time>2015-12-20T10:05:16Z</time>
      </trkpt>
      <trkpt lat="45.33986" lon="4.46861">
        <ele>1093.9</ele>
        <time>2015-12-20T10:05:17Z</time>
      </trkpt>
      <trkpt lat="45.33985" lon="4.46856">
        <ele>1093.5</ele>
        <time>2015-12-20T10:05:18Z</time>
      </trkpt>
      <trkpt lat="45.33984" lon="4.46851">
        <ele>1093.2</ele>
        <time>2015-12-20T10:05:19Z</time>
      </trkpt>
      <trkpt lat="45.33983" lon="4.46846">
        <ele>1092.8</ele>
        <time>2015-12-20T10:05:20Z</time>
      </trkpt>
      <trkpt lat="45.33983" lon="4.46842">
        <ele>1092.4</ele>
        <time>2015-12-20T10:05:22Z</time>
      </trkpt>
      <trkpt lat="45.33986" lon="4.46843">
        <ele>1092</ele>
        <time>2015-12-20T10:05:35Z</time>
      </trkpt>
      <trkpt lat="45.33986" lon="4.46833">
        <ele>1090.9</ele>
        <time>2015-12-20T10:06:44Z</time>
      </trkpt>
      <trkpt lat="45.33986" lon="4.46828">
        <ele>1090.5</ele>
        <time>2015-12-20T10:06:46Z</time>
      </trkpt>
      <trkpt lat="45.33985" lon="4.46824">
        <ele>1090.2</ele>
        <time>2015-12-20T10:06:47Z</time>
      </trkpt>
      <trkpt lat="45.33984" lon="4.4682">
        <ele>1089.8</ele>
        <time>2015-12-20T10:06:48Z</time>
      </trkpt>
      <trkpt lat="45.33983" lon="4.46815">
        <ele>1089.4</ele>
        <time>2015-12-20T10:06:49Z</time>
      </trkpt>
      <trkpt lat="45.33982" lon="4.46809">
        <ele>1089</ele>
        <time>2015-12-20T10:06:50Z</time>
      </trkpt>
      <trkpt lat="45.3398" lon="4.46803">
        <ele>1088.5</ele>
        <time>2015-12-20T10:06:51Z</time>
      </trkpt>
      <trkpt lat="45.33979" lon="4.46795">
        <ele>1087.9</ele>
        <time>2015-12-20T10:06:52Z</time>
      </trkpt>
      <trkpt lat="45.33978" lon="4.4678">
        <ele>1086.2</ele>
        <time>2015-12-20T10:06:53Z</time>
      </trkpt>
      <trkpt lat="45.33977" lon="4.46774">
        <ele>1085.4</ele>
        <time>2015-12-20T10:06:54Z</time>
      </trkpt>
      <trkpt lat="45.33978" lon="4.46767">
        <ele>1084.5</ele>
        <time>2015-12-20T10:06:55Z</time>
      </trkpt>
      <trkpt lat="45.33977" lon="4.4676">
        <ele>1083.8</ele>
        <time>2015-12-20T10:06:56Z</time>
      </trkpt>
      <trkpt lat="45.33974" lon="4.4675">
        <ele>1082.9</ele>
        <time>2015-12-20T10:06:57Z</time>
      </trkpt>
      <trkpt lat="45.3397" lon="4.46737">
        <ele>1081.5</ele>
        <time>2015-12-20T10:06:58Z</time>
      </trkpt>
      <trkpt lat="45.33969" lon="4.46729">
        <ele>1080.7</ele>
        <time>2015-12-20T10:06:59Z</time>
      </trkpt>
      <trkpt lat="45.33972" lon="4.4673">
        <ele>1080.6</ele>
        <time>2015-12-20T10:07:00Z</time>
      </trkpt>
      <trkpt lat="45.33971" lon="4.46723">
        <ele>1079.7</ele>
        <time>2015-12-20T10:07:01Z</time>
      </trkpt>
      <trkpt lat="45.3397" lon="4.46717">
        <ele>1079</ele>
        <time>2015-12-20T10:07:02Z</time>
      </trkpt>
      <trkpt lat="45.3397" lon="4.4671">
        <ele>1078.1</ele>
        <time>2015-12-20T10:07:03Z</time>
      </trkpt>
      <trkpt lat="45.33967" lon="4.46701">
        <ele>1077.4</ele>
        <time>2015-12-20T10:07:04Z</time>
      </trkpt>
      <trkpt lat="45.33965" lon="4.46695">
        <ele>1076.8</ele>
        <time>2015-12-20T10:07:05Z</time>
      </trkpt>
      <trkpt lat="45.33967" lon="4.4669">
        <ele>1076.1</ele>
        <time>2015-12-20T10:07:06Z</time>
      </trkpt>
      <trkpt lat="45.33966" lon="4.46683">
        <ele>1075.4</ele>
        <time>2015-12-20T10:07:07Z</time>
      </trkpt>
      <trkpt lat="45.33965" lon="4.46676">
        <ele>1074.6</ele>
        <time>2015-12-20T10:07:08Z</time>
      </trkpt>
      <trkpt lat="45.33964" lon="4.46672">
        <ele>1074.2</ele>
        <time>2015-12-20T10:07:09Z</time>
      </trkpt>
      <trkpt lat="45.33964" lon="4.46667">
        <ele>1073.6</ele>
        <time>2015-12-20T10:07:10Z</time>
      </trkpt>
      <trkpt lat="45.33962" lon="4.46658">
        <ele>1072.8</ele>
        <time>2015-12-20T10:07:11Z</time>
      </trkpt>
      <trkpt lat="45.3396" lon="4.46654">
        <ele>1072.3</ele>
        <time>2015-12-20T10:07:12Z</time>
      </trkpt>
      <trkpt lat="45.33958" lon="4.46645">
        <ele>1071.5</ele>
        <time>2015-12-20T10:07:13Z</time>
      </trkpt>
      <trkpt lat="45.33956" lon="4.46637">
        <ele>1070.8</ele>
        <time>2015-12-20T10:07:14Z</time>
      </trkpt>
      <trkpt lat="45.33956" lon="4.46631">
        <ele>1070.1</ele>
        <time>2015-12-20T10:07:15Z</time>
      </trkpt>
      <trkpt lat="45.33953" lon="4.46624">
        <ele>1069.6</ele>
        <time>2015-12-20T10:07:16Z</time>
      </trkpt>
      <trkpt lat="45.3395" lon="4.46617">
        <ele>1069.6</ele>
        <time>2015-12-20T10:07:17Z</time>
      </trkpt>
      <trkpt lat="45.33947" lon="4.46612">
        <ele>1069.5</ele>
        <time>2015-12-20T10:07:18Z</time>
      </trkpt>
      <trkpt lat="45.33945" lon="4.46605">
        <ele>1069.2</ele>
        <time>2015-12-20T10:07:19Z</time>
      </trkpt>
      <trkpt lat="45.33942" lon="4.466">
        <ele>1069.1</ele>
        <time>2015-12-20T10:07:20Z</time>
      </trkpt>
      <trkpt lat="45.3394" lon="4.46596">
        <ele>1069</ele>
        <time>2015-12-20T10:07:21Z</time>
      </trkpt>
      <trkpt lat="45.33938" lon="4.46593">
        <ele>1069</ele>
        <time>2015-12-20T10:07:22Z</time>
      </trkpt>
      <trkpt lat="45.33935" lon="4.46589">
        <ele>1069</ele>
        <time>2015-12-20T10:07:23Z</time>
      </trkpt>
      <trkpt lat="45.33931" lon="4.46586">
        <ele>1069</ele>
        <time>2015-12-20T10:07:25Z</time>
      </trkpt>
      <trkpt lat="45.33928" lon="4.46583">
        <ele>1069.1</ele>
        <time>2015-12-20T10:07:27Z</time>
      </trkpt>
      <trkpt lat="45.33925" lon="4.46579">
        <ele>1068.9</ele>
        <time>2015-12-20T10:07:29Z</time>
      </trkpt>
      <trkpt lat="45.33924" lon="4.46575">
        <ele>1068.6</ele>
        <time>2015-12-20T10:07:30Z</time>
      </trkpt>
      <trkpt lat="45.33922" lon="4.46569">
        <ele>1068.1</ele>
        <time>2015-12-20T10:07:32Z</time>
      </trkpt>
      <trkpt lat="45.3392" lon="4.46563">
        <ele>1067.7</ele>
        <time>2015-12-20T10:07:34Z</time>
      </trkpt>
      <trkpt lat="45.33917" lon="4.46558">
        <ele>1067.3</ele>
        <time>2015-12-20T10:07:36Z</time>
      </trkpt>
      <trkpt lat="45.33915" lon="4.46553">
        <ele>1067</ele>
        <time>2015-12-20T10:07:38Z</time>
      </trkpt>
      <trkpt lat="45.33913" lon="4.4655">
        <ele>1066.7</ele>
        <time>2015-12-20T10:07:40Z</time>
      </trkpt>
      <trkpt lat="45.3391" lon="4.46547">
        <ele>1066.5</ele>
        <time>2015-12-20T10:07:42Z</time>
      </trkpt>
      <trkpt lat="45.33907" lon="4.46543">
        <ele>1066.2</ele>
        <time>2015-12-20T10:07:44Z</time>
      </trkpt>
      <trkpt lat="45.33904" lon="4.46537">
        <ele>1065.6</ele>
        <time>2015-12-20T10:07:46Z</time>
      </trkpt>
      <trkpt lat="45.33901" lon="4.46532">
        <ele>1065.2</ele>
        <time>2015-12-20T10:07:48Z</time>
      </trkpt>
      <trkpt lat="45.33897" lon="4.46528">
        <ele>1064.8</ele>
        <time>2015-12-20T10:07:50Z</time>
      </trkpt>
      <trkpt lat="45.33893" lon="4.46523">
        <ele>1064.3</ele>
        <time>2015-12-20T10:07:52Z</time>
      </trkpt>
      <trkpt lat="45.33889" lon="4.46518">
        <ele>1063.8</ele>
        <time>2015-12-20T10:07:54Z</time>
      </trkpt>
      <trkpt lat="45.33885" lon="4.46513">
        <ele>1063.2</ele>
        <time>2015-12-20T10:07:56Z</time>
      </trkpt>
      <trkpt lat="45.33883" lon="4.4651">
        <ele>1062.8</ele>
        <time>2015-12-20T10:07:57Z</time>
      </trkpt>
      <trkpt lat="45.33879" lon="4.46505">
        <ele>1062.3</ele>
        <time>2015-12-20T10:07:59Z</time>
      </trkpt>
      <trkpt lat="45.33877" lon="4.46503">
        <ele>1061.9</ele>
        <time>2015-12-20T10:08:00Z</time>
      </trkpt>
      <trkpt lat="45.33874" lon="4.465">
        <ele>1061.6</ele>
        <time>2015-12-20T10:08:01Z</time>
      </trkpt>
      <trkpt lat="45.33872" lon="4.46498">
        <ele>1061.3</ele>
        <time>2015-12-20T10:08:02Z</time>
      </trkpt>
      <trkpt lat="45.33867" lon="4.46496">
        <ele>1060.9</ele>
        <time>2015-12-20T10:08:04Z</time>
      </trkpt>
      <trkpt lat="45.33863" lon="4.46495">
        <ele>1060.8</ele>
        <time>2015-12-20T10:08:06Z</time>
      </trkpt>
      <trkpt lat="45.33858" lon="4.46496">
        <ele>1061</ele>
        <time>2015-12-20T10:08:08Z</time>
      </trkpt>
      <trkpt lat="45.33855" lon="4.46496">
        <ele>1061.1</ele>
        <time>2015-12-20T10:08:10Z</time>
      </trkpt>
      <trkpt lat="45.33851" lon="4.46498">
        <ele>1061.4</ele>
        <time>2015-12-20T10:08:13Z</time>
      </trkpt>
      <trkpt lat="45.33845" lon="4.46499">
        <ele>1061.7</ele>
        <time>2015-12-20T10:10:09Z</time>
      </trkpt>
      <trkpt lat="45.33841" lon="4.46497">
        <ele>1061.4</ele>
        <time>2015-12-20T10:10:12Z</time>
      </trkpt>
      <trkpt lat="45.33839" lon="4.46492">
        <ele>1060.5</ele>
        <time>2015-12-20T10:10:14Z</time>
      </trkpt>
      <trkpt lat="45.33837" lon="4.46488">
        <ele>1059.8</ele>
        <time>2015-12-20T10:10:15Z</time>
      </trkpt>
      <trkpt lat="45.33836" lon="4.46484">
        <ele>1059.1</ele>
        <time>2015-12-20T10:10:16Z</time>
      </trkpt>
      <trkpt lat="45.33834" lon="4.4648">
        <ele>1058.3</ele>
        <time>2015-12-20T10:10:17Z</time>
      </trkpt>
      <trkpt lat="45.33833" lon="4.46475">
        <ele>1057.6</ele>
        <time>2015-12-20T10:10:18Z</time>
      </trkpt>
      <trkpt lat="45.33833" lon="4.46471">
        <ele>1056.8</ele>
        <time>2015-12-20T10:10:19Z</time>
      </trkpt>
      <trkpt lat="45.33833" lon="4.46466">
        <ele>1056</ele>
        <time>2015-12-20T10:10:20Z</time>
      </trkpt>
      <trkpt lat="45.33834" lon="4.46462">
        <ele>1055.2</ele>
        <time>2015-12-20T10:10:21Z</time>
      </trkpt>
      <trkpt lat="45.33836" lon="4.46458">
        <ele>1054.5</ele>
        <time>2015-12-20T10:10:22Z</time>
      </trkpt>
      <trkpt lat="45.33839" lon="4.46454">
        <ele>1053.9</ele>
        <time>2015-12-20T10:10:23Z</time>
      </trkpt>
      <trkpt lat="45.3384" lon="4.46449">
        <ele>1053.4</ele>
        <time>2015-12-20T10:10:24Z</time>
      </trkpt>
      <trkpt lat="45.33842" lon="4.46444">
        <ele>1052.6</ele>
        <time>2015-12-20T10:10:26Z</time>
      </trkpt>
      <trkpt lat="45.33843" lon="4.46439">
        <ele>1052</ele>
        <time>2015-12-20T10:10:28Z</time>
      </trkpt>
      <trkpt lat="45.33841" lon="4.46432">
        <ele>1051</ele>
        <time>2015-12-20T10:10:30Z</time>
      </trkpt>
      <trkpt lat="45.33839" lon="4.46429">
        <ele>1050.5</ele>
        <time>2015-12-20T10:10:31Z</time>
      </trkpt>
      <trkpt lat="45.33837" lon="4.46426">
        <ele>1050.1</ele>
        <time>2015-12-20T10:10:32Z</time>
      </trkpt>
      <trkpt lat="45.33835" lon="4.46423">
        <ele>1049.7</ele>
        <time>2015-12-20T10:10:33Z</time>
      </trkpt>
      <trkpt lat="45.33832" lon="4.46418">
        <ele>1048.8</ele>
        <time>2015-12-20T10:10:35Z</time>
      </trkpt>
      <trkpt lat="45.3383" lon="4.46414">
        <ele>1048.2</ele>
        <time>2015-12-20T10:10:36Z</time>
      </trkpt>
      <trkpt lat="45.33829" lon="4.4641">
        <ele>1047.7</ele>
        <time>2015-12-20T10:10:37Z</time>
      </trkpt>
      <trkpt lat="45.33828" lon="4.46403">
        <ele>1046.7</ele>
        <time>2015-12-20T10:10:39Z</time>
      </trkpt>
      <trkpt lat="45.33829" lon="4.46398">
        <ele>1046</ele>
        <time>2015-12-20T10:10:41Z</time>
      </trkpt>
      <trkpt lat="45.33833" lon="4.46394">
        <ele>1045.6</ele>
        <time>2015-12-20T10:10:43Z</time>
      </trkpt>
      <trkpt lat="45.33838" lon="4.4639">
        <ele>1045.3</ele>
        <time>2015-12-20T10:10:45Z</time>
      </trkpt>
      <trkpt lat="45.3384" lon="4.46388">
        <ele>1045.1</ele>
        <time>2015-12-20T10:10:46Z</time>
      </trkpt>
      <trkpt lat="45.33842" lon="4.46386">
        <ele>1044.9</ele>
        <time>2015-12-20T10:10:47Z</time>
      </trkpt>
      <trkpt lat="45.33845" lon="4.46384">
        <ele>1044.8</ele>
        <time>2015-12-20T10:10:48Z</time>
      </trkpt>
      <trkpt lat="45.33848" lon="4.46382">
        <ele>1044.6</ele>
        <time>2015-12-20T10:10:49Z</time>
      </trkpt>
      <trkpt lat="45.33851" lon="4.46379">
        <ele>1044.4</ele>
        <time>2015-12-20T10:10:50Z</time>
      </trkpt>
      <trkpt lat="45.33854" lon="4.46376">
        <ele>1044.1</ele>
        <time>2015-12-20T10:10:51Z</time>
      </trkpt>
      <trkpt lat="45.33857" lon="4.46374">
        <ele>1044</ele>
        <time>2015-12-20T10:10:52Z</time>
      </trkpt>
      <trkpt lat="45.3386" lon="4.46371">
        <ele>1043.8</ele>
        <time>2015-12-20T10:10:53Z</time>
      </trkpt>
      <trkpt lat="45.33865" lon="4.46367">
        <ele>1043.7</ele>
        <time>2015-12-20T10:10:54Z</time>
      </trkpt>
      <trkpt lat="45.33869" lon="4.46364">
        <ele>1043.5</ele>
        <time>2015-12-20T10:10:55Z</time>
      </trkpt>
      <trkpt lat="45.33873" lon="4.4636">
        <ele>1043.3</ele>
        <time>2015-12-20T10:10:56Z</time>
      </trkpt>
      <trkpt lat="45.33877" lon="4.46357">
        <ele>1043.1</ele>
        <time>2015-12-20T10:10:57Z</time>
      </trkpt>
      <trkpt lat="45.33881" lon="4.46354">
        <ele>1042.9</ele>
        <time>2015-12-20T10:10:58Z</time>
      </trkpt>
      <trkpt lat="45.33885" lon="4.46351">
        <ele>1042.6</ele>
        <time>2015-12-20T10:10:59Z</time>
      </trkpt>
      <trkpt lat="45.3389" lon="4.46348">
        <ele>1042.4</ele>
        <time>2015-12-20T10:11:00Z</time>
      </trkpt>
      <trkpt lat="45.33894" lon="4.46344">
        <ele>1042.1</ele>
        <time>2015-12-20T10:11:01Z</time>
      </trkpt>
      <trkpt lat="45.33899" lon="4.46341">
        <ele>1041.9</ele>
        <time>2015-12-20T10:11:02Z</time>
      </trkpt>
      <trkpt lat="45.33903" lon="4.46338">
        <ele>1041.7</ele>
        <time>2015-12-20T10:11:03Z</time>
      </trkpt>
      <trkpt lat="45.33907" lon="4.46334">
        <ele>1041.4</ele>
        <time>2015-12-20T10:11:04Z</time>
      </trkpt>
      <trkpt lat="45.33911" lon="4.46331">
        <ele>1041.1</ele>
        <time>2015-12-20T10:11:05Z</time>
      </trkpt>
      <trkpt lat="45.33916" lon="4.46327">
        <ele>1040.8</ele>
        <time>2015-12-20T10:11:06Z</time>
      </trkpt>
      <trkpt lat="45.3392" lon="4.46324">
        <ele>1040.6</ele>
        <time>2015-12-20T10:11:07Z</time>
      </trkpt>
      <trkpt lat="45.33925" lon="4.4632">
        <ele>1040.3</ele>
        <time>2015-12-20T10:11:08Z</time>
      </trkpt>
      <trkpt lat="45.33929" lon="4.46316">
        <ele>1039.9</ele>
        <time>2015-12-20T10:11:09Z</time>
      </trkpt>
      <trkpt lat="45.33935" lon="4.46312">
        <ele>1039.7</ele>
        <time>2015-12-20T10:11:10Z</time>
      </trkpt>
      <trkpt lat="45.3394" lon="4.46309">
        <ele>1039.4</ele>
        <time>2015-12-20T10:11:11Z</time>
      </trkpt>
      <trkpt lat="45.33944" lon="4.46304">
        <ele>1039</ele>
        <time>2015-12-20T10:11:12Z</time>
      </trkpt>
      <trkpt lat="45.3395" lon="4.463">
        <ele>1038.7</ele>
        <time>2015-12-20T10:11:13Z</time>
      </trkpt>
      <trkpt lat="45.33954" lon="4.46296">
        <ele>1038.3</ele>
        <time>2015-12-20T10:11:14Z</time>
      </trkpt>
      <trkpt lat="45.33959" lon="4.46292">
        <ele>1038</ele>
        <time>2015-12-20T10:11:15Z</time>
      </trkpt>
      <trkpt lat="45.33965" lon="4.46287">
        <ele>1038.1</ele>
        <time>2015-12-20T10:11:16Z</time>
      </trkpt>
      <trkpt lat="45.3397" lon="4.46283">
        <ele>1038.1</ele>
        <time>2015-12-20T10:11:17Z</time>
      </trkpt>
      <trkpt lat="45.33975" lon="4.46278">
        <ele>1038.2</ele>
        <time>2015-12-20T10:11:18Z</time>
      </trkpt>
      <trkpt lat="45.33981" lon="4.46273">
        <ele>1038.2</ele>
        <time>2015-12-20T10:11:19Z</time>
      </trkpt>
      <trkpt lat="45.33987" lon="4.46269">
        <ele>1038.2</ele>
        <time>2015-12-20T10:11:20Z</time>
      </trkpt>
      <trkpt lat="45.33993" lon="4.46263">
        <ele>1038.3</ele>
        <time>2015-12-20T10:11:21Z</time>
      </trkpt>
      <trkpt lat="45.33998" lon="4.46258">
        <ele>1038.3</ele>
        <time>2015-12-20T10:11:22Z</time>
      </trkpt>
      <trkpt lat="45.34004" lon="4.46253">
        <ele>1038.3</ele>
        <time>2015-12-20T10:11:23Z</time>
      </trkpt>
      <trkpt lat="45.34009" lon="4.46248">
        <ele>1038.3</ele>
        <time>2015-12-20T10:11:24Z</time>
      </trkpt>
      <trkpt lat="45.34015" lon="4.46243">
        <ele>1038.3</ele>
        <time>2015-12-20T10:11:25Z</time>
      </trkpt>
      <trkpt lat="45.3402" lon="4.46237">
        <ele>1038.3</ele>
        <time>2015-12-20T10:11:26Z</time>
      </trkpt>
      <trkpt lat="45.34025" lon="4.4623">
        <ele>1038.2</ele>
        <time>2015-12-20T10:11:27Z</time>
      </trkpt>
      <trkpt lat="45.3403" lon="4.46224">
        <ele>1038.2</ele>
        <time>2015-12-20T10:11:28Z</time>
      </trkpt>
      <trkpt lat="45.34035" lon="4.46218">
        <ele>1038.1</ele>
        <time>2015-12-20T10:11:29Z</time>
      </trkpt>
      <trkpt lat="45.34039" lon="4.46212">
        <ele>1038</ele>
        <time>2015-12-20T10:11:30Z</time>
      </trkpt>
      <trkpt lat="45.34042" lon="4.46204">
        <ele>1038</ele>
        <time>2015-12-20T10:11:31Z</time>
      </trkpt>
      <trkpt lat="45.34046" lon="4.46197">
        <ele>1037.7</ele>
        <time>2015-12-20T10:11:32Z</time>
      </trkpt>
      <trkpt lat="45.3405" lon="4.46188">
        <ele>1037.5</ele>
        <time>2015-12-20T10:11:33Z</time>
      </trkpt>
      <trkpt lat="45.34053" lon="4.4618">
        <ele>1037.2</ele>
        <time>2015-12-20T10:11:34Z</time>
      </trkpt>
      <trkpt lat="45.34055" lon="4.46171">
        <ele>1037</ele>
        <time>2015-12-20T10:11:35Z</time>
      </trkpt>
      <trkpt lat="45.34057" lon="4.46163">
        <ele>1036.9</ele>
        <time>2015-12-20T10:11:36Z</time>
      </trkpt>
      <trkpt lat="45.3406" lon="4.46154">
        <ele>1036.6</ele>
        <time>2015-12-20T10:11:37Z</time>
      </trkpt>
      <trkpt lat="45.34062" lon="4.46146">
        <ele>1036.4</ele>
        <time>2015-12-20T10:11:38Z</time>
      </trkpt>
      <trkpt lat="45.34064" lon="4.46136">
        <ele>1036.2</ele>
        <time>2015-12-20T10:11:39Z</time>
      </trkpt>
      <trkpt lat="45.34064" lon="4.46127">
        <ele>1036.1</ele>
        <time>2015-12-20T10:11:40Z</time>
      </trkpt>
      <trkpt lat="45.34065" lon="4.46118">
        <ele>1036.1</ele>
        <time>2015-12-20T10:11:41Z</time>
      </trkpt>
      <trkpt lat="45.34067" lon="4.4611">
        <ele>1036</ele>
        <time>2015-12-20T10:11:42Z</time>
      </trkpt>
      <trkpt lat="45.34068" lon="4.461">
        <ele>1036</ele>
        <time>2015-12-20T10:11:43Z</time>
      </trkpt>
      <trkpt lat="45.34069" lon="4.46091">
        <ele>1036</ele>
        <time>2015-12-20T10:11:44Z</time>
      </trkpt>
      <trkpt lat="45.3407" lon="4.46082">
        <ele>1035.9</ele>
        <time>2015-12-20T10:11:45Z</time>
      </trkpt>
      <trkpt lat="45.34072" lon="4.46073">
        <ele>1035.9</ele>
        <time>2015-12-20T10:11:46Z</time>
      </trkpt>
      <trkpt lat="45.34074" lon="4.46063">
        <ele>1035.8</ele>
        <time>2015-12-20T10:11:47Z</time>
      </trkpt>
      <trkpt lat="45.34076" lon="4.46051">
        <ele>1035.7</ele>
        <time>2015-12-20T10:11:48Z</time>
      </trkpt>
      <trkpt lat="45.34076" lon="4.46042">
        <ele>1035.7</ele>
        <time>2015-12-20T10:11:49Z</time>
      </trkpt>
      <trkpt lat="45.34077" lon="4.46031">
        <ele>1035.3</ele>
        <time>2015-12-20T10:11:50Z</time>
      </trkpt>
      <trkpt lat="45.34079" lon="4.46018">
        <ele>1034.8</ele>
        <time>2015-12-20T10:11:51Z</time>
      </trkpt>
      <trkpt lat="45.34079" lon="4.46008">
        <ele>1034.5</ele>
        <time>2015-12-20T10:11:52Z</time>
      </trkpt>
      <trkpt lat="45.34081" lon="4.45999">
        <ele>1034.2</ele>
        <time>2015-12-20T10:11:53Z</time>
      </trkpt>
      <trkpt lat="45.34081" lon="4.45989">
        <ele>1033.9</ele>
        <time>2015-12-20T10:11:54Z</time>
      </trkpt>
      <trkpt lat="45.34082" lon="4.45981">
        <ele>1033.6</ele>
        <time>2015-12-20T10:11:55Z</time>
      </trkpt>
      <trkpt lat="45.34083" lon="4.45973">
        <ele>1033.4</ele>
        <time>2015-12-20T10:11:56Z</time>
      </trkpt>
      <trkpt lat="45.34085" lon="4.45968">
        <ele>1033.1</ele>
        <time>2015-12-20T10:11:57Z</time>
      </trkpt>
      <trkpt lat="45.34087" lon="4.45962">
        <ele>1032.9</ele>
        <time>2015-12-20T10:11:58Z</time>
      </trkpt>
      <trkpt lat="45.3409" lon="4.45957">
        <ele>1032.7</ele>
        <time>2015-12-20T10:11:59Z</time>
      </trkpt>
      <trkpt lat="45.34092" lon="4.45953">
        <ele>1032.5</ele>
        <time>2015-12-20T10:12:00Z</time>
      </trkpt>
      <trkpt lat="45.34094" lon="4.4595">
        <ele>1032.4</ele>
        <time>2015-12-20T10:12:01Z</time>
      </trkpt>
      <trkpt lat="45.34098" lon="4.45946">
        <ele>1032.2</ele>
        <time>2015-12-20T10:12:03Z</time>
      </trkpt>
      <trkpt lat="45.341" lon="4.45943">
        <ele>1032.1</ele>
        <time>2015-12-20T10:12:05Z</time>
      </trkpt>
      <trkpt lat="45.34103" lon="4.45942">
        <ele>1032</ele>
        <time>2015-12-20T10:12:20Z</time>
      </trkpt>
      <trkpt lat="45.34104" lon="4.45938">
        <ele>1031.9</ele>
        <time>2015-12-20T10:12:22Z</time>
      </trkpt>
      <trkpt lat="45.34105" lon="4.45931">
        <ele>1031.9</ele>
        <time>2015-12-20T10:12:24Z</time>
      </trkpt>
      <trkpt lat="45.34105" lon="4.45927">
        <ele>1031.9</ele>
        <time>2015-12-20T10:12:25Z</time>
      </trkpt>
      <trkpt lat="45.34106" lon="4.45923">
        <ele>1031.9</ele>
        <time>2015-12-20T10:12:26Z</time>
      </trkpt>
      <trkpt lat="45.34107" lon="4.45919">
        <ele>1031.8</ele>
        <time>2015-12-20T10:12:27Z</time>
      </trkpt>
      <trkpt lat="45.34109" lon="4.45916">
        <ele>1031.8</ele>
        <time>2015-12-20T10:12:28Z</time>
      </trkpt>
      <trkpt lat="45.34111" lon="4.45913">
        <ele>1031.8</ele>
        <time>2015-12-20T10:12:29Z</time>
      </trkpt>
      <trkpt lat="45.34114" lon="4.45911">
        <ele>1031.7</ele>
        <time>2015-12-20T10:12:30Z</time>
      </trkpt>
      <trkpt lat="45.34117" lon="4.45909">
        <ele>1031.7</ele>
        <time>2015-12-20T10:12:31Z</time>
      </trkpt>
      <trkpt lat="45.3412" lon="4.45907">
        <ele>1031.7</ele>
        <time>2015-12-20T10:12:32Z</time>
      </trkpt>
      <trkpt lat="45.34123" lon="4.45904">
        <ele>1031.7</ele>
        <time>2015-12-20T10:12:33Z</time>
      </trkpt>
      <trkpt lat="45.34126" lon="4.45902">
        <ele>1031.6</ele>
        <time>2015-12-20T10:12:34Z</time>
      </trkpt>
      <trkpt lat="45.34129" lon="4.459">
        <ele>1031.5</ele>
        <time>2015-12-20T10:12:35Z</time>
      </trkpt>
      <trkpt lat="45.34131" lon="4.45896">
        <ele>1031.4</ele>
        <time>2015-12-20T10:12:37Z</time>
      </trkpt>
      <trkpt lat="45.34133" lon="4.4589">
        <ele>1031.4</ele>
        <time>2015-12-20T10:12:39Z</time>
      </trkpt>
      <trkpt lat="45.34134" lon="4.45886">
        <ele>1031.4</ele>
        <time>2015-12-20T10:12:40Z</time>
      </trkpt>
      <trkpt lat="45.34134" lon="4.45882">
        <ele>1031.4</ele>
        <time>2015-12-20T10:12:41Z</time>
      </trkpt>
      <trkpt lat="45.34135" lon="4.45874">
        <ele>1031.5</ele>
        <time>2015-12-20T10:12:43Z</time>
      </trkpt>
      <trkpt lat="45.34136" lon="4.4587">
        <ele>1031.4</ele>
        <time>2015-12-20T10:12:44Z</time>
      </trkpt>
      <trkpt lat="45.34137" lon="4.45866">
        <ele>1031.3</ele>
        <time>2015-12-20T10:12:45Z</time>
      </trkpt>
      <trkpt lat="45.34138" lon="4.45862">
        <ele>1031.3</ele>
        <time>2015-12-20T10:12:46Z</time>
      </trkpt>
      <trkpt lat="45.34139" lon="4.45858">
        <ele>1031.2</ele>
        <time>2015-12-20T10:12:47Z</time>
      </trkpt>
      <trkpt lat="45.34141" lon="4.45854">
        <ele>1031.1</ele>
        <time>2015-12-20T10:12:48Z</time>
      </trkpt>
      <trkpt lat="45.34142" lon="4.45851">
        <ele>1030.9</ele>
        <time>2015-12-20T10:12:49Z</time>
      </trkpt>
      <trkpt lat="45.34144" lon="4.45847">
        <ele>1030.8</ele>
        <time>2015-12-20T10:12:50Z</time>
      </trkpt>
      <trkpt lat="45.34146" lon="4.45844">
        <ele>1030.7</ele>
        <time>2015-12-20T10:12:51Z</time>
      </trkpt>
      <trkpt lat="45.34148" lon="4.4584">
        <ele>1030.6</ele>
        <time>2015-12-20T10:12:52Z</time>
      </trkpt>
      <trkpt lat="45.3415" lon="4.45836">
        <ele>1030.5</ele>
        <time>2015-12-20T10:12:53Z</time>
      </trkpt>
      <trkpt lat="45.34152" lon="4.45832">
        <ele>1030.3</ele>
        <time>2015-12-20T10:12:54Z</time>
      </trkpt>
      <trkpt lat="45.34154" lon="4.45827">
        <ele>1030.2</ele>
        <time>2015-12-20T10:12:55Z</time>
      </trkpt>
      <trkpt lat="45.34156" lon="4.45823">
        <ele>1030.1</ele>
        <time>2015-12-20T10:12:56Z</time>
      </trkpt>
      <trkpt lat="45.34157" lon="4.45818">
        <ele>1030</ele>
        <time>2015-12-20T10:12:57Z</time>
      </trkpt>
      <trkpt lat="45.34159" lon="4.45813">
        <ele>1029.9</ele>
        <time>2015-12-20T10:12:58Z</time>
      </trkpt>
      <trkpt lat="45.3416" lon="4.45807">
        <ele>1029.8</ele>
        <time>2015-12-20T10:12:59Z</time>
      </trkpt>
      <trkpt lat="45.34162" lon="4.45801">
        <ele>1029.7</ele>
        <time>2015-12-20T10:13:00Z</time>
      </trkpt>
      <trkpt lat="45.34164" lon="4.45792">
        <ele>1029.6</ele>
        <time>2015-12-20T10:13:01Z</time>
      </trkpt>
      <trkpt lat="45.34166" lon="4.45784">
        <ele>1029.1</ele>
        <time>2015-12-20T10:13:02Z</time>
      </trkpt>
      <trkpt lat="45.34167" lon="4.45777">
        <ele>1028.5</ele>
        <time>2015-12-20T10:13:03Z</time>
      </trkpt>
      <trkpt lat="45.34169" lon="4.4577">
        <ele>1028</ele>
        <time>2015-12-20T10:13:04Z</time>
      </trkpt>
      <trkpt lat="45.34171" lon="4.45763">
        <ele>1027.4</ele>
        <time>2015-12-20T10:13:05Z</time>
      </trkpt>
      <trkpt lat="45.34173" lon="4.45755">
        <ele>1026.7</ele>
        <time>2015-12-20T10:13:06Z</time>
      </trkpt>
      <trkpt lat="45.34175" lon="4.45746">
        <ele>1026.1</ele>
        <time>2015-12-20T10:13:07Z</time>
      </trkpt>
      <trkpt lat="45.34177" lon="4.45738">
        <ele>1025.3</ele>
        <time>2015-12-20T10:13:08Z</time>
      </trkpt>
      <trkpt lat="45.34179" lon="4.4573">
        <ele>1024.6</ele>
        <time>2015-12-20T10:13:09Z</time>
      </trkpt>
      <trkpt lat="45.34181" lon="4.45722">
        <ele>1023.9</ele>
        <time>2015-12-20T10:13:10Z</time>
      </trkpt>
      <trkpt lat="45.34183" lon="4.45714">
        <ele>1023.2</ele>
        <time>2015-12-20T10:13:11Z</time>
      </trkpt>
      <trkpt lat="45.34185" lon="4.45707">
        <ele>1022.7</ele>
        <time>2015-12-20T10:13:12Z</time>
      </trkpt>
      <trkpt lat="45.34187" lon="4.45699">
        <ele>1022.4</ele>
        <time>2015-12-20T10:13:13Z</time>
      </trkpt>
      <trkpt lat="45.3419" lon="4.45691">
        <ele>1022.1</ele>
        <time>2015-12-20T10:13:14Z</time>
      </trkpt>
      <trkpt lat="45.34192" lon="4.45683">
        <ele>1021.9</ele>
        <time>2015-12-20T10:13:15Z</time>
      </trkpt>
      <trkpt lat="45.34194" lon="4.45675">
        <ele>1021.6</ele>
        <time>2015-12-20T10:13:16Z</time>
      </trkpt>
      <trkpt lat="45.34196" lon="4.45666">
        <ele>1021.4</ele>
        <time>2015-12-20T10:13:17Z</time>
      </trkpt>
      <trkpt lat="45.34198" lon="4.45659">
        <ele>1021.2</ele>
        <time>2015-12-20T10:13:18Z</time>
      </trkpt>
      <trkpt lat="45.342" lon="4.45651">
        <ele>1020.9</ele>
        <time>2015-12-20T10:13:19Z</time>
      </trkpt>
      <trkpt lat="45.34203" lon="4.45641">
        <ele>1020.6</ele>
        <time>2015-12-20T10:13:20Z</time>
      </trkpt>
      <trkpt lat="45.34205" lon="4.45632">
        <ele>1020.3</ele>
        <time>2015-12-20T10:13:21Z</time>
      </trkpt>
      <trkpt lat="45.34208" lon="4.45622">
        <ele>1020</ele>
        <time>2015-12-20T10:13:22Z</time>
      </trkpt>
      <trkpt lat="45.34211" lon="4.45611">
        <ele>1019.9</ele>
        <time>2015-12-20T10:13:23Z</time>
      </trkpt>
      <trkpt lat="45.34214" lon="4.456">
        <ele>1019.8</ele>
        <time>2015-12-20T10:13:24Z</time>
      </trkpt>
      <trkpt lat="45.34217" lon="4.45589">
        <ele>1019.8</ele>
        <time>2015-12-20T10:13:25Z</time>
      </trkpt>
      <trkpt lat="45.34219" lon="4.45578">
        <ele>1019.7</ele>
        <time>2015-12-20T10:13:26Z</time>
      </trkpt>
      <trkpt lat="45.34222" lon="4.45568">
        <ele>1019.6</ele>
        <time>2015-12-20T10:13:27Z</time>
      </trkpt>
      <trkpt lat="45.34224" lon="4.45558">
        <ele>1019.5</ele>
        <time>2015-12-20T10:13:28Z</time>
      </trkpt>
      <trkpt lat="45.34227" lon="4.45549">
        <ele>1019.4</ele>
        <time>2015-12-20T10:13:29Z</time>
      </trkpt>
      <trkpt lat="45.34229" lon="4.45539">
        <ele>1019.3</ele>
        <time>2015-12-20T10:13:30Z</time>
      </trkpt>
      <trkpt lat="45.34232" lon="4.45529">
        <ele>1019.2</ele>
        <time>2015-12-20T10:13:31Z</time>
      </trkpt>
      <trkpt lat="45.34235" lon="4.45519">
        <ele>1019.2</ele>
        <time>2015-12-20T10:13:32Z</time>
      </trkpt>
      <trkpt lat="45.34237" lon="4.45509">
        <ele>1019.1</ele>
        <time>2015-12-20T10:13:33Z</time>
      </trkpt>
      <trkpt lat="45.34239" lon="4.45499">
        <ele>1019</ele>
        <time>2015-12-20T10:13:34Z</time>
      </trkpt>
      <trkpt lat="45.34241" lon="4.45491">
        <ele>1018.9</ele>
        <time>2015-12-20T10:13:35Z</time>
      </trkpt>
      <trkpt lat="45.34243" lon="4.45482">
        <ele>1018.7</ele>
        <time>2015-12-20T10:13:36Z</time>
      </trkpt>
      <trkpt lat="45.34245" lon="4.45474">
        <ele>1018.5</ele>
        <time>2015-12-20T10:13:37Z</time>
      </trkpt>
      <trkpt lat="45.34247" lon="4.45466">
        <ele>1018.3</ele>
        <time>2015-12-20T10:13:38Z</time>
      </trkpt>
      <trkpt lat="45.3425" lon="4.45458">
        <ele>1018</ele>
        <time>2015-12-20T10:13:39Z</time>
      </trkpt>
      <trkpt lat="45.34253" lon="4.45452">
        <ele>1018.2</ele>
        <time>2015-12-20T10:13:40Z</time>
      </trkpt>
      <trkpt lat="45.34256" lon="4.45448">
        <ele>1018.2</ele>
        <time>2015-12-20T10:13:41Z</time>
      </trkpt>
      <trkpt lat="45.34258" lon="4.45445">
        <ele>1018.2</ele>
        <time>2015-12-20T10:13:42Z</time>
      </trkpt>
      <trkpt lat="45.34262" lon="4.4544">
        <ele>1018.3</ele>
        <time>2015-12-20T10:13:44Z</time>
      </trkpt>
      <trkpt lat="45.34264" lon="4.45436">
        <ele>1018.3</ele>
        <time>2015-12-20T10:13:45Z</time>
      </trkpt>
      <trkpt lat="45.34268" lon="4.45432">
        <ele>1018.3</ele>
        <time>2015-12-20T10:13:46Z</time>
      </trkpt>
      <trkpt lat="45.3427" lon="4.45429">
        <ele>1018.3</ele>
        <time>2015-12-20T10:13:47Z</time>
      </trkpt>
      <trkpt lat="45.34273" lon="4.45426">
        <ele>1018.3</ele>
        <time>2015-12-20T10:13:48Z</time>
      </trkpt>
      <trkpt lat="45.34278" lon="4.45421">
        <ele>1018.3</ele>
        <time>2015-12-20T10:13:49Z</time>
      </trkpt>
      <trkpt lat="45.34282" lon="4.45417">
        <ele>1018.3</ele>
        <time>2015-12-20T10:13:50Z</time>
      </trkpt>
      <trkpt lat="45.34287" lon="4.45412">
        <ele>1018.3</ele>
        <time>2015-12-20T10:13:51Z</time>
      </trkpt>
      <trkpt lat="45.34292" lon="4.45408">
        <ele>1018.3</ele>
        <time>2015-12-20T10:13:52Z</time>
      </trkpt>
      <trkpt lat="45.34295" lon="4.45404">
        <ele>1018.2</ele>
        <time>2015-12-20T10:13:53Z</time>
      </trkpt>
      <trkpt lat="45.34299" lon="4.45399">
        <ele>1018.1</ele>
        <time>2015-12-20T10:13:54Z</time>
      </trkpt>
      <trkpt lat="45.34303" lon="4.45394">
        <ele>1018.1</ele>
        <time>2015-12-20T10:13:55Z</time>
      </trkpt>
      <trkpt lat="45.34307" lon="4.4539">
        <ele>1017.9</ele>
        <time>2015-12-20T10:13:56Z</time>
      </trkpt>
      <trkpt lat="45.34312" lon="4.45385">
        <ele>1017.8</ele>
        <time>2015-12-20T10:13:57Z</time>
      </trkpt>
      <trkpt lat="45.34316" lon="4.45381">
        <ele>1017.6</ele>
        <time>2015-12-20T10:13:58Z</time>
      </trkpt>
      <trkpt lat="45.3432" lon="4.45376">
        <ele>1017.5</ele>
        <time>2015-12-20T10:13:59Z</time>
      </trkpt>
      <trkpt lat="45.34325" lon="4.45372">
        <ele>1017.5</ele>
        <time>2015-12-20T10:14:00Z</time>
      </trkpt>
      <trkpt lat="45.34328" lon="4.45368">
        <ele>1017.6</ele>
        <time>2015-12-20T10:14:01Z</time>
      </trkpt>
      <trkpt lat="45.34332" lon="4.45363">
        <ele>1017.9</ele>
        <time>2015-12-20T10:14:02Z</time>
      </trkpt>
      <trkpt lat="45.34335" lon="4.45359">
        <ele>1018</ele>
        <time>2015-12-20T10:14:03Z</time>
      </trkpt>
      <trkpt lat="45.34339" lon="4.45355">
        <ele>1018.2</ele>
        <time>2015-12-20T10:14:04Z</time>
      </trkpt>
      <trkpt lat="45.34342" lon="4.45352">
        <ele>1018.3</ele>
        <time>2015-12-20T10:14:05Z</time>
      </trkpt>
      <trkpt lat="45.34346" lon="4.45348">
        <ele>1018.6</ele>
        <time>2015-12-20T10:14:06Z</time>
      </trkpt>
      <trkpt lat="45.3435" lon="4.45343">
        <ele>1019</ele>
        <time>2015-12-20T10:14:07Z</time>
      </trkpt>
      <trkpt lat="45.34354" lon="4.45339">
        <ele>1019.3</ele>
        <time>2015-12-20T10:14:08Z</time>
      </trkpt>
      <trkpt lat="45.34358" lon="4.45334">
        <ele>1019.7</ele>
        <time>2015-12-20T10:14:09Z</time>
      </trkpt>
      <trkpt lat="45.34362" lon="4.4533">
        <ele>1020.1</ele>
        <time>2015-12-20T10:14:10Z</time>
      </trkpt>
      <trkpt lat="45.34365" lon="4.45325">
        <ele>1020.8</ele>
        <time>2015-12-20T10:14:11Z</time>
      </trkpt>
      <trkpt lat="45.34369" lon="4.4532">
        <ele>1021.3</ele>
        <time>2015-12-20T10:14:12Z</time>
      </trkpt>
      <trkpt lat="45.34372" lon="4.45315">
        <ele>1022</ele>
        <time>2015-12-20T10:14:13Z</time>
      </trkpt>
      <trkpt lat="45.34375" lon="4.45311">
        <ele>1022.6</ele>
        <time>2015-12-20T10:14:14Z</time>
      </trkpt>
      <trkpt lat="45.34378" lon="4.45306">
        <ele>1023</ele>
        <time>2015-12-20T10:14:15Z</time>
      </trkpt>
      <trkpt lat="45.34381" lon="4.453">
        <ele>1023.7</ele>
        <time>2015-12-20T10:14:16Z</time>
      </trkpt>
      <trkpt lat="45.34384" lon="4.45296">
        <ele>1024</ele>
        <time>2015-12-20T10:14:17Z</time>
      </trkpt>
      <trkpt lat="45.34387" lon="4.45292">
        <ele>1024.2</ele>
        <time>2015-12-20T10:14:18Z</time>
      </trkpt>
      <trkpt lat="45.34391" lon="4.45287">
        <ele>1024.6</ele>
        <time>2015-12-20T10:14:19Z</time>
      </trkpt>
      <trkpt lat="45.34395" lon="4.45282">
        <ele>1025.1</ele>
        <time>2015-12-20T10:14:20Z</time>
      </trkpt>
      <trkpt lat="45.34399" lon="4.45279">
        <ele>1025.1</ele>
        <time>2015-12-20T10:14:21Z</time>
      </trkpt>
      <trkpt lat="45.34404" lon="4.45275">
        <ele>1025.2</ele>
        <time>2015-12-20T10:14:22Z</time>
      </trkpt>
      <trkpt lat="45.34408" lon="4.45271">
        <ele>1025.4</ele>
        <time>2015-12-20T10:14:23Z</time>
      </trkpt>
      <trkpt lat="45.34414" lon="4.45267">
        <ele>1025.5</ele>
        <time>2015-12-20T10:14:24Z</time>
      </trkpt>
      <trkpt lat="45.34418" lon="4.45264">
        <ele>1025.8</ele>
        <time>2015-12-20T10:14:25Z</time>
      </trkpt>
      <trkpt lat="45.34423" lon="4.4526">
        <ele>1026</ele>
        <time>2015-12-20T10:14:26Z</time>
      </trkpt>
      <trkpt lat="45.34428" lon="4.45257">
        <ele>1026</ele>
        <time>2015-12-20T10:14:27Z</time>
      </trkpt>
      <trkpt lat="45.34433" lon="4.45253">
        <ele>1026.2</ele>
        <time>2015-12-20T10:14:28Z</time>
      </trkpt>
      <trkpt lat="45.34438" lon="4.45249">
        <ele>1026.6</ele>
        <time>2015-12-20T10:14:29Z</time>
      </trkpt>
      <trkpt lat="45.34444" lon="4.45244">
        <ele>1027</ele>
        <time>2015-12-20T10:14:30Z</time>
      </trkpt>
      <trkpt lat="45.34448" lon="4.45241">
        <ele>1027.3</ele>
        <time>2015-12-20T10:14:31Z</time>
      </trkpt>
      <trkpt lat="45.34454" lon="4.45238">
        <ele>1027.3</ele>
        <time>2015-12-20T10:14:32Z</time>
      </trkpt>
      <trkpt lat="45.3446" lon="4.45235">
        <ele>1027.4</ele>
        <time>2015-12-20T10:14:33Z</time>
      </trkpt>
      <trkpt lat="45.34465" lon="4.45233">
        <ele>1027.4</ele>
        <time>2015-12-20T10:14:34Z</time>
      </trkpt>
      <trkpt lat="45.34471" lon="4.4523">
        <ele>1027.6</ele>
        <time>2015-12-20T10:14:35Z</time>
      </trkpt>
      <trkpt lat="45.34476" lon="4.45227">
        <ele>1027.7</ele>
        <time>2015-12-20T10:14:36Z</time>
      </trkpt>
      <trkpt lat="45.34481" lon="4.45224">
        <ele>1027.9</ele>
        <time>2015-12-20T10:14:37Z</time>
      </trkpt>
      <trkpt lat="45.34485" lon="4.4522">
        <ele>1028.4</ele>
        <time>2015-12-20T10:14:38Z</time>
      </trkpt>
      <trkpt lat="45.3449" lon="4.45217">
        <ele>1028.5</ele>
        <time>2015-12-20T10:14:39Z</time>
      </trkpt>
      <trkpt lat="45.34495" lon="4.45213">
        <ele>1029</ele>
        <time>2015-12-20T10:14:40Z</time>
      </trkpt>
      <trkpt lat="45.345" lon="4.45209">
        <ele>1029.3</ele>
        <time>2015-12-20T10:14:41Z</time>
      </trkpt>
      <trkpt lat="45.34505" lon="4.45206">
        <ele>1029.2</ele>
        <time>2015-12-20T10:14:42Z</time>
      </trkpt>
      <trkpt lat="45.3451" lon="4.45203">
        <ele>1029.1</ele>
        <time>2015-12-20T10:14:43Z</time>
      </trkpt>
      <trkpt lat="45.34515" lon="4.452">
        <ele>1028.9</ele>
        <time>2015-12-20T10:14:44Z</time>
      </trkpt>
      <trkpt lat="45.34521" lon="4.45196">
        <ele>1028.7</ele>
        <time>2015-12-20T10:14:45Z</time>
      </trkpt>
      <trkpt lat="45.34527" lon="4.45193">
        <ele>1028.6</ele>
        <time>2015-12-20T10:14:46Z</time>
      </trkpt>
      <trkpt lat="45.34532" lon="4.45188">
        <ele>1028.7</ele>
        <time>2015-12-20T10:14:47Z</time>
      </trkpt>
      <trkpt lat="45.34537" lon="4.45186">
        <ele>1028.4</ele>
        <time>2015-12-20T10:14:48Z</time>
      </trkpt>
      <trkpt lat="45.34543" lon="4.45183">
        <ele>1028.1</ele>
        <time>2015-12-20T10:14:49Z</time>
      </trkpt>
      <trkpt lat="45.3455" lon="4.4518">
        <ele>1027.3</ele>
        <time>2015-12-20T10:14:50Z</time>
      </trkpt>
      <trkpt lat="45.34555" lon="4.45176">
        <ele>1026.9</ele>
        <time>2015-12-20T10:14:51Z</time>
      </trkpt>
      <trkpt lat="45.34561" lon="4.45172">
        <ele>1026.5</ele>
        <time>2015-12-20T10:14:52Z</time>
      </trkpt>
      <trkpt lat="45.34567" lon="4.45168">
        <ele>1026.1</ele>
        <time>2015-12-20T10:14:53Z</time>
      </trkpt>
      <trkpt lat="45.34573" lon="4.45165">
        <ele>1025.6</ele>
        <time>2015-12-20T10:14:54Z</time>
      </trkpt>
      <trkpt lat="45.34579" lon="4.45161">
        <ele>1025.3</ele>
        <time>2015-12-20T10:14:55Z</time>
      </trkpt>
      <trkpt lat="45.34584" lon="4.45158">
        <ele>1025</ele>
        <time>2015-12-20T10:14:56Z</time>
      </trkpt>
      <trkpt lat="45.34589" lon="4.45153">
        <ele>1025</ele>
        <time>2015-12-20T10:14:57Z</time>
      </trkpt>
      <trkpt lat="45.34595" lon="4.45149">
        <ele>1025</ele>
        <time>2015-12-20T10:14:58Z</time>
      </trkpt>
      <trkpt lat="45.346" lon="4.45145">
        <ele>1025.1</ele>
        <time>2015-12-20T10:14:59Z</time>
      </trkpt>
      <trkpt lat="45.34605" lon="4.4514">
        <ele>1025.3</ele>
        <time>2015-12-20T10:15:00Z</time>
      </trkpt>
      <trkpt lat="45.3461" lon="4.45136">
        <ele>1025.6</ele>
        <time>2015-12-20T10:15:01Z</time>
      </trkpt>
      <trkpt lat="45.34614" lon="4.4513">
        <ele>1026.2</ele>
        <time>2015-12-20T10:15:02Z</time>
      </trkpt>
      <trkpt lat="45.34619" lon="4.45126">
        <ele>1026.5</ele>
        <time>2015-12-20T10:15:03Z</time>
      </trkpt>
      <trkpt lat="45.34623" lon="4.4512">
        <ele>1026.6</ele>
        <time>2015-12-20T10:15:04Z</time>
      </trkpt>
      <trkpt lat="45.34627" lon="4.45114">
        <ele>1026.2</ele>
        <time>2015-12-20T10:15:05Z</time>
      </trkpt>
      <trkpt lat="45.34631" lon="4.45108">
        <ele>1025.8</ele>
        <time>2015-12-20T10:15:06Z</time>
      </trkpt>
      <trkpt lat="45.34635" lon="4.45101">
        <ele>1025.6</ele>
        <time>2015-12-20T10:15:07Z</time>
      </trkpt>
      <trkpt lat="45.3464" lon="4.45095">
        <ele>1025</ele>
        <time>2015-12-20T10:15:08Z</time>
      </trkpt>
      <trkpt lat="45.34643" lon="4.45089">
        <ele>1024.9</ele>
        <time>2015-12-20T10:15:09Z</time>
      </trkpt>
      <trkpt lat="45.34645" lon="4.45086">
        <ele>1024.7</ele>
        <time>2015-12-20T10:15:10Z</time>
      </trkpt>
      <trkpt lat="45.3465" lon="4.45078">
        <ele>1024.5</ele>
        <time>2015-12-20T10:15:11Z</time>
      </trkpt>
      <trkpt lat="45.34653" lon="4.45072">
        <ele>1024.4</ele>
        <time>2015-12-20T10:15:12Z</time>
      </trkpt>
      <trkpt lat="45.34656" lon="4.45067">
        <ele>1024.5</ele>
        <time>2015-12-20T10:15:13Z</time>
      </trkpt>
      <trkpt lat="45.34658" lon="4.45062">
        <ele>1024.6</ele>
        <time>2015-12-20T10:15:14Z</time>
      </trkpt>
      <trkpt lat="45.34662" lon="4.45056">
        <ele>1024.7</ele>
        <time>2015-12-20T10:15:15Z</time>
      </trkpt>
      <trkpt lat="45.34665" lon="4.45052">
        <ele>1024.6</ele>
        <time>2015-12-20T10:15:16Z</time>
      </trkpt>
      <trkpt lat="45.34668" lon="4.45048">
        <ele>1024.5</ele>
        <time>2015-12-20T10:15:17Z</time>
      </trkpt>
      <trkpt lat="45.34671" lon="4.45043">
        <ele>1024.7</ele>
        <time>2015-12-20T10:15:18Z</time>
      </trkpt>
      <trkpt lat="45.34672" lon="4.4504">
        <ele>1024.8</ele>
        <time>2015-12-20T10:15:19Z</time>
      </trkpt>
      <trkpt lat="45.34675" lon="4.45035">
        <ele>1024.6</ele>
        <time>2015-12-20T10:15:20Z</time>
      </trkpt>
      <trkpt lat="45.34678" lon="4.45031">
        <ele>1024.4</ele>
        <time>2015-12-20T10:15:21Z</time>
      </trkpt>
      <trkpt lat="45.3468" lon="4.45027">
        <ele>1024.4</ele>
        <time>2015-12-20T10:15:22Z</time>
      </trkpt>
      <trkpt lat="45.34683" lon="4.45024">
        <ele>1024.3</ele>
        <time>2015-12-20T10:15:23Z</time>
      </trkpt>
      <trkpt lat="45.34686" lon="4.4502">
        <ele>1024.3</ele>
        <time>2015-12-20T10:15:24Z</time>
      </trkpt>
      <trkpt lat="45.34688" lon="4.45016">
        <ele>1024.3</ele>
        <time>2015-12-20T10:15:25Z</time>
      </trkpt>
      <trkpt lat="45.3469" lon="4.45011">
        <ele>1024.5</ele>
        <time>2015-12-20T10:15:26Z</time>
      </trkpt>
      <trkpt lat="45.34691" lon="4.45007">
        <ele>1024.6</ele>
        <time>2015-12-20T10:15:27Z</time>
      </trkpt>
      <trkpt lat="45.34692" lon="4.45004">
        <ele>1024.8</ele>
        <time>2015-12-20T10:15:28Z</time>
      </trkpt>
      <trkpt lat="45.34694" lon="4.45">
        <ele>1025</ele>
        <time>2015-12-20T10:15:29Z</time>
      </trkpt>
      <trkpt lat="45.34696" lon="4.44995">
        <ele>1025.2</ele>
        <time>2015-12-20T10:15:30Z</time>
      </trkpt>
      <trkpt lat="45.34698" lon="4.44991">
        <ele>1025.5</ele>
        <time>2015-12-20T10:15:31Z</time>
      </trkpt>
      <trkpt lat="45.347" lon="4.44987">
        <ele>1025.7</ele>
        <time>2015-12-20T10:15:32Z</time>
      </trkpt>
      <trkpt lat="45.34702" lon="4.44983">
        <ele>1025.8</ele>
        <time>2015-12-20T10:15:33Z</time>
      </trkpt>
      <trkpt lat="45.34705" lon="4.44981">
        <ele>1025.9</ele>
        <time>2015-12-20T10:15:34Z</time>
      </trkpt>
      <trkpt lat="45.34707" lon="4.44978">
        <ele>1026</ele>
        <time>2015-12-20T10:15:35Z</time>
      </trkpt>
      <trkpt lat="45.34709" lon="4.44975">
        <ele>1026</ele>
        <time>2015-12-20T10:15:36Z</time>
      </trkpt>
      <trkpt lat="45.34712" lon="4.44972">
        <ele>1025.6</ele>
        <time>2015-12-20T10:15:38Z</time>
      </trkpt>
      <trkpt lat="45.34711" lon="4.44967">
        <ele>1026.4</ele>
        <time>2015-12-20T10:16:04Z</time>
      </trkpt>
      <trkpt lat="45.34708" lon="4.44967">
        <ele>1027.1</ele>
        <time>2015-12-20T10:16:09Z</time>
      </trkpt>
      <trkpt lat="45.34709" lon="4.44961">
        <ele>1027.4</ele>
        <time>2015-12-20T10:16:18Z</time>
      </trkpt>
      <trkpt lat="45.34712" lon="4.44956">
        <ele>1027.2</ele>
        <time>2015-12-20T10:16:20Z</time>
      </trkpt>
      <trkpt lat="45.34713" lon="4.44953">
        <ele>1026.7</ele>
        <time>2015-12-20T10:16:21Z</time>
      </trkpt>
      <trkpt lat="45.34716" lon="4.4495">
        <ele>1026.2</ele>
        <time>2015-12-20T10:16:22Z</time>
      </trkpt>
      <trkpt lat="45.34719" lon="4.44945">
        <ele>1025.3</ele>
        <time>2015-12-20T10:16:24Z</time>
      </trkpt>
      <trkpt lat="45.34722" lon="4.44942">
        <ele>1024.8</ele>
        <time>2015-12-20T10:16:25Z</time>
      </trkpt>
      <trkpt lat="45.34724" lon="4.44938">
        <ele>1024.2</ele>
        <time>2015-12-20T10:16:26Z</time>
      </trkpt>
      <trkpt lat="45.34726" lon="4.44935">
        <ele>1023.8</ele>
        <time>2015-12-20T10:16:27Z</time>
      </trkpt>
      <trkpt lat="45.34728" lon="4.44931">
        <ele>1023.3</ele>
        <time>2015-12-20T10:16:28Z</time>
      </trkpt>
      <trkpt lat="45.3473" lon="4.44927">
        <ele>1023</ele>
        <time>2015-12-20T10:16:29Z</time>
      </trkpt>
      <trkpt lat="45.34732" lon="4.44922">
        <ele>1022.6</ele>
        <time>2015-12-20T10:16:30Z</time>
      </trkpt>
      <trkpt lat="45.34735" lon="4.44917">
        <ele>1022.2</ele>
        <time>2015-12-20T10:16:31Z</time>
      </trkpt>
      <trkpt lat="45.34737" lon="4.44912">
        <ele>1021.8</ele>
        <time>2015-12-20T10:16:32Z</time>
      </trkpt>
      <trkpt lat="45.34739" lon="4.44907">
        <ele>1021.3</ele>
        <time>2015-12-20T10:16:33Z</time>
      </trkpt>
      <trkpt lat="45.34741" lon="4.44902">
        <ele>1021</ele>
        <time>2015-12-20T10:16:34Z</time>
      </trkpt>
      <trkpt lat="45.34743" lon="4.44898">
        <ele>1020.7</ele>
        <time>2015-12-20T10:16:35Z</time>
      </trkpt>
      <trkpt lat="45.34745" lon="4.44894">
        <ele>1020.4</ele>
        <time>2015-12-20T10:16:36Z</time>
      </trkpt>
      <trkpt lat="45.34747" lon="4.4489">
        <ele>1020.1</ele>
        <time>2015-12-20T10:16:37Z</time>
      </trkpt>
      <trkpt lat="45.3475" lon="4.44886">
        <ele>1019.7</ele>
        <time>2015-12-20T10:16:38Z</time>
      </trkpt>
      <trkpt lat="45.34753" lon="4.44882">
        <ele>1019.2</ele>
        <time>2015-12-20T10:16:39Z</time>
      </trkpt>
      <trkpt lat="45.34757" lon="4.44877">
        <ele>1018.6</ele>
        <time>2015-12-20T10:16:40Z</time>
      </trkpt>
      <trkpt lat="45.3476" lon="4.44872">
        <ele>1017.9</ele>
        <time>2015-12-20T10:16:41Z</time>
      </trkpt>
      <trkpt lat="45.34763" lon="4.44867">
        <ele>1017.1</ele>
        <time>2015-12-20T10:16:42Z</time>
      </trkpt>
      <trkpt lat="45.34766" lon="4.44862">
        <ele>1016.4</ele>
        <time>2015-12-20T10:16:43Z</time>
      </trkpt>
      <trkpt lat="45.34768" lon="4.44857">
        <ele>1015.7</ele>
        <time>2015-12-20T10:16:44Z</time>
      </trkpt>
      <trkpt lat="45.34771" lon="4.44851">
        <ele>1015</ele>
        <time>2015-12-20T10:16:45Z</time>
      </trkpt>
      <trkpt lat="45.34773" lon="4.44846">
        <ele>1014.3</ele>
        <time>2015-12-20T10:16:46Z</time>
      </trkpt>
      <trkpt lat="45.34779" lon="4.44835">
        <ele>1012.9</ele>
        <time>2015-12-20T10:16:47Z</time>
      </trkpt>
      <trkpt lat="45.34782" lon="4.44827">
        <ele>1011.9</ele>
        <time>2015-12-20T10:16:48Z</time>
      </trkpt>
      <trkpt lat="45.34784" lon="4.44819">
        <ele>1011.4</ele>
        <time>2015-12-20T10:16:49Z</time>
      </trkpt>
      <trkpt lat="45.34786" lon="4.44811">
        <ele>1010.7</ele>
        <time>2015-12-20T10:16:50Z</time>
      </trkpt>
      <trkpt lat="45.34787" lon="4.44804">
        <ele>1010.3</ele>
        <time>2015-12-20T10:16:51Z</time>
      </trkpt>
      <trkpt lat="45.34787" lon="4.44797">
        <ele>1010</ele>
        <time>2015-12-20T10:16:52Z</time>
      </trkpt>
      <trkpt lat="45.34787" lon="4.4479">
        <ele>1009.6</ele>
        <time>2015-12-20T10:16:53Z</time>
      </trkpt>
      <trkpt lat="45.34784" lon="4.44783">
        <ele>1009.1</ele>
        <time>2015-12-20T10:16:54Z</time>
      </trkpt>
      <trkpt lat="45.34783" lon="4.44778">
        <ele>1008.6</ele>
        <time>2015-12-20T10:16:55Z</time>
      </trkpt>
      <trkpt lat="45.34782" lon="4.44774">
        <ele>1008.3</ele>
        <time>2015-12-20T10:16:56Z</time>
      </trkpt>
      <trkpt lat="45.3478" lon="4.4477">
        <ele>1008</ele>
        <time>2015-12-20T10:16:57Z</time>
      </trkpt>
      <trkpt lat="45.34779" lon="4.44764">
        <ele>1007.5</ele>
        <time>2015-12-20T10:16:58Z</time>
      </trkpt>
      <trkpt lat="45.34777" lon="4.44758">
        <ele>1007.1</ele>
        <time>2015-12-20T10:16:59Z</time>
      </trkpt>
      <trkpt lat="45.34774" lon="4.44752">
        <ele>1006.9</ele>
        <time>2015-12-20T10:17:00Z</time>
      </trkpt>
      <trkpt lat="45.34772" lon="4.44746">
        <ele>1006.3</ele>
        <time>2015-12-20T10:17:01Z</time>
      </trkpt>
      <trkpt lat="45.34769" lon="4.44738">
        <ele>1005.8</ele>
        <time>2015-12-20T10:17:02Z</time>
      </trkpt>
      <trkpt lat="45.34768" lon="4.4473">
        <ele>1005</ele>
        <time>2015-12-20T10:17:03Z</time>
      </trkpt>
      <trkpt lat="45.34766" lon="4.44726">
        <ele>1004.8</ele>
        <time>2015-12-20T10:17:04Z</time>
      </trkpt>
      <trkpt lat="45.34766" lon="4.44721">
        <ele>1004.3</ele>
        <time>2015-12-20T10:17:05Z</time>
      </trkpt>
      <trkpt lat="45.34765" lon="4.44716">
        <ele>1003.8</ele>
        <time>2015-12-20T10:17:06Z</time>
      </trkpt>
      <trkpt lat="45.34764" lon="4.4471">
        <ele>1003.3</ele>
        <time>2015-12-20T10:17:07Z</time>
      </trkpt>
      <trkpt lat="45.34762" lon="4.44703">
        <ele>1002.7</ele>
        <time>2015-12-20T10:17:08Z</time>
      </trkpt>
      <trkpt lat="45.34763" lon="4.44696">
        <ele>1001.8</ele>
        <time>2015-12-20T10:17:09Z</time>
      </trkpt>
      <trkpt lat="45.3476" lon="4.44688">
        <ele>1001.1</ele>
        <time>2015-12-20T10:17:10Z</time>
      </trkpt>
      <trkpt lat="45.34756" lon="4.44679">
        <ele>1000.8</ele>
        <time>2015-12-20T10:17:11Z</time>
      </trkpt>
      <trkpt lat="45.34754" lon="4.44676">
        <ele>1000.6</ele>
        <time>2015-12-20T10:17:12Z</time>
      </trkpt>
      <trkpt lat="45.34754" lon="4.44672">
        <ele>1000.1</ele>
        <time>2015-12-20T10:17:13Z</time>
      </trkpt>
      <trkpt lat="45.34752" lon="4.44666">
        <ele>999.7</ele>
        <time>2015-12-20T10:17:14Z</time>
      </trkpt>
      <trkpt lat="45.3475" lon="4.44662">
        <ele>999.4</ele>
        <time>2015-12-20T10:17:15Z</time>
      </trkpt>
      <trkpt lat="45.34749" lon="4.44656">
        <ele>998.7</ele>
        <time>2015-12-20T10:17:16Z</time>
      </trkpt>
      <trkpt lat="45.34746" lon="4.44651">
        <ele>998.5</ele>
        <time>2015-12-20T10:17:17Z</time>
      </trkpt>
      <trkpt lat="45.3474" lon="4.44646">
        <ele>998.4</ele>
        <time>2015-12-20T10:17:18Z</time>
      </trkpt>
      <trkpt lat="45.34736" lon="4.44642">
        <ele>998.6</ele>
        <time>2015-12-20T10:17:19Z</time>
      </trkpt>
      <trkpt lat="45.34729" lon="4.44634">
        <ele>998.1</ele>
        <time>2015-12-20T10:17:20Z</time>
      </trkpt>
      <trkpt lat="45.34726" lon="4.44629">
        <ele>997.7</ele>
        <time>2015-12-20T10:17:21Z</time>
      </trkpt>
      <trkpt lat="45.34723" lon="4.44623">
        <ele>997.2</ele>
        <time>2015-12-20T10:17:22Z</time>
      </trkpt>
      <trkpt lat="45.3472" lon="4.44621">
        <ele>997.1</ele>
        <time>2015-12-20T10:17:23Z</time>
      </trkpt>
      <trkpt lat="45.34716" lon="4.44617">
        <ele>996.8</ele>
        <time>2015-12-20T10:17:24Z</time>
      </trkpt>
      <trkpt lat="45.34712" lon="4.44612">
        <ele>996.4</ele>
        <time>2015-12-20T10:17:25Z</time>
      </trkpt>
      <trkpt lat="45.34707" lon="4.44606">
        <ele>995.7</ele>
        <time>2015-12-20T10:17:26Z</time>
      </trkpt>
      <trkpt lat="45.34703" lon="4.44601">
        <ele>994.9</ele>
        <time>2015-12-20T10:17:27Z</time>
      </trkpt>
      <trkpt lat="45.34699" lon="4.44594">
        <ele>994</ele>
        <time>2015-12-20T10:17:28Z</time>
      </trkpt>
      <trkpt lat="45.34697" lon="4.44589">
        <ele>993.2</ele>
        <time>2015-12-20T10:17:29Z</time>
      </trkpt>
      <trkpt lat="45.34693" lon="4.44582">
        <ele>992.2</ele>
        <time>2015-12-20T10:17:30Z</time>
      </trkpt>
      <trkpt lat="45.34689" lon="4.44579">
        <ele>992</ele>
        <time>2015-12-20T10:17:31Z</time>
      </trkpt>
      <trkpt lat="45.34684" lon="4.44573">
        <ele>991.1</ele>
        <time>2015-12-20T10:17:32Z</time>
      </trkpt>
      <trkpt lat="45.3468" lon="4.44567">
        <ele>990.5</ele>
        <time>2015-12-20T10:17:33Z</time>
      </trkpt>
      <trkpt lat="45.34675" lon="4.44562">
        <ele>989.8</ele>
        <time>2015-12-20T10:17:34Z</time>
      </trkpt>
      <trkpt lat="45.34671" lon="4.44559">
        <ele>989.4</ele>
        <time>2015-12-20T10:17:35Z</time>
      </trkpt>
      <trkpt lat="45.34666" lon="4.44554">
        <ele>988.8</ele>
        <time>2015-12-20T10:17:36Z</time>
      </trkpt>
      <trkpt lat="45.34664" lon="4.44551">
        <ele>988.5</ele>
        <time>2015-12-20T10:17:37Z</time>
      </trkpt>
      <trkpt lat="45.3466" lon="4.44545">
        <ele>987.5</ele>
        <time>2015-12-20T10:17:38Z</time>
      </trkpt>
      <trkpt lat="45.34658" lon="4.44541">
        <ele>986.9</ele>
        <time>2015-12-20T10:17:39Z</time>
      </trkpt>
      <trkpt lat="45.34655" lon="4.44537">
        <ele>986.5</ele>
        <time>2015-12-20T10:17:40Z</time>
      </trkpt>
      <trkpt lat="45.34653" lon="4.44534">
        <ele>986.2</ele>
        <time>2015-12-20T10:17:41Z</time>
      </trkpt>
      <trkpt lat="45.34649" lon="4.4453">
        <ele>985.9</ele>
        <time>2015-12-20T10:17:42Z</time>
      </trkpt>
      <trkpt lat="45.34644" lon="4.44524">
        <ele>985.1</ele>
        <time>2015-12-20T10:17:43Z</time>
      </trkpt>
      <trkpt lat="45.34641" lon="4.44521">
        <ele>984.7</ele>
        <time>2015-12-20T10:17:44Z</time>
      </trkpt>
      <trkpt lat="45.34638" lon="4.44517">
        <ele>984.1</ele>
        <time>2015-12-20T10:17:45Z</time>
      </trkpt>
      <trkpt lat="45.34634" lon="4.44514">
        <ele>983.5</ele>
        <time>2015-12-20T10:17:46Z</time>
      </trkpt>
      <trkpt lat="45.34632" lon="4.44508">
        <ele>982.5</ele>
        <time>2015-12-20T10:17:47Z</time>
      </trkpt>
      <trkpt lat="45.3463" lon="4.44504">
        <ele>981.7</ele>
        <time>2015-12-20T10:17:48Z</time>
      </trkpt>
      <trkpt lat="45.34628" lon="4.445">
        <ele>981</ele>
        <time>2015-12-20T10:17:49Z</time>
      </trkpt>
      <trkpt lat="45.34627" lon="4.44494">
        <ele>979.9</ele>
        <time>2015-12-20T10:17:50Z</time>
      </trkpt>
      <trkpt lat="45.34627" lon="4.44487">
        <ele>978.6</ele>
        <time>2015-12-20T10:17:51Z</time>
      </trkpt>
      <trkpt lat="45.34628" lon="4.4448">
        <ele>977.3</ele>
        <time>2015-12-20T10:17:52Z</time>
      </trkpt>
      <trkpt lat="45.3463" lon="4.44473">
        <ele>976.1</ele>
        <time>2015-12-20T10:17:53Z</time>
      </trkpt>
      <trkpt lat="45.34636" lon="4.44464">
        <ele>974.9</ele>
        <time>2015-12-20T10:17:54Z</time>
      </trkpt>
      <trkpt lat="45.34639" lon="4.44458">
        <ele>974.1</ele>
        <time>2015-12-20T10:17:55Z</time>
      </trkpt>
      <trkpt lat="45.34641" lon="4.44452">
        <ele>974.3</ele>
        <time>2015-12-20T10:17:56Z</time>
      </trkpt>
      <trkpt lat="45.34645" lon="4.44446">
        <ele>974.6</ele>
        <time>2015-12-20T10:17:57Z</time>
      </trkpt>
      <trkpt lat="45.3465" lon="4.44442">
        <ele>975</ele>
        <time>2015-12-20T10:17:58Z</time>
      </trkpt>
      <trkpt lat="45.34654" lon="4.4444">
        <ele>975.3</ele>
        <time>2015-12-20T10:17:59Z</time>
      </trkpt>
      <trkpt lat="45.34658" lon="4.44438">
        <ele>975.7</ele>
        <time>2015-12-20T10:18:00Z</time>
      </trkpt>
      <trkpt lat="45.34661" lon="4.44436">
        <ele>976</ele>
        <time>2015-12-20T10:18:01Z</time>
      </trkpt>
      <trkpt lat="45.34665" lon="4.44435">
        <ele>976.4</ele>
        <time>2015-12-20T10:18:02Z</time>
      </trkpt>
      <trkpt lat="45.34669" lon="4.44435">
        <ele>976.7</ele>
        <time>2015-12-20T10:18:03Z</time>
      </trkpt>
      <trkpt lat="45.34672" lon="4.44437">
        <ele>977</ele>
        <time>2015-12-20T10:18:04Z</time>
      </trkpt>
      <trkpt lat="45.34675" lon="4.4444">
        <ele>977.3</ele>
        <time>2015-12-20T10:18:05Z</time>
      </trkpt>
      <trkpt lat="45.34678" lon="4.44442">
        <ele>977.5</ele>
        <time>2015-12-20T10:18:06Z</time>
      </trkpt>
      <trkpt lat="45.3468" lon="4.44445">
        <ele>977.7</ele>
        <time>2015-12-20T10:18:07Z</time>
      </trkpt>
      <trkpt lat="45.34682" lon="4.44448">
        <ele>977.8</ele>
        <time>2015-12-20T10:18:08Z</time>
      </trkpt>
      <trkpt lat="45.34685" lon="4.44455">
        <ele>978.1</ele>
        <time>2015-12-20T10:18:10Z</time>
      </trkpt>
      <trkpt lat="45.34687" lon="4.44458">
        <ele>978.2</ele>
        <time>2015-12-20T10:18:11Z</time>
      </trkpt>
      <trkpt lat="45.34689" lon="4.44461">
        <ele>978.6</ele>
        <time>2015-12-20T10:18:12Z</time>
      </trkpt>
      <trkpt lat="45.34691" lon="4.44464">
        <ele>979</ele>
        <time>2015-12-20T10:18:13Z</time>
      </trkpt>
      <trkpt lat="45.34692" lon="4.44467">
        <ele>979.3</ele>
        <time>2015-12-20T10:18:14Z</time>
      </trkpt>
      <trkpt lat="45.34694" lon="4.44471">
        <ele>979.7</ele>
        <time>2015-12-20T10:18:15Z</time>
      </trkpt>
      <trkpt lat="45.34696" lon="4.44477">
        <ele>980.3</ele>
        <time>2015-12-20T10:18:17Z</time>
      </trkpt>
      <trkpt lat="45.34697" lon="4.44481">
        <ele>980.6</ele>
        <time>2015-12-20T10:18:18Z</time>
      </trkpt>
      <trkpt lat="45.34699" lon="4.44484">
        <ele>980.9</ele>
        <time>2015-12-20T10:18:19Z</time>
      </trkpt>
      <trkpt lat="45.34701" lon="4.44491">
        <ele>981.4</ele>
        <time>2015-12-20T10:18:21Z</time>
      </trkpt>
      <trkpt lat="45.34704" lon="4.44497">
        <ele>981.8</ele>
        <time>2015-12-20T10:18:23Z</time>
      </trkpt>
      <trkpt lat="45.34707" lon="4.44499">
        <ele>981.9</ele>
        <time>2015-12-20T10:18:25Z</time>
      </trkpt>
      <trkpt lat="45.3471" lon="4.44495">
        <ele>982</ele>
        <time>2015-12-20T10:18:27Z</time>
      </trkpt>
      <trkpt lat="45.34711" lon="4.44488">
        <ele>981.9</ele>
        <time>2015-12-20T10:18:29Z</time>
      </trkpt>
      <trkpt lat="45.34711" lon="4.44484">
        <ele>981.7</ele>
        <time>2015-12-20T10:18:30Z</time>
      </trkpt>
      <trkpt lat="45.34709" lon="4.44477">
        <ele>981</ele>
        <time>2015-12-20T10:18:32Z</time>
      </trkpt>
      <trkpt lat="45.34707" lon="4.44473">
        <ele>980.6</ele>
        <time>2015-12-20T10:18:33Z</time>
      </trkpt>
      <trkpt lat="45.34706" lon="4.44469">
        <ele>980.3</ele>
        <time>2015-12-20T10:18:34Z</time>
      </trkpt>
      <trkpt lat="45.34704" lon="4.44466">
        <ele>980.1</ele>
        <time>2015-12-20T10:18:35Z</time>
      </trkpt>
      <trkpt lat="45.34702" lon="4.44463">
        <ele>979.8</ele>
        <time>2015-12-20T10:18:36Z</time>
      </trkpt>
      <trkpt lat="45.347" lon="4.4446">
        <ele>979.4</ele>
        <time>2015-12-20T10:18:37Z</time>
      </trkpt>
      <trkpt lat="45.34699" lon="4.44456">
        <ele>979.2</ele>
        <time>2015-12-20T10:18:38Z</time>
      </trkpt>
      <trkpt lat="45.34697" lon="4.44452">
        <ele>979.1</ele>
        <time>2015-12-20T10:18:39Z</time>
      </trkpt>
      <trkpt lat="45.34696" lon="4.44448">
        <ele>979</ele>
        <time>2015-12-20T10:18:40Z</time>
      </trkpt>
      <trkpt lat="45.34694" lon="4.44443">
        <ele>978.9</ele>
        <time>2015-12-20T10:18:41Z</time>
      </trkpt>
      <trkpt lat="45.34693" lon="4.44439">
        <ele>978.9</ele>
        <time>2015-12-20T10:18:42Z</time>
      </trkpt>
      <trkpt lat="45.34692" lon="4.44435">
        <ele>978.8</ele>
        <time>2015-12-20T10:18:43Z</time>
      </trkpt>
      <trkpt lat="45.34691" lon="4.44431">
        <ele>978.7</ele>
        <time>2015-12-20T10:18:44Z</time>
      </trkpt>
      <trkpt lat="45.3469" lon="4.44427">
        <ele>978.6</ele>
        <time>2015-12-20T10:18:45Z</time>
      </trkpt>
      <trkpt lat="45.34688" lon="4.44423">
        <ele>978.5</ele>
        <time>2015-12-20T10:18:46Z</time>
      </trkpt>
      <trkpt lat="45.34687" lon="4.4442">
        <ele>978.4</ele>
        <time>2015-12-20T10:18:47Z</time>
      </trkpt>
      <trkpt lat="45.34686" lon="4.44416">
        <ele>978.3</ele>
        <time>2015-12-20T10:18:48Z</time>
      </trkpt>
      <trkpt lat="45.34685" lon="4.44413">
        <ele>978.2</ele>
        <time>2015-12-20T10:18:49Z</time>
      </trkpt>
      <trkpt lat="45.34683" lon="4.44409">
        <ele>978.1</ele>
        <time>2015-12-20T10:18:50Z</time>
      </trkpt>
      <trkpt lat="45.34682" lon="4.44406">
        <ele>978</ele>
        <time>2015-12-20T10:18:51Z</time>
      </trkpt>
      <trkpt lat="45.34681" lon="4.44402">
        <ele>977.9</ele>
        <time>2015-12-20T10:18:52Z</time>
      </trkpt>
      <trkpt lat="45.3468" lon="4.44398">
        <ele>977.8</ele>
        <time>2015-12-20T10:18:53Z</time>
      </trkpt>
      <trkpt lat="45.34679" lon="4.44394">
        <ele>977.7</ele>
        <time>2015-12-20T10:18:54Z</time>
      </trkpt>
      <trkpt lat="45.34678" lon="4.44389">
        <ele>977.7</ele>
        <time>2015-12-20T10:18:55Z</time>
      </trkpt>
      <trkpt lat="45.34677" lon="4.44384">
        <ele>977.6</ele>
        <time>2015-12-20T10:18:56Z</time>
      </trkpt>
      <trkpt lat="45.34677" lon="4.44379">
        <ele>977.6</ele>
        <time>2015-12-20T10:18:57Z</time>
      </trkpt>
      <trkpt lat="45.34676" lon="4.44374">
        <ele>977.5</ele>
        <time>2015-12-20T10:18:58Z</time>
      </trkpt>
      <trkpt lat="45.34677" lon="4.44369">
        <ele>977.4</ele>
        <time>2015-12-20T10:18:59Z</time>
      </trkpt>
      <trkpt lat="45.34677" lon="4.44364">
        <ele>977.4</ele>
        <time>2015-12-20T10:19:00Z</time>
      </trkpt>
      <trkpt lat="45.34678" lon="4.4436">
        <ele>977.4</ele>
        <time>2015-12-20T10:19:01Z</time>
      </trkpt>
      <trkpt lat="45.34679" lon="4.44355">
        <ele>977.4</ele>
        <time>2015-12-20T10:19:02Z</time>
      </trkpt>
      <trkpt lat="45.3468" lon="4.44351">
        <ele>977.4</ele>
        <time>2015-12-20T10:19:03Z</time>
      </trkpt>
      <trkpt lat="45.34682" lon="4.44345">
        <ele>977.4</ele>
        <time>2015-12-20T10:19:05Z</time>
      </trkpt>
      <trkpt lat="45.34683" lon="4.44339">
        <ele>977.4</ele>
        <time>2015-12-20T10:19:07Z</time>
      </trkpt>
      <trkpt lat="45.34685" lon="4.44333">
        <ele>977.4</ele>
        <time>2015-12-20T10:19:09Z</time>
      </trkpt>
      <trkpt lat="45.34686" lon="4.44328">
        <ele>977.3</ele>
        <time>2015-12-20T10:19:11Z</time>
      </trkpt>
      <trkpt lat="45.34687" lon="4.44324">
        <ele>977.4</ele>
        <time>2015-12-20T10:19:13Z</time>
      </trkpt>
      <trkpt lat="45.3469" lon="4.44321">
        <ele>977.4</ele>
        <time>2015-12-20T10:19:16Z</time>
      </trkpt>
      <trkpt lat="45.34693" lon="4.44319">
        <ele>977.7</ele>
        <time>2015-12-20T10:19:19Z</time>
      </trkpt>
      <trkpt lat="45.34695" lon="4.44323">
        <ele>978</ele>
        <time>2015-12-20T10:19:21Z</time>
      </trkpt>
      <trkpt lat="45.34695" lon="4.44328">
        <ele>978.1</ele>
        <time>2015-12-20T10:19:23Z</time>
      </trkpt>
      <trkpt lat="45.34694" lon="4.44333">
        <ele>978.2</ele>
        <time>2015-12-20T10:19:25Z</time>
      </trkpt>
      <trkpt lat="45.34694" lon="4.44338">
        <ele>978.3</ele>
        <time>2015-12-20T10:19:28Z</time>
      </trkpt>
      <trkpt lat="45.34694" lon="4.44342">
        <ele>978.5</ele>
        <time>2015-12-20T10:19:30Z</time>
      </trkpt>
      <trkpt lat="45.34694" lon="4.44346">
        <ele>978.6</ele>
        <time>2015-12-20T10:19:32Z</time>
      </trkpt>
      <trkpt lat="45.34695" lon="4.4435">
        <ele>978.8</ele>
        <time>2015-12-20T10:19:34Z</time>
      </trkpt>
      <trkpt lat="45.34697" lon="4.44354">
        <ele>979.1</ele>
        <time>2015-12-20T10:19:36Z</time>
      </trkpt>
      <trkpt lat="45.34698" lon="4.44358">
        <ele>979.3</ele>
        <time>2015-12-20T10:19:38Z</time>
      </trkpt>
      <trkpt lat="45.34699" lon="4.44362">
        <ele>979.5</ele>
        <time>2015-12-20T10:19:40Z</time>
      </trkpt>
      <trkpt lat="45.347" lon="4.44366">
        <ele>979.8</ele>
        <time>2015-12-20T10:19:42Z</time>
      </trkpt>
      <trkpt lat="45.347" lon="4.4437">
        <ele>979.9</ele>
        <time>2015-12-20T10:19:44Z</time>
      </trkpt>
      <trkpt lat="45.34701" lon="4.44373">
        <ele>980.1</ele>
        <time>2015-12-20T10:19:46Z</time>
      </trkpt>
      <trkpt lat="45.34702" lon="4.44378">
        <ele>980.3</ele>
        <time>2015-12-20T10:19:49Z</time>
      </trkpt>
      <trkpt lat="45.34704" lon="4.44382">
        <ele>980.5</ele>
        <time>2015-12-20T10:19:51Z</time>
      </trkpt>
      <trkpt lat="45.34705" lon="4.44386">
        <ele>980.5</ele>
        <time>2015-12-20T10:19:53Z</time>
      </trkpt>
      <trkpt lat="45.34707" lon="4.4439">
        <ele>980.7</ele>
        <time>2015-12-20T10:19:55Z</time>
      </trkpt>
      <trkpt lat="45.34708" lon="4.44393">
        <ele>980.8</ele>
        <time>2015-12-20T10:19:57Z</time>
      </trkpt>
      <trkpt lat="45.3471" lon="4.44397">
        <ele>981.1</ele>
        <time>2015-12-20T10:19:59Z</time>
      </trkpt>
      <trkpt lat="45.34712" lon="4.44401">
        <ele>981.5</ele>
        <time>2015-12-20T10:20:01Z</time>
      </trkpt>
      <trkpt lat="45.34714" lon="4.44404">
        <ele>981.8</ele>
        <time>2015-12-20T10:20:03Z</time>
      </trkpt>
      <trkpt lat="45.34716" lon="4.44407">
        <ele>982.2</ele>
        <time>2015-12-20T10:20:05Z</time>
      </trkpt>
      <trkpt lat="45.34718" lon="4.4441">
        <ele>982.5</ele>
        <time>2015-12-20T10:20:07Z</time>
      </trkpt>
      <trkpt lat="45.3472" lon="4.44413">
        <ele>982.9</ele>
        <time>2015-12-20T10:20:09Z</time>
      </trkpt>
      <trkpt lat="45.34722" lon="4.44416">
        <ele>983.3</ele>
        <time>2015-12-20T10:20:11Z</time>
      </trkpt>
      <trkpt lat="45.34724" lon="4.44419">
        <ele>983.7</ele>
        <time>2015-12-20T10:20:13Z</time>
      </trkpt>
      <trkpt lat="45.34726" lon="4.44423">
        <ele>984.1</ele>
        <time>2015-12-20T10:20:15Z</time>
      </trkpt>
      <trkpt lat="45.34727" lon="4.44426">
        <ele>984.4</ele>
        <time>2015-12-20T10:20:17Z</time>
      </trkpt>
      <trkpt lat="45.34729" lon="4.44429">
        <ele>984.8</ele>
        <time>2015-12-20T10:20:19Z</time>
      </trkpt>
      <trkpt lat="45.34731" lon="4.44433">
        <ele>985.1</ele>
        <time>2015-12-20T10:20:21Z</time>
      </trkpt>
      <trkpt lat="45.34733" lon="4.44436">
        <ele>985.5</ele>
        <time>2015-12-20T10:20:23Z</time>
      </trkpt>
      <trkpt lat="45.34735" lon="4.44439">
        <ele>985.9</ele>
        <time>2015-12-20T10:20:25Z</time>
      </trkpt>
      <trkpt lat="45.34737" lon="4.44442">
        <ele>986.3</ele>
        <time>2015-12-20T10:20:27Z</time>
      </trkpt>
      <trkpt lat="45.34739" lon="4.44445">
        <ele>986.7</ele>
        <time>2015-12-20T10:20:29Z</time>
      </trkpt>
      <trkpt lat="45.34742" lon="4.44447">
        <ele>987.2</ele>
        <time>2015-12-20T10:20:31Z</time>
      </trkpt>
      <trkpt lat="45.34745" lon="4.44451">
        <ele>987.9</ele>
        <time>2015-12-20T10:20:34Z</time>
      </trkpt>
      <trkpt lat="45.34747" lon="4.44454">
        <ele>988.3</ele>
        <time>2015-12-20T10:20:36Z</time>
      </trkpt>
      <trkpt lat="45.3475" lon="4.44456">
        <ele>988.9</ele>
        <time>2015-12-20T10:20:38Z</time>
      </trkpt>
      <trkpt lat="45.34753" lon="4.44458">
        <ele>989.6</ele>
        <time>2015-12-20T10:20:40Z</time>
      </trkpt>
      <trkpt lat="45.34756" lon="4.4446">
        <ele>990.2</ele>
        <time>2015-12-20T10:20:42Z</time>
      </trkpt>
      <trkpt lat="45.34759" lon="4.44462">
        <ele>990.8</ele>
        <time>2015-12-20T10:20:44Z</time>
      </trkpt>
      <trkpt lat="45.34761" lon="4.44465">
        <ele>991.4</ele>
        <time>2015-12-20T10:20:46Z</time>
      </trkpt>
      <trkpt lat="45.34764" lon="4.44466">
        <ele>991.9</ele>
        <time>2015-12-20T10:20:48Z</time>
      </trkpt>
      <trkpt lat="45.34767" lon="4.44468">
        <ele>992.4</ele>
        <time>2015-12-20T10:20:50Z</time>
      </trkpt>
      <trkpt lat="45.34769" lon="4.44469">
        <ele>993</ele>
        <time>2015-12-20T10:20:52Z</time>
      </trkpt>
      <trkpt lat="45.34772" lon="4.4447">
        <ele>993.5</ele>
        <time>2015-12-20T10:20:54Z</time>
      </trkpt>
      <trkpt lat="45.34776" lon="4.44471">
        <ele>994.2</ele>
        <time>2015-12-20T10:20:57Z</time>
      </trkpt>
      <trkpt lat="45.34779" lon="4.44471">
        <ele>994.9</ele>
        <time>2015-12-20T10:21:00Z</time>
      </trkpt>
      <trkpt lat="45.34783" lon="4.4447">
        <ele>995.6</ele>
        <time>2015-12-20T10:21:03Z</time>
      </trkpt>
      <trkpt lat="45.34786" lon="4.4447">
        <ele>996.2</ele>
        <time>2015-12-20T10:21:05Z</time>
      </trkpt>
      <trkpt lat="45.34789" lon="4.44469">
        <ele>996.9</ele>
        <time>2015-12-20T10:21:07Z</time>
      </trkpt>
      <trkpt lat="45.34792" lon="4.44468">
        <ele>997.5</ele>
        <time>2015-12-20T10:21:09Z</time>
      </trkpt>
      <trkpt lat="45.34795" lon="4.44467">
        <ele>998.1</ele>
        <time>2015-12-20T10:21:11Z</time>
      </trkpt>
      <trkpt lat="45.34798" lon="4.44467">
        <ele>998.7</ele>
        <time>2015-12-20T10:21:13Z</time>
      </trkpt>
      <trkpt lat="45.34801" lon="4.44466">
        <ele>999.2</ele>
        <time>2015-12-20T10:21:15Z</time>
      </trkpt>
      <trkpt lat="45.34804" lon="4.44466">
        <ele>999.7</ele>
        <time>2015-12-20T10:21:17Z</time>
      </trkpt>
      <trkpt lat="45.34807" lon="4.44466">
        <ele>1000.3</ele>
        <time>2015-12-20T10:21:19Z</time>
      </trkpt>
      <trkpt lat="45.3481" lon="4.44465">
        <ele>1000.9</ele>
        <time>2015-12-20T10:21:21Z</time>
      </trkpt>
      <trkpt lat="45.34813" lon="4.44465">
        <ele>1001.4</ele>
        <time>2015-12-20T10:21:23Z</time>
      </trkpt>
      <trkpt lat="45.34816" lon="4.44465">
        <ele>1002</ele>
        <time>2015-12-20T10:21:25Z</time>
      </trkpt>
      <trkpt lat="45.34818" lon="4.44464">
        <ele>1002.5</ele>
        <time>2015-12-20T10:21:27Z</time>
      </trkpt>
      <trkpt lat="45.34822" lon="4.44462">
        <ele>1003.2</ele>
        <time>2015-12-20T10:21:30Z</time>
      </trkpt>
      <trkpt lat="45.34826" lon="4.44461">
        <ele>1004</ele>
        <time>2015-12-20T10:21:33Z</time>
      </trkpt>
      <trkpt lat="45.34828" lon="4.4446">
        <ele>1004.5</ele>
        <time>2015-12-20T10:21:35Z</time>
      </trkpt>
      <trkpt lat="45.34832" lon="4.44459">
        <ele>1005.2</ele>
        <time>2015-12-20T10:21:38Z</time>
      </trkpt>
      <trkpt lat="45.34836" lon="4.44456">
        <ele>1005.9</ele>
        <time>2015-12-20T10:21:41Z</time>
      </trkpt>
      <trkpt lat="45.34838" lon="4.44455">
        <ele>1006.4</ele>
        <time>2015-12-20T10:21:43Z</time>
      </trkpt>
      <trkpt lat="45.34841" lon="4.44454">
        <ele>1006.9</ele>
        <time>2015-12-20T10:21:45Z</time>
      </trkpt>
      <trkpt lat="45.34844" lon="4.44453">
        <ele>1007.4</ele>
        <time>2015-12-20T10:21:47Z</time>
      </trkpt>
      <trkpt lat="45.34847" lon="4.44452">
        <ele>1008.1</ele>
        <time>2015-12-20T10:21:50Z</time>
      </trkpt>
      <trkpt lat="45.34851" lon="4.44451">
        <ele>1008.7</ele>
        <time>2015-12-20T10:21:53Z</time>
      </trkpt>
      <trkpt lat="45.34854" lon="4.44449">
        <ele>1009.3</ele>
        <time>2015-12-20T10:21:56Z</time>
      </trkpt>
      <trkpt lat="45.34858" lon="4.44449">
        <ele>1009.9</ele>
        <time>2015-12-20T10:21:59Z</time>
      </trkpt>
      <trkpt lat="45.34861" lon="4.44448">
        <ele>1010.5</ele>
        <time>2015-12-20T10:22:02Z</time>
      </trkpt>
      <trkpt lat="45.34864" lon="4.44447">
        <ele>1011.2</ele>
        <time>2015-12-20T10:22:05Z</time>
      </trkpt>
      <trkpt lat="45.34867" lon="4.44446">
        <ele>1011.7</ele>
        <time>2015-12-20T10:22:15Z</time>
      </trkpt>
      <trkpt lat="45.3487" lon="4.44444">
        <ele>1012.2</ele>
        <time>2015-12-20T10:22:18Z</time>
      </trkpt>
      <trkpt lat="45.34876" lon="4.44444">
        <ele>1013.3</ele>
        <time>2015-12-20T10:22:54Z</time>
      </trkpt>
      <trkpt lat="45.3488" lon="4.44442">
        <ele>1013.8</ele>
        <time>2015-12-20T10:22:57Z</time>
      </trkpt>
      <trkpt lat="45.34883" lon="4.4444">
        <ele>1014.4</ele>
        <time>2015-12-20T10:23:00Z</time>
      </trkpt>
      <trkpt lat="45.34885" lon="4.44438">
        <ele>1014.7</ele>
        <time>2015-12-20T10:23:02Z</time>
      </trkpt>
      <trkpt lat="45.34887" lon="4.44435">
        <ele>1015.1</ele>
        <time>2015-12-20T10:23:04Z</time>
      </trkpt>
      <trkpt lat="45.3489" lon="4.44433">
        <ele>1015.5</ele>
        <time>2015-12-20T10:23:06Z</time>
      </trkpt>
      <trkpt lat="45.34894" lon="4.44432">
        <ele>1016.1</ele>
        <time>2015-12-20T10:23:09Z</time>
      </trkpt>
      <trkpt lat="45.34897" lon="4.4443">
        <ele>1016.6</ele>
        <time>2015-12-20T10:23:12Z</time>
      </trkpt>
      <trkpt lat="45.34899" lon="4.44428">
        <ele>1017</ele>
        <time>2015-12-20T10:23:15Z</time>
      </trkpt>
      <trkpt lat="45.34902" lon="4.44425">
        <ele>1017.5</ele>
        <time>2015-12-20T10:23:18Z</time>
      </trkpt>
      <trkpt lat="45.34906" lon="4.44422">
        <ele>1018.1</ele>
        <time>2015-12-20T10:23:21Z</time>
      </trkpt>
      <trkpt lat="45.34909" lon="4.44421">
        <ele>1018.7</ele>
        <time>2015-12-20T10:23:24Z</time>
      </trkpt>
      <trkpt lat="45.34913" lon="4.44419">
        <ele>1019.3</ele>
        <time>2015-12-20T10:23:27Z</time>
      </trkpt>
      <trkpt lat="45.34916" lon="4.44418">
        <ele>1019.8</ele>
        <time>2015-12-20T10:23:29Z</time>
      </trkpt>
      <trkpt lat="45.34919" lon="4.44417">
        <ele>1020.4</ele>
        <time>2015-12-20T10:23:32Z</time>
      </trkpt>
      <trkpt lat="45.34922" lon="4.44416">
        <ele>1020.9</ele>
        <time>2015-12-20T10:23:34Z</time>
      </trkpt>
      <trkpt lat="45.34925" lon="4.44415">
        <ele>1021.4</ele>
        <time>2015-12-20T10:23:36Z</time>
      </trkpt>
      <trkpt lat="45.34928" lon="4.44414">
        <ele>1021.8</ele>
        <time>2015-12-20T10:23:38Z</time>
      </trkpt>
      <trkpt lat="45.34931" lon="4.44412">
        <ele>1022.4</ele>
        <time>2015-12-20T10:23:40Z</time>
      </trkpt>
      <trkpt lat="45.34933" lon="4.44411">
        <ele>1022.9</ele>
        <time>2015-12-20T10:23:42Z</time>
      </trkpt>
      <trkpt lat="45.34937" lon="4.44409">
        <ele>1023.5</ele>
        <time>2015-12-20T10:23:45Z</time>
      </trkpt>
      <trkpt lat="45.34941" lon="4.44407">
        <ele>1024.2</ele>
        <time>2015-12-20T10:23:48Z</time>
      </trkpt>
      <trkpt lat="45.34943" lon="4.44404">
        <ele>1024.8</ele>
        <time>2015-12-20T10:23:50Z</time>
      </trkpt>
      <trkpt lat="45.34946" lon="4.44402">
        <ele>1025.4</ele>
        <time>2015-12-20T10:23:52Z</time>
      </trkpt>
      <trkpt lat="45.34949" lon="4.44401">
        <ele>1025.9</ele>
        <time>2015-12-20T10:23:54Z</time>
      </trkpt>
      <trkpt lat="45.34952" lon="4.444">
        <ele>1026.5</ele>
        <time>2015-12-20T10:23:56Z</time>
      </trkpt>
      <trkpt lat="45.34955" lon="4.44398">
        <ele>1027</ele>
        <time>2015-12-20T10:23:58Z</time>
      </trkpt>
      <trkpt lat="45.34957" lon="4.44396">
        <ele>1027.6</ele>
        <time>2015-12-20T10:24:00Z</time>
      </trkpt>
      <trkpt lat="45.3496" lon="4.44395">
        <ele>1027.9</ele>
        <time>2015-12-20T10:24:02Z</time>
      </trkpt>
      <trkpt lat="45.34963" lon="4.44394">
        <ele>1028.2</ele>
        <time>2015-12-20T10:24:04Z</time>
      </trkpt>
      <trkpt lat="45.34966" lon="4.44393">
        <ele>1028.5</ele>
        <time>2015-12-20T10:24:06Z</time>
      </trkpt>
      <trkpt lat="45.3497" lon="4.44391">
        <ele>1028.8</ele>
        <time>2015-12-20T10:24:08Z</time>
      </trkpt>
      <trkpt lat="45.34972" lon="4.44389">
        <ele>1029.2</ele>
        <time>2015-12-20T10:24:10Z</time>
      </trkpt>
      <trkpt lat="45.34976" lon="4.44386">
        <ele>1029.7</ele>
        <time>2015-12-20T10:24:13Z</time>
      </trkpt>
      <trkpt lat="45.34979" lon="4.44384">
        <ele>1030</ele>
        <time>2015-12-20T10:24:15Z</time>
      </trkpt>
      <trkpt lat="45.34982" lon="4.44382">
        <ele>1030.4</ele>
        <time>2015-12-20T10:24:17Z</time>
      </trkpt>
      <trkpt lat="45.34985" lon="4.44381">
        <ele>1030.7</ele>
        <time>2015-12-20T10:24:19Z</time>
      </trkpt>
      <trkpt lat="45.34988" lon="4.44379">
        <ele>1031.2</ele>
        <time>2015-12-20T10:24:22Z</time>
      </trkpt>
      <trkpt lat="45.34991" lon="4.44378">
        <ele>1031.5</ele>
        <time>2015-12-20T10:24:24Z</time>
      </trkpt>
      <trkpt lat="45.34994" lon="4.44377">
        <ele>1031.9</ele>
        <time>2015-12-20T10:24:26Z</time>
      </trkpt>
      <trkpt lat="45.34997" lon="4.44376">
        <ele>1032.2</ele>
        <time>2015-12-20T10:24:28Z</time>
      </trkpt>
      <trkpt lat="45.35" lon="4.44375">
        <ele>1032.5</ele>
        <time>2015-12-20T10:24:30Z</time>
      </trkpt>
      <trkpt lat="45.35003" lon="4.44373">
        <ele>1032.7</ele>
        <time>2015-12-20T10:24:33Z</time>
      </trkpt>
      <trkpt lat="45.35006" lon="4.44372">
        <ele>1032.9</ele>
        <time>2015-12-20T10:24:36Z</time>
      </trkpt>
      <trkpt lat="45.35009" lon="4.44375">
        <ele>1033.2</ele>
        <time>2015-12-20T10:25:19Z</time>
      </trkpt>
      <trkpt lat="45.35014" lon="4.44377">
        <ele>1033.4</ele>
        <time>2015-12-20T10:27:27Z</time>
      </trkpt>
      <trkpt lat="45.35017" lon="4.44376">
        <ele>1033.8</ele>
        <time>2015-12-20T10:27:29Z</time>
      </trkpt>
      <trkpt lat="45.35021" lon="4.44375">
        <ele>1034.2</ele>
        <time>2015-12-20T10:27:31Z</time>
      </trkpt>
      <trkpt lat="45.35025" lon="4.44376">
        <ele>1034.5</ele>
        <time>2015-12-20T10:27:33Z</time>
      </trkpt>
      <trkpt lat="45.35029" lon="4.44376">
        <ele>1034.9</ele>
        <time>2015-12-20T10:27:35Z</time>
      </trkpt>
      <trkpt lat="45.35034" lon="4.44376">
        <ele>1035.2</ele>
        <time>2015-12-20T10:27:37Z</time>
      </trkpt>
      <trkpt lat="45.35039" lon="4.44376">
        <ele>1035.7</ele>
        <time>2015-12-20T10:27:39Z</time>
      </trkpt>
      <trkpt lat="45.35043" lon="4.44375">
        <ele>1036</ele>
        <time>2015-12-20T10:27:41Z</time>
      </trkpt>
      <trkpt lat="45.35048" lon="4.44373">
        <ele>1035.9</ele>
        <time>2015-12-20T10:27:43Z</time>
      </trkpt>
      <trkpt lat="45.35052" lon="4.44372">
        <ele>1035.8</ele>
        <time>2015-12-20T10:27:45Z</time>
      </trkpt>
      <trkpt lat="45.35058" lon="4.44371">
        <ele>1035.7</ele>
        <time>2015-12-20T10:27:47Z</time>
      </trkpt>
      <trkpt lat="45.3506" lon="4.4437">
        <ele>1035.6</ele>
        <time>2015-12-20T10:27:48Z</time>
      </trkpt>
      <trkpt lat="45.35063" lon="4.44369">
        <ele>1035.5</ele>
        <time>2015-12-20T10:27:49Z</time>
      </trkpt>
      <trkpt lat="45.35066" lon="4.44368">
        <ele>1035.5</ele>
        <time>2015-12-20T10:27:50Z</time>
      </trkpt>
      <trkpt lat="45.35069" lon="4.44367">
        <ele>1035.4</ele>
        <time>2015-12-20T10:27:51Z</time>
      </trkpt>
      <trkpt lat="45.35072" lon="4.44365">
        <ele>1035.3</ele>
        <time>2015-12-20T10:27:52Z</time>
      </trkpt>
      <trkpt lat="45.35075" lon="4.44364">
        <ele>1035.2</ele>
        <time>2015-12-20T10:27:53Z</time>
      </trkpt>
      <trkpt lat="45.35078" lon="4.44363">
        <ele>1035.2</ele>
        <time>2015-12-20T10:27:54Z</time>
      </trkpt>
      <trkpt lat="45.35081" lon="4.44362">
        <ele>1035.1</ele>
        <time>2015-12-20T10:27:55Z</time>
      </trkpt>
      <trkpt lat="45.35084" lon="4.44361">
        <ele>1035.1</ele>
        <time>2015-12-20T10:27:56Z</time>
      </trkpt>
      <trkpt lat="45.35087" lon="4.4436">
        <ele>1035</ele>
        <time>2015-12-20T10:27:57Z</time>
      </trkpt>
      <trkpt lat="45.3509" lon="4.44359">
        <ele>1035</ele>
        <time>2015-12-20T10:27:58Z</time>
      </trkpt>
      <trkpt lat="45.35093" lon="4.44358">
        <ele>1034.9</ele>
        <time>2015-12-20T10:27:59Z</time>
      </trkpt>
      <trkpt lat="45.35097" lon="4.44358">
        <ele>1034.9</ele>
        <time>2015-12-20T10:28:00Z</time>
      </trkpt>
      <trkpt lat="45.351" lon="4.44357">
        <ele>1034.8</ele>
        <time>2015-12-20T10:28:01Z</time>
      </trkpt>
      <trkpt lat="45.35103" lon="4.44356">
        <ele>1034.8</ele>
        <time>2015-12-20T10:28:02Z</time>
      </trkpt>
      <trkpt lat="45.35107" lon="4.44356">
        <ele>1034.7</ele>
        <time>2015-12-20T10:28:03Z</time>
      </trkpt>
      <trkpt lat="45.3511" lon="4.44355">
        <ele>1034.7</ele>
        <time>2015-12-20T10:28:04Z</time>
      </trkpt>
      <trkpt lat="45.35114" lon="4.44355">
        <ele>1034.6</ele>
        <time>2015-12-20T10:28:05Z</time>
      </trkpt>
      <trkpt lat="45.35117" lon="4.44355">
        <ele>1034.6</ele>
        <time>2015-12-20T10:28:06Z</time>
      </trkpt>
      <trkpt lat="45.35121" lon="4.44355">
        <ele>1034.5</ele>
        <time>2015-12-20T10:28:07Z</time>
      </trkpt>
      <trkpt lat="45.35124" lon="4.44355">
        <ele>1034.5</ele>
        <time>2015-12-20T10:28:08Z</time>
      </trkpt>
      <trkpt lat="45.35128" lon="4.44355">
        <ele>1034.5</ele>
        <time>2015-12-20T10:28:09Z</time>
      </trkpt>
      <trkpt lat="45.35131" lon="4.44355">
        <ele>1034.5</ele>
        <time>2015-12-20T10:28:10Z</time>
      </trkpt>
      <trkpt lat="45.35134" lon="4.44355">
        <ele>1034.5</ele>
        <time>2015-12-20T10:28:11Z</time>
      </trkpt>
      <trkpt lat="45.35137" lon="4.44355">
        <ele>1034.5</ele>
        <time>2015-12-20T10:28:12Z</time>
      </trkpt>
      <trkpt lat="45.35141" lon="4.44355">
        <ele>1034.5</ele>
        <time>2015-12-20T10:28:13Z</time>
      </trkpt>
      <trkpt lat="45.35144" lon="4.44355">
        <ele>1034.5</ele>
        <time>2015-12-20T10:28:14Z</time>
      </trkpt>
      <trkpt lat="45.35147" lon="4.44355">
        <ele>1034.4</ele>
        <time>2015-12-20T10:28:15Z</time>
      </trkpt>
      <trkpt lat="45.35151" lon="4.44355">
        <ele>1034.4</ele>
        <time>2015-12-20T10:28:16Z</time>
      </trkpt>
      <trkpt lat="45.35154" lon="4.44355">
        <ele>1034.4</ele>
        <time>2015-12-20T10:28:17Z</time>
      </trkpt>
      <trkpt lat="45.35158" lon="4.44355">
        <ele>1034.4</ele>
        <time>2015-12-20T10:28:18Z</time>
      </trkpt>
      <trkpt lat="45.35162" lon="4.44355">
        <ele>1034.4</ele>
        <time>2015-12-20T10:28:19Z</time>
      </trkpt>
      <trkpt lat="45.35165" lon="4.44354">
        <ele>1034.4</ele>
        <time>2015-12-20T10:28:20Z</time>
      </trkpt>
      <trkpt lat="45.35169" lon="4.44353">
        <ele>1034.3</ele>
        <time>2015-12-20T10:28:21Z</time>
      </trkpt>
      <trkpt lat="45.35172" lon="4.44352">
        <ele>1034.3</ele>
        <time>2015-12-20T10:28:22Z</time>
      </trkpt>
      <trkpt lat="45.35175" lon="4.44352">
        <ele>1034.3</ele>
        <time>2015-12-20T10:28:23Z</time>
      </trkpt>
      <trkpt lat="45.35178" lon="4.44351">
        <ele>1034.3</ele>
        <time>2015-12-20T10:28:24Z</time>
      </trkpt>
      <trkpt lat="45.35181" lon="4.44352">
        <ele>1034.2</ele>
        <time>2015-12-20T10:28:25Z</time>
      </trkpt>
      <trkpt lat="45.35187" lon="4.44352">
        <ele>1034.2</ele>
        <time>2015-12-20T10:28:27Z</time>
      </trkpt>
      <trkpt lat="45.35192" lon="4.44352">
        <ele>1034.2</ele>
        <time>2015-12-20T10:28:29Z</time>
      </trkpt>
      <trkpt lat="45.35197" lon="4.44352">
        <ele>1034.2</ele>
        <time>2015-12-20T10:28:31Z</time>
      </trkpt>
      <trkpt lat="45.35201" lon="4.44352">
        <ele>1034.2</ele>
        <time>2015-12-20T10:28:32Z</time>
      </trkpt>
      <trkpt lat="45.35205" lon="4.44353">
        <ele>1034.2</ele>
        <time>2015-12-20T10:28:33Z</time>
      </trkpt>
      <trkpt lat="45.35208" lon="4.44353">
        <ele>1034.2</ele>
        <time>2015-12-20T10:28:34Z</time>
      </trkpt>
      <trkpt lat="45.35212" lon="4.44353">
        <ele>1034.1</ele>
        <time>2015-12-20T10:28:35Z</time>
      </trkpt>
      <trkpt lat="45.35215" lon="4.44353">
        <ele>1034.1</ele>
        <time>2015-12-20T10:28:36Z</time>
      </trkpt>
      <trkpt lat="45.35218" lon="4.44353">
        <ele>1034</ele>
        <time>2015-12-20T10:28:37Z</time>
      </trkpt>
      <trkpt lat="45.35221" lon="4.44353">
        <ele>1033.9</ele>
        <time>2015-12-20T10:28:38Z</time>
      </trkpt>
      <trkpt lat="45.35226" lon="4.44352">
        <ele>1033.8</ele>
        <time>2015-12-20T10:28:40Z</time>
      </trkpt>
      <trkpt lat="45.35229" lon="4.44351">
        <ele>1033.7</ele>
        <time>2015-12-20T10:28:41Z</time>
      </trkpt>
      <trkpt lat="45.35232" lon="4.44351">
        <ele>1033.6</ele>
        <time>2015-12-20T10:28:42Z</time>
      </trkpt>
      <trkpt lat="45.35237" lon="4.4435">
        <ele>1033.5</ele>
        <time>2015-12-20T10:28:44Z</time>
      </trkpt>
      <trkpt lat="45.35243" lon="4.4435">
        <ele>1033.4</ele>
        <time>2015-12-20T10:28:46Z</time>
      </trkpt>
      <trkpt lat="45.35246" lon="4.4435">
        <ele>1033.4</ele>
        <time>2015-12-20T10:28:47Z</time>
      </trkpt>
      <trkpt lat="45.35249" lon="4.44351">
        <ele>1033.3</ele>
        <time>2015-12-20T10:28:48Z</time>
      </trkpt>
      <trkpt lat="45.35251" lon="4.44351">
        <ele>1033.3</ele>
        <time>2015-12-20T10:28:49Z</time>
      </trkpt>
      <trkpt lat="45.35256" lon="4.44352">
        <ele>1033.2</ele>
        <time>2015-12-20T10:28:51Z</time>
      </trkpt>
      <trkpt lat="45.35261" lon="4.44353">
        <ele>1033.1</ele>
        <time>2015-12-20T10:28:53Z</time>
      </trkpt>
      <trkpt lat="45.35265" lon="4.44353">
        <ele>1033</ele>
        <time>2015-12-20T10:28:55Z</time>
      </trkpt>
      <trkpt lat="45.35269" lon="4.44353">
        <ele>1033</ele>
        <time>2015-12-20T10:28:57Z</time>
      </trkpt>
      <trkpt lat="45.35273" lon="4.44355">
        <ele>1032.9</ele>
        <time>2015-12-20T10:28:59Z</time>
      </trkpt>
      <trkpt lat="45.35278" lon="4.44356">
        <ele>1032.8</ele>
        <time>2015-12-20T10:29:01Z</time>
      </trkpt>
      <trkpt lat="45.35283" lon="4.44357">
        <ele>1032.8</ele>
        <time>2015-12-20T10:29:03Z</time>
      </trkpt>
      <trkpt lat="45.35286" lon="4.44357">
        <ele>1032.7</ele>
        <time>2015-12-20T10:29:04Z</time>
      </trkpt>
      <trkpt lat="45.35288" lon="4.44357">
        <ele>1032.6</ele>
        <time>2015-12-20T10:29:05Z</time>
      </trkpt>
      <trkpt lat="45.35293" lon="4.44357">
        <ele>1032.6</ele>
        <time>2015-12-20T10:29:07Z</time>
      </trkpt>
      <trkpt lat="45.35298" lon="4.44357">
        <ele>1032.7</ele>
        <time>2015-12-20T10:29:09Z</time>
      </trkpt>
      <trkpt lat="45.35303" lon="4.44357">
        <ele>1032.8</ele>
        <time>2015-12-20T10:29:11Z</time>
      </trkpt>
      <trkpt lat="45.35308" lon="4.44356">
        <ele>1032.9</ele>
        <time>2015-12-20T10:29:13Z</time>
      </trkpt>
      <trkpt lat="45.35313" lon="4.44356">
        <ele>1033</ele>
        <time>2015-12-20T10:29:15Z</time>
      </trkpt>
      <trkpt lat="45.35318" lon="4.44355">
        <ele>1033.1</ele>
        <time>2015-12-20T10:29:17Z</time>
      </trkpt>
      <trkpt lat="45.35323" lon="4.44355">
        <ele>1033.2</ele>
        <time>2015-12-20T10:29:19Z</time>
      </trkpt>
      <trkpt lat="45.35327" lon="4.44355">
        <ele>1033.3</ele>
        <time>2015-12-20T10:29:21Z</time>
      </trkpt>
      <trkpt lat="45.35332" lon="4.44355">
        <ele>1033.4</ele>
        <time>2015-12-20T10:29:23Z</time>
      </trkpt>
      <trkpt lat="45.35337" lon="4.44355">
        <ele>1033.5</ele>
        <time>2015-12-20T10:29:25Z</time>
      </trkpt>
      <trkpt lat="45.35342" lon="4.44354">
        <ele>1033.6</ele>
        <time>2015-12-20T10:29:27Z</time>
      </trkpt>
      <trkpt lat="45.35346" lon="4.44354">
        <ele>1033.6</ele>
        <time>2015-12-20T10:29:29Z</time>
      </trkpt>
      <trkpt lat="45.35351" lon="4.44354">
        <ele>1033.7</ele>
        <time>2015-12-20T10:29:31Z</time>
      </trkpt>
      <trkpt lat="45.35356" lon="4.44355">
        <ele>1033.8</ele>
        <time>2015-12-20T10:29:33Z</time>
      </trkpt>
      <trkpt lat="45.3536" lon="4.44355">
        <ele>1033.9</ele>
        <time>2015-12-20T10:29:35Z</time>
      </trkpt>
      <trkpt lat="45.35364" lon="4.44355">
        <ele>1034</ele>
        <time>2015-12-20T10:29:37Z</time>
      </trkpt>
      <trkpt lat="45.35368" lon="4.44355">
        <ele>1034.1</ele>
        <time>2015-12-20T10:29:39Z</time>
      </trkpt>
      <trkpt lat="45.35372" lon="4.44356">
        <ele>1034.2</ele>
        <time>2015-12-20T10:29:41Z</time>
      </trkpt>
      <trkpt lat="45.35375" lon="4.44358">
        <ele>1034.2</ele>
        <time>2015-12-20T10:29:43Z</time>
      </trkpt>
      <trkpt lat="45.35379" lon="4.44361">
        <ele>1034.4</ele>
        <time>2015-12-20T10:29:45Z</time>
      </trkpt>
      <trkpt lat="45.35382" lon="4.44367">
        <ele>1034.5</ele>
        <time>2015-12-20T10:29:47Z</time>
      </trkpt>
      <trkpt lat="45.35385" lon="4.44373">
        <ele>1034.5</ele>
        <time>2015-12-20T10:29:49Z</time>
      </trkpt>
      <trkpt lat="45.35386" lon="4.44376">
        <ele>1034.5</ele>
        <time>2015-12-20T10:29:50Z</time>
      </trkpt>
      <trkpt lat="45.35388" lon="4.44379">
        <ele>1034.4</ele>
        <time>2015-12-20T10:29:51Z</time>
      </trkpt>
      <trkpt lat="45.3539" lon="4.44382">
        <ele>1034.3</ele>
        <time>2015-12-20T10:29:52Z</time>
      </trkpt>
      <trkpt lat="45.35392" lon="4.44385">
        <ele>1034.2</ele>
        <time>2015-12-20T10:29:53Z</time>
      </trkpt>
      <trkpt lat="45.35395" lon="4.44389">
        <ele>1034.2</ele>
        <time>2015-12-20T10:29:54Z</time>
      </trkpt>
      <trkpt lat="45.35397" lon="4.44393">
        <ele>1034.1</ele>
        <time>2015-12-20T10:29:55Z</time>
      </trkpt>
      <trkpt lat="45.35399" lon="4.44397">
        <ele>1033.9</ele>
        <time>2015-12-20T10:29:56Z</time>
      </trkpt>
      <trkpt lat="45.35402" lon="4.44401">
        <ele>1033.8</ele>
        <time>2015-12-20T10:29:57Z</time>
      </trkpt>
      <trkpt lat="45.35404" lon="4.44405">
        <ele>1033.7</ele>
        <time>2015-12-20T10:29:58Z</time>
      </trkpt>
      <trkpt lat="45.35406" lon="4.44408">
        <ele>1033.6</ele>
        <time>2015-12-20T10:29:59Z</time>
      </trkpt>
      <trkpt lat="45.35408" lon="4.44412">
        <ele>1033.6</ele>
        <time>2015-12-20T10:30:00Z</time>
      </trkpt>
      <trkpt lat="45.3541" lon="4.44415">
        <ele>1033.5</ele>
        <time>2015-12-20T10:30:01Z</time>
      </trkpt>
      <trkpt lat="45.35412" lon="4.44419">
        <ele>1033.4</ele>
        <time>2015-12-20T10:30:02Z</time>
      </trkpt>
      <trkpt lat="45.35415" lon="4.44423">
        <ele>1033.3</ele>
        <time>2015-12-20T10:30:03Z</time>
      </trkpt>
      <trkpt lat="45.35417" lon="4.44426">
        <ele>1033.3</ele>
        <time>2015-12-20T10:30:04Z</time>
      </trkpt>
      <trkpt lat="45.3542" lon="4.4443">
        <ele>1033.2</ele>
        <time>2015-12-20T10:30:05Z</time>
      </trkpt>
      <trkpt lat="45.35422" lon="4.44434">
        <ele>1033.1</ele>
        <time>2015-12-20T10:30:06Z</time>
      </trkpt>
      <trkpt lat="45.35425" lon="4.44438">
        <ele>1033.1</ele>
        <time>2015-12-20T10:30:07Z</time>
      </trkpt>
      <trkpt lat="45.35428" lon="4.44442">
        <ele>1033</ele>
        <time>2015-12-20T10:30:08Z</time>
      </trkpt>
      <trkpt lat="45.3543" lon="4.44446">
        <ele>1032.9</ele>
        <time>2015-12-20T10:30:09Z</time>
      </trkpt>
      <trkpt lat="45.35433" lon="4.4445">
        <ele>1032.9</ele>
        <time>2015-12-20T10:30:10Z</time>
      </trkpt>
      <trkpt lat="45.35435" lon="4.44453">
        <ele>1032.8</ele>
        <time>2015-12-20T10:30:11Z</time>
      </trkpt>
      <trkpt lat="45.35437" lon="4.44457">
        <ele>1032.8</ele>
        <time>2015-12-20T10:30:12Z</time>
      </trkpt>
      <trkpt lat="45.35439" lon="4.4446">
        <ele>1032.7</ele>
        <time>2015-12-20T10:30:13Z</time>
      </trkpt>
      <trkpt lat="45.35441" lon="4.44463">
        <ele>1032.6</ele>
        <time>2015-12-20T10:30:14Z</time>
      </trkpt>
      <trkpt lat="45.35442" lon="4.44467">
        <ele>1032.5</ele>
        <time>2015-12-20T10:30:15Z</time>
      </trkpt>
      <trkpt lat="45.35444" lon="4.4447">
        <ele>1032.4</ele>
        <time>2015-12-20T10:30:16Z</time>
      </trkpt>
      <trkpt lat="45.35446" lon="4.44474">
        <ele>1032.3</ele>
        <time>2015-12-20T10:30:17Z</time>
      </trkpt>
      <trkpt lat="45.35448" lon="4.44477">
        <ele>1032.2</ele>
        <time>2015-12-20T10:30:18Z</time>
      </trkpt>
      <trkpt lat="45.3545" lon="4.44481">
        <ele>1032.1</ele>
        <time>2015-12-20T10:30:19Z</time>
      </trkpt>
      <trkpt lat="45.35452" lon="4.44484">
        <ele>1032</ele>
        <time>2015-12-20T10:30:20Z</time>
      </trkpt>
      <trkpt lat="45.35454" lon="4.44487">
        <ele>1032</ele>
        <time>2015-12-20T10:30:21Z</time>
      </trkpt>
      <trkpt lat="45.35456" lon="4.4449">
        <ele>1031.9</ele>
        <time>2015-12-20T10:30:22Z</time>
      </trkpt>
      <trkpt lat="45.35458" lon="4.44493">
        <ele>1031.9</ele>
        <time>2015-12-20T10:30:23Z</time>
      </trkpt>
      <trkpt lat="45.3546" lon="4.44496">
        <ele>1031.9</ele>
        <time>2015-12-20T10:30:24Z</time>
      </trkpt>
      <trkpt lat="45.35463" lon="4.44502">
        <ele>1031.8</ele>
        <time>2015-12-20T10:30:26Z</time>
      </trkpt>
      <trkpt lat="45.35467" lon="4.44507">
        <ele>1031.8</ele>
        <time>2015-12-20T10:30:28Z</time>
      </trkpt>
      <trkpt lat="45.35471" lon="4.44511">
        <ele>1032</ele>
        <time>2015-12-20T10:30:30Z</time>
      </trkpt>
      <trkpt lat="45.35475" lon="4.44515">
        <ele>1032.2</ele>
        <time>2015-12-20T10:30:32Z</time>
      </trkpt>
      <trkpt lat="45.35479" lon="4.44517">
        <ele>1032.5</ele>
        <time>2015-12-20T10:30:34Z</time>
      </trkpt>
      <trkpt lat="45.35483" lon="4.44519">
        <ele>1032.8</ele>
        <time>2015-12-20T10:30:36Z</time>
      </trkpt>
      <trkpt lat="45.35488" lon="4.4452">
        <ele>1033.3</ele>
        <time>2015-12-20T10:30:38Z</time>
      </trkpt>
      <trkpt lat="45.35493" lon="4.44521">
        <ele>1033.7</ele>
        <time>2015-12-20T10:30:40Z</time>
      </trkpt>
      <trkpt lat="45.35497" lon="4.44522">
        <ele>1034.2</ele>
        <time>2015-12-20T10:30:42Z</time>
      </trkpt>
      <trkpt lat="45.35502" lon="4.44523">
        <ele>1034.7</ele>
        <time>2015-12-20T10:30:44Z</time>
      </trkpt>
      <trkpt lat="45.35507" lon="4.44524">
        <ele>1035.1</ele>
        <time>2015-12-20T10:30:46Z</time>
      </trkpt>
      <trkpt lat="45.35511" lon="4.44525">
        <ele>1035.6</ele>
        <time>2015-12-20T10:30:48Z</time>
      </trkpt>
      <trkpt lat="45.35516" lon="4.44525">
        <ele>1036.1</ele>
        <time>2015-12-20T10:30:50Z</time>
      </trkpt>
      <trkpt lat="45.3552" lon="4.44526">
        <ele>1036.5</ele>
        <time>2015-12-20T10:30:52Z</time>
      </trkpt>
      <trkpt lat="45.35524" lon="4.44527">
        <ele>1037</ele>
        <time>2015-12-20T10:30:54Z</time>
      </trkpt>
      <trkpt lat="45.35528" lon="4.44527">
        <ele>1037.4</ele>
        <time>2015-12-20T10:30:56Z</time>
      </trkpt>
      <trkpt lat="45.35532" lon="4.44527">
        <ele>1037.8</ele>
        <time>2015-12-20T10:30:58Z</time>
      </trkpt>
      <trkpt lat="45.35536" lon="4.44529">
        <ele>1038.2</ele>
        <time>2015-12-20T10:31:00Z</time>
      </trkpt>
      <trkpt lat="45.3554" lon="4.44529">
        <ele>1038.6</ele>
        <time>2015-12-20T10:31:02Z</time>
      </trkpt>
      <trkpt lat="45.35543" lon="4.4453">
        <ele>1039</ele>
        <time>2015-12-20T10:31:04Z</time>
      </trkpt>
      <trkpt lat="45.35547" lon="4.4453">
        <ele>1039.5</ele>
        <time>2015-12-20T10:31:06Z</time>
      </trkpt>
      <trkpt lat="45.35551" lon="4.4453">
        <ele>1040</ele>
        <time>2015-12-20T10:31:08Z</time>
      </trkpt>
      <trkpt lat="45.35555" lon="4.4453">
        <ele>1040.5</ele>
        <time>2015-12-20T10:31:10Z</time>
      </trkpt>
      <trkpt lat="45.35558" lon="4.44531">
        <ele>1040.9</ele>
        <time>2015-12-20T10:31:12Z</time>
      </trkpt>
      <trkpt lat="45.35561" lon="4.44533">
        <ele>1041.3</ele>
        <time>2015-12-20T10:31:14Z</time>
      </trkpt>
      <trkpt lat="45.35565" lon="4.44534">
        <ele>1041.7</ele>
        <time>2015-12-20T10:31:16Z</time>
      </trkpt>
      <trkpt lat="45.35569" lon="4.44535">
        <ele>1042.2</ele>
        <time>2015-12-20T10:31:18Z</time>
      </trkpt>
      <trkpt lat="45.35572" lon="4.44535">
        <ele>1042.6</ele>
        <time>2015-12-20T10:31:20Z</time>
      </trkpt>
      <trkpt lat="45.35576" lon="4.44536">
        <ele>1043.1</ele>
        <time>2015-12-20T10:31:22Z</time>
      </trkpt>
      <trkpt lat="45.35579" lon="4.44536">
        <ele>1043.5</ele>
        <time>2015-12-20T10:31:24Z</time>
      </trkpt>
      <trkpt lat="45.35584" lon="4.44537">
        <ele>1044</ele>
        <time>2015-12-20T10:31:26Z</time>
      </trkpt>
      <trkpt lat="45.35588" lon="4.44538">
        <ele>1044.5</ele>
        <time>2015-12-20T10:31:28Z</time>
      </trkpt>
      <trkpt lat="45.35592" lon="4.44539">
        <ele>1045</ele>
        <time>2015-12-20T10:31:30Z</time>
      </trkpt>
      <trkpt lat="45.35595" lon="4.4454">
        <ele>1045.4</ele>
        <time>2015-12-20T10:31:32Z</time>
      </trkpt>
      <trkpt lat="45.35599" lon="4.44541">
        <ele>1045.9</ele>
        <time>2015-12-20T10:31:34Z</time>
      </trkpt>
      <trkpt lat="45.35603" lon="4.44542">
        <ele>1046.3</ele>
        <time>2015-12-20T10:31:36Z</time>
      </trkpt>
      <trkpt lat="45.35607" lon="4.44542">
        <ele>1046.7</ele>
        <time>2015-12-20T10:31:38Z</time>
      </trkpt>
      <trkpt lat="45.35611" lon="4.44543">
        <ele>1047.2</ele>
        <time>2015-12-20T10:31:40Z</time>
      </trkpt>
      <trkpt lat="45.35615" lon="4.44544">
        <ele>1047.6</ele>
        <time>2015-12-20T10:31:42Z</time>
      </trkpt>
      <trkpt lat="45.35619" lon="4.44544">
        <ele>1048.1</ele>
        <time>2015-12-20T10:31:44Z</time>
      </trkpt>
      <trkpt lat="45.35624" lon="4.44545">
        <ele>1048.5</ele>
        <time>2015-12-20T10:31:46Z</time>
      </trkpt>
      <trkpt lat="45.35628" lon="4.44546">
        <ele>1048.7</ele>
        <time>2015-12-20T10:31:48Z</time>
      </trkpt>
      <trkpt lat="45.35632" lon="4.44547">
        <ele>1048.8</ele>
        <time>2015-12-20T10:31:50Z</time>
      </trkpt>
      <trkpt lat="45.35636" lon="4.44548">
        <ele>1049</ele>
        <time>2015-12-20T10:31:52Z</time>
      </trkpt>
      <trkpt lat="45.35641" lon="4.44549">
        <ele>1049</ele>
        <time>2015-12-20T10:31:54Z</time>
      </trkpt>
      <trkpt lat="45.35645" lon="4.44551">
        <ele>1049</ele>
        <time>2015-12-20T10:31:56Z</time>
      </trkpt>
      <trkpt lat="45.3565" lon="4.44553">
        <ele>1049.1</ele>
        <time>2015-12-20T10:31:58Z</time>
      </trkpt>
      <trkpt lat="45.35653" lon="4.44553">
        <ele>1049.1</ele>
        <time>2015-12-20T10:31:59Z</time>
      </trkpt>
      <trkpt lat="45.35656" lon="4.44554">
        <ele>1049.2</ele>
        <time>2015-12-20T10:32:00Z</time>
      </trkpt>
      <trkpt lat="45.35659" lon="4.44554">
        <ele>1049.3</ele>
        <time>2015-12-20T10:32:01Z</time>
      </trkpt>
      <trkpt lat="45.35662" lon="4.44554">
        <ele>1049.4</ele>
        <time>2015-12-20T10:32:02Z</time>
      </trkpt>
      <trkpt lat="45.35666" lon="4.44555">
        <ele>1049.5</ele>
        <time>2015-12-20T10:32:03Z</time>
      </trkpt>
      <trkpt lat="45.35669" lon="4.44555">
        <ele>1049.7</ele>
        <time>2015-12-20T10:32:04Z</time>
      </trkpt>
      <trkpt lat="45.35672" lon="4.44555">
        <ele>1049.8</ele>
        <time>2015-12-20T10:32:05Z</time>
      </trkpt>
      <trkpt lat="45.35676" lon="4.44556">
        <ele>1049.8</ele>
        <time>2015-12-20T10:32:06Z</time>
      </trkpt>
      <trkpt lat="45.35679" lon="4.44558">
        <ele>1049.8</ele>
        <time>2015-12-20T10:32:07Z</time>
      </trkpt>
      <trkpt lat="45.35683" lon="4.44559">
        <ele>1049.8</ele>
        <time>2015-12-20T10:32:08Z</time>
      </trkpt>
      <trkpt lat="45.35686" lon="4.44561">
        <ele>1049.8</ele>
        <time>2015-12-20T10:32:09Z</time>
      </trkpt>
      <trkpt lat="45.35689" lon="4.44562">
        <ele>1049.8</ele>
        <time>2015-12-20T10:32:10Z</time>
      </trkpt>
      <trkpt lat="45.35693" lon="4.44562">
        <ele>1049.9</ele>
        <time>2015-12-20T10:32:11Z</time>
      </trkpt>
      <trkpt lat="45.35696" lon="4.44563">
        <ele>1049.9</ele>
        <time>2015-12-20T10:32:12Z</time>
      </trkpt>
      <trkpt lat="45.35699" lon="4.44564">
        <ele>1049.9</ele>
        <time>2015-12-20T10:32:13Z</time>
      </trkpt>
      <trkpt lat="45.35702" lon="4.44565">
        <ele>1050</ele>
        <time>2015-12-20T10:32:14Z</time>
      </trkpt>
      <trkpt lat="45.35707" lon="4.44566">
        <ele>1050</ele>
        <time>2015-12-20T10:32:16Z</time>
      </trkpt>
      <trkpt lat="45.35712" lon="4.44567">
        <ele>1049.9</ele>
        <time>2015-12-20T10:32:18Z</time>
      </trkpt>
      <trkpt lat="45.35716" lon="4.44569">
        <ele>1049.8</ele>
        <time>2015-12-20T10:32:20Z</time>
      </trkpt>
      <trkpt lat="45.35719" lon="4.44571">
        <ele>1049.6</ele>
        <time>2015-12-20T10:32:22Z</time>
      </trkpt>
      <trkpt lat="45.35722" lon="4.44572">
        <ele>1049.4</ele>
        <time>2015-12-20T10:32:24Z</time>
      </trkpt>
      <trkpt lat="45.35726" lon="4.44575">
        <ele>1049.2</ele>
        <time>2015-12-20T10:32:26Z</time>
      </trkpt>
      <trkpt lat="45.3573" lon="4.44578">
        <ele>1049</ele>
        <time>2015-12-20T10:32:28Z</time>
      </trkpt>
      <trkpt lat="45.35735" lon="4.44579">
        <ele>1048.9</ele>
        <time>2015-12-20T10:32:30Z</time>
      </trkpt>
      <trkpt lat="45.35739" lon="4.44581">
        <ele>1048.8</ele>
        <time>2015-12-20T10:32:32Z</time>
      </trkpt>
      <trkpt lat="45.35743" lon="4.44583">
        <ele>1048.7</ele>
        <time>2015-12-20T10:32:34Z</time>
      </trkpt>
      <trkpt lat="45.35747" lon="4.44584">
        <ele>1048.6</ele>
        <time>2015-12-20T10:32:36Z</time>
      </trkpt>
      <trkpt lat="45.35751" lon="4.44585">
        <ele>1048.6</ele>
        <time>2015-12-20T10:32:38Z</time>
      </trkpt>
      <trkpt lat="45.35756" lon="4.44586">
        <ele>1048.6</ele>
        <time>2015-12-20T10:32:40Z</time>
      </trkpt>
      <trkpt lat="45.3576" lon="4.44588">
        <ele>1048.6</ele>
        <time>2015-12-20T10:32:42Z</time>
      </trkpt>
      <trkpt lat="45.35763" lon="4.4459">
        <ele>1048.6</ele>
        <time>2015-12-20T10:32:44Z</time>
      </trkpt>
      <trkpt lat="45.35767" lon="4.4459">
        <ele>1048.6</ele>
        <time>2015-12-20T10:32:46Z</time>
      </trkpt>
      <trkpt lat="45.3577" lon="4.44591">
        <ele>1048.7</ele>
        <time>2015-12-20T10:32:48Z</time>
      </trkpt>
      <trkpt lat="45.35774" lon="4.44592">
        <ele>1048.7</ele>
        <time>2015-12-20T10:32:50Z</time>
      </trkpt>
      <trkpt lat="45.35778" lon="4.44593">
        <ele>1048.8</ele>
        <time>2015-12-20T10:32:52Z</time>
      </trkpt>
      <trkpt lat="45.35782" lon="4.44595">
        <ele>1048.8</ele>
        <time>2015-12-20T10:32:54Z</time>
      </trkpt>
      <trkpt lat="45.35786" lon="4.44596">
        <ele>1048.9</ele>
        <time>2015-12-20T10:32:56Z</time>
      </trkpt>
      <trkpt lat="45.3579" lon="4.44597">
        <ele>1049</ele>
        <time>2015-12-20T10:32:58Z</time>
      </trkpt>
      <trkpt lat="45.35793" lon="4.44599">
        <ele>1049</ele>
        <time>2015-12-20T10:33:00Z</time>
      </trkpt>
      <trkpt lat="45.35797" lon="4.44601">
        <ele>1049</ele>
        <time>2015-12-20T10:33:02Z</time>
      </trkpt>
      <trkpt lat="45.358" lon="4.44602">
        <ele>1049</ele>
        <time>2015-12-20T10:33:04Z</time>
      </trkpt>
      <trkpt lat="45.35804" lon="4.44603">
        <ele>1049</ele>
        <time>2015-12-20T10:33:06Z</time>
      </trkpt>
      <trkpt lat="45.35808" lon="4.44604">
        <ele>1049.1</ele>
        <time>2015-12-20T10:33:08Z</time>
      </trkpt>
      <trkpt lat="45.35811" lon="4.44606">
        <ele>1049.1</ele>
        <time>2015-12-20T10:33:10Z</time>
      </trkpt>
      <trkpt lat="45.35815" lon="4.44607">
        <ele>1049.1</ele>
        <time>2015-12-20T10:33:12Z</time>
      </trkpt>
      <trkpt lat="45.35818" lon="4.44609">
        <ele>1049.1</ele>
        <time>2015-12-20T10:33:14Z</time>
      </trkpt>
      <trkpt lat="45.35821" lon="4.4461">
        <ele>1049.2</ele>
        <time>2015-12-20T10:33:16Z</time>
      </trkpt>
      <trkpt lat="45.35823" lon="4.44611">
        <ele>1049.2</ele>
        <time>2015-12-20T10:33:18Z</time>
      </trkpt>
      <trkpt lat="45.35826" lon="4.44612">
        <ele>1049.2</ele>
        <time>2015-12-20T10:33:20Z</time>
      </trkpt>
      <trkpt lat="45.35829" lon="4.44614">
        <ele>1049.2</ele>
        <time>2015-12-20T10:33:23Z</time>
      </trkpt>
      <trkpt lat="45.35832" lon="4.44613">
        <ele>1049.3</ele>
        <time>2015-12-20T10:34:26Z</time>
      </trkpt>
      <trkpt lat="45.35831" lon="4.44607">
        <ele>1049.5</ele>
        <time>2015-12-20T10:34:29Z</time>
      </trkpt>
      <trkpt lat="45.35829" lon="4.44604">
        <ele>1049.6</ele>
        <time>2015-12-20T10:34:31Z</time>
      </trkpt>
      <trkpt lat="45.35827" lon="4.44599">
        <ele>1049.7</ele>
        <time>2015-12-20T10:34:33Z</time>
      </trkpt>
      <trkpt lat="45.35826" lon="4.44594">
        <ele>1049.8</ele>
        <time>2015-12-20T10:34:35Z</time>
      </trkpt>
      <trkpt lat="45.35823" lon="4.44589">
        <ele>1049.9</ele>
        <time>2015-12-20T10:34:37Z</time>
      </trkpt>
      <trkpt lat="45.35822" lon="4.44584">
        <ele>1050</ele>
        <time>2015-12-20T10:34:39Z</time>
      </trkpt>
      <trkpt lat="45.3582" lon="4.44578">
        <ele>1050.2</ele>
        <time>2015-12-20T10:34:41Z</time>
      </trkpt>
      <trkpt lat="45.35819" lon="4.44572">
        <ele>1050.4</ele>
        <time>2015-12-20T10:34:43Z</time>
      </trkpt>
      <trkpt lat="45.35816" lon="4.44567">
        <ele>1050.5</ele>
        <time>2015-12-20T10:34:45Z</time>
      </trkpt>
      <trkpt lat="45.35813" lon="4.44561">
        <ele>1050.6</ele>
        <time>2015-12-20T10:34:47Z</time>
      </trkpt>
      <trkpt lat="45.35811" lon="4.44558">
        <ele>1050.7</ele>
        <time>2015-12-20T10:34:48Z</time>
      </trkpt>
      <trkpt lat="45.35809" lon="4.44555">
        <ele>1050.8</ele>
        <time>2015-12-20T10:34:49Z</time>
      </trkpt>
      <trkpt lat="45.35807" lon="4.44552">
        <ele>1050.8</ele>
        <time>2015-12-20T10:34:50Z</time>
      </trkpt>
      <trkpt lat="45.35805" lon="4.44545">
        <ele>1051</ele>
        <time>2015-12-20T10:34:52Z</time>
      </trkpt>
      <trkpt lat="45.35803" lon="4.44539">
        <ele>1051.3</ele>
        <time>2015-12-20T10:34:54Z</time>
      </trkpt>
      <trkpt lat="45.358" lon="4.44533">
        <ele>1051.5</ele>
        <time>2015-12-20T10:34:56Z</time>
      </trkpt>
      <trkpt lat="45.35797" lon="4.44527">
        <ele>1051.8</ele>
        <time>2015-12-20T10:34:58Z</time>
      </trkpt>
      <trkpt lat="45.35795" lon="4.44521">
        <ele>1052.1</ele>
        <time>2015-12-20T10:35:00Z</time>
      </trkpt>
      <trkpt lat="45.35793" lon="4.44514">
        <ele>1052.4</ele>
        <time>2015-12-20T10:35:02Z</time>
      </trkpt>
      <trkpt lat="45.35791" lon="4.44508">
        <ele>1052.6</ele>
        <time>2015-12-20T10:35:04Z</time>
      </trkpt>
      <trkpt lat="45.3579" lon="4.44503">
        <ele>1052.9</ele>
        <time>2015-12-20T10:35:06Z</time>
      </trkpt>
      <trkpt lat="45.3579" lon="4.44497">
        <ele>1053.2</ele>
        <time>2015-12-20T10:35:08Z</time>
      </trkpt>
      <trkpt lat="45.35792" lon="4.44492">
        <ele>1053.4</ele>
        <time>2015-12-20T10:35:10Z</time>
      </trkpt>
      <trkpt lat="45.35795" lon="4.44487">
        <ele>1053.7</ele>
        <time>2015-12-20T10:35:12Z</time>
      </trkpt>
      <trkpt lat="45.35799" lon="4.44483">
        <ele>1054.1</ele>
        <time>2015-12-20T10:35:14Z</time>
      </trkpt>
      <trkpt lat="45.35802" lon="4.44479">
        <ele>1054.4</ele>
        <time>2015-12-20T10:35:16Z</time>
      </trkpt>
      <trkpt lat="45.35806" lon="4.44475">
        <ele>1054.8</ele>
        <time>2015-12-20T10:35:18Z</time>
      </trkpt>
      <trkpt lat="45.35809" lon="4.4447">
        <ele>1055.2</ele>
        <time>2015-12-20T10:35:20Z</time>
      </trkpt>
      <trkpt lat="45.35812" lon="4.44465">
        <ele>1055.6</ele>
        <time>2015-12-20T10:35:22Z</time>
      </trkpt>
      <trkpt lat="45.35814" lon="4.44461">
        <ele>1055.9</ele>
        <time>2015-12-20T10:35:24Z</time>
      </trkpt>
      <trkpt lat="45.35816" lon="4.44456">
        <ele>1056.3</ele>
        <time>2015-12-20T10:35:26Z</time>
      </trkpt>
      <trkpt lat="45.35819" lon="4.4445">
        <ele>1056.7</ele>
        <time>2015-12-20T10:35:28Z</time>
      </trkpt>
      <trkpt lat="45.35821" lon="4.44446">
        <ele>1057</ele>
        <time>2015-12-20T10:35:30Z</time>
      </trkpt>
      <trkpt lat="45.35824" lon="4.44442">
        <ele>1057.4</ele>
        <time>2015-12-20T10:35:32Z</time>
      </trkpt>
      <trkpt lat="45.35826" lon="4.44437">
        <ele>1057.8</ele>
        <time>2015-12-20T10:35:34Z</time>
      </trkpt>
      <trkpt lat="45.35829" lon="4.44433">
        <ele>1058.2</ele>
        <time>2015-12-20T10:35:36Z</time>
      </trkpt>
      <trkpt lat="45.35831" lon="4.44429">
        <ele>1058.6</ele>
        <time>2015-12-20T10:35:38Z</time>
      </trkpt>
      <trkpt lat="45.35833" lon="4.44424">
        <ele>1059.1</ele>
        <time>2015-12-20T10:35:40Z</time>
      </trkpt>
      <trkpt lat="45.35836" lon="4.44419">
        <ele>1059.6</ele>
        <time>2015-12-20T10:35:42Z</time>
      </trkpt>
      <trkpt lat="45.35838" lon="4.44414">
        <ele>1060.1</ele>
        <time>2015-12-20T10:35:44Z</time>
      </trkpt>
      <trkpt lat="45.35841" lon="4.44409">
        <ele>1060.6</ele>
        <time>2015-12-20T10:35:46Z</time>
      </trkpt>
      <trkpt lat="45.35844" lon="4.44404">
        <ele>1061.2</ele>
        <time>2015-12-20T10:35:48Z</time>
      </trkpt>
      <trkpt lat="45.35847" lon="4.444">
        <ele>1061.8</ele>
        <time>2015-12-20T10:35:50Z</time>
      </trkpt>
      <trkpt lat="45.35849" lon="4.44397">
        <ele>1062.3</ele>
        <time>2015-12-20T10:35:52Z</time>
      </trkpt>
      <trkpt lat="45.35853" lon="4.44394">
        <ele>1062.9</ele>
        <time>2015-12-20T10:35:56Z</time>
      </trkpt>
      <trkpt lat="45.35855" lon="4.44388">
        <ele>1063.6</ele>
        <time>2015-12-20T10:35:58Z</time>
      </trkpt>
      <trkpt lat="45.35857" lon="4.44383">
        <ele>1064.3</ele>
        <time>2015-12-20T10:36:00Z</time>
      </trkpt>
      <trkpt lat="45.35859" lon="4.44378">
        <ele>1064.9</ele>
        <time>2015-12-20T10:36:02Z</time>
      </trkpt>
      <trkpt lat="45.3586" lon="4.44372">
        <ele>1065.1</ele>
        <time>2015-12-20T10:36:04Z</time>
      </trkpt>
      <trkpt lat="45.35861" lon="4.44366">
        <ele>1065</ele>
        <time>2015-12-20T10:36:06Z</time>
      </trkpt>
      <trkpt lat="45.35863" lon="4.4436">
        <ele>1064.9</ele>
        <time>2015-12-20T10:36:08Z</time>
      </trkpt>
      <trkpt lat="45.35863" lon="4.44356">
        <ele>1064.9</ele>
        <time>2015-12-20T10:36:09Z</time>
      </trkpt>
      <trkpt lat="45.35864" lon="4.44349">
        <ele>1064.7</ele>
        <time>2015-12-20T10:36:11Z</time>
      </trkpt>
      <trkpt lat="45.35863" lon="4.44342">
        <ele>1064.3</ele>
        <time>2015-12-20T10:36:13Z</time>
      </trkpt>
      <trkpt lat="45.35861" lon="4.44335">
        <ele>1063.8</ele>
        <time>2015-12-20T10:36:15Z</time>
      </trkpt>
      <trkpt lat="45.3586" lon="4.44331">
        <ele>1063.5</ele>
        <time>2015-12-20T10:36:16Z</time>
      </trkpt>
      <trkpt lat="45.3586" lon="4.44326">
        <ele>1063.3</ele>
        <time>2015-12-20T10:36:17Z</time>
      </trkpt>
      <trkpt lat="45.35859" lon="4.4432">
        <ele>1063</ele>
        <time>2015-12-20T10:36:19Z</time>
      </trkpt>
      <trkpt lat="45.3586" lon="4.44315">
        <ele>1062.9</ele>
        <time>2015-12-20T10:36:21Z</time>
      </trkpt>
      <trkpt lat="45.35861" lon="4.44311">
        <ele>1062.8</ele>
        <time>2015-12-20T10:36:22Z</time>
      </trkpt>
      <trkpt lat="45.35861" lon="4.44306">
        <ele>1062.7</ele>
        <time>2015-12-20T10:36:23Z</time>
      </trkpt>
      <trkpt lat="45.35861" lon="4.44302">
        <ele>1062.6</ele>
        <time>2015-12-20T10:36:24Z</time>
      </trkpt>
      <trkpt lat="45.35861" lon="4.44298">
        <ele>1062.4</ele>
        <time>2015-12-20T10:36:25Z</time>
      </trkpt>
      <trkpt lat="45.35861" lon="4.44293">
        <ele>1062.2</ele>
        <time>2015-12-20T10:36:26Z</time>
      </trkpt>
      <trkpt lat="45.35861" lon="4.44289">
        <ele>1061.8</ele>
        <time>2015-12-20T10:36:27Z</time>
      </trkpt>
      <trkpt lat="45.35861" lon="4.44284">
        <ele>1061.4</ele>
        <time>2015-12-20T10:36:28Z</time>
      </trkpt>
      <trkpt lat="45.35861" lon="4.44279">
        <ele>1060.9</ele>
        <time>2015-12-20T10:36:29Z</time>
      </trkpt>
      <trkpt lat="45.35862" lon="4.44274">
        <ele>1060.5</ele>
        <time>2015-12-20T10:36:30Z</time>
      </trkpt>
      <trkpt lat="45.35863" lon="4.44268">
        <ele>1060</ele>
        <time>2015-12-20T10:36:31Z</time>
      </trkpt>
      <trkpt lat="45.35864" lon="4.44262">
        <ele>1059.5</ele>
        <time>2015-12-20T10:36:32Z</time>
      </trkpt>
      <trkpt lat="45.35865" lon="4.44256">
        <ele>1059</ele>
        <time>2015-12-20T10:36:33Z</time>
      </trkpt>
      <trkpt lat="45.35865" lon="4.4425">
        <ele>1058.4</ele>
        <time>2015-12-20T10:36:34Z</time>
      </trkpt>
      <trkpt lat="45.35865" lon="4.44244">
        <ele>1057.8</ele>
        <time>2015-12-20T10:36:35Z</time>
      </trkpt>
      <trkpt lat="45.35866" lon="4.44239">
        <ele>1057.4</ele>
        <time>2015-12-20T10:36:36Z</time>
      </trkpt>
      <trkpt lat="45.35868" lon="4.44235">
        <ele>1057.1</ele>
        <time>2015-12-20T10:36:37Z</time>
      </trkpt>
      <trkpt lat="45.3587" lon="4.4423">
        <ele>1056.8</ele>
        <time>2015-12-20T10:36:38Z</time>
      </trkpt>
      <trkpt lat="45.35873" lon="4.44225">
        <ele>1056.7</ele>
        <time>2015-12-20T10:36:39Z</time>
      </trkpt>
      <trkpt lat="45.35876" lon="4.44221">
        <ele>1056.5</ele>
        <time>2015-12-20T10:36:40Z</time>
      </trkpt>
      <trkpt lat="45.35878" lon="4.44217">
        <ele>1056.4</ele>
        <time>2015-12-20T10:36:41Z</time>
      </trkpt>
      <trkpt lat="45.3588" lon="4.44213">
        <ele>1056.2</ele>
        <time>2015-12-20T10:36:42Z</time>
      </trkpt>
      <trkpt lat="45.35882" lon="4.44209">
        <ele>1056</ele>
        <time>2015-12-20T10:36:43Z</time>
      </trkpt>
      <trkpt lat="45.35883" lon="4.44206">
        <ele>1056.1</ele>
        <time>2015-12-20T10:36:44Z</time>
      </trkpt>
      <trkpt lat="45.35885" lon="4.44203">
        <ele>1056.2</ele>
        <time>2015-12-20T10:36:45Z</time>
      </trkpt>
      <trkpt lat="45.35888" lon="4.44199">
        <ele>1056.4</ele>
        <time>2015-12-20T10:36:47Z</time>
      </trkpt>
      <trkpt lat="45.35891" lon="4.44193">
        <ele>1056.6</ele>
        <time>2015-12-20T10:36:49Z</time>
      </trkpt>
      <trkpt lat="45.35893" lon="4.44189">
        <ele>1056.7</ele>
        <time>2015-12-20T10:36:50Z</time>
      </trkpt>
      <trkpt lat="45.35894" lon="4.44186">
        <ele>1056.8</ele>
        <time>2015-12-20T10:36:51Z</time>
      </trkpt>
      <trkpt lat="45.35897" lon="4.44181">
        <ele>1056.9</ele>
        <time>2015-12-20T10:36:53Z</time>
      </trkpt>
      <trkpt lat="45.359" lon="4.44176">
        <ele>1057.1</ele>
        <time>2015-12-20T10:36:55Z</time>
      </trkpt>
      <trkpt lat="45.35903" lon="4.44171">
        <ele>1057.2</ele>
        <time>2015-12-20T10:36:57Z</time>
      </trkpt>
      <trkpt lat="45.35906" lon="4.44169">
        <ele>1057.5</ele>
        <time>2015-12-20T10:37:08Z</time>
      </trkpt>
      <trkpt lat="45.35908" lon="4.44166">
        <ele>1057.6</ele>
        <time>2015-12-20T10:37:10Z</time>
      </trkpt>
      <trkpt lat="45.35911" lon="4.44165">
        <ele>1058</ele>
        <time>2015-12-20T10:37:12Z</time>
      </trkpt>
      <trkpt lat="45.35916" lon="4.44163">
        <ele>1058.5</ele>
        <time>2015-12-20T10:37:14Z</time>
      </trkpt>
      <trkpt lat="45.35921" lon="4.44162">
        <ele>1059</ele>
        <time>2015-12-20T10:37:16Z</time>
      </trkpt>
      <trkpt lat="45.35926" lon="4.4416">
        <ele>1059.5</ele>
        <time>2015-12-20T10:37:18Z</time>
      </trkpt>
      <trkpt lat="45.35931" lon="4.44159">
        <ele>1060</ele>
        <time>2015-12-20T10:37:20Z</time>
      </trkpt>
      <trkpt lat="45.35935" lon="4.44159">
        <ele>1060.6</ele>
        <time>2015-12-20T10:37:22Z</time>
      </trkpt>
      <trkpt lat="45.35939" lon="4.44157">
        <ele>1061</ele>
        <time>2015-12-20T10:37:24Z</time>
      </trkpt>
      <trkpt lat="45.35944" lon="4.44154">
        <ele>1061.4</ele>
        <time>2015-12-20T10:37:26Z</time>
      </trkpt>
      <trkpt lat="45.35948" lon="4.44151">
        <ele>1061.6</ele>
        <time>2015-12-20T10:37:28Z</time>
      </trkpt>
      <trkpt lat="45.35951" lon="4.44148">
        <ele>1061.8</ele>
        <time>2015-12-20T10:37:30Z</time>
      </trkpt>
      <trkpt lat="45.35955" lon="4.44144">
        <ele>1061.9</ele>
        <time>2015-12-20T10:37:32Z</time>
      </trkpt>
      <trkpt lat="45.35957" lon="4.44141">
        <ele>1062</ele>
        <time>2015-12-20T10:37:33Z</time>
      </trkpt>
      <trkpt lat="45.3596" lon="4.44138">
        <ele>1062.1</ele>
        <time>2015-12-20T10:37:34Z</time>
      </trkpt>
      <trkpt lat="45.35962" lon="4.44135">
        <ele>1062.3</ele>
        <time>2015-12-20T10:37:35Z</time>
      </trkpt>
      <trkpt lat="45.35965" lon="4.44133">
        <ele>1062.4</ele>
        <time>2015-12-20T10:37:36Z</time>
      </trkpt>
      <trkpt lat="45.35967" lon="4.44131">
        <ele>1062.5</ele>
        <time>2015-12-20T10:37:37Z</time>
      </trkpt>
      <trkpt lat="45.35969" lon="4.44128">
        <ele>1062.6</ele>
        <time>2015-12-20T10:37:38Z</time>
      </trkpt>
      <trkpt lat="45.35972" lon="4.44124">
        <ele>1062.7</ele>
        <time>2015-12-20T10:37:40Z</time>
      </trkpt>
      <trkpt lat="45.35974" lon="4.44121">
        <ele>1062.8</ele>
        <time>2015-12-20T10:37:41Z</time>
      </trkpt>
      <trkpt lat="45.35976" lon="4.44118">
        <ele>1062.8</ele>
        <time>2015-12-20T10:37:42Z</time>
      </trkpt>
      <trkpt lat="45.35978" lon="4.44115">
        <ele>1062.8</ele>
        <time>2015-12-20T10:37:43Z</time>
      </trkpt>
      <trkpt lat="45.35981" lon="4.44109">
        <ele>1062.7</ele>
        <time>2015-12-20T10:37:45Z</time>
      </trkpt>
      <trkpt lat="45.35983" lon="4.44107">
        <ele>1062.8</ele>
        <time>2015-12-20T10:37:46Z</time>
      </trkpt>
      <trkpt lat="45.35986" lon="4.44104">
        <ele>1062.9</ele>
        <time>2015-12-20T10:37:47Z</time>
      </trkpt>
      <trkpt lat="45.35989" lon="4.44102">
        <ele>1063</ele>
        <time>2015-12-20T10:37:48Z</time>
      </trkpt>
      <trkpt lat="45.35993" lon="4.44097">
        <ele>1063.1</ele>
        <time>2015-12-20T10:37:50Z</time>
      </trkpt>
      <trkpt lat="45.35996" lon="4.44093">
        <ele>1063.1</ele>
        <time>2015-12-20T10:37:52Z</time>
      </trkpt>
      <trkpt lat="45.35999" lon="4.44088">
        <ele>1063.1</ele>
        <time>2015-12-20T10:37:54Z</time>
      </trkpt>
      <trkpt lat="45.36002" lon="4.44085">
        <ele>1063.1</ele>
        <time>2015-12-20T10:37:55Z</time>
      </trkpt>
      <trkpt lat="45.36004" lon="4.44082">
        <ele>1063.1</ele>
        <time>2015-12-20T10:37:56Z</time>
      </trkpt>
      <trkpt lat="45.36006" lon="4.44078">
        <ele>1063</ele>
        <time>2015-12-20T10:37:57Z</time>
      </trkpt>
      <trkpt lat="45.36009" lon="4.44074">
        <ele>1062.8</ele>
        <time>2015-12-20T10:37:58Z</time>
      </trkpt>
      <trkpt lat="45.36011" lon="4.44069">
        <ele>1062.6</ele>
        <time>2015-12-20T10:37:59Z</time>
      </trkpt>
      <trkpt lat="45.36012" lon="4.44065">
        <ele>1062.4</ele>
        <time>2015-12-20T10:38:00Z</time>
      </trkpt>
      <trkpt lat="45.36014" lon="4.44062">
        <ele>1062.2</ele>
        <time>2015-12-20T10:38:01Z</time>
      </trkpt>
      <trkpt lat="45.36016" lon="4.44057">
        <ele>1062</ele>
        <time>2015-12-20T10:38:02Z</time>
      </trkpt>
      <trkpt lat="45.36017" lon="4.44052">
        <ele>1061.7</ele>
        <time>2015-12-20T10:38:03Z</time>
      </trkpt>
      <trkpt lat="45.36019" lon="4.44047">
        <ele>1061.3</ele>
        <time>2015-12-20T10:38:04Z</time>
      </trkpt>
      <trkpt lat="45.36021" lon="4.44041">
        <ele>1060.9</ele>
        <time>2015-12-20T10:38:05Z</time>
      </trkpt>
      <trkpt lat="45.36022" lon="4.44036">
        <ele>1060.7</ele>
        <time>2015-12-20T10:38:06Z</time>
      </trkpt>
      <trkpt lat="45.36025" lon="4.44032">
        <ele>1060.6</ele>
        <time>2015-12-20T10:38:07Z</time>
      </trkpt>
      <trkpt lat="45.36027" lon="4.44028">
        <ele>1060.6</ele>
        <time>2015-12-20T10:38:08Z</time>
      </trkpt>
      <trkpt lat="45.3603" lon="4.44023">
        <ele>1060.5</ele>
        <time>2015-12-20T10:38:09Z</time>
      </trkpt>
      <trkpt lat="45.36033" lon="4.44018">
        <ele>1060.3</ele>
        <time>2015-12-20T10:38:10Z</time>
      </trkpt>
      <trkpt lat="45.36036" lon="4.44013">
        <ele>1060.2</ele>
        <time>2015-12-20T10:38:11Z</time>
      </trkpt>
      <trkpt lat="45.36037" lon="4.4401">
        <ele>1060</ele>
        <time>2015-12-20T10:38:12Z</time>
      </trkpt>
      <trkpt lat="45.36039" lon="4.44005">
        <ele>1059.8</ele>
        <time>2015-12-20T10:38:14Z</time>
      </trkpt>
      <trkpt lat="45.36042" lon="4.44001">
        <ele>1059.6</ele>
        <time>2015-12-20T10:38:16Z</time>
      </trkpt>
      <trkpt lat="45.36045" lon="4.43998">
        <ele>1059.7</ele>
        <time>2015-12-20T10:38:18Z</time>
      </trkpt>
      <trkpt lat="45.36048" lon="4.43996">
        <ele>1059.9</ele>
        <time>2015-12-20T10:38:21Z</time>
      </trkpt>
      <trkpt lat="45.3605" lon="4.43991">
        <ele>1059.7</ele>
        <time>2015-12-20T10:38:23Z</time>
      </trkpt>
      <trkpt lat="45.36053" lon="4.43985">
        <ele>1059.7</ele>
        <time>2015-12-20T10:38:25Z</time>
      </trkpt>
      <trkpt lat="45.36055" lon="4.43982">
        <ele>1059.8</ele>
        <time>2015-12-20T10:38:26Z</time>
      </trkpt>
      <trkpt lat="45.36057" lon="4.43978">
        <ele>1059.8</ele>
        <time>2015-12-20T10:38:27Z</time>
      </trkpt>
      <trkpt lat="45.36058" lon="4.43974">
        <ele>1059.6</ele>
        <time>2015-12-20T10:38:28Z</time>
      </trkpt>
      <trkpt lat="45.36058" lon="4.43969">
        <ele>1059.3</ele>
        <time>2015-12-20T10:38:29Z</time>
      </trkpt>
      <trkpt lat="45.36058" lon="4.43964">
        <ele>1058.9</ele>
        <time>2015-12-20T10:38:30Z</time>
      </trkpt>
      <trkpt lat="45.36058" lon="4.43958">
        <ele>1058.5</ele>
        <time>2015-12-20T10:38:31Z</time>
      </trkpt>
      <trkpt lat="45.36058" lon="4.43953">
        <ele>1058.2</ele>
        <time>2015-12-20T10:38:32Z</time>
      </trkpt>
      <trkpt lat="45.36058" lon="4.43948">
        <ele>1058</ele>
        <time>2015-12-20T10:38:33Z</time>
      </trkpt>
      <trkpt lat="45.36058" lon="4.43943">
        <ele>1057.8</ele>
        <time>2015-12-20T10:38:34Z</time>
      </trkpt>
      <trkpt lat="45.36058" lon="4.43937">
        <ele>1057.5</ele>
        <time>2015-12-20T10:38:35Z</time>
      </trkpt>
      <trkpt lat="45.36058" lon="4.43932">
        <ele>1057.3</ele>
        <time>2015-12-20T10:38:36Z</time>
      </trkpt>
      <trkpt lat="45.36058" lon="4.43927">
        <ele>1057.1</ele>
        <time>2015-12-20T10:38:37Z</time>
      </trkpt>
      <trkpt lat="45.36058" lon="4.43922">
        <ele>1056.9</ele>
        <time>2015-12-20T10:38:38Z</time>
      </trkpt>
      <trkpt lat="45.36058" lon="4.43918">
        <ele>1056.7</ele>
        <time>2015-12-20T10:38:39Z</time>
      </trkpt>
      <trkpt lat="45.36058" lon="4.43914">
        <ele>1056.4</ele>
        <time>2015-12-20T10:38:40Z</time>
      </trkpt>
      <trkpt lat="45.36058" lon="4.4391">
        <ele>1056.1</ele>
        <time>2015-12-20T10:38:41Z</time>
      </trkpt>
      <trkpt lat="45.36057" lon="4.43903">
        <ele>1055.7</ele>
        <time>2015-12-20T10:38:43Z</time>
      </trkpt>
      <trkpt lat="45.36056" lon="4.43899">
        <ele>1055.4</ele>
        <time>2015-12-20T10:38:44Z</time>
      </trkpt>
      <trkpt lat="45.36056" lon="4.43894">
        <ele>1055.1</ele>
        <time>2015-12-20T10:38:45Z</time>
      </trkpt>
      <trkpt lat="45.36056" lon="4.43888">
        <ele>1054.8</ele>
        <time>2015-12-20T10:38:46Z</time>
      </trkpt>
      <trkpt lat="45.36056" lon="4.43881">
        <ele>1054.5</ele>
        <time>2015-12-20T10:38:47Z</time>
      </trkpt>
      <trkpt lat="45.36057" lon="4.43874">
        <ele>1054.4</ele>
        <time>2015-12-20T10:38:48Z</time>
      </trkpt>
      <trkpt lat="45.36057" lon="4.43869">
        <ele>1054.5</ele>
        <time>2015-12-20T10:38:49Z</time>
      </trkpt>
      <trkpt lat="45.36057" lon="4.43865">
        <ele>1054.6</ele>
        <time>2015-12-20T10:38:50Z</time>
      </trkpt>
      <trkpt lat="45.36057" lon="4.43861">
        <ele>1054.7</ele>
        <time>2015-12-20T10:38:51Z</time>
      </trkpt>
      <trkpt lat="45.36058" lon="4.43857">
        <ele>1054.8</ele>
        <time>2015-12-20T10:38:52Z</time>
      </trkpt>
      <trkpt lat="45.36058" lon="4.43851">
        <ele>1054.9</ele>
        <time>2015-12-20T10:38:53Z</time>
      </trkpt>
      <trkpt lat="45.36058" lon="4.43845">
        <ele>1055.1</ele>
        <time>2015-12-20T10:38:54Z</time>
      </trkpt>
      <trkpt lat="45.36058" lon="4.43839">
        <ele>1055.2</ele>
        <time>2015-12-20T10:38:55Z</time>
      </trkpt>
      <trkpt lat="45.36059" lon="4.43832">
        <ele>1055.4</ele>
        <time>2015-12-20T10:38:56Z</time>
      </trkpt>
      <trkpt lat="45.3606" lon="4.43824">
        <ele>1055.6</ele>
        <time>2015-12-20T10:38:57Z</time>
      </trkpt>
      <trkpt lat="45.3606" lon="4.43818">
        <ele>1055.8</ele>
        <time>2015-12-20T10:38:58Z</time>
      </trkpt>
      <trkpt lat="45.36061" lon="4.43812">
        <ele>1056</ele>
        <time>2015-12-20T10:38:59Z</time>
      </trkpt>
      <trkpt lat="45.36062" lon="4.43806">
        <ele>1056.2</ele>
        <time>2015-12-20T10:39:00Z</time>
      </trkpt>
      <trkpt lat="45.36063" lon="4.438">
        <ele>1056.4</ele>
        <time>2015-12-20T10:39:01Z</time>
      </trkpt>
      <trkpt lat="45.36064" lon="4.43794">
        <ele>1056.7</ele>
        <time>2015-12-20T10:39:02Z</time>
      </trkpt>
      <trkpt lat="45.36066" lon="4.43789">
        <ele>1056.8</ele>
        <time>2015-12-20T10:39:03Z</time>
      </trkpt>
      <trkpt lat="45.36068" lon="4.43784">
        <ele>1056.8</ele>
        <time>2015-12-20T10:39:04Z</time>
      </trkpt>
      <trkpt lat="45.36069" lon="4.43779">
        <ele>1056.8</ele>
        <time>2015-12-20T10:39:05Z</time>
      </trkpt>
      <trkpt lat="45.3607" lon="4.43774">
        <ele>1056.7</ele>
        <time>2015-12-20T10:39:06Z</time>
      </trkpt>
      <trkpt lat="45.3607" lon="4.43769">
        <ele>1056.6</ele>
        <time>2015-12-20T10:39:07Z</time>
      </trkpt>
      <trkpt lat="45.36069" lon="4.43765">
        <ele>1056.3</ele>
        <time>2015-12-20T10:39:08Z</time>
      </trkpt>
      <trkpt lat="45.36069" lon="4.4376">
        <ele>1056.2</ele>
        <time>2015-12-20T10:39:09Z</time>
      </trkpt>
      <trkpt lat="45.36069" lon="4.43755">
        <ele>1056</ele>
        <time>2015-12-20T10:39:10Z</time>
      </trkpt>
      <trkpt lat="45.3607" lon="4.43751">
        <ele>1055.9</ele>
        <time>2015-12-20T10:39:11Z</time>
      </trkpt>
      <trkpt lat="45.36071" lon="4.43746">
        <ele>1055.8</ele>
        <time>2015-12-20T10:39:12Z</time>
      </trkpt>
      <trkpt lat="45.36071" lon="4.43741">
        <ele>1055.7</ele>
        <time>2015-12-20T10:39:13Z</time>
      </trkpt>
      <trkpt lat="45.36072" lon="4.43736">
        <ele>1055.7</ele>
        <time>2015-12-20T10:39:14Z</time>
      </trkpt>
      <trkpt lat="45.36074" lon="4.43732">
        <ele>1055.7</ele>
        <time>2015-12-20T10:39:15Z</time>
      </trkpt>
      <trkpt lat="45.36075" lon="4.43728">
        <ele>1055.7</ele>
        <time>2015-12-20T10:39:16Z</time>
      </trkpt>
      <trkpt lat="45.36078" lon="4.43723">
        <ele>1055.8</ele>
        <time>2015-12-20T10:39:17Z</time>
      </trkpt>
      <trkpt lat="45.36079" lon="4.43719">
        <ele>1055.9</ele>
        <time>2015-12-20T10:39:18Z</time>
      </trkpt>
      <trkpt lat="45.36081" lon="4.43715">
        <ele>1055.9</ele>
        <time>2015-12-20T10:39:19Z</time>
      </trkpt>
      <trkpt lat="45.36082" lon="4.4371">
        <ele>1056</ele>
        <time>2015-12-20T10:39:20Z</time>
      </trkpt>
      <trkpt lat="45.36084" lon="4.43706">
        <ele>1056</ele>
        <time>2015-12-20T10:39:21Z</time>
      </trkpt>
      <trkpt lat="45.36085" lon="4.43702">
        <ele>1056</ele>
        <time>2015-12-20T10:39:22Z</time>
      </trkpt>
      <trkpt lat="45.36087" lon="4.43698">
        <ele>1056</ele>
        <time>2015-12-20T10:39:23Z</time>
      </trkpt>
      <trkpt lat="45.36089" lon="4.43695">
        <ele>1056</ele>
        <time>2015-12-20T10:39:24Z</time>
      </trkpt>
      <trkpt lat="45.36091" lon="4.43691">
        <ele>1056.1</ele>
        <time>2015-12-20T10:39:25Z</time>
      </trkpt>
      <trkpt lat="45.36092" lon="4.43687">
        <ele>1056.1</ele>
        <time>2015-12-20T10:39:26Z</time>
      </trkpt>
      <trkpt lat="45.36093" lon="4.43684">
        <ele>1056.1</ele>
        <time>2015-12-20T10:39:27Z</time>
      </trkpt>
      <trkpt lat="45.36094" lon="4.4368">
        <ele>1056</ele>
        <time>2015-12-20T10:39:28Z</time>
      </trkpt>
      <trkpt lat="45.36095" lon="4.43673">
        <ele>1055.7</ele>
        <time>2015-12-20T10:39:30Z</time>
      </trkpt>
      <trkpt lat="45.36095" lon="4.43668">
        <ele>1055.5</ele>
        <time>2015-12-20T10:39:31Z</time>
      </trkpt>
      <trkpt lat="45.36096" lon="4.43663">
        <ele>1055.3</ele>
        <time>2015-12-20T10:39:32Z</time>
      </trkpt>
      <trkpt lat="45.36096" lon="4.43658">
        <ele>1055.2</ele>
        <time>2015-12-20T10:39:33Z</time>
      </trkpt>
      <trkpt lat="45.36098" lon="4.43653">
        <ele>1055</ele>
        <time>2015-12-20T10:39:34Z</time>
      </trkpt>
      <trkpt lat="45.36099" lon="4.43648">
        <ele>1054.9</ele>
        <time>2015-12-20T10:39:35Z</time>
      </trkpt>
      <trkpt lat="45.36101" lon="4.43643">
        <ele>1054.9</ele>
        <time>2015-12-20T10:39:36Z</time>
      </trkpt>
      <trkpt lat="45.36103" lon="4.43637">
        <ele>1054.8</ele>
        <time>2015-12-20T10:39:37Z</time>
      </trkpt>
      <trkpt lat="45.36106" lon="4.43632">
        <ele>1054.7</ele>
        <time>2015-12-20T10:39:38Z</time>
      </trkpt>
      <trkpt lat="45.36108" lon="4.43626">
        <ele>1054.7</ele>
        <time>2015-12-20T10:39:39Z</time>
      </trkpt>
      <trkpt lat="45.36111" lon="4.43622">
        <ele>1054.8</ele>
        <time>2015-12-20T10:39:40Z</time>
      </trkpt>
      <trkpt lat="45.36113" lon="4.43617">
        <ele>1055</ele>
        <time>2015-12-20T10:39:41Z</time>
      </trkpt>
      <trkpt lat="45.36116" lon="4.43612">
        <ele>1055.2</ele>
        <time>2015-12-20T10:39:42Z</time>
      </trkpt>
      <trkpt lat="45.36119" lon="4.43608">
        <ele>1055.4</ele>
        <time>2015-12-20T10:39:43Z</time>
      </trkpt>
      <trkpt lat="45.36121" lon="4.43601">
        <ele>1055.5</ele>
        <time>2015-12-20T10:39:44Z</time>
      </trkpt>
      <trkpt lat="45.36124" lon="4.43596">
        <ele>1055.6</ele>
        <time>2015-12-20T10:39:45Z</time>
      </trkpt>
      <trkpt lat="45.36125" lon="4.43592">
        <ele>1055.6</ele>
        <time>2015-12-20T10:39:46Z</time>
      </trkpt>
      <trkpt lat="45.36126" lon="4.43587">
        <ele>1055.7</ele>
        <time>2015-12-20T10:39:47Z</time>
      </trkpt>
      <trkpt lat="45.36127" lon="4.43583">
        <ele>1055.7</ele>
        <time>2015-12-20T10:39:48Z</time>
      </trkpt>
      <trkpt lat="45.36128" lon="4.43578">
        <ele>1055.9</ele>
        <time>2015-12-20T10:39:49Z</time>
      </trkpt>
      <trkpt lat="45.36129" lon="4.43573">
        <ele>1055.9</ele>
        <time>2015-12-20T10:39:50Z</time>
      </trkpt>
      <trkpt lat="45.3613" lon="4.43566">
        <ele>1055.8</ele>
        <time>2015-12-20T10:39:51Z</time>
      </trkpt>
      <trkpt lat="45.36131" lon="4.43561">
        <ele>1055.9</ele>
        <time>2015-12-20T10:39:52Z</time>
      </trkpt>
      <trkpt lat="45.36132" lon="4.43556">
        <ele>1055.9</ele>
        <time>2015-12-20T10:39:53Z</time>
      </trkpt>
      <trkpt lat="45.36132" lon="4.43552">
        <ele>1056</ele>
        <time>2015-12-20T10:39:54Z</time>
      </trkpt>
      <trkpt lat="45.36133" lon="4.43547">
        <ele>1055.9</ele>
        <time>2015-12-20T10:39:55Z</time>
      </trkpt>
      <trkpt lat="45.36133" lon="4.43542">
        <ele>1055.9</ele>
        <time>2015-12-20T10:39:56Z</time>
      </trkpt>
      <trkpt lat="45.36134" lon="4.43537">
        <ele>1056.4</ele>
        <time>2015-12-20T10:39:57Z</time>
      </trkpt>
      <trkpt lat="45.36134" lon="4.43532">
        <ele>1057</ele>
        <time>2015-12-20T10:39:58Z</time>
      </trkpt>
      <trkpt lat="45.36136" lon="4.43528">
        <ele>1057.6</ele>
        <time>2015-12-20T10:39:59Z</time>
      </trkpt>
      <trkpt lat="45.36138" lon="4.43524">
        <ele>1058.1</ele>
        <time>2015-12-20T10:40:00Z</time>
      </trkpt>
      <trkpt lat="45.36139" lon="4.43517">
        <ele>1058.9</ele>
        <time>2015-12-20T10:40:02Z</time>
      </trkpt>
      <trkpt lat="45.3614" lon="4.43513">
        <ele>1059.3</ele>
        <time>2015-12-20T10:40:03Z</time>
      </trkpt>
      <trkpt lat="45.3614" lon="4.43509">
        <ele>1059.7</ele>
        <time>2015-12-20T10:40:04Z</time>
      </trkpt>
      <trkpt lat="45.36142" lon="4.43503">
        <ele>1060.4</ele>
        <time>2015-12-20T10:40:06Z</time>
      </trkpt>
      <trkpt lat="45.36141" lon="4.43497">
        <ele>1060.8</ele>
        <time>2015-12-20T10:40:08Z</time>
      </trkpt>
      <trkpt lat="45.36139" lon="4.4349">
        <ele>1061.5</ele>
        <time>2015-12-20T10:40:10Z</time>
      </trkpt>
      <trkpt lat="45.3614" lon="4.43483">
        <ele>1062.1</ele>
        <time>2015-12-20T10:40:12Z</time>
      </trkpt>
      <trkpt lat="45.36142" lon="4.43476">
        <ele>1062.7</ele>
        <time>2015-12-20T10:40:14Z</time>
      </trkpt>
      <trkpt lat="45.36144" lon="4.43471">
        <ele>1063.2</ele>
        <time>2015-12-20T10:40:16Z</time>
      </trkpt>
      <trkpt lat="45.36145" lon="4.43466">
        <ele>1063.6</ele>
        <time>2015-12-20T10:40:19Z</time>
      </trkpt>
      <trkpt lat="45.36146" lon="4.43462">
        <ele>1063.9</ele>
        <time>2015-12-20T10:40:21Z</time>
      </trkpt>
      <trkpt lat="45.36147" lon="4.43457">
        <ele>1064.3</ele>
        <time>2015-12-20T10:40:23Z</time>
      </trkpt>
      <trkpt lat="45.3615" lon="4.43452">
        <ele>1064.4</ele>
        <time>2015-12-20T10:40:25Z</time>
      </trkpt>
      <trkpt lat="45.36153" lon="4.43449">
        <ele>1064.4</ele>
        <time>2015-12-20T10:40:27Z</time>
      </trkpt>
      <trkpt lat="45.36156" lon="4.43447">
        <ele>1064.4</ele>
        <time>2015-12-20T10:40:33Z</time>
      </trkpt>
      <trkpt lat="45.36158" lon="4.43441">
        <ele>1064.5</ele>
        <time>2015-12-20T10:40:35Z</time>
      </trkpt>
      <trkpt lat="45.3616" lon="4.43436">
        <ele>1064.6</ele>
        <time>2015-12-20T10:40:37Z</time>
      </trkpt>
      <trkpt lat="45.36162" lon="4.4343">
        <ele>1064.8</ele>
        <time>2015-12-20T10:40:39Z</time>
      </trkpt>
      <trkpt lat="45.36167" lon="4.43425">
        <ele>1064.7</ele>
        <time>2015-12-20T10:40:41Z</time>
      </trkpt>
      <trkpt lat="45.36169" lon="4.43424">
        <ele>1064.6</ele>
        <time>2015-12-20T10:40:42Z</time>
      </trkpt>
      <trkpt lat="45.36172" lon="4.43423">
        <ele>1064.5</ele>
        <time>2015-12-20T10:40:43Z</time>
      </trkpt>
      <trkpt lat="45.36175" lon="4.43421">
        <ele>1064.4</ele>
        <time>2015-12-20T10:40:44Z</time>
      </trkpt>
      <trkpt lat="45.36179" lon="4.43419">
        <ele>1064.2</ele>
        <time>2015-12-20T10:40:45Z</time>
      </trkpt>
      <trkpt lat="45.36182" lon="4.43417">
        <ele>1064.1</ele>
        <time>2015-12-20T10:40:46Z</time>
      </trkpt>
      <trkpt lat="45.36185" lon="4.43415">
        <ele>1063.9</ele>
        <time>2015-12-20T10:40:47Z</time>
      </trkpt>
      <trkpt lat="45.36188" lon="4.43412">
        <ele>1063.8</ele>
        <time>2015-12-20T10:40:48Z</time>
      </trkpt>
      <trkpt lat="45.36192" lon="4.43409">
        <ele>1063.7</ele>
        <time>2015-12-20T10:40:49Z</time>
      </trkpt>
      <trkpt lat="45.36195" lon="4.43406">
        <ele>1063.5</ele>
        <time>2015-12-20T10:40:50Z</time>
      </trkpt>
      <trkpt lat="45.36197" lon="4.43402">
        <ele>1063.4</ele>
        <time>2015-12-20T10:40:51Z</time>
      </trkpt>
      <trkpt lat="45.36201" lon="4.43398">
        <ele>1063.3</ele>
        <time>2015-12-20T10:40:52Z</time>
      </trkpt>
      <trkpt lat="45.36204" lon="4.43394">
        <ele>1063.1</ele>
        <time>2015-12-20T10:40:53Z</time>
      </trkpt>
      <trkpt lat="45.36207" lon="4.43391">
        <ele>1062.9</ele>
        <time>2015-12-20T10:40:54Z</time>
      </trkpt>
      <trkpt lat="45.3621" lon="4.43389">
        <ele>1062.8</ele>
        <time>2015-12-20T10:40:55Z</time>
      </trkpt>
      <trkpt lat="45.36215" lon="4.43386">
        <ele>1062.7</ele>
        <time>2015-12-20T10:40:57Z</time>
      </trkpt>
      <trkpt lat="45.36218" lon="4.43383">
        <ele>1062.6</ele>
        <time>2015-12-20T10:40:58Z</time>
      </trkpt>
      <trkpt lat="45.3622" lon="4.4338">
        <ele>1062.6</ele>
        <time>2015-12-20T10:40:59Z</time>
      </trkpt>
      <trkpt lat="45.36222" lon="4.43377">
        <ele>1062.5</ele>
        <time>2015-12-20T10:41:00Z</time>
      </trkpt>
      <trkpt lat="45.36226" lon="4.43374">
        <ele>1062.4</ele>
        <time>2015-12-20T10:41:01Z</time>
      </trkpt>
      <trkpt lat="45.36229" lon="4.43372">
        <ele>1062.2</ele>
        <time>2015-12-20T10:41:02Z</time>
      </trkpt>
      <trkpt lat="45.36232" lon="4.43371">
        <ele>1062.1</ele>
        <time>2015-12-20T10:41:03Z</time>
      </trkpt>
      <trkpt lat="45.36237" lon="4.4337">
        <ele>1061.9</ele>
        <time>2015-12-20T10:41:04Z</time>
      </trkpt>
      <trkpt lat="45.36241" lon="4.43368">
        <ele>1061.7</ele>
        <time>2015-12-20T10:41:05Z</time>
      </trkpt>
      <trkpt lat="45.36246" lon="4.43367">
        <ele>1061.5</ele>
        <time>2015-12-20T10:41:06Z</time>
      </trkpt>
      <trkpt lat="45.36249" lon="4.43364">
        <ele>1061.3</ele>
        <time>2015-12-20T10:41:07Z</time>
      </trkpt>
      <trkpt lat="45.36251" lon="4.43359">
        <ele>1061.1</ele>
        <time>2015-12-20T10:41:08Z</time>
      </trkpt>
      <trkpt lat="45.36253" lon="4.43354">
        <ele>1060.8</ele>
        <time>2015-12-20T10:41:09Z</time>
      </trkpt>
      <trkpt lat="45.36255" lon="4.43349">
        <ele>1060.6</ele>
        <time>2015-12-20T10:41:10Z</time>
      </trkpt>
      <trkpt lat="45.36257" lon="4.43345">
        <ele>1060.4</ele>
        <time>2015-12-20T10:41:11Z</time>
      </trkpt>
      <trkpt lat="45.36259" lon="4.4334">
        <ele>1060.1</ele>
        <time>2015-12-20T10:41:12Z</time>
      </trkpt>
      <trkpt lat="45.36262" lon="4.43335">
        <ele>1059.9</ele>
        <time>2015-12-20T10:41:13Z</time>
      </trkpt>
      <trkpt lat="45.36264" lon="4.4333">
        <ele>1059.6</ele>
        <time>2015-12-20T10:41:14Z</time>
      </trkpt>
      <trkpt lat="45.36266" lon="4.43325">
        <ele>1059.3</ele>
        <time>2015-12-20T10:41:15Z</time>
      </trkpt>
      <trkpt lat="45.36268" lon="4.4332">
        <ele>1059</ele>
        <time>2015-12-20T10:41:16Z</time>
      </trkpt>
      <trkpt lat="45.36271" lon="4.43317">
        <ele>1058.6</ele>
        <time>2015-12-20T10:41:17Z</time>
      </trkpt>
      <trkpt lat="45.36274" lon="4.43314">
        <ele>1058.3</ele>
        <time>2015-12-20T10:41:18Z</time>
      </trkpt>
      <trkpt lat="45.36278" lon="4.43313">
        <ele>1058</ele>
        <time>2015-12-20T10:41:19Z</time>
      </trkpt>
      <trkpt lat="45.36282" lon="4.43311">
        <ele>1057.6</ele>
        <time>2015-12-20T10:41:20Z</time>
      </trkpt>
      <trkpt lat="45.36286" lon="4.43308">
        <ele>1057.2</ele>
        <time>2015-12-20T10:41:21Z</time>
      </trkpt>
      <trkpt lat="45.36289" lon="4.43305">
        <ele>1056.8</ele>
        <time>2015-12-20T10:41:22Z</time>
      </trkpt>
      <trkpt lat="45.36292" lon="4.43303">
        <ele>1056.5</ele>
        <time>2015-12-20T10:41:23Z</time>
      </trkpt>
      <trkpt lat="45.36294" lon="4.43299">
        <ele>1056.3</ele>
        <time>2015-12-20T10:41:25Z</time>
      </trkpt>
      <trkpt lat="45.36297" lon="4.43295">
        <ele>1056.1</ele>
        <time>2015-12-20T10:41:27Z</time>
      </trkpt>
      <trkpt lat="45.363" lon="4.43291">
        <ele>1055.9</ele>
        <time>2015-12-20T10:41:29Z</time>
      </trkpt>
      <trkpt lat="45.36304" lon="4.43288">
        <ele>1055.7</ele>
        <time>2015-12-20T10:41:31Z</time>
      </trkpt>
      <trkpt lat="45.36307" lon="4.43287">
        <ele>1055.7</ele>
        <time>2015-12-20T10:41:33Z</time>
      </trkpt>
      <trkpt lat="45.3631" lon="4.43288">
        <ele>1055.6</ele>
        <time>2015-12-20T10:41:36Z</time>
      </trkpt>
      <trkpt lat="45.36313" lon="4.4329">
        <ele>1055.7</ele>
        <time>2015-12-20T10:41:38Z</time>
      </trkpt>
      <trkpt lat="45.36316" lon="4.43288">
        <ele>1055.6</ele>
        <time>2015-12-20T10:41:40Z</time>
      </trkpt>
      <trkpt lat="45.3632" lon="4.43288">
        <ele>1055.5</ele>
        <time>2015-12-20T10:41:42Z</time>
      </trkpt>
      <trkpt lat="45.36324" lon="4.43289">
        <ele>1055.5</ele>
        <time>2015-12-20T10:41:44Z</time>
      </trkpt>
      <trkpt lat="45.36327" lon="4.43288">
        <ele>1055.4</ele>
        <time>2015-12-20T10:41:46Z</time>
      </trkpt>
      <trkpt lat="45.3633" lon="4.43285">
        <ele>1055.2</ele>
        <time>2015-12-20T10:41:48Z</time>
      </trkpt>
      <trkpt lat="45.36334" lon="4.43281">
        <ele>1054.9</ele>
        <time>2015-12-20T10:41:50Z</time>
      </trkpt>
      <trkpt lat="45.36338" lon="4.4328">
        <ele>1054.8</ele>
        <time>2015-12-20T10:41:52Z</time>
      </trkpt>
      <trkpt lat="45.36342" lon="4.43281">
        <ele>1054.8</ele>
        <time>2015-12-20T10:41:54Z</time>
      </trkpt>
      <trkpt lat="45.36346" lon="4.43282">
        <ele>1054.7</ele>
        <time>2015-12-20T10:41:56Z</time>
      </trkpt>
      <trkpt lat="45.3635" lon="4.43283">
        <ele>1054.7</ele>
        <time>2015-12-20T10:41:58Z</time>
      </trkpt>
      <trkpt lat="45.36354" lon="4.43284">
        <ele>1054.7</ele>
        <time>2015-12-20T10:42:00Z</time>
      </trkpt>
      <trkpt lat="45.36358" lon="4.43286">
        <ele>1054.8</ele>
        <time>2015-12-20T10:42:02Z</time>
      </trkpt>
      <trkpt lat="45.36361" lon="4.43287">
        <ele>1054.8</ele>
        <time>2015-12-20T10:42:04Z</time>
      </trkpt>
      <trkpt lat="45.36365" lon="4.43288">
        <ele>1054.8</ele>
        <time>2015-12-20T10:42:06Z</time>
      </trkpt>
      <trkpt lat="45.36368" lon="4.4329">
        <ele>1054.9</ele>
        <time>2015-12-20T10:42:08Z</time>
      </trkpt>
      <trkpt lat="45.36371" lon="4.43292">
        <ele>1055.1</ele>
        <time>2015-12-20T10:42:10Z</time>
      </trkpt>
      <trkpt lat="45.36376" lon="4.43295">
        <ele>1055.3</ele>
        <time>2015-12-20T10:42:12Z</time>
      </trkpt>
      <trkpt lat="45.3638" lon="4.43298">
        <ele>1055.7</ele>
        <time>2015-12-20T10:42:14Z</time>
      </trkpt>
      <trkpt lat="45.36384" lon="4.43301">
        <ele>1056.1</ele>
        <time>2015-12-20T10:42:16Z</time>
      </trkpt>
      <trkpt lat="45.36387" lon="4.43304">
        <ele>1056.5</ele>
        <time>2015-12-20T10:42:18Z</time>
      </trkpt>
      <trkpt lat="45.3639" lon="4.43307">
        <ele>1056.8</ele>
        <time>2015-12-20T10:42:19Z</time>
      </trkpt>
      <trkpt lat="45.36392" lon="4.43309">
        <ele>1057.1</ele>
        <time>2015-12-20T10:42:20Z</time>
      </trkpt>
      <trkpt lat="45.36395" lon="4.43312">
        <ele>1057.3</ele>
        <time>2015-12-20T10:42:21Z</time>
      </trkpt>
      <trkpt lat="45.36398" lon="4.43314">
        <ele>1057.6</ele>
        <time>2015-12-20T10:42:22Z</time>
      </trkpt>
      <trkpt lat="45.36401" lon="4.43316">
        <ele>1057.9</ele>
        <time>2015-12-20T10:42:23Z</time>
      </trkpt>
      <trkpt lat="45.36404" lon="4.43318">
        <ele>1058.2</ele>
        <time>2015-12-20T10:42:24Z</time>
      </trkpt>
      <trkpt lat="45.36408" lon="4.43321">
        <ele>1058.4</ele>
        <time>2015-12-20T10:42:25Z</time>
      </trkpt>
      <trkpt lat="45.36411" lon="4.43323">
        <ele>1058.7</ele>
        <time>2015-12-20T10:42:26Z</time>
      </trkpt>
      <trkpt lat="45.36414" lon="4.43325">
        <ele>1059</ele>
        <time>2015-12-20T10:42:27Z</time>
      </trkpt>
      <trkpt lat="45.36417" lon="4.43327">
        <ele>1059.2</ele>
        <time>2015-12-20T10:42:28Z</time>
      </trkpt>
      <trkpt lat="45.36419" lon="4.43329">
        <ele>1059.4</ele>
        <time>2015-12-20T10:42:29Z</time>
      </trkpt>
      <trkpt lat="45.36422" lon="4.43332">
        <ele>1059.7</ele>
        <time>2015-12-20T10:42:30Z</time>
      </trkpt>
      <trkpt lat="45.36425" lon="4.43334">
        <ele>1060</ele>
        <time>2015-12-20T10:42:31Z</time>
      </trkpt>
      <trkpt lat="45.36428" lon="4.43337">
        <ele>1060.2</ele>
        <time>2015-12-20T10:42:32Z</time>
      </trkpt>
      <trkpt lat="45.3643" lon="4.4334">
        <ele>1060.6</ele>
        <time>2015-12-20T10:42:33Z</time>
      </trkpt>
      <trkpt lat="45.36433" lon="4.43344">
        <ele>1060.9</ele>
        <time>2015-12-20T10:42:34Z</time>
      </trkpt>
      <trkpt lat="45.36435" lon="4.43347">
        <ele>1061.3</ele>
        <time>2015-12-20T10:42:35Z</time>
      </trkpt>
      <trkpt lat="45.36438" lon="4.43351">
        <ele>1061.6</ele>
        <time>2015-12-20T10:42:36Z</time>
      </trkpt>
      <trkpt lat="45.3644" lon="4.43354">
        <ele>1061.9</ele>
        <time>2015-12-20T10:42:37Z</time>
      </trkpt>
      <trkpt lat="45.36444" lon="4.43357">
        <ele>1062.3</ele>
        <time>2015-12-20T10:42:39Z</time>
      </trkpt>
      <trkpt lat="45.36447" lon="4.43361">
        <ele>1062.6</ele>
        <time>2015-12-20T10:42:41Z</time>
      </trkpt>
      <trkpt lat="45.36451" lon="4.43366">
        <ele>1063.2</ele>
        <time>2015-12-20T10:42:43Z</time>
      </trkpt>
      <trkpt lat="45.36452" lon="4.4337">
        <ele>1063.5</ele>
        <time>2015-12-20T10:42:44Z</time>
      </trkpt>
      <trkpt lat="45.36454" lon="4.43373">
        <ele>1063.8</ele>
        <time>2015-12-20T10:42:45Z</time>
      </trkpt>
      <trkpt lat="45.36456" lon="4.43376">
        <ele>1064</ele>
        <time>2015-12-20T10:42:46Z</time>
      </trkpt>
      <trkpt lat="45.36458" lon="4.43379">
        <ele>1064.1</ele>
        <time>2015-12-20T10:42:47Z</time>
      </trkpt>
      <trkpt lat="45.3646" lon="4.43382">
        <ele>1064.1</ele>
        <time>2015-12-20T10:42:48Z</time>
      </trkpt>
      <trkpt lat="45.36462" lon="4.43384">
        <ele>1064</ele>
        <time>2015-12-20T10:42:49Z</time>
      </trkpt>
      <trkpt lat="45.36465" lon="4.43386">
        <ele>1063.9</ele>
        <time>2015-12-20T10:42:50Z</time>
      </trkpt>
      <trkpt lat="45.36467" lon="4.43389">
        <ele>1063.8</ele>
        <time>2015-12-20T10:42:51Z</time>
      </trkpt>
      <trkpt lat="45.36469" lon="4.43391">
        <ele>1063.8</ele>
        <time>2015-12-20T10:42:52Z</time>
      </trkpt>
      <trkpt lat="45.36473" lon="4.43397">
        <ele>1063.7</ele>
        <time>2015-12-20T10:42:54Z</time>
      </trkpt>
      <trkpt lat="45.36475" lon="4.43401">
        <ele>1063.7</ele>
        <time>2015-12-20T10:42:55Z</time>
      </trkpt>
      <trkpt lat="45.36476" lon="4.43406">
        <ele>1063.8</ele>
        <time>2015-12-20T10:42:56Z</time>
      </trkpt>
      <trkpt lat="45.36477" lon="4.4341">
        <ele>1063.8</ele>
        <time>2015-12-20T10:42:57Z</time>
      </trkpt>
      <trkpt lat="45.3648" lon="4.43416">
        <ele>1063.8</ele>
        <time>2015-12-20T10:42:59Z</time>
      </trkpt>
      <trkpt lat="45.36483" lon="4.43419">
        <ele>1063.7</ele>
        <time>2015-12-20T10:43:01Z</time>
      </trkpt>
      <trkpt lat="45.36486" lon="4.43421">
        <ele>1063.6</ele>
        <time>2015-12-20T10:43:02Z</time>
      </trkpt>
      <trkpt lat="45.36489" lon="4.43423">
        <ele>1063.5</ele>
        <time>2015-12-20T10:43:03Z</time>
      </trkpt>
      <trkpt lat="45.36493" lon="4.43426">
        <ele>1063.4</ele>
        <time>2015-12-20T10:43:04Z</time>
      </trkpt>
      <trkpt lat="45.36496" lon="4.43428">
        <ele>1063.3</ele>
        <time>2015-12-20T10:43:05Z</time>
      </trkpt>
      <trkpt lat="45.365" lon="4.43431">
        <ele>1063.2</ele>
        <time>2015-12-20T10:43:06Z</time>
      </trkpt>
      <trkpt lat="45.36504" lon="4.43433">
        <ele>1063</ele>
        <time>2015-12-20T10:43:07Z</time>
      </trkpt>
      <trkpt lat="45.36508" lon="4.43436">
        <ele>1062.9</ele>
        <time>2015-12-20T10:43:08Z</time>
      </trkpt>
      <trkpt lat="45.36511" lon="4.43439">
        <ele>1062.9</ele>
        <time>2015-12-20T10:43:09Z</time>
      </trkpt>
      <trkpt lat="45.36514" lon="4.43442">
        <ele>1062.8</ele>
        <time>2015-12-20T10:43:10Z</time>
      </trkpt>
      <trkpt lat="45.36517" lon="4.43446">
        <ele>1062.8</ele>
        <time>2015-12-20T10:43:11Z</time>
      </trkpt>
      <trkpt lat="45.36521" lon="4.43449">
        <ele>1062.7</ele>
        <time>2015-12-20T10:43:12Z</time>
      </trkpt>
      <trkpt lat="45.36524" lon="4.43451">
        <ele>1062.6</ele>
        <time>2015-12-20T10:43:13Z</time>
      </trkpt>
      <trkpt lat="45.36527" lon="4.43453">
        <ele>1062.5</ele>
        <time>2015-12-20T10:43:14Z</time>
      </trkpt>
      <trkpt lat="45.36529" lon="4.43455">
        <ele>1062.5</ele>
        <time>2015-12-20T10:43:15Z</time>
      </trkpt>
      <trkpt lat="45.36532" lon="4.43457">
        <ele>1062.4</ele>
        <time>2015-12-20T10:43:16Z</time>
      </trkpt>
      <trkpt lat="45.36535" lon="4.4346">
        <ele>1062.4</ele>
        <time>2015-12-20T10:43:18Z</time>
      </trkpt>
      <trkpt lat="45.36537" lon="4.43463">
        <ele>1062.4</ele>
        <time>2015-12-20T10:43:20Z</time>
      </trkpt>
      <trkpt lat="45.36539" lon="4.43467">
        <ele>1062.3</ele>
        <time>2015-12-20T10:43:22Z</time>
      </trkpt>
      <trkpt lat="45.36541" lon="4.4347">
        <ele>1062.3</ele>
        <time>2015-12-20T10:43:24Z</time>
      </trkpt>
      <trkpt lat="45.36542" lon="4.43473">
        <ele>1062.3</ele>
        <time>2015-12-20T10:43:31Z</time>
      </trkpt>
      <trkpt lat="45.36544" lon="4.43476">
        <ele>1062.2</ele>
        <time>2015-12-20T10:43:34Z</time>
      </trkpt>
      <trkpt lat="45.36546" lon="4.4348">
        <ele>1062.1</ele>
        <time>2015-12-20T10:43:36Z</time>
      </trkpt>
      <trkpt lat="45.36548" lon="4.43484">
        <ele>1061.9</ele>
        <time>2015-12-20T10:43:38Z</time>
      </trkpt>
      <trkpt lat="45.36551" lon="4.43487">
        <ele>1061.7</ele>
        <time>2015-12-20T10:43:40Z</time>
      </trkpt>
      <trkpt lat="45.36554" lon="4.4349">
        <ele>1061.5</ele>
        <time>2015-12-20T10:43:42Z</time>
      </trkpt>
      <trkpt lat="45.36558" lon="4.43495">
        <ele>1061.2</ele>
        <time>2015-12-20T10:43:44Z</time>
      </trkpt>
      <trkpt lat="45.36559" lon="4.43498">
        <ele>1061.1</ele>
        <time>2015-12-20T10:43:45Z</time>
      </trkpt>
      <trkpt lat="45.36562" lon="4.43505">
        <ele>1060.9</ele>
        <time>2015-12-20T10:43:47Z</time>
      </trkpt>
      <trkpt lat="45.36564" lon="4.43508">
        <ele>1060.8</ele>
        <time>2015-12-20T10:43:48Z</time>
      </trkpt>
      <trkpt lat="45.36568" lon="4.43513">
        <ele>1060.5</ele>
        <time>2015-12-20T10:43:50Z</time>
      </trkpt>
      <trkpt lat="45.3657" lon="4.43516">
        <ele>1060.3</ele>
        <time>2015-12-20T10:43:51Z</time>
      </trkpt>
      <trkpt lat="45.36573" lon="4.43519">
        <ele>1060.1</ele>
        <time>2015-12-20T10:43:52Z</time>
      </trkpt>
      <trkpt lat="45.36575" lon="4.43522">
        <ele>1059.9</ele>
        <time>2015-12-20T10:43:53Z</time>
      </trkpt>
      <trkpt lat="45.36578" lon="4.43525">
        <ele>1059.7</ele>
        <time>2015-12-20T10:43:54Z</time>
      </trkpt>
      <trkpt lat="45.3658" lon="4.43528">
        <ele>1059.5</ele>
        <time>2015-12-20T10:43:55Z</time>
      </trkpt>
      <trkpt lat="45.36583" lon="4.43531">
        <ele>1059.3</ele>
        <time>2015-12-20T10:43:56Z</time>
      </trkpt>
      <trkpt lat="45.36585" lon="4.43533">
        <ele>1059.1</ele>
        <time>2015-12-20T10:43:57Z</time>
      </trkpt>
      <trkpt lat="45.36587" lon="4.43537">
        <ele>1059</ele>
        <time>2015-12-20T10:43:58Z</time>
      </trkpt>
      <trkpt lat="45.3659" lon="4.4354">
        <ele>1058.8</ele>
        <time>2015-12-20T10:43:59Z</time>
      </trkpt>
      <trkpt lat="45.36591" lon="4.43544">
        <ele>1058.8</ele>
        <time>2015-12-20T10:44:00Z</time>
      </trkpt>
      <trkpt lat="45.36593" lon="4.43547">
        <ele>1058.8</ele>
        <time>2015-12-20T10:44:01Z</time>
      </trkpt>
      <trkpt lat="45.36596" lon="4.43551">
        <ele>1058.8</ele>
        <time>2015-12-20T10:44:02Z</time>
      </trkpt>
      <trkpt lat="45.36598" lon="4.43553">
        <ele>1058.7</ele>
        <time>2015-12-20T10:44:03Z</time>
      </trkpt>
      <trkpt lat="45.36602" lon="4.43557">
        <ele>1058.4</ele>
        <time>2015-12-20T10:44:05Z</time>
      </trkpt>
      <trkpt lat="45.36605" lon="4.43558">
        <ele>1058.2</ele>
        <time>2015-12-20T10:44:06Z</time>
      </trkpt>
      <trkpt lat="45.36608" lon="4.43559">
        <ele>1058</ele>
        <time>2015-12-20T10:44:07Z</time>
      </trkpt>
      <trkpt lat="45.36611" lon="4.4356">
        <ele>1057.7</ele>
        <time>2015-12-20T10:44:08Z</time>
      </trkpt>
      <trkpt lat="45.36614" lon="4.43561">
        <ele>1057.4</ele>
        <time>2015-12-20T10:44:09Z</time>
      </trkpt>
      <trkpt lat="45.36619" lon="4.43562">
        <ele>1056.9</ele>
        <time>2015-12-20T10:44:11Z</time>
      </trkpt>
      <trkpt lat="45.36624" lon="4.43564">
        <ele>1056.5</ele>
        <time>2015-12-20T10:44:13Z</time>
      </trkpt>
      <trkpt lat="45.36626" lon="4.43567">
        <ele>1056.5</ele>
        <time>2015-12-20T10:44:15Z</time>
      </trkpt>
      <trkpt lat="45.36629" lon="4.43571">
        <ele>1056.6</ele>
        <time>2015-12-20T10:44:17Z</time>
      </trkpt>
      <trkpt lat="45.36632" lon="4.43575">
        <ele>1056.7</ele>
        <time>2015-12-20T10:44:19Z</time>
      </trkpt>
      <trkpt lat="45.36635" lon="4.43577">
        <ele>1056.6</ele>
        <time>2015-12-20T10:44:21Z</time>
      </trkpt>
      <trkpt lat="45.36638" lon="4.43579">
        <ele>1056.6</ele>
        <time>2015-12-20T10:44:24Z</time>
      </trkpt>
      <trkpt lat="45.3664" lon="4.43581">
        <ele>1056.6</ele>
        <time>2015-12-20T10:44:29Z</time>
      </trkpt>
      <trkpt lat="45.36642" lon="4.43586">
        <ele>1056.7</ele>
        <time>2015-12-20T10:44:33Z</time>
      </trkpt>
      <trkpt lat="45.36647" lon="4.43588">
        <ele>1056.6</ele>
        <time>2015-12-20T10:44:35Z</time>
      </trkpt>
      <trkpt lat="45.3665" lon="4.43589">
        <ele>1056.4</ele>
        <time>2015-12-20T10:44:36Z</time>
      </trkpt>
      <trkpt lat="45.36652" lon="4.43589">
        <ele>1056.3</ele>
        <time>2015-12-20T10:44:37Z</time>
      </trkpt>
      <trkpt lat="45.36655" lon="4.43589">
        <ele>1056.1</ele>
        <time>2015-12-20T10:44:38Z</time>
      </trkpt>
      <trkpt lat="45.36659" lon="4.43589">
        <ele>1056</ele>
        <time>2015-12-20T10:44:39Z</time>
      </trkpt>
      <trkpt lat="45.36662" lon="4.4359">
        <ele>1055.8</ele>
        <time>2015-12-20T10:44:40Z</time>
      </trkpt>
      <trkpt lat="45.36665" lon="4.43591">
        <ele>1055.7</ele>
        <time>2015-12-20T10:44:41Z</time>
      </trkpt>
      <trkpt lat="45.36668" lon="4.43593">
        <ele>1055.5</ele>
        <time>2015-12-20T10:44:42Z</time>
      </trkpt>
      <trkpt lat="45.36671" lon="4.43594">
        <ele>1055.5</ele>
        <time>2015-12-20T10:44:43Z</time>
      </trkpt>
      <trkpt lat="45.36674" lon="4.43596">
        <ele>1055.3</ele>
        <time>2015-12-20T10:44:44Z</time>
      </trkpt>
      <trkpt lat="45.36677" lon="4.43598">
        <ele>1055.2</ele>
        <time>2015-12-20T10:44:45Z</time>
      </trkpt>
      <trkpt lat="45.3668" lon="4.43599">
        <ele>1055.1</ele>
        <time>2015-12-20T10:44:46Z</time>
      </trkpt>
      <trkpt lat="45.36682" lon="4.43601">
        <ele>1055</ele>
        <time>2015-12-20T10:44:47Z</time>
      </trkpt>
      <trkpt lat="45.36687" lon="4.43603">
        <ele>1054.8</ele>
        <time>2015-12-20T10:44:49Z</time>
      </trkpt>
      <trkpt lat="45.36689" lon="4.43605">
        <ele>1054.7</ele>
        <time>2015-12-20T10:44:50Z</time>
      </trkpt>
      <trkpt lat="45.36692" lon="4.43607">
        <ele>1054.6</ele>
        <time>2015-12-20T10:44:51Z</time>
      </trkpt>
      <trkpt lat="45.36694" lon="4.43608">
        <ele>1054.5</ele>
        <time>2015-12-20T10:44:52Z</time>
      </trkpt>
      <trkpt lat="45.36697" lon="4.43611">
        <ele>1054.4</ele>
        <time>2015-12-20T10:44:53Z</time>
      </trkpt>
      <trkpt lat="45.367" lon="4.43614">
        <ele>1054.3</ele>
        <time>2015-12-20T10:44:54Z</time>
      </trkpt>
      <trkpt lat="45.36702" lon="4.43617">
        <ele>1054.2</ele>
        <time>2015-12-20T10:44:55Z</time>
      </trkpt>
      <trkpt lat="45.36706" lon="4.43621">
        <ele>1054</ele>
        <time>2015-12-20T10:44:57Z</time>
      </trkpt>
      <trkpt lat="45.3671" lon="4.43624">
        <ele>1053.9</ele>
        <time>2015-12-20T10:44:59Z</time>
      </trkpt>
      <trkpt lat="45.36713" lon="4.43626">
        <ele>1053.9</ele>
        <time>2015-12-20T10:45:01Z</time>
      </trkpt>
      <trkpt lat="45.36718" lon="4.43629">
        <ele>1053.8</ele>
        <time>2015-12-20T10:45:03Z</time>
      </trkpt>
      <trkpt lat="45.36722" lon="4.43633">
        <ele>1053.7</ele>
        <time>2015-12-20T10:45:05Z</time>
      </trkpt>
      <trkpt lat="45.36726" lon="4.43636">
        <ele>1053.7</ele>
        <time>2015-12-20T10:45:07Z</time>
      </trkpt>
      <trkpt lat="45.3673" lon="4.43639">
        <ele>1053.6</ele>
        <time>2015-12-20T10:45:09Z</time>
      </trkpt>
      <trkpt lat="45.36736" lon="4.43642">
        <ele>1053.5</ele>
        <time>2015-12-20T10:45:11Z</time>
      </trkpt>
      <trkpt lat="45.36739" lon="4.43643">
        <ele>1053.4</ele>
        <time>2015-12-20T10:45:12Z</time>
      </trkpt>
      <trkpt lat="45.36742" lon="4.43643">
        <ele>1053.3</ele>
        <time>2015-12-20T10:45:13Z</time>
      </trkpt>
      <trkpt lat="45.36745" lon="4.43643">
        <ele>1053.3</ele>
        <time>2015-12-20T10:45:14Z</time>
      </trkpt>
      <trkpt lat="45.36748" lon="4.43642">
        <ele>1053.2</ele>
        <time>2015-12-20T10:45:15Z</time>
      </trkpt>
      <trkpt lat="45.36751" lon="4.43641">
        <ele>1053.1</ele>
        <time>2015-12-20T10:45:16Z</time>
      </trkpt>
      <trkpt lat="45.36755" lon="4.43641">
        <ele>1053</ele>
        <time>2015-12-20T10:45:17Z</time>
      </trkpt>
      <trkpt lat="45.36758" lon="4.4364">
        <ele>1052.9</ele>
        <time>2015-12-20T10:45:18Z</time>
      </trkpt>
      <trkpt lat="45.36763" lon="4.43641">
        <ele>1052.8</ele>
        <time>2015-12-20T10:45:20Z</time>
      </trkpt>
      <trkpt lat="45.36768" lon="4.43642">
        <ele>1052.6</ele>
        <time>2015-12-20T10:45:22Z</time>
      </trkpt>
      <trkpt lat="45.3677" lon="4.43644">
        <ele>1052.6</ele>
        <time>2015-12-20T10:45:23Z</time>
      </trkpt>
      <trkpt lat="45.36773" lon="4.43646">
        <ele>1052.5</ele>
        <time>2015-12-20T10:45:24Z</time>
      </trkpt>
      <trkpt lat="45.36775" lon="4.43649">
        <ele>1052.5</ele>
        <time>2015-12-20T10:45:25Z</time>
      </trkpt>
      <trkpt lat="45.36776" lon="4.43656">
        <ele>1052.4</ele>
        <time>2015-12-20T10:45:27Z</time>
      </trkpt>
      <trkpt lat="45.36776" lon="4.4366">
        <ele>1052.5</ele>
        <time>2015-12-20T10:45:28Z</time>
      </trkpt>
      <trkpt lat="45.36776" lon="4.43664">
        <ele>1052.5</ele>
        <time>2015-12-20T10:45:29Z</time>
      </trkpt>
      <trkpt lat="45.36777" lon="4.43668">
        <ele>1052.5</ele>
        <time>2015-12-20T10:45:30Z</time>
      </trkpt>
      <trkpt lat="45.36779" lon="4.43672">
        <ele>1052.4</ele>
        <time>2015-12-20T10:45:31Z</time>
      </trkpt>
      <trkpt lat="45.36781" lon="4.43675">
        <ele>1052.3</ele>
        <time>2015-12-20T10:45:32Z</time>
      </trkpt>
      <trkpt lat="45.36784" lon="4.43678">
        <ele>1052.2</ele>
        <time>2015-12-20T10:45:33Z</time>
      </trkpt>
      <trkpt lat="45.36786" lon="4.4368">
        <ele>1052.2</ele>
        <time>2015-12-20T10:45:34Z</time>
      </trkpt>
      <trkpt lat="45.3679" lon="4.43682">
        <ele>1052.1</ele>
        <time>2015-12-20T10:45:36Z</time>
      </trkpt>
      <trkpt lat="45.36794" lon="4.43687">
        <ele>1052</ele>
        <time>2015-12-20T10:45:38Z</time>
      </trkpt>
      <trkpt lat="45.36797" lon="4.43685">
        <ele>1052</ele>
        <time>2015-12-20T10:46:48Z</time>
      </trkpt>
      <trkpt lat="45.368" lon="4.43685">
        <ele>1052</ele>
        <time>2015-12-20T10:46:50Z</time>
      </trkpt>
      <trkpt lat="45.36803" lon="4.43685">
        <ele>1051.9</ele>
        <time>2015-12-20T10:46:52Z</time>
      </trkpt>
      <trkpt lat="45.36807" lon="4.43687">
        <ele>1051.9</ele>
        <time>2015-12-20T10:46:54Z</time>
      </trkpt>
      <trkpt lat="45.36809" lon="4.4369">
        <ele>1051.9</ele>
        <time>2015-12-20T10:46:55Z</time>
      </trkpt>
      <trkpt lat="45.36812" lon="4.43693">
        <ele>1051.8</ele>
        <time>2015-12-20T10:46:56Z</time>
      </trkpt>
      <trkpt lat="45.36815" lon="4.43695">
        <ele>1051.8</ele>
        <time>2015-12-20T10:46:57Z</time>
      </trkpt>
      <trkpt lat="45.36817" lon="4.43697">
        <ele>1051.8</ele>
        <time>2015-12-20T10:46:58Z</time>
      </trkpt>
      <trkpt lat="45.3682" lon="4.43699">
        <ele>1051.7</ele>
        <time>2015-12-20T10:46:59Z</time>
      </trkpt>
      <trkpt lat="45.36823" lon="4.43701">
        <ele>1051.7</ele>
        <time>2015-12-20T10:47:00Z</time>
      </trkpt>
      <trkpt lat="45.36826" lon="4.43703">
        <ele>1051.6</ele>
        <time>2015-12-20T10:47:01Z</time>
      </trkpt>
      <trkpt lat="45.36828" lon="4.43705">
        <ele>1051.6</ele>
        <time>2015-12-20T10:47:02Z</time>
      </trkpt>
      <trkpt lat="45.36832" lon="4.43709">
        <ele>1051.5</ele>
        <time>2015-12-20T10:47:04Z</time>
      </trkpt>
      <trkpt lat="45.36835" lon="4.43712">
        <ele>1051.6</ele>
        <time>2015-12-20T10:47:05Z</time>
      </trkpt>
      <trkpt lat="45.36837" lon="4.43714">
        <ele>1051.6</ele>
        <time>2015-12-20T10:47:06Z</time>
      </trkpt>
      <trkpt lat="45.36839" lon="4.43717">
        <ele>1051.7</ele>
        <time>2015-12-20T10:47:07Z</time>
      </trkpt>
      <trkpt lat="45.36841" lon="4.4372">
        <ele>1051.8</ele>
        <time>2015-12-20T10:47:08Z</time>
      </trkpt>
      <trkpt lat="45.36843" lon="4.43722">
        <ele>1051.8</ele>
        <time>2015-12-20T10:47:09Z</time>
      </trkpt>
      <trkpt lat="45.36847" lon="4.43727">
        <ele>1051.9</ele>
        <time>2015-12-20T10:47:11Z</time>
      </trkpt>
      <trkpt lat="45.36849" lon="4.4373">
        <ele>1052</ele>
        <time>2015-12-20T10:47:12Z</time>
      </trkpt>
      <trkpt lat="45.36851" lon="4.43733">
        <ele>1052.1</ele>
        <time>2015-12-20T10:47:13Z</time>
      </trkpt>
      <trkpt lat="45.36853" lon="4.43736">
        <ele>1052.2</ele>
        <time>2015-12-20T10:47:14Z</time>
      </trkpt>
      <trkpt lat="45.36855" lon="4.43739">
        <ele>1052.3</ele>
        <time>2015-12-20T10:47:15Z</time>
      </trkpt>
      <trkpt lat="45.36856" lon="4.43743">
        <ele>1052.4</ele>
        <time>2015-12-20T10:47:16Z</time>
      </trkpt>
      <trkpt lat="45.36858" lon="4.43747">
        <ele>1052.5</ele>
        <time>2015-12-20T10:47:17Z</time>
      </trkpt>
      <trkpt lat="45.36859" lon="4.4375">
        <ele>1052.6</ele>
        <time>2015-12-20T10:47:18Z</time>
      </trkpt>
      <trkpt lat="45.3686" lon="4.43754">
        <ele>1052.7</ele>
        <time>2015-12-20T10:47:19Z</time>
      </trkpt>
      <trkpt lat="45.36861" lon="4.43758">
        <ele>1052.9</ele>
        <time>2015-12-20T10:47:20Z</time>
      </trkpt>
      <trkpt lat="45.36862" lon="4.43762">
        <ele>1053</ele>
        <time>2015-12-20T10:47:21Z</time>
      </trkpt>
      <trkpt lat="45.36862" lon="4.43766">
        <ele>1053.1</ele>
        <time>2015-12-20T10:47:22Z</time>
      </trkpt>
      <trkpt lat="45.36863" lon="4.43771">
        <ele>1053.3</ele>
        <time>2015-12-20T10:47:23Z</time>
      </trkpt>
      <trkpt lat="45.36864" lon="4.43776">
        <ele>1053.5</ele>
        <time>2015-12-20T10:47:24Z</time>
      </trkpt>
      <trkpt lat="45.36864" lon="4.43781">
        <ele>1053.6</ele>
        <time>2015-12-20T10:47:25Z</time>
      </trkpt>
      <trkpt lat="45.36865" lon="4.43786">
        <ele>1053.8</ele>
        <time>2015-12-20T10:47:26Z</time>
      </trkpt>
      <trkpt lat="45.36865" lon="4.43791">
        <ele>1054</ele>
        <time>2015-12-20T10:47:27Z</time>
      </trkpt>
      <trkpt lat="45.36865" lon="4.43797">
        <ele>1053.9</ele>
        <time>2015-12-20T10:47:28Z</time>
      </trkpt>
      <trkpt lat="45.36866" lon="4.43802">
        <ele>1053.8</ele>
        <time>2015-12-20T10:47:29Z</time>
      </trkpt>
      <trkpt lat="45.36867" lon="4.43807">
        <ele>1053.7</ele>
        <time>2015-12-20T10:47:30Z</time>
      </trkpt>
      <trkpt lat="45.36868" lon="4.43813">
        <ele>1053.5</ele>
        <time>2015-12-20T10:47:31Z</time>
      </trkpt>
      <trkpt lat="45.36869" lon="4.43819">
        <ele>1053.4</ele>
        <time>2015-12-20T10:47:32Z</time>
      </trkpt>
      <trkpt lat="45.36869" lon="4.43826">
        <ele>1053.2</ele>
        <time>2015-12-20T10:47:33Z</time>
      </trkpt>
      <trkpt lat="45.36869" lon="4.43833">
        <ele>1053.1</ele>
        <time>2015-12-20T10:47:34Z</time>
      </trkpt>
      <trkpt lat="45.36868" lon="4.43839">
        <ele>1053</ele>
        <time>2015-12-20T10:47:35Z</time>
      </trkpt>
      <trkpt lat="45.36865" lon="4.43848">
        <ele>1052.8</ele>
        <time>2015-12-20T10:47:36Z</time>
      </trkpt>
      <trkpt lat="45.36865" lon="4.43856">
        <ele>1052.7</ele>
        <time>2015-12-20T10:47:37Z</time>
      </trkpt>
      <trkpt lat="45.36865" lon="4.43864">
        <ele>1052.5</ele>
        <time>2015-12-20T10:47:38Z</time>
      </trkpt>
      <trkpt lat="45.36864" lon="4.43873">
        <ele>1052.3</ele>
        <time>2015-12-20T10:47:39Z</time>
      </trkpt>
      <trkpt lat="45.36865" lon="4.43882">
        <ele>1052</ele>
        <time>2015-12-20T10:47:40Z</time>
      </trkpt>
      <trkpt lat="45.36865" lon="4.43889">
        <ele>1051.7</ele>
        <time>2015-12-20T10:47:41Z</time>
      </trkpt>
      <trkpt lat="45.36867" lon="4.43896">
        <ele>1051.5</ele>
        <time>2015-12-20T10:47:42Z</time>
      </trkpt>
      <trkpt lat="45.36867" lon="4.43905">
        <ele>1051.1</ele>
        <time>2015-12-20T10:47:43Z</time>
      </trkpt>
      <trkpt lat="45.36869" lon="4.43915">
        <ele>1050.7</ele>
        <time>2015-12-20T10:47:44Z</time>
      </trkpt>
      <trkpt lat="45.36869" lon="4.43924">
        <ele>1050.4</ele>
        <time>2015-12-20T10:47:45Z</time>
      </trkpt>
      <trkpt lat="45.36871" lon="4.43934">
        <ele>1050</ele>
        <time>2015-12-20T10:47:46Z</time>
      </trkpt>
      <trkpt lat="45.36871" lon="4.43941">
        <ele>1049.7</ele>
        <time>2015-12-20T10:47:47Z</time>
      </trkpt>
      <trkpt lat="45.36874" lon="4.43951">
        <ele>1049.3</ele>
        <time>2015-12-20T10:47:48Z</time>
      </trkpt>
      <trkpt lat="45.36876" lon="4.4396">
        <ele>1048.9</ele>
        <time>2015-12-20T10:47:49Z</time>
      </trkpt>
      <trkpt lat="45.3688" lon="4.43969">
        <ele>1048.1</ele>
        <time>2015-12-20T10:47:50Z</time>
      </trkpt>
      <trkpt lat="45.36885" lon="4.43978">
        <ele>1047.5</ele>
        <time>2015-12-20T10:47:51Z</time>
      </trkpt>
      <trkpt lat="45.36887" lon="4.43987">
        <ele>1046.9</ele>
        <time>2015-12-20T10:47:52Z</time>
      </trkpt>
      <trkpt lat="45.3689" lon="4.43998">
        <ele>1046.3</ele>
        <time>2015-12-20T10:47:53Z</time>
      </trkpt>
      <trkpt lat="45.36894" lon="4.44007">
        <ele>1045.7</ele>
        <time>2015-12-20T10:47:54Z</time>
      </trkpt>
      <trkpt lat="45.36899" lon="4.44017">
        <ele>1045.2</ele>
        <time>2015-12-20T10:47:55Z</time>
      </trkpt>
      <trkpt lat="45.36903" lon="4.44025">
        <ele>1044.7</ele>
        <time>2015-12-20T10:47:56Z</time>
      </trkpt>
      <trkpt lat="45.36908" lon="4.44035">
        <ele>1044.3</ele>
        <time>2015-12-20T10:47:57Z</time>
      </trkpt>
      <trkpt lat="45.36912" lon="4.44044">
        <ele>1043.9</ele>
        <time>2015-12-20T10:47:58Z</time>
      </trkpt>
      <trkpt lat="45.36917" lon="4.44052">
        <ele>1043.6</ele>
        <time>2015-12-20T10:47:59Z</time>
      </trkpt>
      <trkpt lat="45.36923" lon="4.4406">
        <ele>1043.4</ele>
        <time>2015-12-20T10:48:00Z</time>
      </trkpt>
      <trkpt lat="45.36928" lon="4.44066">
        <ele>1043.3</ele>
        <time>2015-12-20T10:48:01Z</time>
      </trkpt>
      <trkpt lat="45.36934" lon="4.44072">
        <ele>1043.2</ele>
        <time>2015-12-20T10:48:02Z</time>
      </trkpt>
      <trkpt lat="45.36939" lon="4.44078">
        <ele>1043.2</ele>
        <time>2015-12-20T10:48:03Z</time>
      </trkpt>
      <trkpt lat="45.36946" lon="4.44083">
        <ele>1043.2</ele>
        <time>2015-12-20T10:48:04Z</time>
      </trkpt>
      <trkpt lat="45.36951" lon="4.44085">
        <ele>1043.3</ele>
        <time>2015-12-20T10:48:05Z</time>
      </trkpt>
      <trkpt lat="45.36958" lon="4.44088">
        <ele>1043.4</ele>
        <time>2015-12-20T10:48:06Z</time>
      </trkpt>
      <trkpt lat="45.36964" lon="4.44092">
        <ele>1043</ele>
        <time>2015-12-20T10:48:07Z</time>
      </trkpt>
      <trkpt lat="45.36971" lon="4.44097">
        <ele>1042.4</ele>
        <time>2015-12-20T10:48:08Z</time>
      </trkpt>
      <trkpt lat="45.3698" lon="4.44101">
        <ele>1041.9</ele>
        <time>2015-12-20T10:48:09Z</time>
      </trkpt>
      <trkpt lat="45.36987" lon="4.44103">
        <ele>1041.4</ele>
        <time>2015-12-20T10:48:10Z</time>
      </trkpt>
      <trkpt lat="45.36994" lon="4.44103">
        <ele>1040.9</ele>
        <time>2015-12-20T10:48:11Z</time>
      </trkpt>
      <trkpt lat="45.37003" lon="4.44103">
        <ele>1040.3</ele>
        <time>2015-12-20T10:48:12Z</time>
      </trkpt>
      <trkpt lat="45.37009" lon="4.44102">
        <ele>1039.9</ele>
        <time>2015-12-20T10:48:13Z</time>
      </trkpt>
      <trkpt lat="45.37016" lon="4.44097">
        <ele>1039.4</ele>
        <time>2015-12-20T10:48:14Z</time>
      </trkpt>
      <trkpt lat="45.37024" lon="4.44093">
        <ele>1038.8</ele>
        <time>2015-12-20T10:48:15Z</time>
      </trkpt>
      <trkpt lat="45.3703" lon="4.4409">
        <ele>1038.4</ele>
        <time>2015-12-20T10:48:16Z</time>
      </trkpt>
      <trkpt lat="45.37036" lon="4.44086">
        <ele>1037.9</ele>
        <time>2015-12-20T10:48:17Z</time>
      </trkpt>
      <trkpt lat="45.37046" lon="4.44086">
        <ele>1037.3</ele>
        <time>2015-12-20T10:48:18Z</time>
      </trkpt>
      <trkpt lat="45.3705" lon="4.44082">
        <ele>1037</ele>
        <time>2015-12-20T10:48:19Z</time>
      </trkpt>
      <trkpt lat="45.37055" lon="4.44077">
        <ele>1036.7</ele>
        <time>2015-12-20T10:48:20Z</time>
      </trkpt>
      <trkpt lat="45.3706" lon="4.44074">
        <ele>1036.5</ele>
        <time>2015-12-20T10:48:21Z</time>
      </trkpt>
      <trkpt lat="45.37064" lon="4.44069">
        <ele>1036.3</ele>
        <time>2015-12-20T10:48:22Z</time>
      </trkpt>
      <trkpt lat="45.37069" lon="4.44066">
        <ele>1036.2</ele>
        <time>2015-12-20T10:48:23Z</time>
      </trkpt>
      <trkpt lat="45.37073" lon="4.44064">
        <ele>1036.1</ele>
        <time>2015-12-20T10:48:24Z</time>
      </trkpt>
      <trkpt lat="45.37077" lon="4.44062">
        <ele>1036</ele>
        <time>2015-12-20T10:48:25Z</time>
      </trkpt>
      <trkpt lat="45.37081" lon="4.44059">
        <ele>1035.9</ele>
        <time>2015-12-20T10:48:26Z</time>
      </trkpt>
      <trkpt lat="45.37085" lon="4.44057">
        <ele>1035.9</ele>
        <time>2015-12-20T10:48:27Z</time>
      </trkpt>
      <trkpt lat="45.37089" lon="4.44056">
        <ele>1035.8</ele>
        <time>2015-12-20T10:48:28Z</time>
      </trkpt>
      <trkpt lat="45.37094" lon="4.44055">
        <ele>1035.7</ele>
        <time>2015-12-20T10:48:29Z</time>
      </trkpt>
      <trkpt lat="45.37098" lon="4.44054">
        <ele>1035.7</ele>
        <time>2015-12-20T10:48:30Z</time>
      </trkpt>
      <trkpt lat="45.37103" lon="4.44053">
        <ele>1035.6</ele>
        <time>2015-12-20T10:48:31Z</time>
      </trkpt>
      <trkpt lat="45.37109" lon="4.44053">
        <ele>1035.5</ele>
        <time>2015-12-20T10:48:32Z</time>
      </trkpt>
      <trkpt lat="45.37114" lon="4.44053">
        <ele>1035.4</ele>
        <time>2015-12-20T10:48:33Z</time>
      </trkpt>
      <trkpt lat="45.37119" lon="4.44053">
        <ele>1035.2</ele>
        <time>2015-12-20T10:48:34Z</time>
      </trkpt>
      <trkpt lat="45.37123" lon="4.44052">
        <ele>1035.1</ele>
        <time>2015-12-20T10:48:35Z</time>
      </trkpt>
      <trkpt lat="45.37128" lon="4.44053">
        <ele>1034.8</ele>
        <time>2015-12-20T10:48:36Z</time>
      </trkpt>
      <trkpt lat="45.37134" lon="4.44052">
        <ele>1034.4</ele>
        <time>2015-12-20T10:48:37Z</time>
      </trkpt>
      <trkpt lat="45.3714" lon="4.44052">
        <ele>1034</ele>
        <time>2015-12-20T10:48:38Z</time>
      </trkpt>
      <trkpt lat="45.37145" lon="4.44054">
        <ele>1033.5</ele>
        <time>2015-12-20T10:48:39Z</time>
      </trkpt>
      <trkpt lat="45.3715" lon="4.44055">
        <ele>1032.9</ele>
        <time>2015-12-20T10:48:40Z</time>
      </trkpt>
      <trkpt lat="45.37155" lon="4.44058">
        <ele>1032.3</ele>
        <time>2015-12-20T10:48:41Z</time>
      </trkpt>
      <trkpt lat="45.37159" lon="4.44062">
        <ele>1031.6</ele>
        <time>2015-12-20T10:48:42Z</time>
      </trkpt>
      <trkpt lat="45.37164" lon="4.44064">
        <ele>1030.9</ele>
        <time>2015-12-20T10:48:43Z</time>
      </trkpt>
      <trkpt lat="45.37169" lon="4.44069">
        <ele>1030.1</ele>
        <time>2015-12-20T10:48:44Z</time>
      </trkpt>
      <trkpt lat="45.37174" lon="4.44073">
        <ele>1029.1</ele>
        <time>2015-12-20T10:48:45Z</time>
      </trkpt>
      <trkpt lat="45.37179" lon="4.44078">
        <ele>1028.3</ele>
        <time>2015-12-20T10:48:46Z</time>
      </trkpt>
      <trkpt lat="45.37185" lon="4.44083">
        <ele>1027.2</ele>
        <time>2015-12-20T10:48:47Z</time>
      </trkpt>
      <trkpt lat="45.3719" lon="4.44089">
        <ele>1026</ele>
        <time>2015-12-20T10:48:48Z</time>
      </trkpt>
      <trkpt lat="45.37196" lon="4.44095">
        <ele>1024.8</ele>
        <time>2015-12-20T10:48:49Z</time>
      </trkpt>
      <trkpt lat="45.37201" lon="4.441">
        <ele>1023.7</ele>
        <time>2015-12-20T10:48:50Z</time>
      </trkpt>
      <trkpt lat="45.37208" lon="4.44106">
        <ele>1022.3</ele>
        <time>2015-12-20T10:48:51Z</time>
      </trkpt>
      <trkpt lat="45.37214" lon="4.44112">
        <ele>1021.2</ele>
        <time>2015-12-20T10:48:52Z</time>
      </trkpt>
      <trkpt lat="45.37222" lon="4.44116">
        <ele>1020.1</ele>
        <time>2015-12-20T10:48:53Z</time>
      </trkpt>
      <trkpt lat="45.3723" lon="4.44118">
        <ele>1019.2</ele>
        <time>2015-12-20T10:48:54Z</time>
      </trkpt>
      <trkpt lat="45.37239" lon="4.44118">
        <ele>1018.6</ele>
        <time>2015-12-20T10:48:55Z</time>
      </trkpt>
      <trkpt lat="45.37249" lon="4.4412">
        <ele>1017.7</ele>
        <time>2015-12-20T10:48:56Z</time>
      </trkpt>
      <trkpt lat="45.37257" lon="4.44121">
        <ele>1017</ele>
        <time>2015-12-20T10:48:57Z</time>
      </trkpt>
      <trkpt lat="45.37264" lon="4.44121">
        <ele>1016.4</ele>
        <time>2015-12-20T10:48:58Z</time>
      </trkpt>
      <trkpt lat="45.37273" lon="4.44119">
        <ele>1016</ele>
        <time>2015-12-20T10:48:59Z</time>
      </trkpt>
      <trkpt lat="45.37281" lon="4.44116">
        <ele>1015.7</ele>
        <time>2015-12-20T10:49:00Z</time>
      </trkpt>
      <trkpt lat="45.37289" lon="4.44112">
        <ele>1015.5</ele>
        <time>2015-12-20T10:49:01Z</time>
      </trkpt>
      <trkpt lat="45.37296" lon="4.44108">
        <ele>1015.2</ele>
        <time>2015-12-20T10:49:02Z</time>
      </trkpt>
      <trkpt lat="45.37303" lon="4.44105">
        <ele>1014.8</ele>
        <time>2015-12-20T10:49:03Z</time>
      </trkpt>
      <trkpt lat="45.37309" lon="4.44101">
        <ele>1014.5</ele>
        <time>2015-12-20T10:49:04Z</time>
      </trkpt>
      <trkpt lat="45.37315" lon="4.44096">
        <ele>1014.4</ele>
        <time>2015-12-20T10:49:05Z</time>
      </trkpt>
      <trkpt lat="45.3732" lon="4.44094">
        <ele>1014.1</ele>
        <time>2015-12-20T10:49:06Z</time>
      </trkpt>
      <trkpt lat="45.37325" lon="4.44091">
        <ele>1013.8</ele>
        <time>2015-12-20T10:49:07Z</time>
      </trkpt>
      <trkpt lat="45.37331" lon="4.44088">
        <ele>1013.5</ele>
        <time>2015-12-20T10:49:08Z</time>
      </trkpt>
      <trkpt lat="45.37336" lon="4.44086">
        <ele>1013.2</ele>
        <time>2015-12-20T10:49:09Z</time>
      </trkpt>
      <trkpt lat="45.37342" lon="4.44085">
        <ele>1012.8</ele>
        <time>2015-12-20T10:49:10Z</time>
      </trkpt>
      <trkpt lat="45.37347" lon="4.44082">
        <ele>1012.5</ele>
        <time>2015-12-20T10:49:11Z</time>
      </trkpt>
      <trkpt lat="45.37352" lon="4.4408">
        <ele>1012.2</ele>
        <time>2015-12-20T10:49:12Z</time>
      </trkpt>
      <trkpt lat="45.37357" lon="4.44077">
        <ele>1012</ele>
        <time>2015-12-20T10:49:13Z</time>
      </trkpt>
      <trkpt lat="45.37362" lon="4.44075">
        <ele>1011.8</ele>
        <time>2015-12-20T10:49:14Z</time>
      </trkpt>
      <trkpt lat="45.37365" lon="4.44073">
        <ele>1011.6</ele>
        <time>2015-12-20T10:49:15Z</time>
      </trkpt>
      <trkpt lat="45.37369" lon="4.44071">
        <ele>1011.4</ele>
        <time>2015-12-20T10:49:16Z</time>
      </trkpt>
      <trkpt lat="45.37373" lon="4.44069">
        <ele>1011.3</ele>
        <time>2015-12-20T10:49:17Z</time>
      </trkpt>
      <trkpt lat="45.37377" lon="4.44067">
        <ele>1011.3</ele>
        <time>2015-12-20T10:49:18Z</time>
      </trkpt>
      <trkpt lat="45.37381" lon="4.44066">
        <ele>1011.7</ele>
        <time>2015-12-20T10:49:19Z</time>
      </trkpt>
      <trkpt lat="45.37384" lon="4.44063">
        <ele>1012.1</ele>
        <time>2015-12-20T10:49:20Z</time>
      </trkpt>
      <trkpt lat="45.37387" lon="4.44061">
        <ele>1012.4</ele>
        <time>2015-12-20T10:49:21Z</time>
      </trkpt>
      <trkpt lat="45.37391" lon="4.44059">
        <ele>1012.7</ele>
        <time>2015-12-20T10:49:22Z</time>
      </trkpt>
      <trkpt lat="45.37395" lon="4.44056">
        <ele>1013.2</ele>
        <time>2015-12-20T10:49:23Z</time>
      </trkpt>
      <trkpt lat="45.37399" lon="4.44054">
        <ele>1013.5</ele>
        <time>2015-12-20T10:49:24Z</time>
      </trkpt>
      <trkpt lat="45.37403" lon="4.44051">
        <ele>1013.8</ele>
        <time>2015-12-20T10:49:25Z</time>
      </trkpt>
      <trkpt lat="45.37407" lon="4.44049">
        <ele>1014.2</ele>
        <time>2015-12-20T10:49:26Z</time>
      </trkpt>
      <trkpt lat="45.37411" lon="4.44046">
        <ele>1014.5</ele>
        <time>2015-12-20T10:49:27Z</time>
      </trkpt>
      <trkpt lat="45.37415" lon="4.44043">
        <ele>1014.9</ele>
        <time>2015-12-20T10:49:28Z</time>
      </trkpt>
      <trkpt lat="45.37419" lon="4.4404">
        <ele>1015.2</ele>
        <time>2015-12-20T10:49:29Z</time>
      </trkpt>
      <trkpt lat="45.37424" lon="4.44039">
        <ele>1015.4</ele>
        <time>2015-12-20T10:49:30Z</time>
      </trkpt>
      <trkpt lat="45.37426" lon="4.44035">
        <ele>1015.6</ele>
        <time>2015-12-20T10:49:31Z</time>
      </trkpt>
      <trkpt lat="45.3743" lon="4.4403">
        <ele>1016</ele>
        <time>2015-12-20T10:49:32Z</time>
      </trkpt>
      <trkpt lat="45.37433" lon="4.44025">
        <ele>1016.3</ele>
        <time>2015-12-20T10:49:33Z</time>
      </trkpt>
      <trkpt lat="45.37436" lon="4.44021">
        <ele>1016.5</ele>
        <time>2015-12-20T10:49:34Z</time>
      </trkpt>
      <trkpt lat="45.37439" lon="4.44017">
        <ele>1016.8</ele>
        <time>2015-12-20T10:49:35Z</time>
      </trkpt>
      <trkpt lat="45.37442" lon="4.44014">
        <ele>1016.9</ele>
        <time>2015-12-20T10:49:36Z</time>
      </trkpt>
      <trkpt lat="45.37444" lon="4.44011">
        <ele>1017.1</ele>
        <time>2015-12-20T10:49:37Z</time>
      </trkpt>
      <trkpt lat="45.37448" lon="4.44006">
        <ele>1017.3</ele>
        <time>2015-12-20T10:49:38Z</time>
      </trkpt>
      <trkpt lat="45.37451" lon="4.44002">
        <ele>1017.5</ele>
        <time>2015-12-20T10:49:39Z</time>
      </trkpt>
      <trkpt lat="45.37453" lon="4.43999">
        <ele>1017.6</ele>
        <time>2015-12-20T10:49:40Z</time>
      </trkpt>
      <trkpt lat="45.37455" lon="4.43995">
        <ele>1017.7</ele>
        <time>2015-12-20T10:49:41Z</time>
      </trkpt>
      <trkpt lat="45.37459" lon="4.43991">
        <ele>1017.8</ele>
        <time>2015-12-20T10:49:42Z</time>
      </trkpt>
      <trkpt lat="45.37461" lon="4.43985">
        <ele>1017.8</ele>
        <time>2015-12-20T10:49:43Z</time>
      </trkpt>
      <trkpt lat="45.37464" lon="4.43982">
        <ele>1017.6</ele>
        <time>2015-12-20T10:49:44Z</time>
      </trkpt>
      <trkpt lat="45.37467" lon="4.43978">
        <ele>1017.5</ele>
        <time>2015-12-20T10:49:45Z</time>
      </trkpt>
      <trkpt lat="45.37471" lon="4.43973">
        <ele>1017.3</ele>
        <time>2015-12-20T10:49:46Z</time>
      </trkpt>
      <trkpt lat="45.37476" lon="4.43967">
        <ele>1017</ele>
        <time>2015-12-20T10:49:47Z</time>
      </trkpt>
      <trkpt lat="45.37479" lon="4.43961">
        <ele>1017</ele>
        <time>2015-12-20T10:49:48Z</time>
      </trkpt>
      <trkpt lat="45.37481" lon="4.43954">
        <ele>1016.8</ele>
        <time>2015-12-20T10:49:49Z</time>
      </trkpt>
      <trkpt lat="45.37485" lon="4.43947">
        <ele>1016.5</ele>
        <time>2015-12-20T10:49:50Z</time>
      </trkpt>
      <trkpt lat="45.37487" lon="4.43941">
        <ele>1016.4</ele>
        <time>2015-12-20T10:49:51Z</time>
      </trkpt>
      <trkpt lat="45.37488" lon="4.43934">
        <ele>1016.3</ele>
        <time>2015-12-20T10:49:52Z</time>
      </trkpt>
      <trkpt lat="45.37489" lon="4.43928">
        <ele>1016.1</ele>
        <time>2015-12-20T10:49:53Z</time>
      </trkpt>
      <trkpt lat="45.37491" lon="4.43921">
        <ele>1016</ele>
        <time>2015-12-20T10:49:54Z</time>
      </trkpt>
      <trkpt lat="45.37492" lon="4.43914">
        <ele>1015.9</ele>
        <time>2015-12-20T10:49:55Z</time>
      </trkpt>
      <trkpt lat="45.37493" lon="4.43909">
        <ele>1015.8</ele>
        <time>2015-12-20T10:49:56Z</time>
      </trkpt>
      <trkpt lat="45.37494" lon="4.43903">
        <ele>1015.7</ele>
        <time>2015-12-20T10:49:57Z</time>
      </trkpt>
      <trkpt lat="45.37494" lon="4.43895">
        <ele>1015.7</ele>
        <time>2015-12-20T10:49:58Z</time>
      </trkpt>
      <trkpt lat="45.37497" lon="4.43887">
        <ele>1015.4</ele>
        <time>2015-12-20T10:49:59Z</time>
      </trkpt>
      <trkpt lat="45.37497" lon="4.4388">
        <ele>1015.4</ele>
        <time>2015-12-20T10:50:00Z</time>
      </trkpt>
      <trkpt lat="45.37496" lon="4.43873">
        <ele>1015.5</ele>
        <time>2015-12-20T10:50:01Z</time>
      </trkpt>
      <trkpt lat="45.37497" lon="4.43867">
        <ele>1015.6</ele>
        <time>2015-12-20T10:50:02Z</time>
      </trkpt>
      <trkpt lat="45.37499" lon="4.43859">
        <ele>1015.7</ele>
        <time>2015-12-20T10:50:03Z</time>
      </trkpt>
      <trkpt lat="45.37499" lon="4.43851">
        <ele>1016.1</ele>
        <time>2015-12-20T10:50:04Z</time>
      </trkpt>
      <trkpt lat="45.37499" lon="4.43843">
        <ele>1016.3</ele>
        <time>2015-12-20T10:50:05Z</time>
      </trkpt>
      <trkpt lat="45.37501" lon="4.43833">
        <ele>1016.4</ele>
        <time>2015-12-20T10:50:06Z</time>
      </trkpt>
      <trkpt lat="45.37501" lon="4.43827">
        <ele>1016.6</ele>
        <time>2015-12-20T10:50:07Z</time>
      </trkpt>
      <trkpt lat="45.37503" lon="4.43817">
        <ele>1016.7</ele>
        <time>2015-12-20T10:50:08Z</time>
      </trkpt>
      <trkpt lat="45.37504" lon="4.4381">
        <ele>1016.8</ele>
        <time>2015-12-20T10:50:09Z</time>
      </trkpt>
      <trkpt lat="45.37505" lon="4.43803">
        <ele>1016.9</ele>
        <time>2015-12-20T10:50:10Z</time>
      </trkpt>
      <trkpt lat="45.37506" lon="4.43797">
        <ele>1017</ele>
        <time>2015-12-20T10:50:11Z</time>
      </trkpt>
      <trkpt lat="45.37505" lon="4.4379">
        <ele>1017.5</ele>
        <time>2015-12-20T10:50:12Z</time>
      </trkpt>
      <trkpt lat="45.37505" lon="4.43782">
        <ele>1018.5</ele>
        <time>2015-12-20T10:50:13Z</time>
      </trkpt>
      <trkpt lat="45.37505" lon="4.43774">
        <ele>1019.6</ele>
        <time>2015-12-20T10:50:14Z</time>
      </trkpt>
      <trkpt lat="45.37505" lon="4.43766">
        <ele>1020.6</ele>
        <time>2015-12-20T10:50:15Z</time>
      </trkpt>
      <trkpt lat="45.37505" lon="4.43757">
        <ele>1021.7</ele>
        <time>2015-12-20T10:50:16Z</time>
      </trkpt>
      <trkpt lat="45.37506" lon="4.43748">
        <ele>1022.6</ele>
        <time>2015-12-20T10:50:17Z</time>
      </trkpt>
      <trkpt lat="45.37508" lon="4.4374">
        <ele>1023.3</ele>
        <time>2015-12-20T10:50:18Z</time>
      </trkpt>
      <trkpt lat="45.37509" lon="4.43732">
        <ele>1024.2</ele>
        <time>2015-12-20T10:50:19Z</time>
      </trkpt>
      <trkpt lat="45.37513" lon="4.43725">
        <ele>1024.3</ele>
        <time>2015-12-20T10:50:20Z</time>
      </trkpt>
      <trkpt lat="45.37518" lon="4.43718">
        <ele>1024</ele>
        <time>2015-12-20T10:50:21Z</time>
      </trkpt>
      <trkpt lat="45.37524" lon="4.43712">
        <ele>1023.4</ele>
        <time>2015-12-20T10:50:22Z</time>
      </trkpt>
      <trkpt lat="45.37529" lon="4.43707">
        <ele>1023</ele>
        <time>2015-12-20T10:50:23Z</time>
      </trkpt>
      <trkpt lat="45.37536" lon="4.43702">
        <ele>1022.5</ele>
        <time>2015-12-20T10:50:24Z</time>
      </trkpt>
      <trkpt lat="45.37543" lon="4.43698">
        <ele>1021.8</ele>
        <time>2015-12-20T10:50:25Z</time>
      </trkpt>
      <trkpt lat="45.37549" lon="4.43694">
        <ele>1021.6</ele>
        <time>2015-12-20T10:50:26Z</time>
      </trkpt>
      <trkpt lat="45.37556" lon="4.43692">
        <ele>1021.2</ele>
        <time>2015-12-20T10:50:27Z</time>
      </trkpt>
      <trkpt lat="45.37562" lon="4.43689">
        <ele>1021</ele>
        <time>2015-12-20T10:50:28Z</time>
      </trkpt>
      <trkpt lat="45.37569" lon="4.43687">
        <ele>1020.6</ele>
        <time>2015-12-20T10:50:29Z</time>
      </trkpt>
      <trkpt lat="45.37575" lon="4.43686">
        <ele>1020.1</ele>
        <time>2015-12-20T10:50:30Z</time>
      </trkpt>
      <trkpt lat="45.37582" lon="4.43685">
        <ele>1019.5</ele>
        <time>2015-12-20T10:50:31Z</time>
      </trkpt>
      <trkpt lat="45.37587" lon="4.43684">
        <ele>1019.1</ele>
        <time>2015-12-20T10:50:32Z</time>
      </trkpt>
      <trkpt lat="45.37593" lon="4.43682">
        <ele>1018.9</ele>
        <time>2015-12-20T10:50:33Z</time>
      </trkpt>
      <trkpt lat="45.37598" lon="4.43679">
        <ele>1018.8</ele>
        <time>2015-12-20T10:50:34Z</time>
      </trkpt>
      <trkpt lat="45.37605" lon="4.43676">
        <ele>1018.6</ele>
        <time>2015-12-20T10:50:35Z</time>
      </trkpt>
      <trkpt lat="45.3761" lon="4.43675">
        <ele>1018.3</ele>
        <time>2015-12-20T10:50:36Z</time>
      </trkpt>
      <trkpt lat="45.37615" lon="4.43674">
        <ele>1018</ele>
        <time>2015-12-20T10:50:37Z</time>
      </trkpt>
      <trkpt lat="45.37622" lon="4.43673">
        <ele>1017.5</ele>
        <time>2015-12-20T10:50:38Z</time>
      </trkpt>
      <trkpt lat="45.37628" lon="4.43671">
        <ele>1017.2</ele>
        <time>2015-12-20T10:50:39Z</time>
      </trkpt>
      <trkpt lat="45.37634" lon="4.4367">
        <ele>1016.4</ele>
        <time>2015-12-20T10:50:40Z</time>
      </trkpt>
      <trkpt lat="45.3764" lon="4.43668">
        <ele>1016.1</ele>
        <time>2015-12-20T10:50:41Z</time>
      </trkpt>
      <trkpt lat="45.37647" lon="4.43667">
        <ele>1015.3</ele>
        <time>2015-12-20T10:50:42Z</time>
      </trkpt>
      <trkpt lat="45.37655" lon="4.43665">
        <ele>1014.6</ele>
        <time>2015-12-20T10:50:43Z</time>
      </trkpt>
      <trkpt lat="45.37662" lon="4.43662">
        <ele>1014.2</ele>
        <time>2015-12-20T10:50:44Z</time>
      </trkpt>
      <trkpt lat="45.37668" lon="4.43659">
        <ele>1014.1</ele>
        <time>2015-12-20T10:50:45Z</time>
      </trkpt>
      <trkpt lat="45.37676" lon="4.43658">
        <ele>1013.3</ele>
        <time>2015-12-20T10:50:46Z</time>
      </trkpt>
      <trkpt lat="45.37683" lon="4.43656">
        <ele>1012.6</ele>
        <time>2015-12-20T10:50:47Z</time>
      </trkpt>
      <trkpt lat="45.37692" lon="4.43656">
        <ele>1011.3</ele>
        <time>2015-12-20T10:50:48Z</time>
      </trkpt>
      <trkpt lat="45.37699" lon="4.43654">
        <ele>1010.8</ele>
        <time>2015-12-20T10:50:49Z</time>
      </trkpt>
      <trkpt lat="45.37706" lon="4.4365">
        <ele>1010.6</ele>
        <time>2015-12-20T10:50:50Z</time>
      </trkpt>
      <trkpt lat="45.37713" lon="4.43648">
        <ele>1009.9</ele>
        <time>2015-12-20T10:50:51Z</time>
      </trkpt>
      <trkpt lat="45.3772" lon="4.43645">
        <ele>1009.1</ele>
        <time>2015-12-20T10:50:52Z</time>
      </trkpt>
      <trkpt lat="45.37726" lon="4.43642">
        <ele>1008.6</ele>
        <time>2015-12-20T10:50:53Z</time>
      </trkpt>
      <trkpt lat="45.37733" lon="4.4364">
        <ele>1007.7</ele>
        <time>2015-12-20T10:50:54Z</time>
      </trkpt>
      <trkpt lat="45.37738" lon="4.43637">
        <ele>1007.4</ele>
        <time>2015-12-20T10:50:55Z</time>
      </trkpt>
      <trkpt lat="45.37744" lon="4.43634">
        <ele>1006.8</ele>
        <time>2015-12-20T10:50:56Z</time>
      </trkpt>
      <trkpt lat="45.37749" lon="4.43632">
        <ele>1006.3</ele>
        <time>2015-12-20T10:50:57Z</time>
      </trkpt>
      <trkpt lat="45.37755" lon="4.43628">
        <ele>1005.9</ele>
        <time>2015-12-20T10:50:58Z</time>
      </trkpt>
      <trkpt lat="45.37761" lon="4.43623">
        <ele>1005.6</ele>
        <time>2015-12-20T10:50:59Z</time>
      </trkpt>
      <trkpt lat="45.37766" lon="4.43618">
        <ele>1005.1</ele>
        <time>2015-12-20T10:51:00Z</time>
      </trkpt>
      <trkpt lat="45.37772" lon="4.43612">
        <ele>1004.9</ele>
        <time>2015-12-20T10:51:01Z</time>
      </trkpt>
      <trkpt lat="45.37778" lon="4.43606">
        <ele>1004.5</ele>
        <time>2015-12-20T10:51:02Z</time>
      </trkpt>
      <trkpt lat="45.37782" lon="4.43601">
        <ele>1004.4</ele>
        <time>2015-12-20T10:51:03Z</time>
      </trkpt>
      <trkpt lat="45.37786" lon="4.43595">
        <ele>1004.4</ele>
        <time>2015-12-20T10:51:04Z</time>
      </trkpt>
      <trkpt lat="45.37791" lon="4.43588">
        <ele>1004.6</ele>
        <time>2015-12-20T10:51:05Z</time>
      </trkpt>
      <trkpt lat="45.37795" lon="4.43581">
        <ele>1004.5</ele>
        <time>2015-12-20T10:51:06Z</time>
      </trkpt>
      <trkpt lat="45.37799" lon="4.43573">
        <ele>1004.3</ele>
        <time>2015-12-20T10:51:07Z</time>
      </trkpt>
      <trkpt lat="45.37804" lon="4.43566">
        <ele>1003.6</ele>
        <time>2015-12-20T10:51:08Z</time>
      </trkpt>
      <trkpt lat="45.37807" lon="4.4356">
        <ele>1003.4</ele>
        <time>2015-12-20T10:51:09Z</time>
      </trkpt>
      <trkpt lat="45.37812" lon="4.43553">
        <ele>1003</ele>
        <time>2015-12-20T10:51:10Z</time>
      </trkpt>
      <trkpt lat="45.37815" lon="4.43547">
        <ele>1002.8</ele>
        <time>2015-12-20T10:51:11Z</time>
      </trkpt>
      <trkpt lat="45.37819" lon="4.4354">
        <ele>1002.5</ele>
        <time>2015-12-20T10:51:12Z</time>
      </trkpt>
      <trkpt lat="45.37822" lon="4.43533">
        <ele>1002.3</ele>
        <time>2015-12-20T10:51:13Z</time>
      </trkpt>
      <trkpt lat="45.37826" lon="4.43526">
        <ele>1002</ele>
        <time>2015-12-20T10:51:14Z</time>
      </trkpt>
      <trkpt lat="45.37829" lon="4.43519">
        <ele>1002</ele>
        <time>2015-12-20T10:51:15Z</time>
      </trkpt>
      <trkpt lat="45.37831" lon="4.43512">
        <ele>1002.3</ele>
        <time>2015-12-20T10:51:16Z</time>
      </trkpt>
      <trkpt lat="45.37834" lon="4.43504">
        <ele>1002.4</ele>
        <time>2015-12-20T10:51:17Z</time>
      </trkpt>
      <trkpt lat="45.37836" lon="4.43495">
        <ele>1002.6</ele>
        <time>2015-12-20T10:51:18Z</time>
      </trkpt>
      <trkpt lat="45.37838" lon="4.43486">
        <ele>1003.1</ele>
        <time>2015-12-20T10:51:19Z</time>
      </trkpt>
      <trkpt lat="45.37842" lon="4.43477">
        <ele>1003.2</ele>
        <time>2015-12-20T10:51:20Z</time>
      </trkpt>
      <trkpt lat="45.37845" lon="4.43468">
        <ele>1003.4</ele>
        <time>2015-12-20T10:51:21Z</time>
      </trkpt>
      <trkpt lat="45.37846" lon="4.43459">
        <ele>1004</ele>
        <time>2015-12-20T10:51:22Z</time>
      </trkpt>
      <trkpt lat="45.37848" lon="4.43451">
        <ele>1004.2</ele>
        <time>2015-12-20T10:51:23Z</time>
      </trkpt>
      <trkpt lat="45.37848" lon="4.43442">
        <ele>1004.9</ele>
        <time>2015-12-20T10:51:24Z</time>
      </trkpt>
      <trkpt lat="45.3785" lon="4.43434">
        <ele>1005.1</ele>
        <time>2015-12-20T10:51:25Z</time>
      </trkpt>
      <trkpt lat="45.37854" lon="4.43426">
        <ele>1004.3</ele>
        <time>2015-12-20T10:51:26Z</time>
      </trkpt>
      <trkpt lat="45.37857" lon="4.43421">
        <ele>1003.8</ele>
        <time>2015-12-20T10:51:27Z</time>
      </trkpt>
      <trkpt lat="45.37862" lon="4.43418">
        <ele>1002.3</ele>
        <time>2015-12-20T10:51:28Z</time>
      </trkpt>
      <trkpt lat="45.37867" lon="4.43418">
        <ele>1000.5</ele>
        <time>2015-12-20T10:51:29Z</time>
      </trkpt>
      <trkpt lat="45.37873" lon="4.43419">
        <ele>998.4</ele>
        <time>2015-12-20T10:51:30Z</time>
      </trkpt>
      <trkpt lat="45.37878" lon="4.43422">
        <ele>997.1</ele>
        <time>2015-12-20T10:51:31Z</time>
      </trkpt>
      <trkpt lat="45.37884" lon="4.43424">
        <ele>996.4</ele>
        <time>2015-12-20T10:51:32Z</time>
      </trkpt>
      <trkpt lat="45.37889" lon="4.43427">
        <ele>995.5</ele>
        <time>2015-12-20T10:51:33Z</time>
      </trkpt>
      <trkpt lat="45.37893" lon="4.43429">
        <ele>994.7</ele>
        <time>2015-12-20T10:51:34Z</time>
      </trkpt>
      <trkpt lat="45.37898" lon="4.43432">
        <ele>993.8</ele>
        <time>2015-12-20T10:51:35Z</time>
      </trkpt>
      <trkpt lat="45.37902" lon="4.43435">
        <ele>993.1</ele>
        <time>2015-12-20T10:51:36Z</time>
      </trkpt>
      <trkpt lat="45.37906" lon="4.43435">
        <ele>992.4</ele>
        <time>2015-12-20T10:51:37Z</time>
      </trkpt>
      <trkpt lat="45.3791" lon="4.43439">
        <ele>991.5</ele>
        <time>2015-12-20T10:51:38Z</time>
      </trkpt>
      <trkpt lat="45.37915" lon="4.4344">
        <ele>990.8</ele>
        <time>2015-12-20T10:51:39Z</time>
      </trkpt>
      <trkpt lat="45.37919" lon="4.4344">
        <ele>990.2</ele>
        <time>2015-12-20T10:51:40Z</time>
      </trkpt>
      <trkpt lat="45.37923" lon="4.43439">
        <ele>989.9</ele>
        <time>2015-12-20T10:51:41Z</time>
      </trkpt>
      <trkpt lat="45.37926" lon="4.43439">
        <ele>989.5</ele>
        <time>2015-12-20T10:51:42Z</time>
      </trkpt>
      <trkpt lat="45.3793" lon="4.43439">
        <ele>989.1</ele>
        <time>2015-12-20T10:51:43Z</time>
      </trkpt>
      <trkpt lat="45.37933" lon="4.43439">
        <ele>988.7</ele>
        <time>2015-12-20T10:51:44Z</time>
      </trkpt>
      <trkpt lat="45.37937" lon="4.43438">
        <ele>988.3</ele>
        <time>2015-12-20T10:51:45Z</time>
      </trkpt>
      <trkpt lat="45.37941" lon="4.43438">
        <ele>987.8</ele>
        <time>2015-12-20T10:51:46Z</time>
      </trkpt>
      <trkpt lat="45.37945" lon="4.43439">
        <ele>987.3</ele>
        <time>2015-12-20T10:51:47Z</time>
      </trkpt>
      <trkpt lat="45.37948" lon="4.43439">
        <ele>986.7</ele>
        <time>2015-12-20T10:51:48Z</time>
      </trkpt>
      <trkpt lat="45.37952" lon="4.4344">
        <ele>986.1</ele>
        <time>2015-12-20T10:51:49Z</time>
      </trkpt>
      <trkpt lat="45.37957" lon="4.4344">
        <ele>985.5</ele>
        <time>2015-12-20T10:51:50Z</time>
      </trkpt>
      <trkpt lat="45.37961" lon="4.4344">
        <ele>985</ele>
        <time>2015-12-20T10:51:51Z</time>
      </trkpt>
      <trkpt lat="45.37965" lon="4.43438">
        <ele>984.7</ele>
        <time>2015-12-20T10:51:52Z</time>
      </trkpt>
      <trkpt lat="45.37969" lon="4.43433">
        <ele>985</ele>
        <time>2015-12-20T10:51:53Z</time>
      </trkpt>
      <trkpt lat="45.37974" lon="4.4343">
        <ele>984.9</ele>
        <time>2015-12-20T10:51:54Z</time>
      </trkpt>
      <trkpt lat="45.37977" lon="4.43426">
        <ele>985.1</ele>
        <time>2015-12-20T10:51:55Z</time>
      </trkpt>
      <trkpt lat="45.3798" lon="4.43422">
        <ele>985.5</ele>
        <time>2015-12-20T10:51:56Z</time>
      </trkpt>
      <trkpt lat="45.37983" lon="4.43417">
        <ele>985.8</ele>
        <time>2015-12-20T10:51:57Z</time>
      </trkpt>
      <trkpt lat="45.37985" lon="4.43412">
        <ele>986.4</ele>
        <time>2015-12-20T10:51:58Z</time>
      </trkpt>
      <trkpt lat="45.37988" lon="4.43408">
        <ele>986.8</ele>
        <time>2015-12-20T10:51:59Z</time>
      </trkpt>
      <trkpt lat="45.3799" lon="4.43404">
        <ele>987.2</ele>
        <time>2015-12-20T10:52:00Z</time>
      </trkpt>
      <trkpt lat="45.37992" lon="4.434">
        <ele>987.5</ele>
        <time>2015-12-20T10:52:01Z</time>
      </trkpt>
      <trkpt lat="45.37993" lon="4.43397">
        <ele>987.7</ele>
        <time>2015-12-20T10:52:02Z</time>
      </trkpt>
      <trkpt lat="45.37994" lon="4.4339">
        <ele>988.9</ele>
        <time>2015-12-20T10:52:04Z</time>
      </trkpt>
      <trkpt lat="45.37995" lon="4.43386">
        <ele>989.4</ele>
        <time>2015-12-20T10:52:05Z</time>
      </trkpt>
      <trkpt lat="45.37997" lon="4.43382">
        <ele>989.7</ele>
        <time>2015-12-20T10:52:06Z</time>
      </trkpt>
      <trkpt lat="45.38" lon="4.43384">
        <ele>989</ele>
        <time>2015-12-20T10:52:24Z</time>
      </trkpt>
      <trkpt lat="45.38" lon="4.43392">
        <ele>987.6</ele>
        <time>2015-12-20T10:52:26Z</time>
      </trkpt>
      <trkpt lat="45.38" lon="4.43397">
        <ele>986.8</ele>
        <time>2015-12-20T10:52:27Z</time>
      </trkpt>
      <trkpt lat="45.38" lon="4.43403">
        <ele>985.8</ele>
        <time>2015-12-20T10:52:28Z</time>
      </trkpt>
      <trkpt lat="45.38" lon="4.43408">
        <ele>984.9</ele>
        <time>2015-12-20T10:52:29Z</time>
      </trkpt>
      <trkpt lat="45.38" lon="4.43415">
        <ele>983.9</ele>
        <time>2015-12-20T10:52:30Z</time>
      </trkpt>
      <trkpt lat="45.37998" lon="4.43423">
        <ele>982.7</ele>
        <time>2015-12-20T10:52:31Z</time>
      </trkpt>
      <trkpt lat="45.37997" lon="4.43428">
        <ele>982</ele>
        <time>2015-12-20T10:52:32Z</time>
      </trkpt>
      <trkpt lat="45.37996" lon="4.43433">
        <ele>981.2</ele>
        <time>2015-12-20T10:52:33Z</time>
      </trkpt>
      <trkpt lat="45.37994" lon="4.43441">
        <ele>980.3</ele>
        <time>2015-12-20T10:52:34Z</time>
      </trkpt>
      <trkpt lat="45.37993" lon="4.43447">
        <ele>979.5</ele>
        <time>2015-12-20T10:52:35Z</time>
      </trkpt>
      <trkpt lat="45.37991" lon="4.43454">
        <ele>978.5</ele>
        <time>2015-12-20T10:52:36Z</time>
      </trkpt>
      <trkpt lat="45.37989" lon="4.43461">
        <ele>977.5</ele>
        <time>2015-12-20T10:52:37Z</time>
      </trkpt>
      <trkpt lat="45.37988" lon="4.43467">
        <ele>976.4</ele>
        <time>2015-12-20T10:52:38Z</time>
      </trkpt>
      <trkpt lat="45.37987" lon="4.43474">
        <ele>975.5</ele>
        <time>2015-12-20T10:52:39Z</time>
      </trkpt>
      <trkpt lat="45.37985" lon="4.4348">
        <ele>974.6</ele>
        <time>2015-12-20T10:52:40Z</time>
      </trkpt>
      <trkpt lat="45.37984" lon="4.43485">
        <ele>973.8</ele>
        <time>2015-12-20T10:52:41Z</time>
      </trkpt>
      <trkpt lat="45.37983" lon="4.43492">
        <ele>972.7</ele>
        <time>2015-12-20T10:52:42Z</time>
      </trkpt>
      <trkpt lat="45.37981" lon="4.43498">
        <ele>971.7</ele>
        <time>2015-12-20T10:52:43Z</time>
      </trkpt>
      <trkpt lat="45.37979" lon="4.43505">
        <ele>970.7</ele>
        <time>2015-12-20T10:52:44Z</time>
      </trkpt>
      <trkpt lat="45.37977" lon="4.43512">
        <ele>969.8</ele>
        <time>2015-12-20T10:52:45Z</time>
      </trkpt>
      <trkpt lat="45.37975" lon="4.43519">
        <ele>968.9</ele>
        <time>2015-12-20T10:52:46Z</time>
      </trkpt>
      <trkpt lat="45.37972" lon="4.43525">
        <ele>968</ele>
        <time>2015-12-20T10:52:47Z</time>
      </trkpt>
      <trkpt lat="45.3797" lon="4.43532">
        <ele>967.1</ele>
        <time>2015-12-20T10:52:48Z</time>
      </trkpt>
      <trkpt lat="45.37967" lon="4.43539">
        <ele>966.2</ele>
        <time>2015-12-20T10:52:49Z</time>
      </trkpt>
      <trkpt lat="45.37965" lon="4.43545">
        <ele>965.5</ele>
        <time>2015-12-20T10:52:50Z</time>
      </trkpt>
      <trkpt lat="45.37963" lon="4.4355">
        <ele>965</ele>
        <time>2015-12-20T10:52:51Z</time>
      </trkpt>
      <trkpt lat="45.3796" lon="4.43555">
        <ele>964.6</ele>
        <time>2015-12-20T10:52:52Z</time>
      </trkpt>
      <trkpt lat="45.37957" lon="4.4356">
        <ele>964.1</ele>
        <time>2015-12-20T10:52:53Z</time>
      </trkpt>
      <trkpt lat="45.37954" lon="4.43566">
        <ele>964</ele>
        <time>2015-12-20T10:52:54Z</time>
      </trkpt>
      <trkpt lat="45.37951" lon="4.4357">
        <ele>963.9</ele>
        <time>2015-12-20T10:52:55Z</time>
      </trkpt>
      <trkpt lat="45.37948" lon="4.43574">
        <ele>963.9</ele>
        <time>2015-12-20T10:52:56Z</time>
      </trkpt>
      <trkpt lat="45.37947" lon="4.43578">
        <ele>963.6</ele>
        <time>2015-12-20T10:52:57Z</time>
      </trkpt>
      <trkpt lat="45.37945" lon="4.43583">
        <ele>963.1</ele>
        <time>2015-12-20T10:52:58Z</time>
      </trkpt>
      <trkpt lat="45.37945" lon="4.43588">
        <ele>962.4</ele>
        <time>2015-12-20T10:52:59Z</time>
      </trkpt>
      <trkpt lat="45.37946" lon="4.43593">
        <ele>961.5</ele>
        <time>2015-12-20T10:53:00Z</time>
      </trkpt>
      <trkpt lat="45.37947" lon="4.436">
        <ele>960</ele>
        <time>2015-12-20T10:53:02Z</time>
      </trkpt>
      <trkpt lat="45.37947" lon="4.43607">
        <ele>958.9</ele>
        <time>2015-12-20T10:53:04Z</time>
      </trkpt>
      <trkpt lat="45.37946" lon="4.43614">
        <ele>958</ele>
        <time>2015-12-20T10:53:06Z</time>
      </trkpt>
      <trkpt lat="45.37945" lon="4.43622">
        <ele>957</ele>
        <time>2015-12-20T10:53:08Z</time>
      </trkpt>
      <trkpt lat="45.37945" lon="4.43626">
        <ele>956.5</ele>
        <time>2015-12-20T10:53:09Z</time>
      </trkpt>
      <trkpt lat="45.37944" lon="4.43633">
        <ele>956</ele>
        <time>2015-12-20T10:53:11Z</time>
      </trkpt>
      <trkpt lat="45.37943" lon="4.43637">
        <ele>955.7</ele>
        <time>2015-12-20T10:53:12Z</time>
      </trkpt>
      <trkpt lat="45.37942" lon="4.43641">
        <ele>955.4</ele>
        <time>2015-12-20T10:53:13Z</time>
      </trkpt>
      <trkpt lat="45.37941" lon="4.43645">
        <ele>955.2</ele>
        <time>2015-12-20T10:53:14Z</time>
      </trkpt>
      <trkpt lat="45.3794" lon="4.4365">
        <ele>955</ele>
        <time>2015-12-20T10:53:15Z</time>
      </trkpt>
      <trkpt lat="45.37939" lon="4.43653">
        <ele>954.9</ele>
        <time>2015-12-20T10:53:16Z</time>
      </trkpt>
      <trkpt lat="45.37937" lon="4.43659">
        <ele>954.5</ele>
        <time>2015-12-20T10:53:18Z</time>
      </trkpt>
      <trkpt lat="45.37936" lon="4.43665">
        <ele>954.2</ele>
        <time>2015-12-20T10:53:20Z</time>
      </trkpt>
      <trkpt lat="45.37935" lon="4.43671">
        <ele>953.9</ele>
        <time>2015-12-20T10:53:22Z</time>
      </trkpt>
      <trkpt lat="45.37933" lon="4.43676">
        <ele>953.7</ele>
        <time>2015-12-20T10:53:24Z</time>
      </trkpt>
      <trkpt lat="45.37931" lon="4.43681">
        <ele>953.7</ele>
        <time>2015-12-20T10:53:26Z</time>
      </trkpt>
      <trkpt lat="45.3793" lon="4.43687">
        <ele>953.5</ele>
        <time>2015-12-20T10:53:28Z</time>
      </trkpt>
      <trkpt lat="45.37929" lon="4.43692">
        <ele>953</ele>
        <time>2015-12-20T10:53:30Z</time>
      </trkpt>
      <trkpt lat="45.37929" lon="4.43697">
        <ele>952.4</ele>
        <time>2015-12-20T10:53:32Z</time>
      </trkpt>
      <trkpt lat="45.37929" lon="4.43704">
        <ele>951.7</ele>
        <time>2015-12-20T10:53:34Z</time>
      </trkpt>
      <trkpt lat="45.37929" lon="4.43711">
        <ele>951.2</ele>
        <time>2015-12-20T10:53:36Z</time>
      </trkpt>
      <trkpt lat="45.37928" lon="4.43715">
        <ele>951.2</ele>
        <time>2015-12-20T10:53:37Z</time>
      </trkpt>
      <trkpt lat="45.37928" lon="4.43719">
        <ele>951.1</ele>
        <time>2015-12-20T10:53:38Z</time>
      </trkpt>
      <trkpt lat="45.37928" lon="4.43724">
        <ele>951</ele>
        <time>2015-12-20T10:53:39Z</time>
      </trkpt>
      <trkpt lat="45.37929" lon="4.43728">
        <ele>950.8</ele>
        <time>2015-12-20T10:53:40Z</time>
      </trkpt>
      <trkpt lat="45.37929" lon="4.43732">
        <ele>950.7</ele>
        <time>2015-12-20T10:53:41Z</time>
      </trkpt>
      <trkpt lat="45.37931" lon="4.43739">
        <ele>950.2</ele>
        <time>2015-12-20T10:53:43Z</time>
      </trkpt>
      <trkpt lat="45.37932" lon="4.43745">
        <ele>949.7</ele>
        <time>2015-12-20T10:53:45Z</time>
      </trkpt>
      <trkpt lat="45.37932" lon="4.43751">
        <ele>949.5</ele>
        <time>2015-12-20T10:53:47Z</time>
      </trkpt>
      <trkpt lat="45.37933" lon="4.43755">
        <ele>949.4</ele>
        <time>2015-12-20T10:53:49Z</time>
      </trkpt>
      <trkpt lat="45.37934" lon="4.43759">
        <ele>949</ele>
        <time>2015-12-20T10:53:51Z</time>
      </trkpt>
      <trkpt lat="45.37934" lon="4.43765">
        <ele>948.6</ele>
        <time>2015-12-20T10:53:53Z</time>
      </trkpt>
      <trkpt lat="45.37935" lon="4.4377">
        <ele>948.3</ele>
        <time>2015-12-20T10:53:55Z</time>
      </trkpt>
      <trkpt lat="45.37937" lon="4.43776">
        <ele>947.7</ele>
        <time>2015-12-20T10:53:57Z</time>
      </trkpt>
      <trkpt lat="45.37939" lon="4.43783">
        <ele>947.1</ele>
        <time>2015-12-20T10:53:59Z</time>
      </trkpt>
      <trkpt lat="45.37939" lon="4.4379">
        <ele>946.7</ele>
        <time>2015-12-20T10:54:01Z</time>
      </trkpt>
      <trkpt lat="45.37941" lon="4.43797">
        <ele>946.6</ele>
        <time>2015-12-20T10:54:03Z</time>
      </trkpt>
      <trkpt lat="45.37942" lon="4.43804">
        <ele>946.4</ele>
        <time>2015-12-20T10:54:05Z</time>
      </trkpt>
      <trkpt lat="45.37944" lon="4.43808">
        <ele>946.1</ele>
        <time>2015-12-20T10:54:06Z</time>
      </trkpt>
      <trkpt lat="45.37946" lon="4.43814">
        <ele>945.6</ele>
        <time>2015-12-20T10:54:08Z</time>
      </trkpt>
      <trkpt lat="45.37949" lon="4.43819">
        <ele>945</ele>
        <time>2015-12-20T10:54:10Z</time>
      </trkpt>
      <trkpt lat="45.37951" lon="4.43823">
        <ele>944.5</ele>
        <time>2015-12-20T10:54:12Z</time>
      </trkpt>
      <trkpt lat="45.37953" lon="4.43829">
        <ele>943.9</ele>
        <time>2015-12-20T10:54:14Z</time>
      </trkpt>
      <trkpt lat="45.37956" lon="4.43834">
        <ele>943.5</ele>
        <time>2015-12-20T10:54:16Z</time>
      </trkpt>
      <trkpt lat="45.37957" lon="4.43838">
        <ele>943.2</ele>
        <time>2015-12-20T10:54:17Z</time>
      </trkpt>
      <trkpt lat="45.37958" lon="4.43843">
        <ele>943</ele>
        <time>2015-12-20T10:54:18Z</time>
      </trkpt>
      <trkpt lat="45.37959" lon="4.43848">
        <ele>942.8</ele>
        <time>2015-12-20T10:54:19Z</time>
      </trkpt>
      <trkpt lat="45.37961" lon="4.43854">
        <ele>942.6</ele>
        <time>2015-12-20T10:54:20Z</time>
      </trkpt>
      <trkpt lat="45.37964" lon="4.43859">
        <ele>942.3</ele>
        <time>2015-12-20T10:54:21Z</time>
      </trkpt>
      <trkpt lat="45.37967" lon="4.43863">
        <ele>941.8</ele>
        <time>2015-12-20T10:54:22Z</time>
      </trkpt>
      <trkpt lat="45.37969" lon="4.43866">
        <ele>941.4</ele>
        <time>2015-12-20T10:54:23Z</time>
      </trkpt>
      <trkpt lat="45.37974" lon="4.43868">
        <ele>940.4</ele>
        <time>2015-12-20T10:54:25Z</time>
      </trkpt>
      <trkpt lat="45.37978" lon="4.43868">
        <ele>939.6</ele>
        <time>2015-12-20T10:54:27Z</time>
      </trkpt>
      <trkpt lat="45.37981" lon="4.43868">
        <ele>938.9</ele>
        <time>2015-12-20T10:54:29Z</time>
      </trkpt>
      <trkpt lat="45.37985" lon="4.4387">
        <ele>938.1</ele>
        <time>2015-12-20T10:54:32Z</time>
      </trkpt>
      <trkpt lat="45.37988" lon="4.43872">
        <ele>937.6</ele>
        <time>2015-12-20T10:54:43Z</time>
      </trkpt>
      <trkpt lat="45.3799" lon="4.43871">
        <ele>937</ele>
        <time>2015-12-20T10:54:45Z</time>
      </trkpt>
      <trkpt lat="45.37994" lon="4.43869">
        <ele>936.2</ele>
        <time>2015-12-20T10:54:47Z</time>
      </trkpt>
      <trkpt lat="45.37997" lon="4.43869">
        <ele>935.5</ele>
        <time>2015-12-20T10:54:49Z</time>
      </trkpt>
      <trkpt lat="45.38001" lon="4.43869">
        <ele>934.7</ele>
        <time>2015-12-20T10:54:51Z</time>
      </trkpt>
      <trkpt lat="45.38005" lon="4.43869">
        <ele>933.8</ele>
        <time>2015-12-20T10:54:53Z</time>
      </trkpt>
      <trkpt lat="45.38009" lon="4.43869">
        <ele>933</ele>
        <time>2015-12-20T10:54:55Z</time>
      </trkpt>
      <trkpt lat="45.38013" lon="4.43869">
        <ele>932.2</ele>
        <time>2015-12-20T10:54:57Z</time>
      </trkpt>
      <trkpt lat="45.38017" lon="4.43869">
        <ele>931.3</ele>
        <time>2015-12-20T10:54:59Z</time>
      </trkpt>
      <trkpt lat="45.38021" lon="4.43869">
        <ele>930.4</ele>
        <time>2015-12-20T10:55:01Z</time>
      </trkpt>
      <trkpt lat="45.38025" lon="4.4387">
        <ele>929.6</ele>
        <time>2015-12-20T10:55:03Z</time>
      </trkpt>
      <trkpt lat="45.38029" lon="4.43871">
        <ele>928.8</ele>
        <time>2015-12-20T10:55:05Z</time>
      </trkpt>
      <trkpt lat="45.38033" lon="4.43872">
        <ele>927.9</ele>
        <time>2015-12-20T10:55:07Z</time>
      </trkpt>
      <trkpt lat="45.38036" lon="4.43873">
        <ele>927.2</ele>
        <time>2015-12-20T10:55:09Z</time>
      </trkpt>
      <trkpt lat="45.3804" lon="4.43874">
        <ele>926.4</ele>
        <time>2015-12-20T10:55:11Z</time>
      </trkpt>
      <trkpt lat="45.38043" lon="4.43874">
        <ele>926</ele>
        <time>2015-12-20T10:55:13Z</time>
      </trkpt>
      <trkpt lat="45.38047" lon="4.43875">
        <ele>925.9</ele>
        <time>2015-12-20T10:55:15Z</time>
      </trkpt>
      <trkpt lat="45.38051" lon="4.43876">
        <ele>925.9</ele>
        <time>2015-12-20T10:55:17Z</time>
      </trkpt>
      <trkpt lat="45.38054" lon="4.43877">
        <ele>926</ele>
        <time>2015-12-20T10:55:19Z</time>
      </trkpt>
      <trkpt lat="45.38058" lon="4.43878">
        <ele>926</ele>
        <time>2015-12-20T10:55:21Z</time>
      </trkpt>
      <trkpt lat="45.38062" lon="4.43878">
        <ele>926.1</ele>
        <time>2015-12-20T10:55:23Z</time>
      </trkpt>
      <trkpt lat="45.38065" lon="4.43879">
        <ele>926.1</ele>
        <time>2015-12-20T10:55:25Z</time>
      </trkpt>
      <trkpt lat="45.38068" lon="4.4388">
        <ele>926.2</ele>
        <time>2015-12-20T10:55:28Z</time>
      </trkpt>
      <trkpt lat="45.38072" lon="4.43879">
        <ele>926</ele>
        <time>2015-12-20T10:55:31Z</time>
      </trkpt>
      <trkpt lat="45.38074" lon="4.43881">
        <ele>926.3</ele>
        <time>2015-12-20T10:55:33Z</time>
      </trkpt>
      <trkpt lat="45.38075" lon="4.43887">
        <ele>927.3</ele>
        <time>2015-12-20T10:55:35Z</time>
      </trkpt>
      <trkpt lat="45.38072" lon="4.43892">
        <ele>928.3</ele>
        <time>2015-12-20T10:55:37Z</time>
      </trkpt>
      <trkpt lat="45.3807" lon="4.43898">
        <ele>929.3</ele>
        <time>2015-12-20T10:55:39Z</time>
      </trkpt>
      <trkpt lat="45.38071" lon="4.43903">
        <ele>930.2</ele>
        <time>2015-12-20T10:55:41Z</time>
      </trkpt>
      <trkpt lat="45.38073" lon="4.43907">
        <ele>931</ele>
        <time>2015-12-20T10:55:43Z</time>
      </trkpt>
      <trkpt lat="45.38076" lon="4.43909">
        <ele>931.4</ele>
        <time>2015-12-20T10:55:45Z</time>
      </trkpt>
      <trkpt lat="45.3808" lon="4.43908">
        <ele>931.2</ele>
        <time>2015-12-20T10:55:47Z</time>
      </trkpt>
      <trkpt lat="45.38084" lon="4.43906">
        <ele>930.8</ele>
        <time>2015-12-20T10:55:49Z</time>
      </trkpt>
      <trkpt lat="45.38089" lon="4.43905">
        <ele>930.5</ele>
        <time>2015-12-20T10:55:51Z</time>
      </trkpt>
      <trkpt lat="45.38093" lon="4.43905">
        <ele>930.5</ele>
        <time>2015-12-20T10:55:53Z</time>
      </trkpt>
      <trkpt lat="45.38098" lon="4.43906">
        <ele>930.7</ele>
        <time>2015-12-20T10:55:55Z</time>
      </trkpt>
      <trkpt lat="45.38102" lon="4.43907">
        <ele>930.9</ele>
        <time>2015-12-20T10:55:57Z</time>
      </trkpt>
      <trkpt lat="45.38107" lon="4.43908">
        <ele>931.2</ele>
        <time>2015-12-20T10:55:59Z</time>
      </trkpt>
      <trkpt lat="45.38111" lon="4.4391">
        <ele>931.6</ele>
        <time>2015-12-20T10:56:01Z</time>
      </trkpt>
      <trkpt lat="45.38116" lon="4.43912">
        <ele>931.9</ele>
        <time>2015-12-20T10:56:03Z</time>
      </trkpt>
      <trkpt lat="45.38121" lon="4.43913">
        <ele>932.2</ele>
        <time>2015-12-20T10:56:05Z</time>
      </trkpt>
      <trkpt lat="45.38126" lon="4.43915">
        <ele>932.5</ele>
        <time>2015-12-20T10:56:07Z</time>
      </trkpt>
      <trkpt lat="45.38131" lon="4.43917">
        <ele>932.8</ele>
        <time>2015-12-20T10:56:09Z</time>
      </trkpt>
      <trkpt lat="45.38136" lon="4.43919">
        <ele>933.1</ele>
        <time>2015-12-20T10:56:11Z</time>
      </trkpt>
      <trkpt lat="45.38141" lon="4.43922">
        <ele>933.4</ele>
        <time>2015-12-20T10:56:13Z</time>
      </trkpt>
      <trkpt lat="45.38144" lon="4.43924">
        <ele>933.7</ele>
        <time>2015-12-20T10:56:14Z</time>
      </trkpt>
      <trkpt lat="45.38146" lon="4.43925">
        <ele>934</ele>
        <time>2015-12-20T10:56:15Z</time>
      </trkpt>
      <trkpt lat="45.38149" lon="4.43927">
        <ele>934.3</ele>
        <time>2015-12-20T10:56:16Z</time>
      </trkpt>
      <trkpt lat="45.38151" lon="4.43929">
        <ele>934.6</ele>
        <time>2015-12-20T10:56:17Z</time>
      </trkpt>
      <trkpt lat="45.38154" lon="4.43931">
        <ele>935</ele>
        <time>2015-12-20T10:56:18Z</time>
      </trkpt>
      <trkpt lat="45.38157" lon="4.43933">
        <ele>935.4</ele>
        <time>2015-12-20T10:56:19Z</time>
      </trkpt>
      <trkpt lat="45.38159" lon="4.43935">
        <ele>935.8</ele>
        <time>2015-12-20T10:56:20Z</time>
      </trkpt>
      <trkpt lat="45.38161" lon="4.43937">
        <ele>936.1</ele>
        <time>2015-12-20T10:56:21Z</time>
      </trkpt>
      <trkpt lat="45.38164" lon="4.43939">
        <ele>936.6</ele>
        <time>2015-12-20T10:56:22Z</time>
      </trkpt>
      <trkpt lat="45.38166" lon="4.43942">
        <ele>937</ele>
        <time>2015-12-20T10:56:23Z</time>
      </trkpt>
      <trkpt lat="45.38171" lon="4.43946">
        <ele>937.8</ele>
        <time>2015-12-20T10:56:25Z</time>
      </trkpt>
      <trkpt lat="45.38175" lon="4.43949">
        <ele>938.5</ele>
        <time>2015-12-20T10:56:27Z</time>
      </trkpt>
      <trkpt lat="45.38178" lon="4.43951">
        <ele>938.9</ele>
        <time>2015-12-20T10:56:28Z</time>
      </trkpt>
      <trkpt lat="45.3818" lon="4.43953">
        <ele>939.2</ele>
        <time>2015-12-20T10:56:29Z</time>
      </trkpt>
      <trkpt lat="45.38183" lon="4.43954">
        <ele>939.6</ele>
        <time>2015-12-20T10:56:30Z</time>
      </trkpt>
      <trkpt lat="45.38187" lon="4.43958">
        <ele>940.4</ele>
        <time>2015-12-20T10:56:32Z</time>
      </trkpt>
      <trkpt lat="45.38191" lon="4.43962">
        <ele>941.1</ele>
        <time>2015-12-20T10:56:34Z</time>
      </trkpt>
      <trkpt lat="45.38195" lon="4.43966">
        <ele>941.7</ele>
        <time>2015-12-20T10:56:36Z</time>
      </trkpt>
      <trkpt lat="45.382" lon="4.43969">
        <ele>942.2</ele>
        <time>2015-12-20T10:56:38Z</time>
      </trkpt>
      <trkpt lat="45.38205" lon="4.43973">
        <ele>942.7</ele>
        <time>2015-12-20T10:56:40Z</time>
      </trkpt>
      <trkpt lat="45.38209" lon="4.43976">
        <ele>943.1</ele>
        <time>2015-12-20T10:56:42Z</time>
      </trkpt>
      <trkpt lat="45.38212" lon="4.43979">
        <ele>943.3</ele>
        <time>2015-12-20T10:56:44Z</time>
      </trkpt>
      <trkpt lat="45.38216" lon="4.43983">
        <ele>943.7</ele>
        <time>2015-12-20T10:56:46Z</time>
      </trkpt>
      <trkpt lat="45.38219" lon="4.43987">
        <ele>944.1</ele>
        <time>2015-12-20T10:56:48Z</time>
      </trkpt>
      <trkpt lat="45.38222" lon="4.43991">
        <ele>944.6</ele>
        <time>2015-12-20T10:56:50Z</time>
      </trkpt>
      <trkpt lat="45.38224" lon="4.43995">
        <ele>945</ele>
        <time>2015-12-20T10:56:52Z</time>
      </trkpt>
      <trkpt lat="45.38227" lon="4.43998">
        <ele>945.3</ele>
        <time>2015-12-20T10:56:54Z</time>
      </trkpt>
      <trkpt lat="45.38229" lon="4.44001">
        <ele>945.6</ele>
        <time>2015-12-20T10:56:57Z</time>
      </trkpt>
      <trkpt lat="45.38232" lon="4.44004">
        <ele>945.7</ele>
        <time>2015-12-20T10:57:00Z</time>
      </trkpt>
      <trkpt lat="45.38236" lon="4.44005">
        <ele>945.6</ele>
        <time>2015-12-20T10:57:03Z</time>
      </trkpt>
      <trkpt lat="45.38238" lon="4.44008">
        <ele>945.7</ele>
        <time>2015-12-20T10:58:01Z</time>
      </trkpt>
      <trkpt lat="45.38241" lon="4.44013">
        <ele>946.2</ele>
        <time>2015-12-20T10:58:03Z</time>
      </trkpt>
      <trkpt lat="45.38243" lon="4.44016">
        <ele>946.7</ele>
        <time>2015-12-20T10:58:04Z</time>
      </trkpt>
      <trkpt lat="45.38244" lon="4.4402">
        <ele>947.2</ele>
        <time>2015-12-20T10:58:05Z</time>
      </trkpt>
      <trkpt lat="45.38246" lon="4.44024">
        <ele>947.6</ele>
        <time>2015-12-20T10:58:06Z</time>
      </trkpt>
      <trkpt lat="45.38248" lon="4.44028">
        <ele>947.9</ele>
        <time>2015-12-20T10:58:07Z</time>
      </trkpt>
      <trkpt lat="45.3825" lon="4.44031">
        <ele>948.3</ele>
        <time>2015-12-20T10:58:08Z</time>
      </trkpt>
      <trkpt lat="45.38252" lon="4.44036">
        <ele>948.8</ele>
        <time>2015-12-20T10:58:10Z</time>
      </trkpt>
      <trkpt lat="45.38253" lon="4.44043">
        <ele>949.8</ele>
        <time>2015-12-20T10:58:12Z</time>
      </trkpt>
      <trkpt lat="45.38254" lon="4.44049">
        <ele>950.2</ele>
        <time>2015-12-20T10:58:14Z</time>
      </trkpt>
      <trkpt lat="45.38254" lon="4.44053">
        <ele>950.6</ele>
        <time>2015-12-20T10:58:16Z</time>
      </trkpt>
      <trkpt lat="45.38255" lon="4.44059">
        <ele>950.9</ele>
        <time>2015-12-20T10:58:18Z</time>
      </trkpt>
      <trkpt lat="45.38254" lon="4.44064">
        <ele>951.5</ele>
        <time>2015-12-20T10:58:20Z</time>
      </trkpt>
      <trkpt lat="45.38253" lon="4.44069">
        <ele>952.1</ele>
        <time>2015-12-20T10:58:22Z</time>
      </trkpt>
      <trkpt lat="45.38257" lon="4.44075">
        <ele>952.1</ele>
        <time>2015-12-20T10:58:25Z</time>
      </trkpt>
      <trkpt lat="45.38261" lon="4.44077">
        <ele>951.8</ele>
        <time>2015-12-20T10:58:26Z</time>
      </trkpt>
      <trkpt lat="45.38265" lon="4.44078">
        <ele>951.2</ele>
        <time>2015-12-20T10:58:27Z</time>
      </trkpt>
      <trkpt lat="45.38274" lon="4.44074">
        <ele>949.7</ele>
        <time>2015-12-20T10:58:28Z</time>
      </trkpt>
      <trkpt lat="45.38278" lon="4.4407">
        <ele>948.9</ele>
        <time>2015-12-20T10:58:29Z</time>
      </trkpt>
      <trkpt lat="45.38282" lon="4.44068">
        <ele>948.2</ele>
        <time>2015-12-20T10:58:30Z</time>
      </trkpt>
      <trkpt lat="45.38286" lon="4.44066">
        <ele>947.5</ele>
        <time>2015-12-20T10:58:31Z</time>
      </trkpt>
      <trkpt lat="45.3829" lon="4.44065">
        <ele>946.8</ele>
        <time>2015-12-20T10:58:32Z</time>
      </trkpt>
      <trkpt lat="45.38294" lon="4.44064">
        <ele>946.6</ele>
        <time>2015-12-20T10:58:33Z</time>
      </trkpt>
      <trkpt lat="45.38297" lon="4.44064">
        <ele>946.5</ele>
        <time>2015-12-20T10:58:34Z</time>
      </trkpt>
      <trkpt lat="45.38301" lon="4.44065">
        <ele>946.5</ele>
        <time>2015-12-20T10:58:36Z</time>
      </trkpt>
      <trkpt lat="45.38305" lon="4.44066">
        <ele>946.5</ele>
        <time>2015-12-20T10:58:38Z</time>
      </trkpt>
      <trkpt lat="45.38301" lon="4.44063">
        <ele>946.4</ele>
        <time>2015-12-20T10:58:43Z</time>
      </trkpt>
      <trkpt lat="45.38297" lon="4.44063">
        <ele>946.4</ele>
        <time>2015-12-20T10:58:44Z</time>
      </trkpt>
      <trkpt lat="45.38293" lon="4.44062">
        <ele>946.4</ele>
        <time>2015-12-20T10:58:45Z</time>
      </trkpt>
      <trkpt lat="45.38289" lon="4.44062">
        <ele>946.7</ele>
        <time>2015-12-20T10:58:46Z</time>
      </trkpt>
      <trkpt lat="45.38286" lon="4.44062">
        <ele>947.3</ele>
        <time>2015-12-20T10:58:47Z</time>
      </trkpt>
      <trkpt lat="45.38282" lon="4.44064">
        <ele>947.8</ele>
        <time>2015-12-20T10:58:48Z</time>
      </trkpt>
      <trkpt lat="45.38279" lon="4.44066">
        <ele>948.4</ele>
        <time>2015-12-20T10:58:49Z</time>
      </trkpt>
      <trkpt lat="45.38275" lon="4.44068">
        <ele>949.1</ele>
        <time>2015-12-20T10:58:50Z</time>
      </trkpt>
      <trkpt lat="45.38272" lon="4.44071">
        <ele>949.7</ele>
        <time>2015-12-20T10:58:51Z</time>
      </trkpt>
      <trkpt lat="45.38269" lon="4.44073">
        <ele>950.3</ele>
        <time>2015-12-20T10:58:52Z</time>
      </trkpt>
      <trkpt lat="45.38266" lon="4.44075">
        <ele>950.8</ele>
        <time>2015-12-20T10:58:53Z</time>
      </trkpt>
      <trkpt lat="45.38262" lon="4.44076">
        <ele>951.5</ele>
        <time>2015-12-20T10:58:55Z</time>
      </trkpt>
      <trkpt lat="45.38259" lon="4.44073">
        <ele>951.7</ele>
        <time>2015-12-20T10:58:57Z</time>
      </trkpt>
      <trkpt lat="45.38255" lon="4.44069">
        <ele>951.8</ele>
        <time>2015-12-20T10:58:59Z</time>
      </trkpt>
      <trkpt lat="45.38252" lon="4.4407">
        <ele>952.2</ele>
        <time>2015-12-20T10:59:01Z</time>
      </trkpt>
      <trkpt lat="45.38252" lon="4.44074">
        <ele>952.7</ele>
        <time>2015-12-20T10:59:07Z</time>
      </trkpt>
    </trkseg>
  </trk>
</gpx>